<?xml version="1.0" encoding="UTF-8" standalone="no" ?>
<gpx xmlns="http://www.topografix.com/GPX/1/1" xmlns:xsi="http://www.w3.org/2001/XMLSchema-instance" xsi:schemaLocation="http://www.topografix.com/GPX/1/1 http://www.topografix.com/GPX/1/1/gpx.xsd" version="1.1" creator="VisuGPX - https://www.visugpx.com">
  <metadata>
    <name>LaBala0316</name>
    <desc><![CDATA[sortie de chantier, remise à l'eau, préparation, tour de Groix
avec Johan et Gauvain]]></desc>
  </metadata>
  <trk>
    <name><![CDATA[Tracé actuel: 04 MARS 2016 15:34]]></name>
    <trkseg>
  </trk>
  <trk>
    <name><![CDATA[Tracé actuel: 06 MARS 2016 15:44]]></name>
    <trkseg>
  </trk>
  <trk>
    <name><![CDATA[Tracé actuel: 06 MARS 2016 15:45]]></name>
    <trkseg>
  </trk>
  <trk>
    <name><![CDATA[Tracé actuel: 06 MARS 2016 16:19]]></name>
    <trkseg>
  </trk>
  <trk>
    <name><![CDATA[Tracé actuel: 06 MARS 2016 16:20]]></name>
    <trkseg>
  </trk>
  <trk>
    <name><![CDATA[Tracé actuel: 06 MARS 2016 16:33]]></name>
    <trkseg>
  </trk>
  <trk>
    <name><![CDATA[Tracé actuel: 27 AVR 2016 18:08]]></name>
    <trkseg>
  </trk>
  <trk>
    <name><![CDATA[Tracé actuel: 27 AVR 2016 18:09]]></name>
    <trkseg>
  </trk>
  <trk>
    <name><![CDATA[Tracé actuel: 28 AVR 2016 15:18]]></name>
    <trkseg>
      <trkpt lat="47.79772" lon="-3.27739">
        <ele>2.06</ele>
        <time>2016-04-28T13:18:04Z</time>
      </trkpt>
      <trkpt lat="47.79769" lon="-3.27732">
        <ele>4.94</ele>
        <time>2016-04-28T13:18:12Z</time>
      </trkpt>
      <trkpt lat="47.79758" lon="-3.27727">
        <ele>3.98</ele>
        <time>2016-04-28T13:18:26Z</time>
      </trkpt>
    </trkseg>
  </trk>
  <trk>
    <name><![CDATA[Tracé actuel: 28 AVR 2016 15:18]]></name>
    <trkseg>
      <trkpt lat="47.79756" lon="-3.27737">
        <ele>2.06</ele>
        <time>2016-04-28T13:18:38Z</time>
      </trkpt>
      <trkpt lat="47.79754" lon="-3.27755">
        <ele>2.06</ele>
        <time>2016-04-28T13:18:52Z</time>
      </trkpt>
      <trkpt lat="47.79751" lon="-3.2776">
        <ele>2.06</ele>
        <time>2016-04-28T13:18:56Z</time>
      </trkpt>
      <trkpt lat="47.79743" lon="-3.2777">
        <ele>2.54</ele>
        <time>2016-04-28T13:19:06Z</time>
      </trkpt>
      <trkpt lat="47.7973" lon="-3.27768">
        <ele>2.54</ele>
        <time>2016-04-28T13:19:18Z</time>
      </trkpt>
      <trkpt lat="47.79727" lon="-3.27768">
        <ele>2.54</ele>
        <time>2016-04-28T13:19:22Z</time>
      </trkpt>
      <trkpt lat="47.79716" lon="-3.27753">
        <ele>1.58</ele>
        <time>2016-04-28T13:19:35Z</time>
      </trkpt>
      <trkpt lat="47.79711" lon="-3.27751">
        <ele>0.62</ele>
        <time>2016-04-28T13:19:39Z</time>
      </trkpt>
      <trkpt lat="47.79696" lon="-3.27743">
        <ele>-0.34</ele>
        <time>2016-04-28T13:19:54Z</time>
      </trkpt>
      <trkpt lat="47.79686" lon="-3.27738">
        <ele>1.58</ele>
        <time>2016-04-28T13:20:07Z</time>
      </trkpt>
      <trkpt lat="47.79674" lon="-3.27731">
        <ele>3.02</ele>
        <time>2016-04-28T13:20:23Z</time>
      </trkpt>
      <trkpt lat="47.7967" lon="-3.27729">
        <ele>3.02</ele>
        <time>2016-04-28T13:20:27Z</time>
      </trkpt>
      <trkpt lat="47.79666" lon="-3.27728">
        <ele>3.02</ele>
        <time>2016-04-28T13:20:31Z</time>
      </trkpt>
      <trkpt lat="47.7966" lon="-3.27724">
        <ele>3.5</ele>
        <time>2016-04-28T13:20:47Z</time>
      </trkpt>
      <trkpt lat="47.79658" lon="-3.27722">
        <ele>4.46</ele>
        <time>2016-04-28T13:21:05Z</time>
      </trkpt>
      <trkpt lat="47.79658" lon="-3.27723">
        <ele>3.98</ele>
        <time>2016-04-28T13:21:16Z</time>
      </trkpt>
      <trkpt lat="47.79652" lon="-3.27721">
        <ele>3.5</ele>
        <time>2016-04-28T13:21:22Z</time>
      </trkpt>
      <trkpt lat="47.79645" lon="-3.27715">
        <ele>3.98</ele>
        <time>2016-04-28T13:21:30Z</time>
      </trkpt>
      <trkpt lat="47.7964" lon="-3.27712">
        <ele>3.98</ele>
        <time>2016-04-28T13:21:47Z</time>
      </trkpt>
      <trkpt lat="47.79638" lon="-3.27711">
        <ele>5.42</ele>
        <time>2016-04-28T13:22:14Z</time>
      </trkpt>
      <trkpt lat="47.79627" lon="-3.27704">
        <ele>5.91</ele>
        <time>2016-04-28T13:22:27Z</time>
      </trkpt>
      <trkpt lat="47.79625" lon="-3.27704">
        <ele>5.42</ele>
        <time>2016-04-28T13:22:29Z</time>
      </trkpt>
      <trkpt lat="47.79614" lon="-3.27696">
        <ele>5.42</ele>
        <time>2016-04-28T13:22:41Z</time>
      </trkpt>
      <trkpt lat="47.79595" lon="-3.27687">
        <ele>3.5</ele>
        <time>2016-04-28T13:22:57Z</time>
      </trkpt>
      <trkpt lat="47.79576" lon="-3.27682">
        <ele>3.02</ele>
        <time>2016-04-28T13:23:16Z</time>
      </trkpt>
      <trkpt lat="47.79569" lon="-3.27681">
        <ele>1.1</ele>
        <time>2016-04-28T13:23:22Z</time>
      </trkpt>
      <trkpt lat="47.79562" lon="-3.27682">
        <ele>0.14</ele>
        <time>2016-04-28T13:23:28Z</time>
      </trkpt>
      <trkpt lat="47.79554" lon="-3.27681">
        <ele>1.1</ele>
        <time>2016-04-28T13:23:34Z</time>
      </trkpt>
      <trkpt lat="47.79545" lon="-3.2768">
        <ele>-0.34</ele>
        <time>2016-04-28T13:23:43Z</time>
      </trkpt>
      <trkpt lat="47.79535" lon="-3.27681">
        <ele>-0.82</ele>
        <time>2016-04-28T13:23:54Z</time>
      </trkpt>
      <trkpt lat="47.79525" lon="-3.27686">
        <ele>-1.79</ele>
        <time>2016-04-28T13:24:04Z</time>
      </trkpt>
      <trkpt lat="47.79507" lon="-3.27697">
        <ele>-2.27</ele>
        <time>2016-04-28T13:24:20Z</time>
      </trkpt>
      <trkpt lat="47.79499" lon="-3.277">
        <ele>-1.79</ele>
        <time>2016-04-28T13:24:27Z</time>
      </trkpt>
      <trkpt lat="47.79482" lon="-3.27721">
        <ele>0.14</ele>
        <time>2016-04-28T13:24:43Z</time>
      </trkpt>
      <trkpt lat="47.79473" lon="-3.27745">
        <ele>2.06</ele>
        <time>2016-04-28T13:25:00Z</time>
      </trkpt>
      <trkpt lat="47.79475" lon="-3.2776">
        <ele>2.06</ele>
        <time>2016-04-28T13:25:10Z</time>
      </trkpt>
      <trkpt lat="47.7948" lon="-3.27766">
        <ele>0.62</ele>
        <time>2016-04-28T13:25:17Z</time>
      </trkpt>
      <trkpt lat="47.79482" lon="-3.27775">
        <ele>0.62</ele>
        <time>2016-04-28T13:25:26Z</time>
      </trkpt>
      <trkpt lat="47.79476" lon="-3.27778">
        <ele>1.1</ele>
        <time>2016-04-28T13:25:39Z</time>
      </trkpt>
      <trkpt lat="47.79478" lon="-3.27782">
        <ele>-5.15</ele>
        <time>2016-04-28T13:26:00Z</time>
      </trkpt>
      <trkpt lat="47.79477" lon="-3.27786">
        <ele>-9.48</ele>
        <time>2016-04-28T13:26:10Z</time>
      </trkpt>
      <trkpt lat="47.79473" lon="-3.27785">
        <ele>-17.17</ele>
        <time>2016-04-28T13:26:29Z</time>
      </trkpt>
      <trkpt lat="47.7947" lon="-3.2778">
        <ele>-15.72</ele>
        <time>2016-04-28T13:26:48Z</time>
      </trkpt>
      <trkpt lat="47.79468" lon="-3.27776">
        <ele>-14.76</ele>
        <time>2016-04-28T13:27:14Z</time>
      </trkpt>
      <trkpt lat="47.79469" lon="-3.27775">
        <ele>-14.28</ele>
        <time>2016-04-28T13:27:36Z</time>
      </trkpt>
      <trkpt lat="47.79468" lon="-3.27777">
        <ele>-11.4</ele>
        <time>2016-04-28T13:28:00Z</time>
      </trkpt>
      <trkpt lat="47.79468" lon="-3.27776">
        <ele>-9.96</ele>
        <time>2016-04-28T13:28:25Z</time>
      </trkpt>
      <trkpt lat="47.79468" lon="-3.27776">
        <ele>-9</ele>
        <time>2016-04-28T13:28:48Z</time>
      </trkpt>
      <trkpt lat="47.79468" lon="-3.27775">
        <ele>-8.51</ele>
        <time>2016-04-28T13:29:07Z</time>
      </trkpt>
      <trkpt lat="47.79468" lon="-3.27775">
        <ele>-7.55</ele>
        <time>2016-04-28T13:29:24Z</time>
      </trkpt>
      <trkpt lat="47.79468" lon="-3.27775">
        <ele>-6.59</ele>
        <time>2016-04-28T13:29:49Z</time>
      </trkpt>
      <trkpt lat="47.7947" lon="-3.27779">
        <ele>-6.11</ele>
        <time>2016-04-28T13:30:12Z</time>
      </trkpt>
      <trkpt lat="47.7947" lon="-3.27778">
        <ele>-5.15</ele>
        <time>2016-04-28T13:30:35Z</time>
      </trkpt>
      <trkpt lat="47.79468" lon="-3.27777">
        <ele>-4.19</ele>
        <time>2016-04-28T13:30:59Z</time>
      </trkpt>
      <trkpt lat="47.79468" lon="-3.27776">
        <ele>-2.75</ele>
        <time>2016-04-28T13:31:23Z</time>
      </trkpt>
      <trkpt lat="47.79467" lon="-3.27778">
        <ele>-2.27</ele>
        <time>2016-04-28T13:31:53Z</time>
      </trkpt>
      <trkpt lat="47.79468" lon="-3.2778">
        <ele>-1.79</ele>
        <time>2016-04-28T13:32:18Z</time>
      </trkpt>
      <trkpt lat="47.79468" lon="-3.27778">
        <ele>-1.3</ele>
        <time>2016-04-28T13:32:46Z</time>
      </trkpt>
      <trkpt lat="47.79468" lon="-3.27778">
        <ele>-1.3</ele>
        <time>2016-04-28T13:33:15Z</time>
      </trkpt>
      <trkpt lat="47.79472" lon="-3.27779">
        <ele>-0.34</ele>
        <time>2016-04-28T13:33:34Z</time>
      </trkpt>
      <trkpt lat="47.79472" lon="-3.27774">
        <ele>5.42</ele>
        <time>2016-04-28T13:33:47Z</time>
      </trkpt>
      <trkpt lat="47.79471" lon="-3.27778">
        <ele>4.94</ele>
        <time>2016-04-28T13:33:58Z</time>
      </trkpt>
      <trkpt lat="47.79472" lon="-3.27779">
        <ele>5.42</ele>
        <time>2016-04-28T13:34:07Z</time>
      </trkpt>
      <trkpt lat="47.79472" lon="-3.2778">
        <ele>4.94</ele>
        <time>2016-04-28T13:34:20Z</time>
      </trkpt>
      <trkpt lat="47.79472" lon="-3.27787">
        <ele>1.58</ele>
        <time>2016-04-28T13:34:34Z</time>
      </trkpt>
      <trkpt lat="47.79474" lon="-3.27789">
        <ele>0.14</ele>
        <time>2016-04-28T13:34:50Z</time>
      </trkpt>
      <trkpt lat="47.7947" lon="-3.2779">
        <ele>0.14</ele>
        <time>2016-04-28T13:35:09Z</time>
      </trkpt>
      <trkpt lat="47.79471" lon="-3.27792">
        <ele>-0.34</ele>
        <time>2016-04-28T13:35:29Z</time>
      </trkpt>
      <trkpt lat="47.79471" lon="-3.27792">
        <ele>-1.3</ele>
        <time>2016-04-28T13:35:52Z</time>
      </trkpt>
      <trkpt lat="47.7947" lon="-3.27793">
        <ele>-1.79</ele>
        <time>2016-04-28T13:36:14Z</time>
      </trkpt>
      <trkpt lat="47.79471" lon="-3.27792">
        <ele>-2.27</ele>
        <time>2016-04-28T13:36:40Z</time>
      </trkpt>
      <trkpt lat="47.79472" lon="-3.27792">
        <ele>-2.27</ele>
        <time>2016-04-28T13:36:45Z</time>
      </trkpt>
      <trkpt lat="47.79766" lon="-3.27726">
        <ele>3.02</ele>
        <time>2016-04-28T15:18:24Z</time>
      </trkpt>
      <trkpt lat="47.79764" lon="-3.27725">
        <ele>2.54</ele>
        <time>2016-04-28T15:18:46Z</time>
      </trkpt>
      <trkpt lat="47.79763" lon="-3.27722">
        <ele>2.06</ele>
        <time>2016-04-28T15:19:08Z</time>
      </trkpt>
      <trkpt lat="47.79762" lon="-3.27724">
        <ele>1.58</ele>
        <time>2016-04-28T15:19:28Z</time>
      </trkpt>
      <trkpt lat="47.79761" lon="-3.27721">
        <ele>-0.34</ele>
        <time>2016-04-28T15:19:58Z</time>
      </trkpt>
      <trkpt lat="47.7976" lon="-3.27719">
        <ele>-0.34</ele>
        <time>2016-04-28T15:20:22Z</time>
      </trkpt>
      <trkpt lat="47.79761" lon="-3.27721">
        <ele>-0.82</ele>
        <time>2016-04-28T15:20:51Z</time>
      </trkpt>
      <trkpt lat="47.79765" lon="-3.27724">
        <ele>-0.82</ele>
        <time>2016-04-28T15:21:20Z</time>
      </trkpt>
      <trkpt lat="47.79771" lon="-3.27723">
        <ele>-0.34</ele>
        <time>2016-04-28T15:21:31Z</time>
      </trkpt>
      <trkpt lat="47.79773" lon="-3.27722">
        <ele>0.14</ele>
        <time>2016-04-28T15:21:33Z</time>
      </trkpt>
      <trkpt lat="47.79774" lon="-3.27704">
        <ele>1.58</ele>
        <time>2016-04-28T15:21:47Z</time>
      </trkpt>
      <trkpt lat="47.79768" lon="-3.27704">
        <ele>1.58</ele>
        <time>2016-04-28T15:22:00Z</time>
      </trkpt>
      <trkpt lat="47.79759" lon="-3.277">
        <ele>-1.79</ele>
        <time>2016-04-28T15:22:07Z</time>
      </trkpt>
      <trkpt lat="47.79744" lon="-3.2769">
        <ele>-4.67</ele>
        <time>2016-04-28T15:22:18Z</time>
      </trkpt>
      <trkpt lat="47.79734" lon="-3.27683">
        <ele>-6.11</ele>
        <time>2016-04-28T15:22:26Z</time>
      </trkpt>
      <trkpt lat="47.7973" lon="-3.27681">
        <ele>-6.11</ele>
        <time>2016-04-28T15:22:28Z</time>
      </trkpt>
      <trkpt lat="47.79724" lon="-3.27676">
        <ele>-7.07</ele>
        <time>2016-04-28T15:22:32Z</time>
      </trkpt>
      <trkpt lat="47.79697" lon="-3.27658">
        <ele>-6.11</ele>
        <time>2016-04-28T15:22:49Z</time>
      </trkpt>
      <trkpt lat="47.79676" lon="-3.27646">
        <ele>-4.67</ele>
        <time>2016-04-28T15:23:02Z</time>
      </trkpt>
      <trkpt lat="47.7967" lon="-3.27643">
        <ele>-4.19</ele>
        <time>2016-04-28T15:23:06Z</time>
      </trkpt>
      <trkpt lat="47.79637" lon="-3.27625">
        <ele>-1.79</ele>
        <time>2016-04-28T15:23:27Z</time>
      </trkpt>
      <trkpt lat="47.79611" lon="-3.27617">
        <ele>-0.34</ele>
        <time>2016-04-28T15:23:42Z</time>
      </trkpt>
      <trkpt lat="47.79578" lon="-3.27607">
        <ele>1.58</ele>
        <time>2016-04-28T15:23:59Z</time>
      </trkpt>
      <trkpt lat="47.79551" lon="-3.27603">
        <ele>1.58</ele>
        <time>2016-04-28T15:24:13Z</time>
      </trkpt>
      <trkpt lat="47.79513" lon="-3.27602">
        <ele>-0.82</ele>
        <time>2016-04-28T15:24:32Z</time>
      </trkpt>
      <trkpt lat="47.79486" lon="-3.27614">
        <ele>-0.82</ele>
        <time>2016-04-28T15:24:46Z</time>
      </trkpt>
      <trkpt lat="47.79463" lon="-3.27636">
        <ele>-2.75</ele>
        <time>2016-04-28T15:24:59Z</time>
      </trkpt>
      <trkpt lat="47.79429" lon="-3.27673">
        <ele>-4.67</ele>
        <time>2016-04-28T15:25:20Z</time>
      </trkpt>
      <trkpt lat="47.79413" lon="-3.27691">
        <ele>-4.67</ele>
        <time>2016-04-28T15:25:31Z</time>
      </trkpt>
      <trkpt lat="47.79397" lon="-3.27713">
        <ele>-5.63</ele>
        <time>2016-04-28T15:25:43Z</time>
      </trkpt>
      <trkpt lat="47.79388" lon="-3.27739">
        <ele>-5.15</ele>
        <time>2016-04-28T15:25:57Z</time>
      </trkpt>
      <trkpt lat="47.79378" lon="-3.27782">
        <ele>-3.23</ele>
        <time>2016-04-28T15:26:16Z</time>
      </trkpt>
      <trkpt lat="47.79369" lon="-3.27824">
        <ele>-2.27</ele>
        <time>2016-04-28T15:26:33Z</time>
      </trkpt>
      <trkpt lat="47.79365" lon="-3.27861">
        <ele>-0.34</ele>
        <time>2016-04-28T15:26:48Z</time>
      </trkpt>
      <trkpt lat="47.79362" lon="-3.27889">
        <ele>-0.34</ele>
        <time>2016-04-28T15:26:59Z</time>
      </trkpt>
      <trkpt lat="47.79361" lon="-3.27898">
        <ele>-0.34</ele>
        <time>2016-04-28T15:27:03Z</time>
      </trkpt>
      <trkpt lat="47.79359" lon="-3.27937">
        <ele>-0.34</ele>
        <time>2016-04-28T15:27:19Z</time>
      </trkpt>
      <trkpt lat="47.79361" lon="-3.27971">
        <ele>-1.79</ele>
        <time>2016-04-28T15:27:34Z</time>
      </trkpt>
      <trkpt lat="47.7936" lon="-3.28021">
        <ele>-3.23</ele>
        <time>2016-04-28T15:27:55Z</time>
      </trkpt>
      <trkpt lat="47.79359" lon="-3.28064">
        <ele>-4.67</ele>
        <time>2016-04-28T15:28:13Z</time>
      </trkpt>
      <trkpt lat="47.79353" lon="-3.28117">
        <ele>-4.19</ele>
        <time>2016-04-28T15:28:34Z</time>
      </trkpt>
      <trkpt lat="47.79346" lon="-3.2816">
        <ele>-3.23</ele>
        <time>2016-04-28T15:28:50Z</time>
      </trkpt>
      <trkpt lat="47.79338" lon="-3.28194">
        <ele>-2.75</ele>
        <time>2016-04-28T15:29:03Z</time>
      </trkpt>
      <trkpt lat="47.79333" lon="-3.28232">
        <ele>0.14</ele>
        <time>2016-04-28T15:29:17Z</time>
      </trkpt>
      <trkpt lat="47.79324" lon="-3.28271">
        <ele>-0.34</ele>
        <time>2016-04-28T15:29:32Z</time>
      </trkpt>
      <trkpt lat="47.79319" lon="-3.28309">
        <ele>-0.82</ele>
        <time>2016-04-28T15:29:46Z</time>
      </trkpt>
      <trkpt lat="47.79319" lon="-3.28318">
        <ele>-1.3</ele>
        <time>2016-04-28T15:29:49Z</time>
      </trkpt>
      <trkpt lat="47.7932" lon="-3.28355">
        <ele>-2.27</ele>
        <time>2016-04-28T15:30:03Z</time>
      </trkpt>
      <trkpt lat="47.79319" lon="-3.28404">
        <ele>-1.79</ele>
        <time>2016-04-28T15:30:21Z</time>
      </trkpt>
      <trkpt lat="47.79314" lon="-3.28442">
        <ele>-3.23</ele>
        <time>2016-04-28T15:30:36Z</time>
      </trkpt>
      <trkpt lat="47.79311" lon="-3.28478">
        <ele>-2.27</ele>
        <time>2016-04-28T15:30:49Z</time>
      </trkpt>
      <trkpt lat="47.79311" lon="-3.28524">
        <ele>-1.3</ele>
        <time>2016-04-28T15:31:06Z</time>
      </trkpt>
      <trkpt lat="47.7931" lon="-3.28582">
        <ele>-2.75</ele>
        <time>2016-04-28T15:31:28Z</time>
      </trkpt>
      <trkpt lat="47.79306" lon="-3.28639">
        <ele>-2.27</ele>
        <time>2016-04-28T15:31:49Z</time>
      </trkpt>
      <trkpt lat="47.79294" lon="-3.28699">
        <ele>-0.82</ele>
        <time>2016-04-28T15:32:13Z</time>
      </trkpt>
      <trkpt lat="47.79281" lon="-3.28756">
        <ele>-1.79</ele>
        <time>2016-04-28T15:32:34Z</time>
      </trkpt>
      <trkpt lat="47.79277" lon="-3.28814">
        <ele>-2.75</ele>
        <time>2016-04-28T15:32:55Z</time>
      </trkpt>
      <trkpt lat="47.79275" lon="-3.28863">
        <ele>-1.79</ele>
        <time>2016-04-28T15:33:12Z</time>
      </trkpt>
      <trkpt lat="47.79273" lon="-3.28907">
        <ele>-2.27</ele>
        <time>2016-04-28T15:33:28Z</time>
      </trkpt>
      <trkpt lat="47.79262" lon="-3.28975">
        <ele>-0.34</ele>
        <time>2016-04-28T15:33:53Z</time>
      </trkpt>
      <trkpt lat="47.79244" lon="-3.29018">
        <ele>-1.79</ele>
        <time>2016-04-28T15:34:12Z</time>
      </trkpt>
      <trkpt lat="47.7922" lon="-3.29051">
        <ele>-0.82</ele>
        <time>2016-04-28T15:34:29Z</time>
      </trkpt>
      <trkpt lat="47.792" lon="-3.29084">
        <ele>-0.82</ele>
        <time>2016-04-28T15:34:45Z</time>
      </trkpt>
      <trkpt lat="47.79173" lon="-3.29123">
        <ele>-0.34</ele>
        <time>2016-04-28T15:35:05Z</time>
      </trkpt>
      <trkpt lat="47.79155" lon="-3.29154">
        <ele>-2.27</ele>
        <time>2016-04-28T15:35:20Z</time>
      </trkpt>
      <trkpt lat="47.79129" lon="-3.29174">
        <ele>-3.23</ele>
        <time>2016-04-28T15:35:37Z</time>
      </trkpt>
      <trkpt lat="47.79098" lon="-3.29186">
        <ele>-4.67</ele>
        <time>2016-04-28T15:35:54Z</time>
      </trkpt>
      <trkpt lat="47.79068" lon="-3.29192">
        <ele>-4.19</ele>
        <time>2016-04-28T15:36:10Z</time>
      </trkpt>
      <trkpt lat="47.79036" lon="-3.292">
        <ele>-5.15</ele>
        <time>2016-04-28T15:36:27Z</time>
      </trkpt>
      <trkpt lat="47.79004" lon="-3.29219">
        <ele>-4.67</ele>
        <time>2016-04-28T15:36:48Z</time>
      </trkpt>
      <trkpt lat="47.78982" lon="-3.29233">
        <ele>-3.71</ele>
        <time>2016-04-28T15:37:04Z</time>
      </trkpt>
      <trkpt lat="47.78958" lon="-3.29246">
        <ele>-5.63</ele>
        <time>2016-04-28T15:37:19Z</time>
      </trkpt>
      <trkpt lat="47.78929" lon="-3.29266">
        <ele>-7.55</ele>
        <time>2016-04-28T15:37:37Z</time>
      </trkpt>
      <trkpt lat="47.78903" lon="-3.29288">
        <ele>-6.59</ele>
        <time>2016-04-28T15:37:52Z</time>
      </trkpt>
      <trkpt lat="47.78877" lon="-3.29309">
        <ele>-6.59</ele>
        <time>2016-04-28T15:38:06Z</time>
      </trkpt>
      <trkpt lat="47.78854" lon="-3.29329">
        <ele>-6.11</ele>
        <time>2016-04-28T15:38:19Z</time>
      </trkpt>
      <trkpt lat="47.78823" lon="-3.29364">
        <ele>-4.67</ele>
        <time>2016-04-28T15:38:38Z</time>
      </trkpt>
      <trkpt lat="47.788" lon="-3.29382">
        <ele>-3.71</ele>
        <time>2016-04-28T15:38:50Z</time>
      </trkpt>
      <trkpt lat="47.78771" lon="-3.29408">
        <ele>-3.23</ele>
        <time>2016-04-28T15:39:07Z</time>
      </trkpt>
      <trkpt lat="47.78736" lon="-3.29429">
        <ele>-2.27</ele>
        <time>2016-04-28T15:39:25Z</time>
      </trkpt>
      <trkpt lat="47.78688" lon="-3.29456">
        <ele>-3.71</ele>
        <time>2016-04-28T15:39:49Z</time>
      </trkpt>
      <trkpt lat="47.78655" lon="-3.29468">
        <ele>-4.19</ele>
        <time>2016-04-28T15:40:05Z</time>
      </trkpt>
      <trkpt lat="47.78606" lon="-3.2948">
        <ele>-2.75</ele>
        <time>2016-04-28T15:40:28Z</time>
      </trkpt>
      <trkpt lat="47.78554" lon="-3.29485">
        <ele>-3.23</ele>
        <time>2016-04-28T15:40:52Z</time>
      </trkpt>
      <trkpt lat="47.78512" lon="-3.29484">
        <ele>-3.71</ele>
        <time>2016-04-28T15:41:11Z</time>
      </trkpt>
      <trkpt lat="47.78467" lon="-3.29483">
        <ele>-4.19</ele>
        <time>2016-04-28T15:41:33Z</time>
      </trkpt>
      <trkpt lat="47.78439" lon="-3.2946">
        <ele>-5.15</ele>
        <time>2016-04-28T15:41:50Z</time>
      </trkpt>
      <trkpt lat="47.78402" lon="-3.29414">
        <ele>-3.71</ele>
        <time>2016-04-28T15:42:16Z</time>
      </trkpt>
      <trkpt lat="47.7837" lon="-3.29388">
        <ele>-3.71</ele>
        <time>2016-04-28T15:42:34Z</time>
      </trkpt>
      <trkpt lat="47.78342" lon="-3.29341">
        <ele>-1.79</ele>
        <time>2016-04-28T15:42:56Z</time>
      </trkpt>
      <trkpt lat="47.78341" lon="-3.29285">
        <ele>-0.82</ele>
        <time>2016-04-28T15:43:17Z</time>
      </trkpt>
      <trkpt lat="47.78346" lon="-3.29226">
        <ele>0.14</ele>
        <time>2016-04-28T15:43:40Z</time>
      </trkpt>
      <trkpt lat="47.78343" lon="-3.29165">
        <ele>0.62</ele>
        <time>2016-04-28T15:44:04Z</time>
      </trkpt>
      <trkpt lat="47.78335" lon="-3.29112">
        <ele>-0.34</ele>
        <time>2016-04-28T15:44:24Z</time>
      </trkpt>
      <trkpt lat="47.78318" lon="-3.29057">
        <ele>-0.82</ele>
        <time>2016-04-28T15:44:45Z</time>
      </trkpt>
      <trkpt lat="47.78286" lon="-3.29004">
        <ele>-1.79</ele>
        <time>2016-04-28T15:45:09Z</time>
      </trkpt>
      <trkpt lat="47.78261" lon="-3.2897">
        <ele>-0.82</ele>
        <time>2016-04-28T15:45:26Z</time>
      </trkpt>
      <trkpt lat="47.78231" lon="-3.28934">
        <ele>-1.3</ele>
        <time>2016-04-28T15:45:44Z</time>
      </trkpt>
      <trkpt lat="47.78199" lon="-3.28902">
        <ele>-0.82</ele>
        <time>2016-04-28T15:46:03Z</time>
      </trkpt>
      <trkpt lat="47.7817" lon="-3.28884">
        <ele>-1.79</ele>
        <time>2016-04-28T15:46:18Z</time>
      </trkpt>
      <trkpt lat="47.78137" lon="-3.28872">
        <ele>-0.34</ele>
        <time>2016-04-28T15:46:34Z</time>
      </trkpt>
      <trkpt lat="47.781" lon="-3.28859">
        <ele>0.14</ele>
        <time>2016-04-28T15:46:52Z</time>
      </trkpt>
      <trkpt lat="47.78076" lon="-3.28848">
        <ele>-1.3</ele>
        <time>2016-04-28T15:47:03Z</time>
      </trkpt>
      <trkpt lat="47.7804" lon="-3.28816">
        <ele>-0.82</ele>
        <time>2016-04-28T15:47:24Z</time>
      </trkpt>
      <trkpt lat="47.78" lon="-3.28781">
        <ele>-0.82</ele>
        <time>2016-04-28T15:47:47Z</time>
      </trkpt>
      <trkpt lat="47.7796" lon="-3.2875">
        <ele>-0.82</ele>
        <time>2016-04-28T15:48:10Z</time>
      </trkpt>
      <trkpt lat="47.77934" lon="-3.28732">
        <ele>-1.79</ele>
        <time>2016-04-28T15:48:25Z</time>
      </trkpt>
      <trkpt lat="47.77916" lon="-3.28704">
        <ele>-2.75</ele>
        <time>2016-04-28T15:48:39Z</time>
      </trkpt>
      <trkpt lat="47.77887" lon="-3.28666">
        <ele>-1.3</ele>
        <time>2016-04-28T15:49:01Z</time>
      </trkpt>
      <trkpt lat="47.7787" lon="-3.28644">
        <ele>-1.79</ele>
        <time>2016-04-28T15:49:14Z</time>
      </trkpt>
      <trkpt lat="47.77853" lon="-3.28628">
        <ele>-2.27</ele>
        <time>2016-04-28T15:49:26Z</time>
      </trkpt>
      <trkpt lat="47.77843" lon="-3.28623">
        <ele>-3.23</ele>
        <time>2016-04-28T15:49:33Z</time>
      </trkpt>
      <trkpt lat="47.77826" lon="-3.28605">
        <ele>-1.3</ele>
        <time>2016-04-28T15:49:49Z</time>
      </trkpt>
      <trkpt lat="47.77805" lon="-3.28581">
        <ele>-1.3</ele>
        <time>2016-04-28T15:50:08Z</time>
      </trkpt>
      <trkpt lat="47.7778" lon="-3.28552">
        <ele>-0.34</ele>
        <time>2016-04-28T15:50:27Z</time>
      </trkpt>
      <trkpt lat="47.77766" lon="-3.28535">
        <ele>-0.82</ele>
        <time>2016-04-28T15:50:38Z</time>
      </trkpt>
      <trkpt lat="47.77748" lon="-3.28519">
        <ele>-1.3</ele>
        <time>2016-04-28T15:50:54Z</time>
      </trkpt>
      <trkpt lat="47.77746" lon="-3.28518">
        <ele>-0.82</ele>
        <time>2016-04-28T15:50:56Z</time>
      </trkpt>
      <trkpt lat="47.77736" lon="-3.28509">
        <ele>-1.3</ele>
        <time>2016-04-28T15:51:06Z</time>
      </trkpt>
      <trkpt lat="47.77714" lon="-3.28484">
        <ele>-1.3</ele>
        <time>2016-04-28T15:51:27Z</time>
      </trkpt>
      <trkpt lat="47.77679" lon="-3.28462">
        <ele>0.62</ele>
        <time>2016-04-28T15:51:52Z</time>
      </trkpt>
      <trkpt lat="47.77666" lon="-3.28452">
        <ele>0.62</ele>
        <time>2016-04-28T15:52:02Z</time>
      </trkpt>
      <trkpt lat="47.7766" lon="-3.28446">
        <ele>1.1</ele>
        <time>2016-04-28T15:52:07Z</time>
      </trkpt>
      <trkpt lat="47.7763" lon="-3.28435">
        <ele>1.58</ele>
        <time>2016-04-28T15:52:28Z</time>
      </trkpt>
      <trkpt lat="47.77602" lon="-3.2843">
        <ele>-0.34</ele>
        <time>2016-04-28T15:52:46Z</time>
      </trkpt>
      <trkpt lat="47.77578" lon="-3.28431">
        <ele>-1.79</ele>
        <time>2016-04-28T15:53:02Z</time>
      </trkpt>
      <trkpt lat="47.77551" lon="-3.2843">
        <ele>-1.3</ele>
        <time>2016-04-28T15:53:20Z</time>
      </trkpt>
      <trkpt lat="47.77523" lon="-3.28433">
        <ele>-1.3</ele>
        <time>2016-04-28T15:53:39Z</time>
      </trkpt>
      <trkpt lat="47.77502" lon="-3.28437">
        <ele>-0.82</ele>
        <time>2016-04-28T15:53:55Z</time>
      </trkpt>
      <trkpt lat="47.77476" lon="-3.28446">
        <ele>-1.79</ele>
        <time>2016-04-28T15:54:13Z</time>
      </trkpt>
      <trkpt lat="47.77456" lon="-3.28454">
        <ele>-1.79</ele>
        <time>2016-04-28T15:54:26Z</time>
      </trkpt>
      <trkpt lat="47.77434" lon="-3.28465">
        <ele>-1.79</ele>
        <time>2016-04-28T15:54:42Z</time>
      </trkpt>
      <trkpt lat="47.77405" lon="-3.28484">
        <ele>-1.3</ele>
        <time>2016-04-28T15:55:04Z</time>
      </trkpt>
      <trkpt lat="47.77388" lon="-3.28498">
        <ele>-1.3</ele>
        <time>2016-04-28T15:55:32Z</time>
      </trkpt>
      <trkpt lat="47.77379" lon="-3.28505">
        <ele>-1.3</ele>
        <time>2016-04-28T15:56:07Z</time>
      </trkpt>
      <trkpt lat="47.77362" lon="-3.28517">
        <ele>-2.27</ele>
        <time>2016-04-28T15:56:42Z</time>
      </trkpt>
      <trkpt lat="47.77328" lon="-3.28532">
        <ele>-0.82</ele>
        <time>2016-04-28T15:57:06Z</time>
      </trkpt>
      <trkpt lat="47.77289" lon="-3.28546">
        <ele>-1.79</ele>
        <time>2016-04-28T15:57:32Z</time>
      </trkpt>
      <trkpt lat="47.77249" lon="-3.28566">
        <ele>-1.79</ele>
        <time>2016-04-28T15:57:58Z</time>
      </trkpt>
      <trkpt lat="47.77209" lon="-3.28586">
        <ele>-0.34</ele>
        <time>2016-04-28T15:58:25Z</time>
      </trkpt>
      <trkpt lat="47.77191" lon="-3.28598">
        <ele>-1.79</ele>
        <time>2016-04-28T15:58:38Z</time>
      </trkpt>
      <trkpt lat="47.77154" lon="-3.28607">
        <ele>0.14</ele>
        <time>2016-04-28T15:59:01Z</time>
      </trkpt>
      <trkpt lat="47.77118" lon="-3.28615">
        <ele>0.14</ele>
        <time>2016-04-28T15:59:23Z</time>
      </trkpt>
      <trkpt lat="47.77087" lon="-3.28625">
        <ele>0.62</ele>
        <time>2016-04-28T15:59:43Z</time>
      </trkpt>
      <trkpt lat="47.77041" lon="-3.28654">
        <ele>2.54</ele>
        <time>2016-04-28T16:00:13Z</time>
      </trkpt>
      <trkpt lat="47.77009" lon="-3.28685">
        <ele>2.06</ele>
        <time>2016-04-28T16:00:38Z</time>
      </trkpt>
      <trkpt lat="47.76981" lon="-3.28738">
        <ele>2.06</ele>
        <time>2016-04-28T16:01:09Z</time>
      </trkpt>
      <trkpt lat="47.76964" lon="-3.28773">
        <ele>0.62</ele>
        <time>2016-04-28T16:01:30Z</time>
      </trkpt>
      <trkpt lat="47.76946" lon="-3.28815">
        <ele>0.14</ele>
        <time>2016-04-28T16:01:55Z</time>
      </trkpt>
      <trkpt lat="47.76932" lon="-3.28867">
        <ele>-2.75</ele>
        <time>2016-04-28T16:02:22Z</time>
      </trkpt>
      <trkpt lat="47.76933" lon="-3.28913">
        <ele>-0.82</ele>
        <time>2016-04-28T16:02:45Z</time>
      </trkpt>
      <trkpt lat="47.76942" lon="-3.28945">
        <ele>-2.27</ele>
        <time>2016-04-28T16:03:04Z</time>
      </trkpt>
      <trkpt lat="47.76947" lon="-3.28966">
        <ele>-1.3</ele>
        <time>2016-04-28T16:03:16Z</time>
      </trkpt>
      <trkpt lat="47.76949" lon="-3.28974">
        <ele>-0.34</ele>
        <time>2016-04-28T16:03:20Z</time>
      </trkpt>
      <trkpt lat="47.76956" lon="-3.29001">
        <ele>-1.3</ele>
        <time>2016-04-28T16:03:35Z</time>
      </trkpt>
      <trkpt lat="47.76963" lon="-3.29025">
        <ele>-1.79</ele>
        <time>2016-04-28T16:03:49Z</time>
      </trkpt>
      <trkpt lat="47.76971" lon="-3.2906">
        <ele>-1.3</ele>
        <time>2016-04-28T16:04:09Z</time>
      </trkpt>
      <trkpt lat="47.76984" lon="-3.29107">
        <ele>0.14</ele>
        <time>2016-04-28T16:04:35Z</time>
      </trkpt>
      <trkpt lat="47.76997" lon="-3.2915">
        <ele>-0.34</ele>
        <time>2016-04-28T16:05:01Z</time>
      </trkpt>
      <trkpt lat="47.77011" lon="-3.29195">
        <ele>-0.82</ele>
        <time>2016-04-28T16:05:26Z</time>
      </trkpt>
      <trkpt lat="47.77025" lon="-3.29236">
        <ele>-0.82</ele>
        <time>2016-04-28T16:05:48Z</time>
      </trkpt>
      <trkpt lat="47.77049" lon="-3.29288">
        <ele>-1.3</ele>
        <time>2016-04-28T16:06:16Z</time>
      </trkpt>
      <trkpt lat="47.77076" lon="-3.29343">
        <ele>-0.82</ele>
        <time>2016-04-28T16:06:43Z</time>
      </trkpt>
      <trkpt lat="47.77098" lon="-3.29381">
        <ele>-0.82</ele>
        <time>2016-04-28T16:07:04Z</time>
      </trkpt>
      <trkpt lat="47.77118" lon="-3.29411">
        <ele>-0.82</ele>
        <time>2016-04-28T16:07:22Z</time>
      </trkpt>
      <trkpt lat="47.77129" lon="-3.29442">
        <ele>1.1</ele>
        <time>2016-04-28T16:07:38Z</time>
      </trkpt>
      <trkpt lat="47.77146" lon="-3.2949">
        <ele>1.58</ele>
        <time>2016-04-28T16:08:00Z</time>
      </trkpt>
      <trkpt lat="47.77172" lon="-3.29533">
        <ele>-0.82</ele>
        <time>2016-04-28T16:08:20Z</time>
      </trkpt>
      <trkpt lat="47.77205" lon="-3.29566">
        <ele>-3.23</ele>
        <time>2016-04-28T16:08:41Z</time>
      </trkpt>
      <trkpt lat="47.7723" lon="-3.29602">
        <ele>-2.75</ele>
        <time>2016-04-28T16:09:00Z</time>
      </trkpt>
      <trkpt lat="47.77246" lon="-3.29655">
        <ele>-1.3</ele>
        <time>2016-04-28T16:09:25Z</time>
      </trkpt>
      <trkpt lat="47.77229" lon="-3.29702">
        <ele>0.14</ele>
        <time>2016-04-28T16:09:51Z</time>
      </trkpt>
      <trkpt lat="47.77208" lon="-3.29749">
        <ele>-0.82</ele>
        <time>2016-04-28T16:10:19Z</time>
      </trkpt>
      <trkpt lat="47.77192" lon="-3.29795">
        <ele>-1.3</ele>
        <time>2016-04-28T16:10:44Z</time>
      </trkpt>
      <trkpt lat="47.77161" lon="-3.29835">
        <ele>-1.3</ele>
        <time>2016-04-28T16:11:12Z</time>
      </trkpt>
      <trkpt lat="47.7713" lon="-3.29864">
        <ele>-0.82</ele>
        <time>2016-04-28T16:11:36Z</time>
      </trkpt>
      <trkpt lat="47.77105" lon="-3.29893">
        <ele>-1.79</ele>
        <time>2016-04-28T16:11:57Z</time>
      </trkpt>
      <trkpt lat="47.77071" lon="-3.29907">
        <ele>-1.79</ele>
        <time>2016-04-28T16:12:20Z</time>
      </trkpt>
      <trkpt lat="47.7703" lon="-3.29933">
        <ele>0.62</ele>
        <time>2016-04-28T16:12:49Z</time>
      </trkpt>
      <trkpt lat="47.76993" lon="-3.29937">
        <ele>0.14</ele>
        <time>2016-04-28T16:13:13Z</time>
      </trkpt>
      <trkpt lat="47.76961" lon="-3.29945">
        <ele>0.62</ele>
        <time>2016-04-28T16:13:34Z</time>
      </trkpt>
      <trkpt lat="47.7693" lon="-3.29959">
        <ele>-1.3</ele>
        <time>2016-04-28T16:13:55Z</time>
      </trkpt>
      <trkpt lat="47.76903" lon="-3.29973">
        <ele>-1.3</ele>
        <time>2016-04-28T16:14:14Z</time>
      </trkpt>
      <trkpt lat="47.76875" lon="-3.29968">
        <ele>-1.3</ele>
        <time>2016-04-28T16:14:31Z</time>
      </trkpt>
      <trkpt lat="47.7683" lon="-3.29966">
        <ele>-1.3</ele>
        <time>2016-04-28T16:14:59Z</time>
      </trkpt>
      <trkpt lat="47.76797" lon="-3.29969">
        <ele>-2.27</ele>
        <time>2016-04-28T16:15:24Z</time>
      </trkpt>
      <trkpt lat="47.76768" lon="-3.29978">
        <ele>-2.27</ele>
        <time>2016-04-28T16:15:51Z</time>
      </trkpt>
      <trkpt lat="47.76751" lon="-3.29992">
        <ele>-2.75</ele>
        <time>2016-04-28T16:16:11Z</time>
      </trkpt>
      <trkpt lat="47.7673" lon="-3.3001">
        <ele>-2.27</ele>
        <time>2016-04-28T16:16:33Z</time>
      </trkpt>
      <trkpt lat="47.76705" lon="-3.30025">
        <ele>-3.23</ele>
        <time>2016-04-28T16:16:56Z</time>
      </trkpt>
      <trkpt lat="47.76685" lon="-3.30037">
        <ele>-1.3</ele>
        <time>2016-04-28T16:17:16Z</time>
      </trkpt>
      <trkpt lat="47.76663" lon="-3.30049">
        <ele>-2.75</ele>
        <time>2016-04-28T16:17:39Z</time>
      </trkpt>
      <trkpt lat="47.76648" lon="-3.3006">
        <ele>-0.82</ele>
        <time>2016-04-28T16:17:57Z</time>
      </trkpt>
      <trkpt lat="47.76644" lon="-3.30064">
        <ele>-0.82</ele>
        <time>2016-04-28T16:18:01Z</time>
      </trkpt>
      <trkpt lat="47.76642" lon="-3.30068">
        <ele>-0.82</ele>
        <time>2016-04-28T16:18:05Z</time>
      </trkpt>
      <trkpt lat="47.76626" lon="-3.30081">
        <ele>-1.79</ele>
        <time>2016-04-28T16:18:19Z</time>
      </trkpt>
      <trkpt lat="47.76613" lon="-3.3009">
        <ele>-4.19</ele>
        <time>2016-04-28T16:18:35Z</time>
      </trkpt>
      <trkpt lat="47.76599" lon="-3.30104">
        <ele>-5.15</ele>
        <time>2016-04-28T16:18:48Z</time>
      </trkpt>
      <trkpt lat="47.76565" lon="-3.30128">
        <ele>-2.75</ele>
        <time>2016-04-28T16:19:14Z</time>
      </trkpt>
      <trkpt lat="47.7654" lon="-3.30142">
        <ele>-3.23</ele>
        <time>2016-04-28T16:19:31Z</time>
      </trkpt>
      <trkpt lat="47.76519" lon="-3.30172">
        <ele>-2.75</ele>
        <time>2016-04-28T16:19:51Z</time>
      </trkpt>
      <trkpt lat="47.76496" lon="-3.302">
        <ele>-3.23</ele>
        <time>2016-04-28T16:20:10Z</time>
      </trkpt>
      <trkpt lat="47.76471" lon="-3.30227">
        <ele>-3.71</ele>
        <time>2016-04-28T16:20:29Z</time>
      </trkpt>
      <trkpt lat="47.76444" lon="-3.30264">
        <ele>-3.71</ele>
        <time>2016-04-28T16:20:51Z</time>
      </trkpt>
      <trkpt lat="47.76417" lon="-3.30297">
        <ele>-3.23</ele>
        <time>2016-04-28T16:21:10Z</time>
      </trkpt>
      <trkpt lat="47.76396" lon="-3.30325">
        <ele>-1.79</ele>
        <time>2016-04-28T16:21:26Z</time>
      </trkpt>
      <trkpt lat="47.76368" lon="-3.30366">
        <ele>-2.27</ele>
        <time>2016-04-28T16:21:50Z</time>
      </trkpt>
      <trkpt lat="47.76337" lon="-3.30408">
        <ele>-2.27</ele>
        <time>2016-04-28T16:22:15Z</time>
      </trkpt>
      <trkpt lat="47.76302" lon="-3.30451">
        <ele>-2.27</ele>
        <time>2016-04-28T16:22:42Z</time>
      </trkpt>
      <trkpt lat="47.76272" lon="-3.30482">
        <ele>-2.75</ele>
        <time>2016-04-28T16:23:04Z</time>
      </trkpt>
      <trkpt lat="47.76246" lon="-3.30509">
        <ele>-1.79</ele>
        <time>2016-04-28T16:23:23Z</time>
      </trkpt>
      <trkpt lat="47.76209" lon="-3.30563">
        <ele>-1.3</ele>
        <time>2016-04-28T16:23:53Z</time>
      </trkpt>
      <trkpt lat="47.7619" lon="-3.30595">
        <ele>-1.3</ele>
        <time>2016-04-28T16:24:10Z</time>
      </trkpt>
      <trkpt lat="47.76163" lon="-3.30641">
        <ele>-1.3</ele>
        <time>2016-04-28T16:24:34Z</time>
      </trkpt>
      <trkpt lat="47.7614" lon="-3.30676">
        <ele>-1.3</ele>
        <time>2016-04-28T16:24:55Z</time>
      </trkpt>
      <trkpt lat="47.76111" lon="-3.30737">
        <ele>-0.34</ele>
        <time>2016-04-28T16:25:25Z</time>
      </trkpt>
      <trkpt lat="47.76082" lon="-3.30798">
        <ele>-1.79</ele>
        <time>2016-04-28T16:25:55Z</time>
      </trkpt>
      <trkpt lat="47.76041" lon="-3.30855">
        <ele>-0.82</ele>
        <time>2016-04-28T16:26:28Z</time>
      </trkpt>
      <trkpt lat="47.76003" lon="-3.30897">
        <ele>-0.34</ele>
        <time>2016-04-28T16:26:55Z</time>
      </trkpt>
      <trkpt lat="47.75964" lon="-3.30948">
        <ele>-1.79</ele>
        <time>2016-04-28T16:27:24Z</time>
      </trkpt>
      <trkpt lat="47.75944" lon="-3.30973">
        <ele>-1.79</ele>
        <time>2016-04-28T16:27:40Z</time>
      </trkpt>
      <trkpt lat="47.75914" lon="-3.31022">
        <ele>-2.75</ele>
        <time>2016-04-28T16:28:06Z</time>
      </trkpt>
      <trkpt lat="47.75878" lon="-3.31069">
        <ele>-1.79</ele>
        <time>2016-04-28T16:28:36Z</time>
      </trkpt>
      <trkpt lat="47.75845" lon="-3.31122">
        <ele>-2.27</ele>
        <time>2016-04-28T16:29:06Z</time>
      </trkpt>
      <trkpt lat="47.75818" lon="-3.31154">
        <ele>-2.27</ele>
        <time>2016-04-28T16:29:28Z</time>
      </trkpt>
      <trkpt lat="47.75787" lon="-3.312">
        <ele>0.14</ele>
        <time>2016-04-28T16:29:58Z</time>
      </trkpt>
      <trkpt lat="47.75768" lon="-3.31227">
        <ele>-1.3</ele>
        <time>2016-04-28T16:30:16Z</time>
      </trkpt>
      <trkpt lat="47.7575" lon="-3.31255">
        <ele>-1.3</ele>
        <time>2016-04-28T16:30:36Z</time>
      </trkpt>
      <trkpt lat="47.75726" lon="-3.31282">
        <ele>-0.82</ele>
        <time>2016-04-28T16:30:57Z</time>
      </trkpt>
      <trkpt lat="47.75694" lon="-3.31309">
        <ele>-0.82</ele>
        <time>2016-04-28T16:31:24Z</time>
      </trkpt>
      <trkpt lat="47.75666" lon="-3.31334">
        <ele>-0.82</ele>
        <time>2016-04-28T16:31:47Z</time>
      </trkpt>
      <trkpt lat="47.7563" lon="-3.31357">
        <ele>-0.34</ele>
        <time>2016-04-28T16:32:14Z</time>
      </trkpt>
      <trkpt lat="47.75597" lon="-3.31371">
        <ele>-1.3</ele>
        <time>2016-04-28T16:32:38Z</time>
      </trkpt>
      <trkpt lat="47.75565" lon="-3.31395">
        <ele>-1.3</ele>
        <time>2016-04-28T16:33:04Z</time>
      </trkpt>
      <trkpt lat="47.75528" lon="-3.31413">
        <ele>0.14</ele>
        <time>2016-04-28T16:33:31Z</time>
      </trkpt>
      <trkpt lat="47.75492" lon="-3.31445">
        <ele>0.14</ele>
        <time>2016-04-28T16:34:00Z</time>
      </trkpt>
      <trkpt lat="47.75469" lon="-3.31472">
        <ele>-0.34</ele>
        <time>2016-04-28T16:34:21Z</time>
      </trkpt>
      <trkpt lat="47.75444" lon="-3.31503">
        <ele>-0.34</ele>
        <time>2016-04-28T16:34:44Z</time>
      </trkpt>
      <trkpt lat="47.75414" lon="-3.31528">
        <ele>-0.34</ele>
        <time>2016-04-28T16:35:07Z</time>
      </trkpt>
      <trkpt lat="47.75384" lon="-3.3155">
        <ele>-0.34</ele>
        <time>2016-04-28T16:35:30Z</time>
      </trkpt>
      <trkpt lat="47.75352" lon="-3.31582">
        <ele>-0.34</ele>
        <time>2016-04-28T16:35:56Z</time>
      </trkpt>
      <trkpt lat="47.75323" lon="-3.3161">
        <ele>-0.34</ele>
        <time>2016-04-28T16:36:21Z</time>
      </trkpt>
      <trkpt lat="47.75295" lon="-3.31635">
        <ele>0.62</ele>
        <time>2016-04-28T16:36:44Z</time>
      </trkpt>
      <trkpt lat="47.75271" lon="-3.3166">
        <ele>1.1</ele>
        <time>2016-04-28T16:37:04Z</time>
      </trkpt>
      <trkpt lat="47.75245" lon="-3.31688">
        <ele>1.1</ele>
        <time>2016-04-28T16:37:26Z</time>
      </trkpt>
      <trkpt lat="47.75208" lon="-3.31732">
        <ele>0.14</ele>
        <time>2016-04-28T16:37:58Z</time>
      </trkpt>
      <trkpt lat="47.75166" lon="-3.31778">
        <ele>1.1</ele>
        <time>2016-04-28T16:38:32Z</time>
      </trkpt>
      <trkpt lat="47.75131" lon="-3.31814">
        <ele>0.14</ele>
        <time>2016-04-28T16:39:00Z</time>
      </trkpt>
      <trkpt lat="47.75096" lon="-3.31846">
        <ele>-0.34</ele>
        <time>2016-04-28T16:39:27Z</time>
      </trkpt>
      <trkpt lat="47.75058" lon="-3.3188">
        <ele>0.14</ele>
        <time>2016-04-28T16:39:55Z</time>
      </trkpt>
      <trkpt lat="47.7503" lon="-3.31905">
        <ele>-0.82</ele>
        <time>2016-04-28T16:40:16Z</time>
      </trkpt>
      <trkpt lat="47.7499" lon="-3.31938">
        <ele>-0.34</ele>
        <time>2016-04-28T16:40:46Z</time>
      </trkpt>
      <trkpt lat="47.74969" lon="-3.3196">
        <ele>-2.27</ele>
        <time>2016-04-28T16:41:04Z</time>
      </trkpt>
      <trkpt lat="47.74939" lon="-3.31979">
        <ele>-2.27</ele>
        <time>2016-04-28T16:41:26Z</time>
      </trkpt>
      <trkpt lat="47.74913" lon="-3.3199">
        <ele>-2.27</ele>
        <time>2016-04-28T16:41:46Z</time>
      </trkpt>
      <trkpt lat="47.74886" lon="-3.32014">
        <ele>-2.27</ele>
        <time>2016-04-28T16:42:05Z</time>
      </trkpt>
      <trkpt lat="47.74861" lon="-3.32042">
        <ele>-1.79</ele>
        <time>2016-04-28T16:42:24Z</time>
      </trkpt>
      <trkpt lat="47.74842" lon="-3.32059">
        <ele>-0.82</ele>
        <time>2016-04-28T16:42:39Z</time>
      </trkpt>
      <trkpt lat="47.74824" lon="-3.3207">
        <ele>-2.27</ele>
        <time>2016-04-28T16:42:50Z</time>
      </trkpt>
      <trkpt lat="47.748" lon="-3.32088">
        <ele>-0.82</ele>
        <time>2016-04-28T16:43:07Z</time>
      </trkpt>
      <trkpt lat="47.74775" lon="-3.32108">
        <ele>1.1</ele>
        <time>2016-04-28T16:43:25Z</time>
      </trkpt>
      <trkpt lat="47.74742" lon="-3.32137">
        <ele>2.54</ele>
        <time>2016-04-28T16:43:50Z</time>
      </trkpt>
      <trkpt lat="47.74714" lon="-3.32157">
        <ele>2.06</ele>
        <time>2016-04-28T16:44:10Z</time>
      </trkpt>
      <trkpt lat="47.74694" lon="-3.3218">
        <ele>0.62</ele>
        <time>2016-04-28T16:44:25Z</time>
      </trkpt>
      <trkpt lat="47.74658" lon="-3.32218">
        <ele>0.14</ele>
        <time>2016-04-28T16:44:53Z</time>
      </trkpt>
      <trkpt lat="47.74635" lon="-3.32248">
        <ele>0.62</ele>
        <time>2016-04-28T16:45:11Z</time>
      </trkpt>
      <trkpt lat="47.74611" lon="-3.32281">
        <ele>0.14</ele>
        <time>2016-04-28T16:45:31Z</time>
      </trkpt>
      <trkpt lat="47.74573" lon="-3.32319">
        <ele>1.1</ele>
        <time>2016-04-28T16:45:59Z</time>
      </trkpt>
      <trkpt lat="47.7455" lon="-3.32348">
        <ele>1.1</ele>
        <time>2016-04-28T16:46:18Z</time>
      </trkpt>
      <trkpt lat="47.74524" lon="-3.32383">
        <ele>1.58</ele>
        <time>2016-04-28T16:46:40Z</time>
      </trkpt>
      <trkpt lat="47.74493" lon="-3.32426">
        <ele>2.06</ele>
        <time>2016-04-28T16:47:06Z</time>
      </trkpt>
      <trkpt lat="47.74466" lon="-3.32459">
        <ele>1.58</ele>
        <time>2016-04-28T16:47:29Z</time>
      </trkpt>
      <trkpt lat="47.7444" lon="-3.32494">
        <ele>1.1</ele>
        <time>2016-04-28T16:47:52Z</time>
      </trkpt>
      <trkpt lat="47.74417" lon="-3.32536">
        <ele>0.62</ele>
        <time>2016-04-28T16:48:15Z</time>
      </trkpt>
      <trkpt lat="47.7439" lon="-3.32587">
        <ele>1.58</ele>
        <time>2016-04-28T16:48:43Z</time>
      </trkpt>
      <trkpt lat="47.74366" lon="-3.32631">
        <ele>1.1</ele>
        <time>2016-04-28T16:49:08Z</time>
      </trkpt>
      <trkpt lat="47.74336" lon="-3.3268">
        <ele>1.1</ele>
        <time>2016-04-28T16:49:36Z</time>
      </trkpt>
      <trkpt lat="47.74304" lon="-3.32731">
        <ele>1.1</ele>
        <time>2016-04-28T16:50:05Z</time>
      </trkpt>
      <trkpt lat="47.74276" lon="-3.32776">
        <ele>-0.82</ele>
        <time>2016-04-28T16:50:30Z</time>
      </trkpt>
      <trkpt lat="47.74259" lon="-3.32806">
        <ele>0.14</ele>
        <time>2016-04-28T16:50:46Z</time>
      </trkpt>
      <trkpt lat="47.74219" lon="-3.32847">
        <ele>0.14</ele>
        <time>2016-04-28T16:51:14Z</time>
      </trkpt>
      <trkpt lat="47.74198" lon="-3.32878">
        <ele>0.62</ele>
        <time>2016-04-28T16:51:33Z</time>
      </trkpt>
      <trkpt lat="47.7418" lon="-3.32911">
        <ele>1.58</ele>
        <time>2016-04-28T16:51:51Z</time>
      </trkpt>
      <trkpt lat="47.74167" lon="-3.32951">
        <ele>2.06</ele>
        <time>2016-04-28T16:52:09Z</time>
      </trkpt>
      <trkpt lat="47.7416" lon="-3.32971">
        <ele>1.58</ele>
        <time>2016-04-28T16:52:19Z</time>
      </trkpt>
      <trkpt lat="47.74141" lon="-3.32998">
        <ele>1.58</ele>
        <time>2016-04-28T16:52:37Z</time>
      </trkpt>
      <trkpt lat="47.74125" lon="-3.33033">
        <ele>3.02</ele>
        <time>2016-04-28T16:52:55Z</time>
      </trkpt>
      <trkpt lat="47.74097" lon="-3.33077">
        <ele>3.5</ele>
        <time>2016-04-28T16:53:22Z</time>
      </trkpt>
      <trkpt lat="47.74077" lon="-3.33131">
        <ele>3.5</ele>
        <time>2016-04-28T16:53:50Z</time>
      </trkpt>
      <trkpt lat="47.74053" lon="-3.33178">
        <ele>4.94</ele>
        <time>2016-04-28T16:54:17Z</time>
      </trkpt>
      <trkpt lat="47.74032" lon="-3.33226">
        <ele>4.94</ele>
        <time>2016-04-28T16:54:44Z</time>
      </trkpt>
      <trkpt lat="47.74006" lon="-3.33278">
        <ele>4.94</ele>
        <time>2016-04-28T16:55:13Z</time>
      </trkpt>
      <trkpt lat="47.73977" lon="-3.33328">
        <ele>4.46</ele>
        <time>2016-04-28T16:55:42Z</time>
      </trkpt>
      <trkpt lat="47.73944" lon="-3.3338">
        <ele>4.46</ele>
        <time>2016-04-28T16:56:15Z</time>
      </trkpt>
      <trkpt lat="47.73915" lon="-3.33441">
        <ele>4.46</ele>
        <time>2016-04-28T16:56:49Z</time>
      </trkpt>
      <trkpt lat="47.7389" lon="-3.33495">
        <ele>3.5</ele>
        <time>2016-04-28T16:57:18Z</time>
      </trkpt>
      <trkpt lat="47.73868" lon="-3.33538">
        <ele>2.54</ele>
        <time>2016-04-28T16:57:42Z</time>
      </trkpt>
      <trkpt lat="47.73856" lon="-3.33581">
        <ele>3.5</ele>
        <time>2016-04-28T16:58:04Z</time>
      </trkpt>
      <trkpt lat="47.73838" lon="-3.33637">
        <ele>3.02</ele>
        <time>2016-04-28T16:58:32Z</time>
      </trkpt>
      <trkpt lat="47.73825" lon="-3.33698">
        <ele>3.98</ele>
        <time>2016-04-28T16:59:02Z</time>
      </trkpt>
      <trkpt lat="47.73814" lon="-3.33732">
        <ele>4.94</ele>
        <time>2016-04-28T16:59:19Z</time>
      </trkpt>
      <trkpt lat="47.73809" lon="-3.33776">
        <ele>5.42</ele>
        <time>2016-04-28T16:59:40Z</time>
      </trkpt>
      <trkpt lat="47.73809" lon="-3.33782">
        <ele>4.94</ele>
        <time>2016-04-28T16:59:43Z</time>
      </trkpt>
      <trkpt lat="47.73805" lon="-3.3381">
        <ele>6.39</ele>
        <time>2016-04-28T16:59:57Z</time>
      </trkpt>
      <trkpt lat="47.738" lon="-3.33862">
        <ele>4.94</ele>
        <time>2016-04-28T17:00:21Z</time>
      </trkpt>
      <trkpt lat="47.73787" lon="-3.33912">
        <ele>4.94</ele>
        <time>2016-04-28T17:00:45Z</time>
      </trkpt>
      <trkpt lat="47.73772" lon="-3.3395">
        <ele>4.46</ele>
        <time>2016-04-28T17:01:05Z</time>
      </trkpt>
      <trkpt lat="47.73764" lon="-3.3398">
        <ele>4.46</ele>
        <time>2016-04-28T17:01:19Z</time>
      </trkpt>
      <trkpt lat="47.73763" lon="-3.34013">
        <ele>3.98</ele>
        <time>2016-04-28T17:01:34Z</time>
      </trkpt>
      <trkpt lat="47.73764" lon="-3.34058">
        <ele>3.5</ele>
        <time>2016-04-28T17:01:55Z</time>
      </trkpt>
      <trkpt lat="47.73767" lon="-3.34108">
        <ele>2.54</ele>
        <time>2016-04-28T17:02:19Z</time>
      </trkpt>
      <trkpt lat="47.73766" lon="-3.3414">
        <ele>1.58</ele>
        <time>2016-04-28T17:02:36Z</time>
      </trkpt>
      <trkpt lat="47.73766" lon="-3.34184">
        <ele>1.58</ele>
        <time>2016-04-28T17:02:55Z</time>
      </trkpt>
      <trkpt lat="47.73776" lon="-3.34229">
        <ele>0.14</ele>
        <time>2016-04-28T17:03:16Z</time>
      </trkpt>
      <trkpt lat="47.73781" lon="-3.34254">
        <ele>-0.82</ele>
        <time>2016-04-28T17:03:28Z</time>
      </trkpt>
      <trkpt lat="47.73788" lon="-3.34294">
        <ele>0.62</ele>
        <time>2016-04-28T17:03:45Z</time>
      </trkpt>
      <trkpt lat="47.7378" lon="-3.34347">
        <ele>2.54</ele>
        <time>2016-04-28T17:04:11Z</time>
      </trkpt>
      <trkpt lat="47.73776" lon="-3.34368">
        <ele>3.98</ele>
        <time>2016-04-28T17:04:27Z</time>
      </trkpt>
      <trkpt lat="47.73771" lon="-3.34392">
        <ele>3.02</ele>
        <time>2016-04-28T17:04:46Z</time>
      </trkpt>
      <trkpt lat="47.73769" lon="-3.34406">
        <ele>3.02</ele>
        <time>2016-04-28T17:04:57Z</time>
      </trkpt>
      <trkpt lat="47.73764" lon="-3.34432">
        <ele>1.58</ele>
        <time>2016-04-28T17:05:13Z</time>
      </trkpt>
      <trkpt lat="47.73756" lon="-3.34478">
        <ele>2.06</ele>
        <time>2016-04-28T17:05:35Z</time>
      </trkpt>
      <trkpt lat="47.73748" lon="-3.34512">
        <ele>2.54</ele>
        <time>2016-04-28T17:05:53Z</time>
      </trkpt>
      <trkpt lat="47.73739" lon="-3.34554">
        <ele>2.06</ele>
        <time>2016-04-28T17:06:13Z</time>
      </trkpt>
      <trkpt lat="47.73718" lon="-3.34611">
        <ele>0.14</ele>
        <time>2016-04-28T17:06:42Z</time>
      </trkpt>
      <trkpt lat="47.73702" lon="-3.34639">
        <ele>1.58</ele>
        <time>2016-04-28T17:06:58Z</time>
      </trkpt>
      <trkpt lat="47.73681" lon="-3.34674">
        <ele>2.54</ele>
        <time>2016-04-28T17:07:18Z</time>
      </trkpt>
      <trkpt lat="47.7365" lon="-3.34707">
        <ele>2.54</ele>
        <time>2016-04-28T17:07:42Z</time>
      </trkpt>
      <trkpt lat="47.73634" lon="-3.34731">
        <ele>3.5</ele>
        <time>2016-04-28T17:07:57Z</time>
      </trkpt>
      <trkpt lat="47.73621" lon="-3.34757">
        <ele>3.98</ele>
        <time>2016-04-28T17:08:11Z</time>
      </trkpt>
      <trkpt lat="47.73616" lon="-3.34764">
        <ele>4.46</ele>
        <time>2016-04-28T17:08:15Z</time>
      </trkpt>
      <trkpt lat="47.73597" lon="-3.34788">
        <ele>4.46</ele>
        <time>2016-04-28T17:08:30Z</time>
      </trkpt>
      <trkpt lat="47.73579" lon="-3.34807">
        <ele>3.5</ele>
        <time>2016-04-28T17:08:43Z</time>
      </trkpt>
      <trkpt lat="47.73573" lon="-3.34811">
        <ele>3.5</ele>
        <time>2016-04-28T17:08:47Z</time>
      </trkpt>
      <trkpt lat="47.7354" lon="-3.34828">
        <ele>3.02</ele>
        <time>2016-04-28T17:09:07Z</time>
      </trkpt>
      <trkpt lat="47.73516" lon="-3.34844">
        <ele>3.5</ele>
        <time>2016-04-28T17:09:23Z</time>
      </trkpt>
      <trkpt lat="47.73492" lon="-3.34868">
        <ele>2.54</ele>
        <time>2016-04-28T17:09:41Z</time>
      </trkpt>
      <trkpt lat="47.73468" lon="-3.34895">
        <ele>2.06</ele>
        <time>2016-04-28T17:09:59Z</time>
      </trkpt>
      <trkpt lat="47.73438" lon="-3.34932">
        <ele>1.58</ele>
        <time>2016-04-28T17:10:22Z</time>
      </trkpt>
      <trkpt lat="47.73395" lon="-3.34966">
        <ele>2.54</ele>
        <time>2016-04-28T17:10:50Z</time>
      </trkpt>
      <trkpt lat="47.73363" lon="-3.34985">
        <ele>1.1</ele>
        <time>2016-04-28T17:11:09Z</time>
      </trkpt>
      <trkpt lat="47.7333" lon="-3.34993">
        <ele>2.06</ele>
        <time>2016-04-28T17:11:26Z</time>
      </trkpt>
      <trkpt lat="47.73307" lon="-3.34992">
        <ele>2.54</ele>
        <time>2016-04-28T17:11:39Z</time>
      </trkpt>
      <trkpt lat="47.73283" lon="-3.35014">
        <ele>2.54</ele>
        <time>2016-04-28T17:11:55Z</time>
      </trkpt>
      <trkpt lat="47.73256" lon="-3.35037">
        <ele>3.02</ele>
        <time>2016-04-28T17:12:13Z</time>
      </trkpt>
      <trkpt lat="47.73231" lon="-3.35051">
        <ele>3.02</ele>
        <time>2016-04-28T17:12:29Z</time>
      </trkpt>
      <trkpt lat="47.73207" lon="-3.35059">
        <ele>3.02</ele>
        <time>2016-04-28T17:12:43Z</time>
      </trkpt>
      <trkpt lat="47.73172" lon="-3.35077">
        <ele>2.06</ele>
        <time>2016-04-28T17:13:03Z</time>
      </trkpt>
      <trkpt lat="47.73142" lon="-3.35093">
        <ele>2.06</ele>
        <time>2016-04-28T17:13:20Z</time>
      </trkpt>
      <trkpt lat="47.73114" lon="-3.351">
        <ele>2.06</ele>
        <time>2016-04-28T17:13:35Z</time>
      </trkpt>
      <trkpt lat="47.73086" lon="-3.35114">
        <ele>1.58</ele>
        <time>2016-04-28T17:13:51Z</time>
      </trkpt>
      <trkpt lat="47.73047" lon="-3.35138">
        <ele>1.58</ele>
        <time>2016-04-28T17:14:13Z</time>
      </trkpt>
      <trkpt lat="47.73022" lon="-3.35154">
        <ele>1.1</ele>
        <time>2016-04-28T17:14:28Z</time>
      </trkpt>
      <trkpt lat="47.72983" lon="-3.35178">
        <ele>2.06</ele>
        <time>2016-04-28T17:14:52Z</time>
      </trkpt>
      <trkpt lat="47.72951" lon="-3.3519">
        <ele>1.1</ele>
        <time>2016-04-28T17:15:09Z</time>
      </trkpt>
      <trkpt lat="47.72923" lon="-3.35201">
        <ele>1.1</ele>
        <time>2016-04-28T17:15:25Z</time>
      </trkpt>
      <trkpt lat="47.72889" lon="-3.35216">
        <ele>1.1</ele>
        <time>2016-04-28T17:15:45Z</time>
      </trkpt>
      <trkpt lat="47.72849" lon="-3.35231">
        <ele>0.62</ele>
        <time>2016-04-28T17:16:08Z</time>
      </trkpt>
      <trkpt lat="47.72824" lon="-3.3524">
        <ele>1.1</ele>
        <time>2016-04-28T17:16:23Z</time>
      </trkpt>
      <trkpt lat="47.72805" lon="-3.35251">
        <ele>2.54</ele>
        <time>2016-04-28T17:16:35Z</time>
      </trkpt>
      <trkpt lat="47.72775" lon="-3.35269">
        <ele>2.06</ele>
        <time>2016-04-28T17:16:54Z</time>
      </trkpt>
      <trkpt lat="47.72765" lon="-3.35274">
        <ele>0.62</ele>
        <time>2016-04-28T17:17:10Z</time>
      </trkpt>
      <trkpt lat="47.72762" lon="-3.35274">
        <ele>1.1</ele>
        <time>2016-04-28T17:17:22Z</time>
      </trkpt>
      <trkpt lat="47.72762" lon="-3.35274">
        <ele>1.1</ele>
        <time>2016-04-28T17:17:23Z</time>
      </trkpt>
      <trkpt lat="47.72747" lon="-3.35281">
        <ele>2.06</ele>
        <time>2016-04-28T17:17:39Z</time>
      </trkpt>
      <trkpt lat="47.72737" lon="-3.35285">
        <ele>2.06</ele>
        <time>2016-04-28T17:17:46Z</time>
      </trkpt>
      <trkpt lat="47.72731" lon="-3.35287">
        <ele>2.06</ele>
        <time>2016-04-28T17:17:50Z</time>
      </trkpt>
      <trkpt lat="47.72706" lon="-3.35294">
        <ele>1.1</ele>
        <time>2016-04-28T17:18:07Z</time>
      </trkpt>
      <trkpt lat="47.72672" lon="-3.35293">
        <ele>0.62</ele>
        <time>2016-04-28T17:18:29Z</time>
      </trkpt>
      <trkpt lat="47.72646" lon="-3.35299">
        <ele>2.06</ele>
        <time>2016-04-28T17:18:47Z</time>
      </trkpt>
      <trkpt lat="47.72621" lon="-3.35307">
        <ele>2.06</ele>
        <time>2016-04-28T17:19:05Z</time>
      </trkpt>
      <trkpt lat="47.72593" lon="-3.35305">
        <ele>2.06</ele>
        <time>2016-04-28T17:19:24Z</time>
      </trkpt>
      <trkpt lat="47.72591" lon="-3.35316">
        <ele>2.54</ele>
        <time>2016-04-28T17:19:30Z</time>
      </trkpt>
      <trkpt lat="47.72604" lon="-3.35323">
        <ele>2.54</ele>
        <time>2016-04-28T17:19:41Z</time>
      </trkpt>
      <trkpt lat="47.72606" lon="-3.35293">
        <ele>3.02</ele>
        <time>2016-04-28T17:19:54Z</time>
      </trkpt>
      <trkpt lat="47.72588" lon="-3.35272">
        <ele>2.54</ele>
        <time>2016-04-28T17:20:11Z</time>
      </trkpt>
      <trkpt lat="47.72575" lon="-3.35246">
        <ele>2.06</ele>
        <time>2016-04-28T17:20:28Z</time>
      </trkpt>
      <trkpt lat="47.72572" lon="-3.35236">
        <ele>2.54</ele>
        <time>2016-04-28T17:20:33Z</time>
      </trkpt>
      <trkpt lat="47.72569" lon="-3.35229">
        <ele>2.54</ele>
        <time>2016-04-28T17:20:37Z</time>
      </trkpt>
      <trkpt lat="47.72572" lon="-3.352">
        <ele>2.54</ele>
        <time>2016-04-28T17:20:51Z</time>
      </trkpt>
      <trkpt lat="47.72596" lon="-3.35193">
        <ele>1.58</ele>
        <time>2016-04-28T17:21:06Z</time>
      </trkpt>
      <trkpt lat="47.72614" lon="-3.35212">
        <ele>1.1</ele>
        <time>2016-04-28T17:21:23Z</time>
      </trkpt>
      <trkpt lat="47.72629" lon="-3.35232">
        <ele>0.14</ele>
        <time>2016-04-28T17:21:39Z</time>
      </trkpt>
      <trkpt lat="47.72641" lon="-3.35252">
        <ele>-0.34</ele>
        <time>2016-04-28T17:21:58Z</time>
      </trkpt>
      <trkpt lat="47.72645" lon="-3.35272">
        <ele>-0.34</ele>
        <time>2016-04-28T17:22:16Z</time>
      </trkpt>
      <trkpt lat="47.72646" lon="-3.35283">
        <ele>0.14</ele>
        <time>2016-04-28T17:22:30Z</time>
      </trkpt>
      <trkpt lat="47.7265" lon="-3.35298">
        <ele>1.58</ele>
        <time>2016-04-28T17:22:43Z</time>
      </trkpt>
      <trkpt lat="47.72644" lon="-3.35321">
        <ele>1.58</ele>
        <time>2016-04-28T17:23:03Z</time>
      </trkpt>
      <trkpt lat="47.7264" lon="-3.35322">
        <ele>2.06</ele>
        <time>2016-04-28T17:23:08Z</time>
      </trkpt>
      <trkpt lat="47.72618" lon="-3.35302">
        <ele>2.54</ele>
        <time>2016-04-28T17:23:30Z</time>
      </trkpt>
      <trkpt lat="47.72592" lon="-3.35288">
        <ele>2.54</ele>
        <time>2016-04-28T17:23:54Z</time>
      </trkpt>
      <trkpt lat="47.72576" lon="-3.35261">
        <ele>2.54</ele>
        <time>2016-04-28T17:24:12Z</time>
      </trkpt>
      <trkpt lat="47.72588" lon="-3.35229">
        <ele>2.54</ele>
        <time>2016-04-28T17:24:28Z</time>
      </trkpt>
      <trkpt lat="47.72622" lon="-3.35233">
        <ele>3.02</ele>
        <time>2016-04-28T17:24:47Z</time>
      </trkpt>
      <trkpt lat="47.72645" lon="-3.35258">
        <ele>2.54</ele>
        <time>2016-04-28T17:25:06Z</time>
      </trkpt>
      <trkpt lat="47.72654" lon="-3.35287">
        <ele>0.62</ele>
        <time>2016-04-28T17:25:24Z</time>
      </trkpt>
      <trkpt lat="47.72641" lon="-3.35319">
        <ele>1.1</ele>
        <time>2016-04-28T17:25:49Z</time>
      </trkpt>
      <trkpt lat="47.72617" lon="-3.35323">
        <ele>2.06</ele>
        <time>2016-04-28T17:26:13Z</time>
      </trkpt>
      <trkpt lat="47.72595" lon="-3.35317">
        <ele>1.58</ele>
        <time>2016-04-28T17:26:34Z</time>
      </trkpt>
      <trkpt lat="47.72582" lon="-3.35288">
        <ele>2.06</ele>
        <time>2016-04-28T17:26:50Z</time>
      </trkpt>
      <trkpt lat="47.72577" lon="-3.35259">
        <ele>1.58</ele>
        <time>2016-04-28T17:27:04Z</time>
      </trkpt>
      <trkpt lat="47.72569" lon="-3.35223">
        <ele>1.1</ele>
        <time>2016-04-28T17:27:20Z</time>
      </trkpt>
      <trkpt lat="47.72557" lon="-3.35189">
        <ele>1.58</ele>
        <time>2016-04-28T17:27:38Z</time>
      </trkpt>
      <trkpt lat="47.72546" lon="-3.35154">
        <ele>2.54</ele>
        <time>2016-04-28T17:27:59Z</time>
      </trkpt>
      <trkpt lat="47.72558" lon="-3.35125">
        <ele>3.02</ele>
        <time>2016-04-28T17:28:18Z</time>
      </trkpt>
      <trkpt lat="47.72581" lon="-3.35112">
        <ele>3.98</ele>
        <time>2016-04-28T17:28:40Z</time>
      </trkpt>
      <trkpt lat="47.7259" lon="-3.35107">
        <ele>3.5</ele>
        <time>2016-04-28T17:28:56Z</time>
      </trkpt>
      <trkpt lat="47.72603" lon="-3.35098">
        <ele>2.54</ele>
        <time>2016-04-28T17:29:12Z</time>
      </trkpt>
      <trkpt lat="47.72618" lon="-3.3509">
        <ele>3.02</ele>
        <time>2016-04-28T17:29:28Z</time>
      </trkpt>
      <trkpt lat="47.72637" lon="-3.35067">
        <ele>4.46</ele>
        <time>2016-04-28T17:29:51Z</time>
      </trkpt>
      <trkpt lat="47.72637" lon="-3.35045">
        <ele>3.5</ele>
        <time>2016-04-28T17:30:04Z</time>
      </trkpt>
      <trkpt lat="47.72618" lon="-3.35025">
        <ele>2.06</ele>
        <time>2016-04-28T17:30:23Z</time>
      </trkpt>
      <trkpt lat="47.72616" lon="-3.35024">
        <ele>2.06</ele>
        <time>2016-04-28T17:30:25Z</time>
      </trkpt>
      <trkpt lat="47.726" lon="-3.35021">
        <ele>2.06</ele>
        <time>2016-04-28T17:30:41Z</time>
      </trkpt>
      <trkpt lat="47.72599" lon="-3.35012">
        <ele>2.06</ele>
        <time>2016-04-28T17:30:54Z</time>
      </trkpt>
      <trkpt lat="47.72604" lon="-3.35016">
        <ele>2.06</ele>
        <time>2016-04-28T17:31:07Z</time>
      </trkpt>
      <trkpt lat="47.72607" lon="-3.35024">
        <ele>1.1</ele>
        <time>2016-04-28T17:31:12Z</time>
      </trkpt>
      <trkpt lat="47.72614" lon="-3.35036">
        <ele>-0.82</ele>
        <time>2016-04-28T17:31:25Z</time>
      </trkpt>
      <trkpt lat="47.72624" lon="-3.35054">
        <ele>1.1</ele>
        <time>2016-04-28T17:31:45Z</time>
      </trkpt>
      <trkpt lat="47.7263" lon="-3.35054">
        <ele>-0.34</ele>
        <time>2016-04-28T17:31:59Z</time>
      </trkpt>
      <trkpt lat="47.72634" lon="-3.3506">
        <ele>0.14</ele>
        <time>2016-04-28T17:32:17Z</time>
      </trkpt>
      <trkpt lat="47.72631" lon="-3.35071">
        <ele>0.62</ele>
        <time>2016-04-28T17:32:34Z</time>
      </trkpt>
      <trkpt lat="47.7263" lon="-3.35072">
        <ele>0.62</ele>
        <time>2016-04-28T17:32:42Z</time>
      </trkpt>
      <trkpt lat="47.72629" lon="-3.35073">
        <ele>2.06</ele>
        <time>2016-04-28T17:32:56Z</time>
      </trkpt>
      <trkpt lat="47.72629" lon="-3.35073">
        <ele>2.54</ele>
        <time>2016-04-28T17:33:00Z</time>
      </trkpt>
      <trkpt lat="47.72638" lon="-3.35058">
        <ele>1.58</ele>
        <time>2016-04-28T17:33:18Z</time>
      </trkpt>
      <trkpt lat="47.7264" lon="-3.35048">
        <ele>1.58</ele>
        <time>2016-04-28T17:33:29Z</time>
      </trkpt>
      <trkpt lat="47.72636" lon="-3.35034">
        <ele>-1.3</ele>
        <time>2016-04-28T17:33:40Z</time>
      </trkpt>
      <trkpt lat="47.72635" lon="-3.35034">
        <ele>-1.79</ele>
        <time>2016-04-28T17:33:41Z</time>
      </trkpt>
      <trkpt lat="47.72627" lon="-3.35029">
        <ele>-2.75</ele>
        <time>2016-04-28T17:33:52Z</time>
      </trkpt>
      <trkpt lat="47.72619" lon="-3.35029">
        <ele>-0.82</ele>
        <time>2016-04-28T17:34:09Z</time>
      </trkpt>
      <trkpt lat="47.72612" lon="-3.35039">
        <ele>-0.82</ele>
        <time>2016-04-28T17:34:27Z</time>
      </trkpt>
      <trkpt lat="47.72612" lon="-3.35041">
        <ele>1.58</ele>
        <time>2016-04-28T17:34:42Z</time>
      </trkpt>
      <trkpt lat="47.72611" lon="-3.35043">
        <ele>2.06</ele>
        <time>2016-04-28T17:34:55Z</time>
      </trkpt>
      <trkpt lat="47.7261" lon="-3.35043">
        <ele>2.06</ele>
        <time>2016-04-28T17:35:13Z</time>
      </trkpt>
      <trkpt lat="47.72609" lon="-3.35043">
        <ele>2.06</ele>
        <time>2016-04-28T17:35:26Z</time>
      </trkpt>
      <trkpt lat="47.72609" lon="-3.35043">
        <ele>2.06</ele>
        <time>2016-04-28T17:35:44Z</time>
      </trkpt>
      <trkpt lat="47.72607" lon="-3.35043">
        <ele>2.06</ele>
        <time>2016-04-28T17:36:00Z</time>
      </trkpt>
      <trkpt lat="47.72607" lon="-3.35043">
        <ele>2.06</ele>
        <time>2016-04-28T17:36:13Z</time>
      </trkpt>
      <trkpt lat="47.72606" lon="-3.35044">
        <ele>2.06</ele>
        <time>2016-04-28T17:36:29Z</time>
      </trkpt>
      <trkpt lat="47.72606" lon="-3.35044">
        <ele>2.06</ele>
        <time>2016-04-28T17:36:49Z</time>
      </trkpt>
      <trkpt lat="47.72606" lon="-3.35044">
        <ele>2.06</ele>
        <time>2016-04-28T17:37:02Z</time>
      </trkpt>
      <trkpt lat="47.72607" lon="-3.35044">
        <ele>2.06</ele>
        <time>2016-04-28T17:37:23Z</time>
      </trkpt>
      <trkpt lat="47.72607" lon="-3.35044">
        <ele>2.06</ele>
        <time>2016-04-28T17:37:40Z</time>
      </trkpt>
      <trkpt lat="47.72606" lon="-3.35045">
        <ele>2.06</ele>
        <time>2016-04-28T17:37:58Z</time>
      </trkpt>
      <trkpt lat="47.72607" lon="-3.35045">
        <ele>2.06</ele>
        <time>2016-04-28T17:38:12Z</time>
      </trkpt>
      <trkpt lat="47.72607" lon="-3.35047">
        <ele>1.1</ele>
        <time>2016-04-28T17:38:25Z</time>
      </trkpt>
      <trkpt lat="47.72607" lon="-3.35047">
        <ele>1.1</ele>
        <time>2016-04-28T17:38:29Z</time>
      </trkpt>
      <trkpt lat="47.72608" lon="-3.35043">
        <ele>2.06</ele>
        <time>2016-04-28T17:38:42Z</time>
      </trkpt>
      <trkpt lat="47.72607" lon="-3.35044">
        <ele>1.58</ele>
        <time>2016-04-28T17:38:57Z</time>
      </trkpt>
      <trkpt lat="47.72607" lon="-3.35044">
        <ele>1.1</ele>
        <time>2016-04-28T17:39:15Z</time>
      </trkpt>
      <trkpt lat="47.72607" lon="-3.35044">
        <ele>1.1</ele>
        <time>2016-04-28T17:39:33Z</time>
      </trkpt>
      <trkpt lat="47.72606" lon="-3.35044">
        <ele>1.1</ele>
        <time>2016-04-28T17:39:56Z</time>
      </trkpt>
      <trkpt lat="47.72606" lon="-3.35044">
        <ele>1.1</ele>
        <time>2016-04-28T17:40:15Z</time>
      </trkpt>
      <trkpt lat="47.72606" lon="-3.35044">
        <ele>1.1</ele>
        <time>2016-04-28T17:40:33Z</time>
      </trkpt>
      <trkpt lat="47.72606" lon="-3.35044">
        <ele>1.1</ele>
        <time>2016-04-28T17:40:46Z</time>
      </trkpt>
      <trkpt lat="47.72607" lon="-3.35045">
        <ele>1.1</ele>
        <time>2016-04-28T17:40:58Z</time>
      </trkpt>
    </trkseg>
  </trk>
  <trk>
    <name><![CDATA[Tracé actuel: 29 AVR 2016 12:36]]></name>
    <trkseg>
      <trkpt lat="47.72459" lon="-3.3513">
        <ele>41.95</ele>
        <time>2016-04-29T10:36:41Z</time>
      </trkpt>
      <trkpt lat="47.72461" lon="-3.35113">
        <ele>26.57</ele>
        <time>2016-04-29T10:36:58Z</time>
      </trkpt>
      <trkpt lat="47.72477" lon="-3.35109">
        <ele>9.27</ele>
        <time>2016-04-29T10:37:16Z</time>
      </trkpt>
      <trkpt lat="47.72478" lon="-3.35108">
        <ele>7.35</ele>
        <time>2016-04-29T10:37:32Z</time>
      </trkpt>
      <trkpt lat="47.7248" lon="-3.35111">
        <ele>7.35</ele>
        <time>2016-04-29T10:37:45Z</time>
      </trkpt>
      <trkpt lat="47.72479" lon="-3.35112">
        <ele>8.31</ele>
        <time>2016-04-29T10:37:59Z</time>
      </trkpt>
      <trkpt lat="47.72477" lon="-3.35112">
        <ele>7.35</ele>
        <time>2016-04-29T10:38:09Z</time>
      </trkpt>
      <trkpt lat="47.72477" lon="-3.35114">
        <ele>5.91</ele>
        <time>2016-04-29T10:38:24Z</time>
      </trkpt>
      <trkpt lat="47.7248" lon="-3.35118">
        <ele>4.94</ele>
        <time>2016-04-29T10:38:37Z</time>
      </trkpt>
      <trkpt lat="47.72481" lon="-3.35119">
        <ele>3.98</ele>
        <time>2016-04-29T10:39:00Z</time>
      </trkpt>
      <trkpt lat="47.7248" lon="-3.3512">
        <ele>2.54</ele>
        <time>2016-04-29T10:39:14Z</time>
      </trkpt>
      <trkpt lat="47.7248" lon="-3.3512">
        <ele>2.06</ele>
        <time>2016-04-29T10:39:26Z</time>
      </trkpt>
      <trkpt lat="47.7248" lon="-3.3512">
        <ele>2.54</ele>
        <time>2016-04-29T10:39:45Z</time>
      </trkpt>
      <trkpt lat="47.7248" lon="-3.35119">
        <ele>2.54</ele>
        <time>2016-04-29T10:39:59Z</time>
      </trkpt>
      <trkpt lat="47.72481" lon="-3.3512">
        <ele>2.54</ele>
        <time>2016-04-29T10:40:15Z</time>
      </trkpt>
      <trkpt lat="47.7248" lon="-3.3512">
        <ele>2.54</ele>
        <time>2016-04-29T10:40:30Z</time>
      </trkpt>
      <trkpt lat="47.7248" lon="-3.35119">
        <ele>2.06</ele>
        <time>2016-04-29T10:40:45Z</time>
      </trkpt>
      <trkpt lat="47.72479" lon="-3.35117">
        <ele>1.58</ele>
        <time>2016-04-29T10:41:12Z</time>
      </trkpt>
      <trkpt lat="47.72479" lon="-3.35117">
        <ele>1.1</ele>
        <time>2016-04-29T10:41:33Z</time>
      </trkpt>
      <trkpt lat="47.72479" lon="-3.35116">
        <ele>0.62</ele>
        <time>2016-04-29T10:41:58Z</time>
      </trkpt>
      <trkpt lat="47.72478" lon="-3.35116">
        <ele>0.14</ele>
        <time>2016-04-29T10:42:29Z</time>
      </trkpt>
      <trkpt lat="47.72477" lon="-3.35115">
        <ele>0.62</ele>
        <time>2016-04-29T10:43:02Z</time>
      </trkpt>
      <trkpt lat="47.72476" lon="-3.35117">
        <ele>0.62</ele>
        <time>2016-04-29T10:43:39Z</time>
      </trkpt>
      <trkpt lat="47.72476" lon="-3.35117">
        <ele>0.14</ele>
        <time>2016-04-29T10:44:07Z</time>
      </trkpt>
      <trkpt lat="47.72477" lon="-3.35117">
        <ele>0.62</ele>
        <time>2016-04-29T10:44:40Z</time>
      </trkpt>
      <trkpt lat="47.72477" lon="-3.35117">
        <ele>0.14</ele>
        <time>2016-04-29T10:45:05Z</time>
      </trkpt>
      <trkpt lat="47.72478" lon="-3.35117">
        <ele>-0.34</ele>
        <time>2016-04-29T10:45:38Z</time>
      </trkpt>
      <trkpt lat="47.72477" lon="-3.35117">
        <ele>-1.3</ele>
        <time>2016-04-29T10:46:09Z</time>
      </trkpt>
      <trkpt lat="47.72478" lon="-3.35117">
        <ele>-1.79</ele>
        <time>2016-04-29T10:46:40Z</time>
      </trkpt>
      <trkpt lat="47.72478" lon="-3.35117">
        <ele>-0.82</ele>
        <time>2016-04-29T10:47:12Z</time>
      </trkpt>
      <trkpt lat="47.72478" lon="-3.35116">
        <ele>-0.82</ele>
        <time>2016-04-29T10:47:37Z</time>
      </trkpt>
      <trkpt lat="47.72478" lon="-3.35115">
        <ele>-1.3</ele>
        <time>2016-04-29T10:48:08Z</time>
      </trkpt>
      <trkpt lat="47.72483" lon="-3.35114">
        <ele>-2.27</ele>
        <time>2016-04-29T10:48:30Z</time>
      </trkpt>
      <trkpt lat="47.72516" lon="-3.3513">
        <ele>-4.67</ele>
        <time>2016-04-29T10:48:52Z</time>
      </trkpt>
      <trkpt lat="47.72559" lon="-3.35173">
        <ele>-4.19</ele>
        <time>2016-04-29T10:49:15Z</time>
      </trkpt>
      <trkpt lat="47.726" lon="-3.35252">
        <ele>-7.55</ele>
        <time>2016-04-29T10:49:32Z</time>
      </trkpt>
      <trkpt lat="47.7266" lon="-3.35391">
        <ele>-7.55</ele>
        <time>2016-04-29T10:49:57Z</time>
      </trkpt>
      <trkpt lat="47.72739" lon="-3.35492">
        <ele>-9.48</ele>
        <time>2016-04-29T10:50:21Z</time>
      </trkpt>
      <trkpt lat="47.72837" lon="-3.3559">
        <ele>-10.44</ele>
        <time>2016-04-29T10:50:50Z</time>
      </trkpt>
      <trkpt lat="47.72908" lon="-3.35686">
        <ele>-11.4</ele>
        <time>2016-04-29T10:51:13Z</time>
      </trkpt>
      <trkpt lat="47.72917" lon="-3.35784">
        <ele>-9.96</ele>
        <time>2016-04-29T10:51:29Z</time>
      </trkpt>
      <trkpt lat="47.729" lon="-3.35909">
        <ele>-9</ele>
        <time>2016-04-29T10:51:48Z</time>
      </trkpt>
      <trkpt lat="47.72857" lon="-3.3601">
        <ele>-9</ele>
        <time>2016-04-29T10:52:06Z</time>
      </trkpt>
      <trkpt lat="47.72771" lon="-3.36159">
        <ele>-6.59</ele>
        <time>2016-04-29T10:52:35Z</time>
      </trkpt>
      <trkpt lat="47.727" lon="-3.36314">
        <ele>-6.11</ele>
        <time>2016-04-29T10:53:03Z</time>
      </trkpt>
      <trkpt lat="47.72666" lon="-3.36435">
        <ele>-4.19</ele>
        <time>2016-04-29T10:53:24Z</time>
      </trkpt>
      <trkpt lat="47.72684" lon="-3.36503">
        <ele>-6.11</ele>
        <time>2016-04-29T10:53:37Z</time>
      </trkpt>
      <trkpt lat="47.72741" lon="-3.36525">
        <ele>-10.44</ele>
        <time>2016-04-29T10:53:54Z</time>
      </trkpt>
      <trkpt lat="47.72795" lon="-3.36554">
        <ele>-9.96</ele>
        <time>2016-04-29T10:54:17Z</time>
      </trkpt>
      <trkpt lat="47.72836" lon="-3.36609">
        <ele>-12.36</ele>
        <time>2016-04-29T10:54:41Z</time>
      </trkpt>
      <trkpt lat="47.72862" lon="-3.3667">
        <ele>-13.32</ele>
        <time>2016-04-29T10:55:07Z</time>
      </trkpt>
      <trkpt lat="47.72881" lon="-3.36712">
        <ele>-13.32</ele>
        <time>2016-04-29T10:55:34Z</time>
      </trkpt>
      <trkpt lat="47.72883" lon="-3.36726">
        <ele>-11.4</ele>
        <time>2016-04-29T10:55:55Z</time>
      </trkpt>
      <trkpt lat="47.72881" lon="-3.36733">
        <ele>0.14</ele>
        <time>2016-04-29T10:56:15Z</time>
      </trkpt>
      <trkpt lat="47.72882" lon="-3.36731">
        <ele>0.62</ele>
        <time>2016-04-29T10:56:18Z</time>
      </trkpt>
      <trkpt lat="47.72887" lon="-3.3673">
        <ele>-0.82</ele>
        <time>2016-04-29T10:56:22Z</time>
      </trkpt>
      <trkpt lat="47.72906" lon="-3.36736">
        <ele>-2.75</ele>
        <time>2016-04-29T10:56:39Z</time>
      </trkpt>
      <trkpt lat="47.72914" lon="-3.36748">
        <ele>-0.34</ele>
        <time>2016-04-29T10:56:53Z</time>
      </trkpt>
      <trkpt lat="47.72912" lon="-3.36758">
        <ele>1.58</ele>
        <time>2016-04-29T10:57:02Z</time>
      </trkpt>
      <trkpt lat="47.72911" lon="-3.36765">
        <ele>2.06</ele>
        <time>2016-04-29T10:57:10Z</time>
      </trkpt>
      <trkpt lat="47.72924" lon="-3.36772">
        <ele>1.58</ele>
        <time>2016-04-29T10:57:27Z</time>
      </trkpt>
      <trkpt lat="47.72931" lon="-3.36775">
        <ele>1.58</ele>
        <time>2016-04-29T10:57:42Z</time>
      </trkpt>
      <trkpt lat="47.72928" lon="-3.36773">
        <ele>1.58</ele>
        <time>2016-04-29T10:57:45Z</time>
      </trkpt>
      <trkpt lat="47.7291" lon="-3.36765">
        <ele>0.62</ele>
        <time>2016-04-29T10:58:01Z</time>
      </trkpt>
      <trkpt lat="47.72899" lon="-3.36761">
        <ele>0.14</ele>
        <time>2016-04-29T10:58:16Z</time>
      </trkpt>
      <trkpt lat="47.72874" lon="-3.36749">
        <ele>1.1</ele>
        <time>2016-04-29T10:58:33Z</time>
      </trkpt>
      <trkpt lat="47.72853" lon="-3.3673">
        <ele>2.06</ele>
        <time>2016-04-29T10:58:51Z</time>
      </trkpt>
      <trkpt lat="47.72843" lon="-3.36714">
        <ele>3.02</ele>
        <time>2016-04-29T10:59:01Z</time>
      </trkpt>
      <trkpt lat="47.72839" lon="-3.36707">
        <ele>3.5</ele>
        <time>2016-04-29T10:59:05Z</time>
      </trkpt>
      <trkpt lat="47.72821" lon="-3.36678">
        <ele>3.5</ele>
        <time>2016-04-29T10:59:23Z</time>
      </trkpt>
      <trkpt lat="47.72804" lon="-3.36654">
        <ele>4.46</ele>
        <time>2016-04-29T10:59:40Z</time>
      </trkpt>
      <trkpt lat="47.72793" lon="-3.36674">
        <ele>3.98</ele>
        <time>2016-04-29T10:59:54Z</time>
      </trkpt>
      <trkpt lat="47.72791" lon="-3.36679">
        <ele>3.5</ele>
        <time>2016-04-29T10:59:58Z</time>
      </trkpt>
      <trkpt lat="47.728" lon="-3.367">
        <ele>2.06</ele>
        <time>2016-04-29T11:00:10Z</time>
      </trkpt>
      <trkpt lat="47.72817" lon="-3.36732">
        <ele>1.1</ele>
        <time>2016-04-29T11:00:30Z</time>
      </trkpt>
      <trkpt lat="47.72832" lon="-3.36759">
        <ele>0.62</ele>
        <time>2016-04-29T11:00:49Z</time>
      </trkpt>
      <trkpt lat="47.72842" lon="-3.3679">
        <ele>-2.27</ele>
        <time>2016-04-29T11:01:09Z</time>
      </trkpt>
      <trkpt lat="47.72842" lon="-3.36807">
        <ele>0.14</ele>
        <time>2016-04-29T11:01:19Z</time>
      </trkpt>
      <trkpt lat="47.72848" lon="-3.36839">
        <ele>2.06</ele>
        <time>2016-04-29T11:01:37Z</time>
      </trkpt>
      <trkpt lat="47.72847" lon="-3.36843">
        <ele>1.58</ele>
        <time>2016-04-29T11:01:40Z</time>
      </trkpt>
      <trkpt lat="47.72845" lon="-3.36873">
        <ele>0.62</ele>
        <time>2016-04-29T11:01:54Z</time>
      </trkpt>
      <trkpt lat="47.72837" lon="-3.36892">
        <ele>-1.79</ele>
        <time>2016-04-29T11:02:10Z</time>
      </trkpt>
      <trkpt lat="47.72819" lon="-3.36916">
        <ele>-1.3</ele>
        <time>2016-04-29T11:02:28Z</time>
      </trkpt>
      <trkpt lat="47.72801" lon="-3.36937">
        <ele>-0.34</ele>
        <time>2016-04-29T11:02:47Z</time>
      </trkpt>
      <trkpt lat="47.72797" lon="-3.36951">
        <ele>1.1</ele>
        <time>2016-04-29T11:03:02Z</time>
      </trkpt>
      <trkpt lat="47.72796" lon="-3.36951">
        <ele>1.58</ele>
        <time>2016-04-29T11:03:11Z</time>
      </trkpt>
      <trkpt lat="47.72801" lon="-3.36948">
        <ele>1.58</ele>
        <time>2016-04-29T11:03:15Z</time>
      </trkpt>
      <trkpt lat="47.72821" lon="-3.36933">
        <ele>2.54</ele>
        <time>2016-04-29T11:03:32Z</time>
      </trkpt>
      <trkpt lat="47.72839" lon="-3.36916">
        <ele>-0.82</ele>
        <time>2016-04-29T11:03:49Z</time>
      </trkpt>
      <trkpt lat="47.72849" lon="-3.36903">
        <ele>-3.71</ele>
        <time>2016-04-29T11:04:00Z</time>
      </trkpt>
      <trkpt lat="47.72857" lon="-3.36893">
        <ele>-4.19</ele>
        <time>2016-04-29T11:04:08Z</time>
      </trkpt>
      <trkpt lat="47.72873" lon="-3.36896">
        <ele>-7.55</ele>
        <time>2016-04-29T11:04:23Z</time>
      </trkpt>
      <trkpt lat="47.72888" lon="-3.3691">
        <ele>-11.88</ele>
        <time>2016-04-29T11:04:37Z</time>
      </trkpt>
      <trkpt lat="47.72891" lon="-3.36911">
        <ele>-11.88</ele>
        <time>2016-04-29T11:04:39Z</time>
      </trkpt>
      <trkpt lat="47.72909" lon="-3.36925">
        <ele>-9</ele>
        <time>2016-04-29T11:04:57Z</time>
      </trkpt>
      <trkpt lat="47.72911" lon="-3.36933">
        <ele>-8.51</ele>
        <time>2016-04-29T11:05:04Z</time>
      </trkpt>
      <trkpt lat="47.72927" lon="-3.36946">
        <ele>-9</ele>
        <time>2016-04-29T11:05:23Z</time>
      </trkpt>
      <trkpt lat="47.7295" lon="-3.36962">
        <ele>-11.4</ele>
        <time>2016-04-29T11:05:47Z</time>
      </trkpt>
      <trkpt lat="47.72966" lon="-3.36984">
        <ele>-13.8</ele>
        <time>2016-04-29T11:06:07Z</time>
      </trkpt>
      <trkpt lat="47.72975" lon="-3.36993">
        <ele>-14.28</ele>
        <time>2016-04-29T11:06:18Z</time>
      </trkpt>
      <trkpt lat="47.72978" lon="-3.36996">
        <ele>-14.28</ele>
        <time>2016-04-29T11:06:21Z</time>
      </trkpt>
      <trkpt lat="47.73007" lon="-3.37005">
        <ele>-9</ele>
        <time>2016-04-29T11:06:31Z</time>
      </trkpt>
      <trkpt lat="47.73014" lon="-3.37014">
        <ele>-4.67</ele>
        <time>2016-04-29T11:06:39Z</time>
      </trkpt>
      <trkpt lat="47.73014" lon="-3.37015">
        <ele>-3.71</ele>
        <time>2016-04-29T11:06:40Z</time>
      </trkpt>
      <trkpt lat="47.73012" lon="-3.37024">
        <ele>-1.79</ele>
        <time>2016-04-29T11:06:47Z</time>
      </trkpt>
      <trkpt lat="47.73011" lon="-3.37037">
        <ele>-1.79</ele>
        <time>2016-04-29T11:07:00Z</time>
      </trkpt>
      <trkpt lat="47.73001" lon="-3.37077">
        <ele>0.14</ele>
        <time>2016-04-29T11:07:22Z</time>
      </trkpt>
      <trkpt lat="47.72988" lon="-3.37107">
        <ele>0.62</ele>
        <time>2016-04-29T11:07:41Z</time>
      </trkpt>
      <trkpt lat="47.72977" lon="-3.37132">
        <ele>-0.34</ele>
        <time>2016-04-29T11:08:00Z</time>
      </trkpt>
      <trkpt lat="47.72977" lon="-3.3714">
        <ele>-1.3</ele>
        <time>2016-04-29T11:08:13Z</time>
      </trkpt>
      <trkpt lat="47.72973" lon="-3.37148">
        <ele>-1.79</ele>
        <time>2016-04-29T11:08:29Z</time>
      </trkpt>
      <trkpt lat="47.7297" lon="-3.37156">
        <ele>0.62</ele>
        <time>2016-04-29T11:08:39Z</time>
      </trkpt>
      <trkpt lat="47.72968" lon="-3.37164">
        <ele>1.58</ele>
        <time>2016-04-29T11:08:49Z</time>
      </trkpt>
      <trkpt lat="47.72966" lon="-3.37166">
        <ele>1.58</ele>
        <time>2016-04-29T11:08:51Z</time>
      </trkpt>
      <trkpt lat="47.7296" lon="-3.37169">
        <ele>-0.82</ele>
        <time>2016-04-29T11:08:57Z</time>
      </trkpt>
      <trkpt lat="47.72958" lon="-3.37172">
        <ele>-1.3</ele>
        <time>2016-04-29T11:08:59Z</time>
      </trkpt>
      <trkpt lat="47.72956" lon="-3.37179">
        <ele>-1.3</ele>
        <time>2016-04-29T11:09:10Z</time>
      </trkpt>
      <trkpt lat="47.72942" lon="-3.37165">
        <ele>1.58</ele>
        <time>2016-04-29T11:09:25Z</time>
      </trkpt>
      <trkpt lat="47.72926" lon="-3.37177">
        <ele>5.91</ele>
        <time>2016-04-29T11:09:41Z</time>
      </trkpt>
      <trkpt lat="47.72917" lon="-3.37187">
        <ele>6.39</ele>
        <time>2016-04-29T11:09:49Z</time>
      </trkpt>
      <trkpt lat="47.72895" lon="-3.37197">
        <ele>7.35</ele>
        <time>2016-04-29T11:10:07Z</time>
      </trkpt>
      <trkpt lat="47.72892" lon="-3.37197">
        <ele>6.87</ele>
        <time>2016-04-29T11:10:10Z</time>
      </trkpt>
      <trkpt lat="47.72884" lon="-3.3718">
        <ele>6.39</ele>
        <time>2016-04-29T11:10:21Z</time>
      </trkpt>
      <trkpt lat="47.72875" lon="-3.37164">
        <ele>5.91</ele>
        <time>2016-04-29T11:10:33Z</time>
      </trkpt>
      <trkpt lat="47.72873" lon="-3.37154">
        <ele>5.91</ele>
        <time>2016-04-29T11:10:42Z</time>
      </trkpt>
      <trkpt lat="47.72868" lon="-3.37149">
        <ele>4.94</ele>
        <time>2016-04-29T11:10:51Z</time>
      </trkpt>
      <trkpt lat="47.72858" lon="-3.37161">
        <ele>1.1</ele>
        <time>2016-04-29T11:11:04Z</time>
      </trkpt>
      <trkpt lat="47.72843" lon="-3.37181">
        <ele>-2.75</ele>
        <time>2016-04-29T11:11:19Z</time>
      </trkpt>
      <trkpt lat="47.72834" lon="-3.37194">
        <ele>-1.79</ele>
        <time>2016-04-29T11:11:32Z</time>
      </trkpt>
      <trkpt lat="47.72832" lon="-3.37198">
        <ele>-0.34</ele>
        <time>2016-04-29T11:11:45Z</time>
      </trkpt>
      <trkpt lat="47.7282" lon="-3.37211">
        <ele>0.62</ele>
        <time>2016-04-29T11:11:59Z</time>
      </trkpt>
      <trkpt lat="47.72808" lon="-3.3723">
        <ele>0.14</ele>
        <time>2016-04-29T11:12:15Z</time>
      </trkpt>
      <trkpt lat="47.72793" lon="-3.37252">
        <ele>-0.82</ele>
        <time>2016-04-29T11:12:34Z</time>
      </trkpt>
      <trkpt lat="47.72783" lon="-3.37266">
        <ele>-0.34</ele>
        <time>2016-04-29T11:12:48Z</time>
      </trkpt>
      <trkpt lat="47.72777" lon="-3.37266">
        <ele>0.62</ele>
        <time>2016-04-29T11:12:56Z</time>
      </trkpt>
      <trkpt lat="47.72765" lon="-3.37249">
        <ele>1.58</ele>
        <time>2016-04-29T11:13:12Z</time>
      </trkpt>
      <trkpt lat="47.72764" lon="-3.37248">
        <ele>1.58</ele>
        <time>2016-04-29T11:13:13Z</time>
      </trkpt>
      <trkpt lat="47.7276" lon="-3.3724">
        <ele>2.06</ele>
        <time>2016-04-29T11:13:25Z</time>
      </trkpt>
      <trkpt lat="47.72758" lon="-3.37236">
        <ele>2.54</ele>
        <time>2016-04-29T11:13:29Z</time>
      </trkpt>
      <trkpt lat="47.72753" lon="-3.37228">
        <ele>3.02</ele>
        <time>2016-04-29T11:13:38Z</time>
      </trkpt>
      <trkpt lat="47.72742" lon="-3.37213">
        <ele>1.58</ele>
        <time>2016-04-29T11:13:53Z</time>
      </trkpt>
      <trkpt lat="47.7273" lon="-3.37194">
        <ele>2.06</ele>
        <time>2016-04-29T11:14:10Z</time>
      </trkpt>
      <trkpt lat="47.72729" lon="-3.37192">
        <ele>2.06</ele>
        <time>2016-04-29T11:14:13Z</time>
      </trkpt>
      <trkpt lat="47.72726" lon="-3.37189">
        <ele>2.06</ele>
        <time>2016-04-29T11:14:16Z</time>
      </trkpt>
      <trkpt lat="47.72719" lon="-3.37174">
        <ele>3.02</ele>
        <time>2016-04-29T11:14:30Z</time>
      </trkpt>
      <trkpt lat="47.72717" lon="-3.37171">
        <ele>3.02</ele>
        <time>2016-04-29T11:14:33Z</time>
      </trkpt>
      <trkpt lat="47.72706" lon="-3.37156">
        <ele>2.54</ele>
        <time>2016-04-29T11:14:48Z</time>
      </trkpt>
      <trkpt lat="47.72705" lon="-3.37148">
        <ele>0.62</ele>
        <time>2016-04-29T11:15:00Z</time>
      </trkpt>
      <trkpt lat="47.72706" lon="-3.37148">
        <ele>1.1</ele>
        <time>2016-04-29T11:15:15Z</time>
      </trkpt>
      <trkpt lat="47.72706" lon="-3.37148">
        <ele>1.58</ele>
        <time>2016-04-29T11:15:27Z</time>
      </trkpt>
      <trkpt lat="47.727" lon="-3.37141">
        <ele>1.58</ele>
        <time>2016-04-29T11:15:39Z</time>
      </trkpt>
      <trkpt lat="47.72699" lon="-3.37139">
        <ele>1.58</ele>
        <time>2016-04-29T11:15:52Z</time>
      </trkpt>
      <trkpt lat="47.72707" lon="-3.37151">
        <ele>2.54</ele>
        <time>2016-04-29T11:16:06Z</time>
      </trkpt>
      <trkpt lat="47.72695" lon="-3.37133">
        <ele>1.58</ele>
        <time>2016-04-29T11:16:21Z</time>
      </trkpt>
      <trkpt lat="47.72685" lon="-3.37114">
        <ele>1.1</ele>
        <time>2016-04-29T11:16:35Z</time>
      </trkpt>
      <trkpt lat="47.72676" lon="-3.37104">
        <ele>1.1</ele>
        <time>2016-04-29T11:16:48Z</time>
      </trkpt>
      <trkpt lat="47.72686" lon="-3.37114">
        <ele>0.14</ele>
        <time>2016-04-29T11:17:06Z</time>
      </trkpt>
      <trkpt lat="47.72688" lon="-3.37117">
        <ele>1.1</ele>
        <time>2016-04-29T11:17:19Z</time>
      </trkpt>
      <trkpt lat="47.72698" lon="-3.37135">
        <ele>1.1</ele>
        <time>2016-04-29T11:17:33Z</time>
      </trkpt>
      <trkpt lat="47.7271" lon="-3.37155">
        <ele>1.58</ele>
        <time>2016-04-29T11:17:50Z</time>
      </trkpt>
      <trkpt lat="47.72717" lon="-3.37165">
        <ele>3.02</ele>
        <time>2016-04-29T11:18:04Z</time>
      </trkpt>
      <trkpt lat="47.7272" lon="-3.37168">
        <ele>3.5</ele>
        <time>2016-04-29T11:18:15Z</time>
      </trkpt>
      <trkpt lat="47.72726" lon="-3.37183">
        <ele>2.54</ele>
        <time>2016-04-29T11:18:30Z</time>
      </trkpt>
      <trkpt lat="47.72728" lon="-3.37186">
        <ele>2.54</ele>
        <time>2016-04-29T11:18:37Z</time>
      </trkpt>
      <trkpt lat="47.7273" lon="-3.37187">
        <ele>2.54</ele>
        <time>2016-04-29T11:18:39Z</time>
      </trkpt>
      <trkpt lat="47.72738" lon="-3.37181">
        <ele>3.02</ele>
        <time>2016-04-29T11:18:56Z</time>
      </trkpt>
      <trkpt lat="47.72739" lon="-3.37182">
        <ele>3.5</ele>
        <time>2016-04-29T11:19:20Z</time>
      </trkpt>
      <trkpt lat="47.72735" lon="-3.37189">
        <ele>2.54</ele>
        <time>2016-04-29T11:19:41Z</time>
      </trkpt>
      <trkpt lat="47.72738" lon="-3.37199">
        <ele>2.54</ele>
        <time>2016-04-29T11:19:49Z</time>
      </trkpt>
      <trkpt lat="47.7275" lon="-3.37221">
        <ele>1.58</ele>
        <time>2016-04-29T11:20:06Z</time>
      </trkpt>
      <trkpt lat="47.72764" lon="-3.37245">
        <ele>2.06</ele>
        <time>2016-04-29T11:20:23Z</time>
      </trkpt>
      <trkpt lat="47.72777" lon="-3.37263">
        <ele>0.62</ele>
        <time>2016-04-29T11:20:38Z</time>
      </trkpt>
      <trkpt lat="47.72781" lon="-3.3726">
        <ele>-0.34</ele>
        <time>2016-04-29T11:20:42Z</time>
      </trkpt>
      <trkpt lat="47.72799" lon="-3.37242">
        <ele>-1.3</ele>
        <time>2016-04-29T11:20:59Z</time>
      </trkpt>
      <trkpt lat="47.72814" lon="-3.37224">
        <ele>-5.15</ele>
        <time>2016-04-29T11:21:15Z</time>
      </trkpt>
      <trkpt lat="47.72828" lon="-3.37199">
        <ele>-4.67</ele>
        <time>2016-04-29T11:21:31Z</time>
      </trkpt>
      <trkpt lat="47.7284" lon="-3.37182">
        <ele>-2.27</ele>
        <time>2016-04-29T11:21:46Z</time>
      </trkpt>
      <trkpt lat="47.72845" lon="-3.37175">
        <ele>-2.27</ele>
        <time>2016-04-29T11:21:53Z</time>
      </trkpt>
      <trkpt lat="47.72856" lon="-3.3716">
        <ele>-1.3</ele>
        <time>2016-04-29T11:22:06Z</time>
      </trkpt>
      <trkpt lat="47.72862" lon="-3.37153">
        <ele>-0.82</ele>
        <time>2016-04-29T11:22:13Z</time>
      </trkpt>
      <trkpt lat="47.72866" lon="-3.37147">
        <ele>0.14</ele>
        <time>2016-04-29T11:22:18Z</time>
      </trkpt>
      <trkpt lat="47.72874" lon="-3.37146">
        <ele>1.1</ele>
        <time>2016-04-29T11:22:24Z</time>
      </trkpt>
      <trkpt lat="47.72879" lon="-3.37151">
        <ele>2.06</ele>
        <time>2016-04-29T11:22:30Z</time>
      </trkpt>
      <trkpt lat="47.72894" lon="-3.37168">
        <ele>2.54</ele>
        <time>2016-04-29T11:22:46Z</time>
      </trkpt>
      <trkpt lat="47.72898" lon="-3.37165">
        <ele>2.54</ele>
        <time>2016-04-29T11:22:50Z</time>
      </trkpt>
      <trkpt lat="47.72919" lon="-3.37157">
        <ele>1.1</ele>
        <time>2016-04-29T11:23:05Z</time>
      </trkpt>
      <trkpt lat="47.72931" lon="-3.37158">
        <ele>-0.34</ele>
        <time>2016-04-29T11:23:17Z</time>
      </trkpt>
      <trkpt lat="47.7295" lon="-3.37165">
        <ele>-2.75</ele>
        <time>2016-04-29T11:23:34Z</time>
      </trkpt>
      <trkpt lat="47.72956" lon="-3.37161">
        <ele>-7.55</ele>
        <time>2016-04-29T11:23:45Z</time>
      </trkpt>
      <trkpt lat="47.72966" lon="-3.37143">
        <ele>-10.44</ele>
        <time>2016-04-29T11:24:00Z</time>
      </trkpt>
      <trkpt lat="47.72982" lon="-3.37119">
        <ele>-7.55</ele>
        <time>2016-04-29T11:24:18Z</time>
      </trkpt>
      <trkpt lat="47.73006" lon="-3.37138">
        <ele>-4.67</ele>
        <time>2016-04-29T11:24:37Z</time>
      </trkpt>
      <trkpt lat="47.73026" lon="-3.37158">
        <ele>-3.23</ele>
        <time>2016-04-29T11:24:56Z</time>
      </trkpt>
      <trkpt lat="47.7303" lon="-3.37187">
        <ele>-0.82</ele>
        <time>2016-04-29T11:25:14Z</time>
      </trkpt>
      <trkpt lat="47.7303" lon="-3.37192">
        <ele>3.5</ele>
        <time>2016-04-29T11:25:27Z</time>
      </trkpt>
      <trkpt lat="47.73029" lon="-3.37189">
        <ele>3.98</ele>
        <time>2016-04-29T11:25:29Z</time>
      </trkpt>
      <trkpt lat="47.73027" lon="-3.37175">
        <ele>7.35</ele>
        <time>2016-04-29T11:25:45Z</time>
      </trkpt>
      <trkpt lat="47.7303" lon="-3.37166">
        <ele>7.35</ele>
        <time>2016-04-29T11:25:54Z</time>
      </trkpt>
      <trkpt lat="47.73025" lon="-3.37154">
        <ele>6.87</ele>
        <time>2016-04-29T11:26:03Z</time>
      </trkpt>
      <trkpt lat="47.73" lon="-3.37135">
        <ele>8.79</ele>
        <time>2016-04-29T11:26:25Z</time>
      </trkpt>
      <trkpt lat="47.72989" lon="-3.37126">
        <ele>7.83</ele>
        <time>2016-04-29T11:26:36Z</time>
      </trkpt>
      <trkpt lat="47.72976" lon="-3.37146">
        <ele>5.91</ele>
        <time>2016-04-29T11:26:53Z</time>
      </trkpt>
      <trkpt lat="47.72968" lon="-3.37165">
        <ele>5.42</ele>
        <time>2016-04-29T11:27:08Z</time>
      </trkpt>
      <trkpt lat="47.72967" lon="-3.37167">
        <ele>5.42</ele>
        <time>2016-04-29T11:27:10Z</time>
      </trkpt>
      <trkpt lat="47.72961" lon="-3.37175">
        <ele>3.98</ele>
        <time>2016-04-29T11:27:18Z</time>
      </trkpt>
      <trkpt lat="47.7296" lon="-3.37184">
        <ele>0.62</ele>
        <time>2016-04-29T11:27:29Z</time>
      </trkpt>
      <trkpt lat="47.72972" lon="-3.37211">
        <ele>2.06</ele>
        <time>2016-04-29T11:27:46Z</time>
      </trkpt>
      <trkpt lat="47.72991" lon="-3.37224">
        <ele>3.98</ele>
        <time>2016-04-29T11:28:04Z</time>
      </trkpt>
      <trkpt lat="47.73004" lon="-3.37234">
        <ele>3.5</ele>
        <time>2016-04-29T11:28:20Z</time>
      </trkpt>
      <trkpt lat="47.73007" lon="-3.37232">
        <ele>2.54</ele>
        <time>2016-04-29T11:28:23Z</time>
      </trkpt>
      <trkpt lat="47.73008" lon="-3.3723">
        <ele>1.58</ele>
        <time>2016-04-29T11:28:25Z</time>
      </trkpt>
      <trkpt lat="47.73011" lon="-3.37229">
        <ele>0.14</ele>
        <time>2016-04-29T11:28:28Z</time>
      </trkpt>
      <trkpt lat="47.73013" lon="-3.3723">
        <ele>-0.82</ele>
        <time>2016-04-29T11:28:30Z</time>
      </trkpt>
      <trkpt lat="47.7302" lon="-3.37226">
        <ele>-3.71</ele>
        <time>2016-04-29T11:28:42Z</time>
      </trkpt>
      <trkpt lat="47.7302" lon="-3.37224">
        <ele>-0.34</ele>
        <time>2016-04-29T11:28:55Z</time>
      </trkpt>
      <trkpt lat="47.73018" lon="-3.37227">
        <ele>1.1</ele>
        <time>2016-04-29T11:28:59Z</time>
      </trkpt>
      <trkpt lat="47.7301" lon="-3.37232">
        <ele>3.02</ele>
        <time>2016-04-29T11:29:07Z</time>
      </trkpt>
      <trkpt lat="47.73019" lon="-3.37258">
        <ele>4.94</ele>
        <time>2016-04-29T11:29:27Z</time>
      </trkpt>
      <trkpt lat="47.73029" lon="-3.37267">
        <ele>4.94</ele>
        <time>2016-04-29T11:29:37Z</time>
      </trkpt>
      <trkpt lat="47.73035" lon="-3.37265">
        <ele>4.46</ele>
        <time>2016-04-29T11:29:49Z</time>
      </trkpt>
      <trkpt lat="47.73037" lon="-3.37265">
        <ele>3.98</ele>
        <time>2016-04-29T11:29:54Z</time>
      </trkpt>
      <trkpt lat="47.73054" lon="-3.37272">
        <ele>0.62</ele>
        <time>2016-04-29T11:30:13Z</time>
      </trkpt>
      <trkpt lat="47.7306" lon="-3.37279">
        <ele>1.1</ele>
        <time>2016-04-29T11:30:18Z</time>
      </trkpt>
      <trkpt lat="47.73073" lon="-3.37292">
        <ele>-1.3</ele>
        <time>2016-04-29T11:30:33Z</time>
      </trkpt>
      <trkpt lat="47.73087" lon="-3.37307">
        <ele>-0.82</ele>
        <time>2016-04-29T11:30:47Z</time>
      </trkpt>
      <trkpt lat="47.73108" lon="-3.37335">
        <ele>3.98</ele>
        <time>2016-04-29T11:31:07Z</time>
      </trkpt>
      <trkpt lat="47.73125" lon="-3.37352">
        <ele>5.42</ele>
        <time>2016-04-29T11:31:25Z</time>
      </trkpt>
      <trkpt lat="47.73141" lon="-3.37367">
        <ele>6.87</ele>
        <time>2016-04-29T11:31:41Z</time>
      </trkpt>
      <trkpt lat="47.73147" lon="-3.37369">
        <ele>7.35</ele>
        <time>2016-04-29T11:31:55Z</time>
      </trkpt>
      <trkpt lat="47.73163" lon="-3.37387">
        <ele>7.83</ele>
        <time>2016-04-29T11:32:12Z</time>
      </trkpt>
      <trkpt lat="47.73189" lon="-3.37405">
        <ele>7.35</ele>
        <time>2016-04-29T11:32:36Z</time>
      </trkpt>
      <trkpt lat="47.73209" lon="-3.37422">
        <ele>6.39</ele>
        <time>2016-04-29T11:32:56Z</time>
      </trkpt>
      <trkpt lat="47.73216" lon="-3.37424">
        <ele>5.91</ele>
        <time>2016-04-29T11:33:06Z</time>
      </trkpt>
      <trkpt lat="47.73227" lon="-3.37435">
        <ele>5.42</ele>
        <time>2016-04-29T11:33:17Z</time>
      </trkpt>
      <trkpt lat="47.73231" lon="-3.37442">
        <ele>4.94</ele>
        <time>2016-04-29T11:33:22Z</time>
      </trkpt>
      <trkpt lat="47.73238" lon="-3.37438">
        <ele>4.46</ele>
        <time>2016-04-29T11:33:29Z</time>
      </trkpt>
      <trkpt lat="47.73239" lon="-3.37436">
        <ele>4.46</ele>
        <time>2016-04-29T11:33:31Z</time>
      </trkpt>
      <trkpt lat="47.73241" lon="-3.37427">
        <ele>1.1</ele>
        <time>2016-04-29T11:33:42Z</time>
      </trkpt>
      <trkpt lat="47.73242" lon="-3.37426">
        <ele>1.58</ele>
        <time>2016-04-29T11:33:50Z</time>
      </trkpt>
      <trkpt lat="47.73242" lon="-3.37432">
        <ele>0.62</ele>
        <time>2016-04-29T11:33:56Z</time>
      </trkpt>
      <trkpt lat="47.73259" lon="-3.37465">
        <ele>0.14</ele>
        <time>2016-04-29T11:34:17Z</time>
      </trkpt>
      <trkpt lat="47.73273" lon="-3.37475">
        <ele>0.14</ele>
        <time>2016-04-29T11:34:29Z</time>
      </trkpt>
      <trkpt lat="47.73286" lon="-3.37474">
        <ele>-0.34</ele>
        <time>2016-04-29T11:34:44Z</time>
      </trkpt>
      <trkpt lat="47.73295" lon="-3.37477">
        <ele>0.14</ele>
        <time>2016-04-29T11:34:52Z</time>
      </trkpt>
      <trkpt lat="47.73305" lon="-3.37476">
        <ele>-0.34</ele>
        <time>2016-04-29T11:35:06Z</time>
      </trkpt>
      <trkpt lat="47.73306" lon="-3.37476">
        <ele>-0.34</ele>
        <time>2016-04-29T11:35:28Z</time>
      </trkpt>
    </trkseg>
  </trk>
  <trk>
    <name><![CDATA[Tracé actuel: 30 AVR 2016 15:11]]></name>
    <trkseg>
      <trkpt lat="47.72592" lon="-3.3522">
        <ele>14.08</ele>
        <time>2016-04-30T13:11:29Z</time>
      </trkpt>
      <trkpt lat="47.72577" lon="-3.35274">
        <ele>16.48</ele>
        <time>2016-04-30T13:11:47Z</time>
      </trkpt>
      <trkpt lat="47.72557" lon="-3.35316">
        <ele>16</ele>
        <time>2016-04-30T13:12:03Z</time>
      </trkpt>
      <trkpt lat="47.72558" lon="-3.35322">
        <ele>16</ele>
        <time>2016-04-30T13:12:06Z</time>
      </trkpt>
      <trkpt lat="47.72564" lon="-3.35322">
        <ele>16</ele>
        <time>2016-04-30T13:12:11Z</time>
      </trkpt>
      <trkpt lat="47.72561" lon="-3.35303">
        <ele>16</ele>
        <time>2016-04-30T13:12:22Z</time>
      </trkpt>
      <trkpt lat="47.72531" lon="-3.35315">
        <ele>6.39</ele>
        <time>2016-04-30T13:12:37Z</time>
      </trkpt>
      <trkpt lat="47.72477" lon="-3.35357">
        <ele>4.94</ele>
        <time>2016-04-30T13:13:01Z</time>
      </trkpt>
      <trkpt lat="47.72423" lon="-3.35384">
        <ele>2.54</ele>
        <time>2016-04-30T13:13:24Z</time>
      </trkpt>
      <trkpt lat="47.72382" lon="-3.354">
        <ele>1.1</ele>
        <time>2016-04-30T13:13:41Z</time>
      </trkpt>
      <trkpt lat="47.72346" lon="-3.3542">
        <ele>0.62</ele>
        <time>2016-04-30T13:13:56Z</time>
      </trkpt>
      <trkpt lat="47.72318" lon="-3.35431">
        <ele>0.62</ele>
        <time>2016-04-30T13:14:07Z</time>
      </trkpt>
      <trkpt lat="47.72285" lon="-3.35436">
        <ele>0.14</ele>
        <time>2016-04-30T13:14:19Z</time>
      </trkpt>
      <trkpt lat="47.72256" lon="-3.35446">
        <ele>0.62</ele>
        <time>2016-04-30T13:14:30Z</time>
      </trkpt>
      <trkpt lat="47.72215" lon="-3.35469">
        <ele>0.62</ele>
        <time>2016-04-30T13:14:47Z</time>
      </trkpt>
      <trkpt lat="47.7218" lon="-3.35489">
        <ele>0.62</ele>
        <time>2016-04-30T13:15:02Z</time>
      </trkpt>
      <trkpt lat="47.72148" lon="-3.35507">
        <ele>-0.34</ele>
        <time>2016-04-30T13:15:15Z</time>
      </trkpt>
      <trkpt lat="47.72123" lon="-3.35521">
        <ele>-0.34</ele>
        <time>2016-04-30T13:15:25Z</time>
      </trkpt>
      <trkpt lat="47.72091" lon="-3.35536">
        <ele>-1.3</ele>
        <time>2016-04-30T13:15:38Z</time>
      </trkpt>
      <trkpt lat="47.72042" lon="-3.35572">
        <ele>-1.3</ele>
        <time>2016-04-30T13:15:59Z</time>
      </trkpt>
      <trkpt lat="47.72008" lon="-3.35598">
        <ele>-1.3</ele>
        <time>2016-04-30T13:16:13Z</time>
      </trkpt>
      <trkpt lat="47.71978" lon="-3.35623">
        <ele>-1.3</ele>
        <time>2016-04-30T13:16:26Z</time>
      </trkpt>
      <trkpt lat="47.71935" lon="-3.35657">
        <ele>0.14</ele>
        <time>2016-04-30T13:16:45Z</time>
      </trkpt>
      <trkpt lat="47.71908" lon="-3.35685">
        <ele>-0.34</ele>
        <time>2016-04-30T13:16:58Z</time>
      </trkpt>
      <trkpt lat="47.71873" lon="-3.35713">
        <ele>-0.82</ele>
        <time>2016-04-30T13:17:14Z</time>
      </trkpt>
      <trkpt lat="47.71828" lon="-3.35737">
        <ele>-1.79</ele>
        <time>2016-04-30T13:17:33Z</time>
      </trkpt>
      <trkpt lat="47.71793" lon="-3.35755">
        <ele>-1.79</ele>
        <time>2016-04-30T13:17:48Z</time>
      </trkpt>
      <trkpt lat="47.71757" lon="-3.35766">
        <ele>-0.82</ele>
        <time>2016-04-30T13:18:04Z</time>
      </trkpt>
      <trkpt lat="47.71728" lon="-3.35776">
        <ele>-1.3</ele>
        <time>2016-04-30T13:18:17Z</time>
      </trkpt>
      <trkpt lat="47.71698" lon="-3.35793">
        <ele>-0.34</ele>
        <time>2016-04-30T13:18:31Z</time>
      </trkpt>
      <trkpt lat="47.71668" lon="-3.35826">
        <ele>-0.34</ele>
        <time>2016-04-30T13:18:49Z</time>
      </trkpt>
      <trkpt lat="47.71642" lon="-3.35846">
        <ele>0.62</ele>
        <time>2016-04-30T13:19:04Z</time>
      </trkpt>
      <trkpt lat="47.71606" lon="-3.35825">
        <ele>1.1</ele>
        <time>2016-04-30T13:19:22Z</time>
      </trkpt>
      <trkpt lat="47.71599" lon="-3.35781">
        <ele>0.62</ele>
        <time>2016-04-30T13:19:40Z</time>
      </trkpt>
      <trkpt lat="47.71612" lon="-3.35768">
        <ele>0.14</ele>
        <time>2016-04-30T13:19:52Z</time>
      </trkpt>
      <trkpt lat="47.71631" lon="-3.3578">
        <ele>-1.3</ele>
        <time>2016-04-30T13:20:10Z</time>
      </trkpt>
      <trkpt lat="47.71634" lon="-3.35784">
        <ele>-0.82</ele>
        <time>2016-04-30T13:20:14Z</time>
      </trkpt>
      <trkpt lat="47.71642" lon="-3.35799">
        <ele>-0.34</ele>
        <time>2016-04-30T13:20:30Z</time>
      </trkpt>
      <trkpt lat="47.71642" lon="-3.35801">
        <ele>-0.34</ele>
        <time>2016-04-30T13:20:32Z</time>
      </trkpt>
      <trkpt lat="47.71624" lon="-3.3582">
        <ele>0.14</ele>
        <time>2016-04-30T13:20:48Z</time>
      </trkpt>
      <trkpt lat="47.71612" lon="-3.35799">
        <ele>0.62</ele>
        <time>2016-04-30T13:21:01Z</time>
      </trkpt>
      <trkpt lat="47.71621" lon="-3.35788">
        <ele>0.62</ele>
        <time>2016-04-30T13:21:19Z</time>
      </trkpt>
      <trkpt lat="47.71622" lon="-3.3578">
        <ele>0.62</ele>
        <time>2016-04-30T13:21:31Z</time>
      </trkpt>
      <trkpt lat="47.71599" lon="-3.35761">
        <ele>1.1</ele>
        <time>2016-04-30T13:21:47Z</time>
      </trkpt>
      <trkpt lat="47.71589" lon="-3.35789">
        <ele>0.62</ele>
        <time>2016-04-30T13:21:58Z</time>
      </trkpt>
      <trkpt lat="47.71593" lon="-3.35816">
        <ele>-0.34</ele>
        <time>2016-04-30T13:22:10Z</time>
      </trkpt>
      <trkpt lat="47.71599" lon="-3.35837">
        <ele>-0.34</ele>
        <time>2016-04-30T13:22:23Z</time>
      </trkpt>
      <trkpt lat="47.71606" lon="-3.35872">
        <ele>0.14</ele>
        <time>2016-04-30T13:22:44Z</time>
      </trkpt>
      <trkpt lat="47.71606" lon="-3.35877">
        <ele>0.62</ele>
        <time>2016-04-30T13:22:46Z</time>
      </trkpt>
      <trkpt lat="47.71614" lon="-3.35909">
        <ele>2.06</ele>
        <time>2016-04-30T13:23:03Z</time>
      </trkpt>
      <trkpt lat="47.71614" lon="-3.35912">
        <ele>2.06</ele>
        <time>2016-04-30T13:23:05Z</time>
      </trkpt>
      <trkpt lat="47.71612" lon="-3.35942">
        <ele>1.1</ele>
        <time>2016-04-30T13:23:19Z</time>
      </trkpt>
      <trkpt lat="47.71615" lon="-3.35957">
        <ele>-0.34</ele>
        <time>2016-04-30T13:23:28Z</time>
      </trkpt>
      <trkpt lat="47.71613" lon="-3.35988">
        <ele>-1.79</ele>
        <time>2016-04-30T13:23:40Z</time>
      </trkpt>
      <trkpt lat="47.71617" lon="-3.36012">
        <ele>-1.79</ele>
        <time>2016-04-30T13:23:51Z</time>
      </trkpt>
      <trkpt lat="47.71621" lon="-3.36024">
        <ele>-1.79</ele>
        <time>2016-04-30T13:23:58Z</time>
      </trkpt>
      <trkpt lat="47.71625" lon="-3.36043">
        <ele>-1.3</ele>
        <time>2016-04-30T13:24:11Z</time>
      </trkpt>
      <trkpt lat="47.71622" lon="-3.36061">
        <ele>-0.34</ele>
        <time>2016-04-30T13:24:23Z</time>
      </trkpt>
      <trkpt lat="47.7162" lon="-3.36066">
        <ele>-0.34</ele>
        <time>2016-04-30T13:24:26Z</time>
      </trkpt>
      <trkpt lat="47.71605" lon="-3.36095">
        <ele>0.14</ele>
        <time>2016-04-30T13:24:43Z</time>
      </trkpt>
      <trkpt lat="47.7158" lon="-3.36127">
        <ele>-0.34</ele>
        <time>2016-04-30T13:24:55Z</time>
      </trkpt>
      <trkpt lat="47.7155" lon="-3.36164">
        <ele>0.14</ele>
        <time>2016-04-30T13:25:08Z</time>
      </trkpt>
      <trkpt lat="47.71523" lon="-3.36203">
        <ele>-1.3</ele>
        <time>2016-04-30T13:25:21Z</time>
      </trkpt>
      <trkpt lat="47.71489" lon="-3.36251">
        <ele>-2.27</ele>
        <time>2016-04-30T13:25:36Z</time>
      </trkpt>
      <trkpt lat="47.71465" lon="-3.36289">
        <ele>-1.3</ele>
        <time>2016-04-30T13:25:48Z</time>
      </trkpt>
      <trkpt lat="47.71426" lon="-3.36347">
        <ele>-0.34</ele>
        <time>2016-04-30T13:26:07Z</time>
      </trkpt>
      <trkpt lat="47.71386" lon="-3.36407">
        <ele>0.62</ele>
        <time>2016-04-30T13:26:26Z</time>
      </trkpt>
      <trkpt lat="47.71339" lon="-3.36455">
        <ele>0.14</ele>
        <time>2016-04-30T13:26:44Z</time>
      </trkpt>
      <trkpt lat="47.71294" lon="-3.36493">
        <ele>0.14</ele>
        <time>2016-04-30T13:27:01Z</time>
      </trkpt>
      <trkpt lat="47.71245" lon="-3.36536">
        <ele>-0.82</ele>
        <time>2016-04-30T13:27:19Z</time>
      </trkpt>
      <trkpt lat="47.71204" lon="-3.36571">
        <ele>-3.23</ele>
        <time>2016-04-30T13:27:35Z</time>
      </trkpt>
      <trkpt lat="47.71167" lon="-3.36609">
        <ele>-3.23</ele>
        <time>2016-04-30T13:27:50Z</time>
      </trkpt>
      <trkpt lat="47.71138" lon="-3.36636">
        <ele>-3.71</ele>
        <time>2016-04-30T13:28:01Z</time>
      </trkpt>
      <trkpt lat="47.71098" lon="-3.36669">
        <ele>-3.71</ele>
        <time>2016-04-30T13:28:14Z</time>
      </trkpt>
      <trkpt lat="47.71052" lon="-3.367">
        <ele>-2.75</ele>
        <time>2016-04-30T13:28:31Z</time>
      </trkpt>
      <trkpt lat="47.71015" lon="-3.36721">
        <ele>-1.3</ele>
        <time>2016-04-30T13:28:45Z</time>
      </trkpt>
      <trkpt lat="47.71009" lon="-3.36725">
        <ele>-1.79</ele>
        <time>2016-04-30T13:28:48Z</time>
      </trkpt>
      <trkpt lat="47.70977" lon="-3.36738">
        <ele>-1.79</ele>
        <time>2016-04-30T13:29:00Z</time>
      </trkpt>
      <trkpt lat="47.70941" lon="-3.36758">
        <ele>-0.82</ele>
        <time>2016-04-30T13:29:14Z</time>
      </trkpt>
      <trkpt lat="47.70906" lon="-3.36779">
        <ele>0.14</ele>
        <time>2016-04-30T13:29:28Z</time>
      </trkpt>
      <trkpt lat="47.70866" lon="-3.36805">
        <ele>0.62</ele>
        <time>2016-04-30T13:29:45Z</time>
      </trkpt>
      <trkpt lat="47.70833" lon="-3.36834">
        <ele>-1.3</ele>
        <time>2016-04-30T13:29:58Z</time>
      </trkpt>
      <trkpt lat="47.70795" lon="-3.36862">
        <ele>-2.75</ele>
        <time>2016-04-30T13:30:12Z</time>
      </trkpt>
      <trkpt lat="47.70762" lon="-3.36883">
        <ele>-3.23</ele>
        <time>2016-04-30T13:30:25Z</time>
      </trkpt>
      <trkpt lat="47.70731" lon="-3.369">
        <ele>-2.75</ele>
        <time>2016-04-30T13:30:37Z</time>
      </trkpt>
      <trkpt lat="47.70693" lon="-3.3692">
        <ele>-2.75</ele>
        <time>2016-04-30T13:30:51Z</time>
      </trkpt>
      <trkpt lat="47.70661" lon="-3.3694">
        <ele>-3.71</ele>
        <time>2016-04-30T13:31:03Z</time>
      </trkpt>
      <trkpt lat="47.70616" lon="-3.36968">
        <ele>-4.19</ele>
        <time>2016-04-30T13:31:20Z</time>
      </trkpt>
      <trkpt lat="47.70583" lon="-3.36984">
        <ele>-2.75</ele>
        <time>2016-04-30T13:31:31Z</time>
      </trkpt>
      <trkpt lat="47.70537" lon="-3.37013">
        <ele>-1.79</ele>
        <time>2016-04-30T13:31:46Z</time>
      </trkpt>
      <trkpt lat="47.70504" lon="-3.37031">
        <ele>-0.82</ele>
        <time>2016-04-30T13:31:57Z</time>
      </trkpt>
      <trkpt lat="47.70464" lon="-3.37057">
        <ele>-0.34</ele>
        <time>2016-04-30T13:32:10Z</time>
      </trkpt>
      <trkpt lat="47.70422" lon="-3.37084">
        <ele>-0.34</ele>
        <time>2016-04-30T13:32:24Z</time>
      </trkpt>
      <trkpt lat="47.70377" lon="-3.37118">
        <ele>-0.82</ele>
        <time>2016-04-30T13:32:38Z</time>
      </trkpt>
      <trkpt lat="47.70339" lon="-3.3715">
        <ele>-1.79</ele>
        <time>2016-04-30T13:32:51Z</time>
      </trkpt>
      <trkpt lat="47.70297" lon="-3.37185">
        <ele>-1.79</ele>
        <time>2016-04-30T13:33:05Z</time>
      </trkpt>
      <trkpt lat="47.70251" lon="-3.37219">
        <ele>-1.79</ele>
        <time>2016-04-30T13:33:20Z</time>
      </trkpt>
      <trkpt lat="47.70211" lon="-3.37245">
        <ele>0.14</ele>
        <time>2016-04-30T13:33:33Z</time>
      </trkpt>
      <trkpt lat="47.70171" lon="-3.37271">
        <ele>0.14</ele>
        <time>2016-04-30T13:33:46Z</time>
      </trkpt>
      <trkpt lat="47.70121" lon="-3.37303">
        <ele>-1.3</ele>
        <time>2016-04-30T13:34:02Z</time>
      </trkpt>
      <trkpt lat="47.70076" lon="-3.37335">
        <ele>-1.3</ele>
        <time>2016-04-30T13:34:17Z</time>
      </trkpt>
      <trkpt lat="47.70027" lon="-3.37372">
        <ele>-1.3</ele>
        <time>2016-04-30T13:34:34Z</time>
      </trkpt>
      <trkpt lat="47.69983" lon="-3.37404">
        <ele>-1.3</ele>
        <time>2016-04-30T13:34:49Z</time>
      </trkpt>
      <trkpt lat="47.69932" lon="-3.37438">
        <ele>-1.3</ele>
        <time>2016-04-30T13:35:06Z</time>
      </trkpt>
      <trkpt lat="47.69883" lon="-3.37476">
        <ele>-0.82</ele>
        <time>2016-04-30T13:35:24Z</time>
      </trkpt>
      <trkpt lat="47.69844" lon="-3.37517">
        <ele>-0.34</ele>
        <time>2016-04-30T13:35:39Z</time>
      </trkpt>
      <trkpt lat="47.69812" lon="-3.37561">
        <ele>-0.34</ele>
        <time>2016-04-30T13:35:52Z</time>
      </trkpt>
      <trkpt lat="47.69773" lon="-3.37604">
        <ele>0.14</ele>
        <time>2016-04-30T13:36:06Z</time>
      </trkpt>
      <trkpt lat="47.69732" lon="-3.37663">
        <ele>-1.3</ele>
        <time>2016-04-30T13:36:22Z</time>
      </trkpt>
      <trkpt lat="47.69697" lon="-3.37719">
        <ele>-1.79</ele>
        <time>2016-04-30T13:36:37Z</time>
      </trkpt>
      <trkpt lat="47.69672" lon="-3.3777">
        <ele>-2.27</ele>
        <time>2016-04-30T13:36:50Z</time>
      </trkpt>
      <trkpt lat="47.69645" lon="-3.37834">
        <ele>-2.27</ele>
        <time>2016-04-30T13:37:06Z</time>
      </trkpt>
      <trkpt lat="47.69617" lon="-3.37909">
        <ele>-2.27</ele>
        <time>2016-04-30T13:37:23Z</time>
      </trkpt>
      <trkpt lat="47.69593" lon="-3.37971">
        <ele>-3.23</ele>
        <time>2016-04-30T13:37:38Z</time>
      </trkpt>
      <trkpt lat="47.69566" lon="-3.38014">
        <ele>-2.75</ele>
        <time>2016-04-30T13:37:50Z</time>
      </trkpt>
      <trkpt lat="47.69531" lon="-3.38069">
        <ele>-3.71</ele>
        <time>2016-04-30T13:38:05Z</time>
      </trkpt>
      <trkpt lat="47.69505" lon="-3.3812">
        <ele>-3.71</ele>
        <time>2016-04-30T13:38:18Z</time>
      </trkpt>
      <trkpt lat="47.69475" lon="-3.38178">
        <ele>-1.79</ele>
        <time>2016-04-30T13:38:33Z</time>
      </trkpt>
      <trkpt lat="47.69443" lon="-3.38249">
        <ele>-1.3</ele>
        <time>2016-04-30T13:38:51Z</time>
      </trkpt>
      <trkpt lat="47.69416" lon="-3.38317">
        <ele>-1.79</ele>
        <time>2016-04-30T13:39:08Z</time>
      </trkpt>
      <trkpt lat="47.69395" lon="-3.38376">
        <ele>-2.27</ele>
        <time>2016-04-30T13:39:22Z</time>
      </trkpt>
      <trkpt lat="47.69366" lon="-3.38444">
        <ele>-2.27</ele>
        <time>2016-04-30T13:39:39Z</time>
      </trkpt>
      <trkpt lat="47.69339" lon="-3.38514">
        <ele>-3.71</ele>
        <time>2016-04-30T13:39:56Z</time>
      </trkpt>
      <trkpt lat="47.69318" lon="-3.38566">
        <ele>-1.79</ele>
        <time>2016-04-30T13:40:09Z</time>
      </trkpt>
      <trkpt lat="47.69279" lon="-3.3863">
        <ele>-1.3</ele>
        <time>2016-04-30T13:40:28Z</time>
      </trkpt>
      <trkpt lat="47.69247" lon="-3.38676">
        <ele>-0.34</ele>
        <time>2016-04-30T13:40:45Z</time>
      </trkpt>
      <trkpt lat="47.69218" lon="-3.38721">
        <ele>-0.34</ele>
        <time>2016-04-30T13:41:00Z</time>
      </trkpt>
      <trkpt lat="47.69195" lon="-3.38772">
        <ele>0.14</ele>
        <time>2016-04-30T13:41:14Z</time>
      </trkpt>
      <trkpt lat="47.69167" lon="-3.38823">
        <ele>0.62</ele>
        <time>2016-04-30T13:41:28Z</time>
      </trkpt>
      <trkpt lat="47.69135" lon="-3.38892">
        <ele>1.58</ele>
        <time>2016-04-30T13:41:47Z</time>
      </trkpt>
      <trkpt lat="47.69105" lon="-3.38968">
        <ele>2.54</ele>
        <time>2016-04-30T13:42:07Z</time>
      </trkpt>
      <trkpt lat="47.6907" lon="-3.39034">
        <ele>3.5</ele>
        <time>2016-04-30T13:42:27Z</time>
      </trkpt>
      <trkpt lat="47.69036" lon="-3.39095">
        <ele>4.94</ele>
        <time>2016-04-30T13:42:46Z</time>
      </trkpt>
      <trkpt lat="47.69005" lon="-3.39154">
        <ele>3.98</ele>
        <time>2016-04-30T13:43:05Z</time>
      </trkpt>
      <trkpt lat="47.68979" lon="-3.39208">
        <ele>2.06</ele>
        <time>2016-04-30T13:43:22Z</time>
      </trkpt>
      <trkpt lat="47.68957" lon="-3.39254">
        <ele>1.1</ele>
        <time>2016-04-30T13:43:37Z</time>
      </trkpt>
      <trkpt lat="47.68937" lon="-3.39299">
        <ele>1.1</ele>
        <time>2016-04-30T13:43:51Z</time>
      </trkpt>
      <trkpt lat="47.68907" lon="-3.39368">
        <ele>1.1</ele>
        <time>2016-04-30T13:44:09Z</time>
      </trkpt>
      <trkpt lat="47.68891" lon="-3.39413">
        <ele>1.58</ele>
        <time>2016-04-30T13:44:20Z</time>
      </trkpt>
      <trkpt lat="47.68864" lon="-3.39466">
        <ele>2.54</ele>
        <time>2016-04-30T13:44:34Z</time>
      </trkpt>
      <trkpt lat="47.68838" lon="-3.39523">
        <ele>4.46</ele>
        <time>2016-04-30T13:44:48Z</time>
      </trkpt>
      <trkpt lat="47.68814" lon="-3.39575">
        <ele>4.94</ele>
        <time>2016-04-30T13:45:01Z</time>
      </trkpt>
      <trkpt lat="47.68787" lon="-3.39635">
        <ele>4.46</ele>
        <time>2016-04-30T13:45:16Z</time>
      </trkpt>
      <trkpt lat="47.68764" lon="-3.39692">
        <ele>3.02</ele>
        <time>2016-04-30T13:45:30Z</time>
      </trkpt>
      <trkpt lat="47.68739" lon="-3.39757">
        <ele>3.02</ele>
        <time>2016-04-30T13:45:46Z</time>
      </trkpt>
      <trkpt lat="47.68719" lon="-3.39814">
        <ele>3.02</ele>
        <time>2016-04-30T13:46:00Z</time>
      </trkpt>
      <trkpt lat="47.68698" lon="-3.39881">
        <ele>1.58</ele>
        <time>2016-04-30T13:46:16Z</time>
      </trkpt>
      <trkpt lat="47.68677" lon="-3.39935">
        <ele>2.06</ele>
        <time>2016-04-30T13:46:30Z</time>
      </trkpt>
      <trkpt lat="47.68659" lon="-3.39985">
        <ele>1.58</ele>
        <time>2016-04-30T13:46:44Z</time>
      </trkpt>
      <trkpt lat="47.68637" lon="-3.40063">
        <ele>0.62</ele>
        <time>2016-04-30T13:47:04Z</time>
      </trkpt>
      <trkpt lat="47.68623" lon="-3.40112">
        <ele>0.14</ele>
        <time>2016-04-30T13:47:19Z</time>
      </trkpt>
      <trkpt lat="47.68612" lon="-3.40157">
        <ele>1.1</ele>
        <time>2016-04-30T13:47:31Z</time>
      </trkpt>
      <trkpt lat="47.68595" lon="-3.40211">
        <ele>0.14</ele>
        <time>2016-04-30T13:47:45Z</time>
      </trkpt>
      <trkpt lat="47.68576" lon="-3.40273">
        <ele>-0.82</ele>
        <time>2016-04-30T13:48:01Z</time>
      </trkpt>
      <trkpt lat="47.68558" lon="-3.40322">
        <ele>-0.82</ele>
        <time>2016-04-30T13:48:15Z</time>
      </trkpt>
      <trkpt lat="47.68535" lon="-3.40377">
        <ele>-0.34</ele>
        <time>2016-04-30T13:48:30Z</time>
      </trkpt>
      <trkpt lat="47.68515" lon="-3.40431">
        <ele>-0.34</ele>
        <time>2016-04-30T13:48:43Z</time>
      </trkpt>
      <trkpt lat="47.685" lon="-3.40478">
        <ele>-0.34</ele>
        <time>2016-04-30T13:48:54Z</time>
      </trkpt>
      <trkpt lat="47.68481" lon="-3.40537">
        <ele>-2.27</ele>
        <time>2016-04-30T13:49:08Z</time>
      </trkpt>
      <trkpt lat="47.68463" lon="-3.40599">
        <ele>-1.79</ele>
        <time>2016-04-30T13:49:23Z</time>
      </trkpt>
      <trkpt lat="47.68447" lon="-3.40652">
        <ele>-1.3</ele>
        <time>2016-04-30T13:49:36Z</time>
      </trkpt>
      <trkpt lat="47.68426" lon="-3.40711">
        <ele>-2.75</ele>
        <time>2016-04-30T13:49:51Z</time>
      </trkpt>
      <trkpt lat="47.68411" lon="-3.40759">
        <ele>-2.27</ele>
        <time>2016-04-30T13:50:03Z</time>
      </trkpt>
      <trkpt lat="47.68391" lon="-3.40815">
        <ele>-1.79</ele>
        <time>2016-04-30T13:50:16Z</time>
      </trkpt>
      <trkpt lat="47.68374" lon="-3.40857">
        <ele>-2.27</ele>
        <time>2016-04-30T13:50:26Z</time>
      </trkpt>
      <trkpt lat="47.68358" lon="-3.40913">
        <ele>-2.27</ele>
        <time>2016-04-30T13:50:39Z</time>
      </trkpt>
      <trkpt lat="47.68339" lon="-3.40967">
        <ele>-2.27</ele>
        <time>2016-04-30T13:50:52Z</time>
      </trkpt>
      <trkpt lat="47.6832" lon="-3.4102">
        <ele>-2.27</ele>
        <time>2016-04-30T13:51:04Z</time>
      </trkpt>
      <trkpt lat="47.68291" lon="-3.41083">
        <ele>-1.79</ele>
        <time>2016-04-30T13:51:19Z</time>
      </trkpt>
      <trkpt lat="47.6827" lon="-3.41135">
        <ele>-2.27</ele>
        <time>2016-04-30T13:51:31Z</time>
      </trkpt>
      <trkpt lat="47.68249" lon="-3.41185">
        <ele>-2.75</ele>
        <time>2016-04-30T13:51:43Z</time>
      </trkpt>
      <trkpt lat="47.68222" lon="-3.41252">
        <ele>-2.27</ele>
        <time>2016-04-30T13:51:59Z</time>
      </trkpt>
      <trkpt lat="47.68206" lon="-3.41311">
        <ele>-1.79</ele>
        <time>2016-04-30T13:52:12Z</time>
      </trkpt>
      <trkpt lat="47.68191" lon="-3.41357">
        <ele>-2.27</ele>
        <time>2016-04-30T13:52:23Z</time>
      </trkpt>
      <trkpt lat="47.68161" lon="-3.41398">
        <ele>-2.75</ele>
        <time>2016-04-30T13:52:37Z</time>
      </trkpt>
      <trkpt lat="47.68135" lon="-3.41441">
        <ele>-2.75</ele>
        <time>2016-04-30T13:52:51Z</time>
      </trkpt>
      <trkpt lat="47.68115" lon="-3.41474">
        <ele>-2.27</ele>
        <time>2016-04-30T13:53:02Z</time>
      </trkpt>
      <trkpt lat="47.68092" lon="-3.41526">
        <ele>-2.27</ele>
        <time>2016-04-30T13:53:17Z</time>
      </trkpt>
      <trkpt lat="47.68073" lon="-3.41588">
        <ele>-1.79</ele>
        <time>2016-04-30T13:53:32Z</time>
      </trkpt>
      <trkpt lat="47.68051" lon="-3.41644">
        <ele>-2.27</ele>
        <time>2016-04-30T13:53:46Z</time>
      </trkpt>
      <trkpt lat="47.68026" lon="-3.41681">
        <ele>-2.27</ele>
        <time>2016-04-30T13:53:57Z</time>
      </trkpt>
      <trkpt lat="47.68005" lon="-3.41712">
        <ele>-1.79</ele>
        <time>2016-04-30T13:54:07Z</time>
      </trkpt>
      <trkpt lat="47.67973" lon="-3.41746">
        <ele>-1.79</ele>
        <time>2016-04-30T13:54:19Z</time>
      </trkpt>
      <trkpt lat="47.67938" lon="-3.4179">
        <ele>-1.79</ele>
        <time>2016-04-30T13:54:34Z</time>
      </trkpt>
      <trkpt lat="47.67913" lon="-3.41821">
        <ele>-1.79</ele>
        <time>2016-04-30T13:54:45Z</time>
      </trkpt>
      <trkpt lat="47.67888" lon="-3.41875">
        <ele>-2.75</ele>
        <time>2016-04-30T13:55:00Z</time>
      </trkpt>
      <trkpt lat="47.67863" lon="-3.41924">
        <ele>-3.23</ele>
        <time>2016-04-30T13:55:14Z</time>
      </trkpt>
      <trkpt lat="47.67839" lon="-3.41969">
        <ele>-2.75</ele>
        <time>2016-04-30T13:55:27Z</time>
      </trkpt>
      <trkpt lat="47.6781" lon="-3.42022">
        <ele>-3.23</ele>
        <time>2016-04-30T13:55:42Z</time>
      </trkpt>
      <trkpt lat="47.67785" lon="-3.42067">
        <ele>-2.27</ele>
        <time>2016-04-30T13:55:55Z</time>
      </trkpt>
      <trkpt lat="47.67759" lon="-3.42117">
        <ele>-0.82</ele>
        <time>2016-04-30T13:56:11Z</time>
      </trkpt>
      <trkpt lat="47.67739" lon="-3.42155">
        <ele>-1.3</ele>
        <time>2016-04-30T13:56:23Z</time>
      </trkpt>
      <trkpt lat="47.67728" lon="-3.42204">
        <ele>-0.34</ele>
        <time>2016-04-30T13:56:35Z</time>
      </trkpt>
      <trkpt lat="47.67714" lon="-3.42259">
        <ele>-0.82</ele>
        <time>2016-04-30T13:56:48Z</time>
      </trkpt>
      <trkpt lat="47.67707" lon="-3.42324">
        <ele>-0.82</ele>
        <time>2016-04-30T13:57:03Z</time>
      </trkpt>
      <trkpt lat="47.67701" lon="-3.4238">
        <ele>-1.79</ele>
        <time>2016-04-30T13:57:16Z</time>
      </trkpt>
      <trkpt lat="47.67694" lon="-3.42442">
        <ele>-1.79</ele>
        <time>2016-04-30T13:57:30Z</time>
      </trkpt>
      <trkpt lat="47.67686" lon="-3.42496">
        <ele>-1.79</ele>
        <time>2016-04-30T13:57:42Z</time>
      </trkpt>
      <trkpt lat="47.67678" lon="-3.42551">
        <ele>-1.3</ele>
        <time>2016-04-30T13:57:54Z</time>
      </trkpt>
      <trkpt lat="47.67667" lon="-3.42612">
        <ele>-0.82</ele>
        <time>2016-04-30T13:58:08Z</time>
      </trkpt>
      <trkpt lat="47.67659" lon="-3.42664">
        <ele>0.62</ele>
        <time>2016-04-30T13:58:20Z</time>
      </trkpt>
      <trkpt lat="47.67646" lon="-3.42727">
        <ele>-1.3</ele>
        <time>2016-04-30T13:58:35Z</time>
      </trkpt>
      <trkpt lat="47.67632" lon="-3.42801">
        <ele>-2.75</ele>
        <time>2016-04-30T13:58:54Z</time>
      </trkpt>
      <trkpt lat="47.67622" lon="-3.4287">
        <ele>-3.23</ele>
        <time>2016-04-30T13:59:11Z</time>
      </trkpt>
      <trkpt lat="47.67607" lon="-3.42952">
        <ele>-2.75</ele>
        <time>2016-04-30T13:59:31Z</time>
      </trkpt>
      <trkpt lat="47.67592" lon="-3.43006">
        <ele>-1.79</ele>
        <time>2016-04-30T13:59:46Z</time>
      </trkpt>
      <trkpt lat="47.67581" lon="-3.4306">
        <ele>-1.79</ele>
        <time>2016-04-30T14:00:00Z</time>
      </trkpt>
      <trkpt lat="47.67572" lon="-3.43106">
        <ele>-1.79</ele>
        <time>2016-04-30T14:00:14Z</time>
      </trkpt>
      <trkpt lat="47.67564" lon="-3.43144">
        <ele>-1.79</ele>
        <time>2016-04-30T14:00:27Z</time>
      </trkpt>
      <trkpt lat="47.67556" lon="-3.43189">
        <ele>-1.3</ele>
        <time>2016-04-30T14:00:42Z</time>
      </trkpt>
      <trkpt lat="47.67548" lon="-3.43228">
        <ele>-0.82</ele>
        <time>2016-04-30T14:00:57Z</time>
      </trkpt>
      <trkpt lat="47.6754" lon="-3.43279">
        <ele>-1.3</ele>
        <time>2016-04-30T14:01:10Z</time>
      </trkpt>
      <trkpt lat="47.67537" lon="-3.4333">
        <ele>-2.27</ele>
        <time>2016-04-30T14:01:23Z</time>
      </trkpt>
      <trkpt lat="47.67531" lon="-3.43376">
        <ele>-2.75</ele>
        <time>2016-04-30T14:01:35Z</time>
      </trkpt>
      <trkpt lat="47.67516" lon="-3.43429">
        <ele>-1.79</ele>
        <time>2016-04-30T14:01:50Z</time>
      </trkpt>
      <trkpt lat="47.67507" lon="-3.43469">
        <ele>-1.79</ele>
        <time>2016-04-30T14:02:02Z</time>
      </trkpt>
      <trkpt lat="47.67496" lon="-3.43504">
        <ele>-1.3</ele>
        <time>2016-04-30T14:02:13Z</time>
      </trkpt>
      <trkpt lat="47.67495" lon="-3.43507">
        <ele>-1.3</ele>
        <time>2016-04-30T14:02:14Z</time>
      </trkpt>
      <trkpt lat="47.67495" lon="-3.43519">
        <ele>-1.79</ele>
        <time>2016-04-30T14:02:19Z</time>
      </trkpt>
      <trkpt lat="47.6749" lon="-3.43531">
        <ele>-1.79</ele>
        <time>2016-04-30T14:02:24Z</time>
      </trkpt>
      <trkpt lat="47.6749" lon="-3.43541">
        <ele>-2.27</ele>
        <time>2016-04-30T14:02:33Z</time>
      </trkpt>
      <trkpt lat="47.67481" lon="-3.4357">
        <ele>-2.75</ele>
        <time>2016-04-30T14:02:43Z</time>
      </trkpt>
      <trkpt lat="47.67466" lon="-3.43628">
        <ele>-2.27</ele>
        <time>2016-04-30T14:02:57Z</time>
      </trkpt>
      <trkpt lat="47.67455" lon="-3.43679">
        <ele>-2.75</ele>
        <time>2016-04-30T14:03:10Z</time>
      </trkpt>
      <trkpt lat="47.6745" lon="-3.43728">
        <ele>-2.27</ele>
        <time>2016-04-30T14:03:22Z</time>
      </trkpt>
      <trkpt lat="47.67441" lon="-3.43786">
        <ele>-2.75</ele>
        <time>2016-04-30T14:03:36Z</time>
      </trkpt>
      <trkpt lat="47.67428" lon="-3.43836">
        <ele>-2.75</ele>
        <time>2016-04-30T14:03:48Z</time>
      </trkpt>
      <trkpt lat="47.67418" lon="-3.43889">
        <ele>-2.75</ele>
        <time>2016-04-30T14:04:01Z</time>
      </trkpt>
      <trkpt lat="47.67412" lon="-3.43946">
        <ele>-2.27</ele>
        <time>2016-04-30T14:04:15Z</time>
      </trkpt>
      <trkpt lat="47.6741" lon="-3.43999">
        <ele>-3.23</ele>
        <time>2016-04-30T14:04:28Z</time>
      </trkpt>
      <trkpt lat="47.67401" lon="-3.4405">
        <ele>-3.71</ele>
        <time>2016-04-30T14:04:42Z</time>
      </trkpt>
      <trkpt lat="47.67391" lon="-3.44093">
        <ele>-2.27</ele>
        <time>2016-04-30T14:04:55Z</time>
      </trkpt>
      <trkpt lat="47.67381" lon="-3.44132">
        <ele>-1.79</ele>
        <time>2016-04-30T14:05:07Z</time>
      </trkpt>
      <trkpt lat="47.67372" lon="-3.44175">
        <ele>-0.82</ele>
        <time>2016-04-30T14:05:19Z</time>
      </trkpt>
      <trkpt lat="47.67363" lon="-3.44218">
        <ele>-1.3</ele>
        <time>2016-04-30T14:05:31Z</time>
      </trkpt>
      <trkpt lat="47.67356" lon="-3.44263">
        <ele>-0.82</ele>
        <time>2016-04-30T14:05:44Z</time>
      </trkpt>
      <trkpt lat="47.67344" lon="-3.44308">
        <ele>-0.34</ele>
        <time>2016-04-30T14:05:56Z</time>
      </trkpt>
      <trkpt lat="47.67333" lon="-3.4436">
        <ele>-0.82</ele>
        <time>2016-04-30T14:06:09Z</time>
      </trkpt>
      <trkpt lat="47.67321" lon="-3.44403">
        <ele>-1.3</ele>
        <time>2016-04-30T14:06:20Z</time>
      </trkpt>
      <trkpt lat="47.67311" lon="-3.44448">
        <ele>-1.3</ele>
        <time>2016-04-30T14:06:32Z</time>
      </trkpt>
      <trkpt lat="47.67298" lon="-3.44509">
        <ele>-2.75</ele>
        <time>2016-04-30T14:06:48Z</time>
      </trkpt>
      <trkpt lat="47.67288" lon="-3.44556">
        <ele>-1.3</ele>
        <time>2016-04-30T14:07:00Z</time>
      </trkpt>
      <trkpt lat="47.67272" lon="-3.44613">
        <ele>-1.79</ele>
        <time>2016-04-30T14:07:15Z</time>
      </trkpt>
      <trkpt lat="47.67256" lon="-3.44673">
        <ele>-1.3</ele>
        <time>2016-04-30T14:07:30Z</time>
      </trkpt>
      <trkpt lat="47.67243" lon="-3.44727">
        <ele>-0.34</ele>
        <time>2016-04-30T14:07:44Z</time>
      </trkpt>
      <trkpt lat="47.67231" lon="-3.44787">
        <ele>0.62</ele>
        <time>2016-04-30T14:07:59Z</time>
      </trkpt>
      <trkpt lat="47.67217" lon="-3.44843">
        <ele>-0.34</ele>
        <time>2016-04-30T14:08:13Z</time>
      </trkpt>
      <trkpt lat="47.67203" lon="-3.44893">
        <ele>0.14</ele>
        <time>2016-04-30T14:08:27Z</time>
      </trkpt>
      <trkpt lat="47.67191" lon="-3.44939">
        <ele>-1.79</ele>
        <time>2016-04-30T14:08:41Z</time>
      </trkpt>
      <trkpt lat="47.6718" lon="-3.44983">
        <ele>-1.79</ele>
        <time>2016-04-30T14:08:56Z</time>
      </trkpt>
      <trkpt lat="47.67182" lon="-3.45032">
        <ele>-1.79</ele>
        <time>2016-04-30T14:09:12Z</time>
      </trkpt>
      <trkpt lat="47.67182" lon="-3.45077">
        <ele>-1.3</ele>
        <time>2016-04-30T14:09:25Z</time>
      </trkpt>
      <trkpt lat="47.67173" lon="-3.45135">
        <ele>-1.79</ele>
        <time>2016-04-30T14:09:41Z</time>
      </trkpt>
      <trkpt lat="47.67171" lon="-3.45157">
        <ele>-1.79</ele>
        <time>2016-04-30T14:09:47Z</time>
      </trkpt>
      <trkpt lat="47.67168" lon="-3.45175">
        <ele>-2.27</ele>
        <time>2016-04-30T14:09:52Z</time>
      </trkpt>
      <trkpt lat="47.67161" lon="-3.45213">
        <ele>-3.23</ele>
        <time>2016-04-30T14:10:04Z</time>
      </trkpt>
      <trkpt lat="47.67161" lon="-3.45251">
        <ele>-3.71</ele>
        <time>2016-04-30T14:10:15Z</time>
      </trkpt>
      <trkpt lat="47.67167" lon="-3.45302">
        <ele>-3.71</ele>
        <time>2016-04-30T14:10:28Z</time>
      </trkpt>
      <trkpt lat="47.67172" lon="-3.45357">
        <ele>-4.19</ele>
        <time>2016-04-30T14:10:42Z</time>
      </trkpt>
      <trkpt lat="47.67175" lon="-3.45415">
        <ele>-4.19</ele>
        <time>2016-04-30T14:10:57Z</time>
      </trkpt>
      <trkpt lat="47.67173" lon="-3.45466">
        <ele>-3.71</ele>
        <time>2016-04-30T14:11:10Z</time>
      </trkpt>
      <trkpt lat="47.67172" lon="-3.45527">
        <ele>-1.3</ele>
        <time>2016-04-30T14:11:25Z</time>
      </trkpt>
      <trkpt lat="47.67168" lon="-3.45576">
        <ele>-1.3</ele>
        <time>2016-04-30T14:11:37Z</time>
      </trkpt>
      <trkpt lat="47.67173" lon="-3.45589">
        <ele>-1.79</ele>
        <time>2016-04-30T14:11:41Z</time>
      </trkpt>
      <trkpt lat="47.67181" lon="-3.45649">
        <ele>-2.75</ele>
        <time>2016-04-30T14:11:56Z</time>
      </trkpt>
      <trkpt lat="47.67183" lon="-3.45712">
        <ele>-1.3</ele>
        <time>2016-04-30T14:12:11Z</time>
      </trkpt>
      <trkpt lat="47.67186" lon="-3.45762">
        <ele>-1.3</ele>
        <time>2016-04-30T14:12:23Z</time>
      </trkpt>
      <trkpt lat="47.67189" lon="-3.45816">
        <ele>-1.79</ele>
        <time>2016-04-30T14:12:36Z</time>
      </trkpt>
      <trkpt lat="47.67189" lon="-3.45863">
        <ele>-1.79</ele>
        <time>2016-04-30T14:12:48Z</time>
      </trkpt>
      <trkpt lat="47.67193" lon="-3.45922">
        <ele>-1.79</ele>
        <time>2016-04-30T14:13:02Z</time>
      </trkpt>
      <trkpt lat="47.67195" lon="-3.45979">
        <ele>-2.27</ele>
        <time>2016-04-30T14:13:15Z</time>
      </trkpt>
      <trkpt lat="47.67185" lon="-3.46022">
        <ele>-2.75</ele>
        <time>2016-04-30T14:13:26Z</time>
      </trkpt>
      <trkpt lat="47.6719" lon="-3.46059">
        <ele>-2.75</ele>
        <time>2016-04-30T14:13:36Z</time>
      </trkpt>
      <trkpt lat="47.67206" lon="-3.46108">
        <ele>-2.27</ele>
        <time>2016-04-30T14:13:51Z</time>
      </trkpt>
      <trkpt lat="47.67216" lon="-3.46137">
        <ele>-1.79</ele>
        <time>2016-04-30T14:14:00Z</time>
      </trkpt>
      <trkpt lat="47.67234" lon="-3.46173">
        <ele>-2.75</ele>
        <time>2016-04-30T14:14:13Z</time>
      </trkpt>
      <trkpt lat="47.67247" lon="-3.46213">
        <ele>-2.75</ele>
        <time>2016-04-30T14:14:25Z</time>
      </trkpt>
      <trkpt lat="47.67261" lon="-3.46269">
        <ele>-3.23</ele>
        <time>2016-04-30T14:14:40Z</time>
      </trkpt>
      <trkpt lat="47.67261" lon="-3.46309">
        <ele>-2.75</ele>
        <time>2016-04-30T14:14:50Z</time>
      </trkpt>
      <trkpt lat="47.67243" lon="-3.4635">
        <ele>-3.71</ele>
        <time>2016-04-30T14:15:01Z</time>
      </trkpt>
      <trkpt lat="47.67228" lon="-3.46379">
        <ele>-4.19</ele>
        <time>2016-04-30T14:15:10Z</time>
      </trkpt>
      <trkpt lat="47.67209" lon="-3.46424">
        <ele>-4.67</ele>
        <time>2016-04-30T14:15:23Z</time>
      </trkpt>
      <trkpt lat="47.67201" lon="-3.46476">
        <ele>-2.75</ele>
        <time>2016-04-30T14:15:36Z</time>
      </trkpt>
      <trkpt lat="47.67196" lon="-3.46521">
        <ele>-3.23</ele>
        <time>2016-04-30T14:15:47Z</time>
      </trkpt>
      <trkpt lat="47.67187" lon="-3.46561">
        <ele>-2.75</ele>
        <time>2016-04-30T14:15:57Z</time>
      </trkpt>
      <trkpt lat="47.67183" lon="-3.46611">
        <ele>-2.27</ele>
        <time>2016-04-30T14:16:09Z</time>
      </trkpt>
      <trkpt lat="47.67175" lon="-3.46673">
        <ele>-1.79</ele>
        <time>2016-04-30T14:16:24Z</time>
      </trkpt>
      <trkpt lat="47.6716" lon="-3.46731">
        <ele>-1.3</ele>
        <time>2016-04-30T14:16:39Z</time>
      </trkpt>
      <trkpt lat="47.67148" lon="-3.46772">
        <ele>-3.71</ele>
        <time>2016-04-30T14:16:50Z</time>
      </trkpt>
      <trkpt lat="47.67142" lon="-3.46816">
        <ele>-3.71</ele>
        <time>2016-04-30T14:17:01Z</time>
      </trkpt>
      <trkpt lat="47.67138" lon="-3.46869">
        <ele>-4.67</ele>
        <time>2016-04-30T14:17:14Z</time>
      </trkpt>
      <trkpt lat="47.67137" lon="-3.46921">
        <ele>-4.67</ele>
        <time>2016-04-30T14:17:27Z</time>
      </trkpt>
      <trkpt lat="47.67133" lon="-3.46971">
        <ele>-5.15</ele>
        <time>2016-04-30T14:17:39Z</time>
      </trkpt>
      <trkpt lat="47.67125" lon="-3.47019">
        <ele>-4.67</ele>
        <time>2016-04-30T14:17:51Z</time>
      </trkpt>
      <trkpt lat="47.6712" lon="-3.4707">
        <ele>-4.19</ele>
        <time>2016-04-30T14:18:04Z</time>
      </trkpt>
      <trkpt lat="47.67119" lon="-3.47114">
        <ele>-3.71</ele>
        <time>2016-04-30T14:18:16Z</time>
      </trkpt>
      <trkpt lat="47.67117" lon="-3.47158">
        <ele>-3.71</ele>
        <time>2016-04-30T14:18:27Z</time>
      </trkpt>
      <trkpt lat="47.67112" lon="-3.47201">
        <ele>-3.71</ele>
        <time>2016-04-30T14:18:38Z</time>
      </trkpt>
      <trkpt lat="47.67111" lon="-3.47246">
        <ele>-2.27</ele>
        <time>2016-04-30T14:18:49Z</time>
      </trkpt>
      <trkpt lat="47.67111" lon="-3.47284">
        <ele>-1.3</ele>
        <time>2016-04-30T14:18:59Z</time>
      </trkpt>
      <trkpt lat="47.67116" lon="-3.47335">
        <ele>-1.79</ele>
        <time>2016-04-30T14:19:13Z</time>
      </trkpt>
      <trkpt lat="47.67119" lon="-3.47371">
        <ele>-1.79</ele>
        <time>2016-04-30T14:19:24Z</time>
      </trkpt>
      <trkpt lat="47.67117" lon="-3.47416">
        <ele>-1.79</ele>
        <time>2016-04-30T14:19:36Z</time>
      </trkpt>
      <trkpt lat="47.67118" lon="-3.47469">
        <ele>-2.27</ele>
        <time>2016-04-30T14:19:49Z</time>
      </trkpt>
      <trkpt lat="47.67125" lon="-3.47515">
        <ele>-2.75</ele>
        <time>2016-04-30T14:20:01Z</time>
      </trkpt>
      <trkpt lat="47.67123" lon="-3.47556">
        <ele>-4.19</ele>
        <time>2016-04-30T14:20:11Z</time>
      </trkpt>
      <trkpt lat="47.67116" lon="-3.476">
        <ele>-3.71</ele>
        <time>2016-04-30T14:20:22Z</time>
      </trkpt>
      <trkpt lat="47.67116" lon="-3.47648">
        <ele>-3.71</ele>
        <time>2016-04-30T14:20:34Z</time>
      </trkpt>
      <trkpt lat="47.67119" lon="-3.47698">
        <ele>-3.71</ele>
        <time>2016-04-30T14:20:47Z</time>
      </trkpt>
      <trkpt lat="47.67124" lon="-3.47733">
        <ele>-3.71</ele>
        <time>2016-04-30T14:20:57Z</time>
      </trkpt>
      <trkpt lat="47.67131" lon="-3.47773">
        <ele>-5.15</ele>
        <time>2016-04-30T14:21:09Z</time>
      </trkpt>
      <trkpt lat="47.67128" lon="-3.47814">
        <ele>-4.19</ele>
        <time>2016-04-30T14:21:20Z</time>
      </trkpt>
      <trkpt lat="47.67132" lon="-3.47855">
        <ele>-4.19</ele>
        <time>2016-04-30T14:21:31Z</time>
      </trkpt>
      <trkpt lat="47.67139" lon="-3.47897">
        <ele>-4.67</ele>
        <time>2016-04-30T14:21:43Z</time>
      </trkpt>
      <trkpt lat="47.67148" lon="-3.47931">
        <ele>-4.19</ele>
        <time>2016-04-30T14:21:54Z</time>
      </trkpt>
      <trkpt lat="47.67152" lon="-3.47964">
        <ele>-3.23</ele>
        <time>2016-04-30T14:22:04Z</time>
      </trkpt>
      <trkpt lat="47.67161" lon="-3.48003">
        <ele>-3.23</ele>
        <time>2016-04-30T14:22:16Z</time>
      </trkpt>
      <trkpt lat="47.67166" lon="-3.48034">
        <ele>-3.23</ele>
        <time>2016-04-30T14:22:26Z</time>
      </trkpt>
      <trkpt lat="47.67169" lon="-3.48077">
        <ele>-2.75</ele>
        <time>2016-04-30T14:22:38Z</time>
      </trkpt>
      <trkpt lat="47.67169" lon="-3.48127">
        <ele>-3.23</ele>
        <time>2016-04-30T14:22:50Z</time>
      </trkpt>
      <trkpt lat="47.67175" lon="-3.48174">
        <ele>-3.23</ele>
        <time>2016-04-30T14:23:02Z</time>
      </trkpt>
      <trkpt lat="47.67183" lon="-3.48219">
        <ele>-2.27</ele>
        <time>2016-04-30T14:23:14Z</time>
      </trkpt>
      <trkpt lat="47.67186" lon="-3.48256">
        <ele>-1.79</ele>
        <time>2016-04-30T14:23:23Z</time>
      </trkpt>
      <trkpt lat="47.67194" lon="-3.48294">
        <ele>-2.27</ele>
        <time>2016-04-30T14:23:34Z</time>
      </trkpt>
      <trkpt lat="47.672" lon="-3.48331">
        <ele>-2.27</ele>
        <time>2016-04-30T14:23:46Z</time>
      </trkpt>
      <trkpt lat="47.67209" lon="-3.4836">
        <ele>-1.3</ele>
        <time>2016-04-30T14:23:57Z</time>
      </trkpt>
      <trkpt lat="47.67216" lon="-3.48406">
        <ele>-1.79</ele>
        <time>2016-04-30T14:24:10Z</time>
      </trkpt>
      <trkpt lat="47.67227" lon="-3.48445">
        <ele>-2.27</ele>
        <time>2016-04-30T14:24:22Z</time>
      </trkpt>
      <trkpt lat="47.67238" lon="-3.48484">
        <ele>-2.75</ele>
        <time>2016-04-30T14:24:37Z</time>
      </trkpt>
      <trkpt lat="47.67234" lon="-3.48527">
        <ele>-2.75</ele>
        <time>2016-04-30T14:24:48Z</time>
      </trkpt>
      <trkpt lat="47.67228" lon="-3.48577">
        <ele>-3.71</ele>
        <time>2016-04-30T14:25:00Z</time>
      </trkpt>
      <trkpt lat="47.67219" lon="-3.48627">
        <ele>-2.75</ele>
        <time>2016-04-30T14:25:13Z</time>
      </trkpt>
      <trkpt lat="47.67214" lon="-3.48672">
        <ele>-2.75</ele>
        <time>2016-04-30T14:25:25Z</time>
      </trkpt>
      <trkpt lat="47.67203" lon="-3.48715">
        <ele>-3.23</ele>
        <time>2016-04-30T14:25:37Z</time>
      </trkpt>
      <trkpt lat="47.67197" lon="-3.48768">
        <ele>-3.71</ele>
        <time>2016-04-30T14:25:50Z</time>
      </trkpt>
      <trkpt lat="47.672" lon="-3.4881">
        <ele>-3.23</ele>
        <time>2016-04-30T14:26:01Z</time>
      </trkpt>
      <trkpt lat="47.67207" lon="-3.48845">
        <ele>-2.75</ele>
        <time>2016-04-30T14:26:12Z</time>
      </trkpt>
      <trkpt lat="47.67212" lon="-3.48885">
        <ele>-2.27</ele>
        <time>2016-04-30T14:26:23Z</time>
      </trkpt>
      <trkpt lat="47.67215" lon="-3.48902">
        <ele>-1.79</ele>
        <time>2016-04-30T14:26:28Z</time>
      </trkpt>
      <trkpt lat="47.67216" lon="-3.48936">
        <ele>-0.34</ele>
        <time>2016-04-30T14:26:38Z</time>
      </trkpt>
      <trkpt lat="47.67219" lon="-3.48982">
        <ele>-0.82</ele>
        <time>2016-04-30T14:26:50Z</time>
      </trkpt>
      <trkpt lat="47.67226" lon="-3.49017">
        <ele>-1.79</ele>
        <time>2016-04-30T14:27:01Z</time>
      </trkpt>
      <trkpt lat="47.67232" lon="-3.49057">
        <ele>-0.34</ele>
        <time>2016-04-30T14:27:12Z</time>
      </trkpt>
      <trkpt lat="47.67242" lon="-3.49103">
        <ele>0.62</ele>
        <time>2016-04-30T14:27:25Z</time>
      </trkpt>
      <trkpt lat="47.67244" lon="-3.49157">
        <ele>1.58</ele>
        <time>2016-04-30T14:27:39Z</time>
      </trkpt>
      <trkpt lat="47.67253" lon="-3.49214">
        <ele>-0.82</ele>
        <time>2016-04-30T14:27:53Z</time>
      </trkpt>
      <trkpt lat="47.67262" lon="-3.49248">
        <ele>-1.3</ele>
        <time>2016-04-30T14:28:03Z</time>
      </trkpt>
      <trkpt lat="47.67259" lon="-3.49296">
        <ele>-1.3</ele>
        <time>2016-04-30T14:28:15Z</time>
      </trkpt>
      <trkpt lat="47.67241" lon="-3.49343">
        <ele>-2.27</ele>
        <time>2016-04-30T14:28:28Z</time>
      </trkpt>
      <trkpt lat="47.67233" lon="-3.4938">
        <ele>-2.75</ele>
        <time>2016-04-30T14:28:38Z</time>
      </trkpt>
      <trkpt lat="47.67235" lon="-3.49424">
        <ele>-2.27</ele>
        <time>2016-04-30T14:28:49Z</time>
      </trkpt>
      <trkpt lat="47.67245" lon="-3.49457">
        <ele>-1.79</ele>
        <time>2016-04-30T14:28:59Z</time>
      </trkpt>
      <trkpt lat="47.6724" lon="-3.49503">
        <ele>-1.79</ele>
        <time>2016-04-30T14:29:10Z</time>
      </trkpt>
      <trkpt lat="47.67231" lon="-3.49538">
        <ele>-1.79</ele>
        <time>2016-04-30T14:29:19Z</time>
      </trkpt>
      <trkpt lat="47.67222" lon="-3.49582">
        <ele>-0.82</ele>
        <time>2016-04-30T14:29:30Z</time>
      </trkpt>
      <trkpt lat="47.67217" lon="-3.49625">
        <ele>-0.82</ele>
        <time>2016-04-30T14:29:40Z</time>
      </trkpt>
      <trkpt lat="47.67213" lon="-3.49667">
        <ele>-0.82</ele>
        <time>2016-04-30T14:29:50Z</time>
      </trkpt>
      <trkpt lat="47.67212" lon="-3.49709">
        <ele>-1.3</ele>
        <time>2016-04-30T14:30:00Z</time>
      </trkpt>
      <trkpt lat="47.67215" lon="-3.49749">
        <ele>-1.79</ele>
        <time>2016-04-30T14:30:10Z</time>
      </trkpt>
      <trkpt lat="47.67217" lon="-3.498">
        <ele>-2.75</ele>
        <time>2016-04-30T14:30:22Z</time>
      </trkpt>
      <trkpt lat="47.67217" lon="-3.49855">
        <ele>-3.71</ele>
        <time>2016-04-30T14:30:35Z</time>
      </trkpt>
      <trkpt lat="47.67217" lon="-3.499">
        <ele>-4.19</ele>
        <time>2016-04-30T14:30:45Z</time>
      </trkpt>
      <trkpt lat="47.67214" lon="-3.49947">
        <ele>-3.71</ele>
        <time>2016-04-30T14:30:56Z</time>
      </trkpt>
      <trkpt lat="47.67201" lon="-3.49997">
        <ele>-4.19</ele>
        <time>2016-04-30T14:31:08Z</time>
      </trkpt>
      <trkpt lat="47.67183" lon="-3.50044">
        <ele>-4.19</ele>
        <time>2016-04-30T14:31:20Z</time>
      </trkpt>
      <trkpt lat="47.67166" lon="-3.50091">
        <ele>-5.15</ele>
        <time>2016-04-30T14:31:32Z</time>
      </trkpt>
      <trkpt lat="47.67151" lon="-3.5013">
        <ele>-4.67</ele>
        <time>2016-04-30T14:31:43Z</time>
      </trkpt>
      <trkpt lat="47.67138" lon="-3.50161">
        <ele>-3.23</ele>
        <time>2016-04-30T14:31:52Z</time>
      </trkpt>
      <trkpt lat="47.6713" lon="-3.50218">
        <ele>-2.75</ele>
        <time>2016-04-30T14:32:06Z</time>
      </trkpt>
      <trkpt lat="47.67128" lon="-3.50256">
        <ele>-2.75</ele>
        <time>2016-04-30T14:32:15Z</time>
      </trkpt>
      <trkpt lat="47.67127" lon="-3.50293">
        <ele>-2.75</ele>
        <time>2016-04-30T14:32:24Z</time>
      </trkpt>
      <trkpt lat="47.67132" lon="-3.50332">
        <ele>-2.27</ele>
        <time>2016-04-30T14:32:34Z</time>
      </trkpt>
      <trkpt lat="47.67134" lon="-3.50383">
        <ele>-3.71</ele>
        <time>2016-04-30T14:32:46Z</time>
      </trkpt>
      <trkpt lat="47.67139" lon="-3.50428">
        <ele>-4.19</ele>
        <time>2016-04-30T14:32:57Z</time>
      </trkpt>
      <trkpt lat="47.67136" lon="-3.5047">
        <ele>-4.19</ele>
        <time>2016-04-30T14:33:07Z</time>
      </trkpt>
      <trkpt lat="47.67138" lon="-3.5052">
        <ele>-4.67</ele>
        <time>2016-04-30T14:33:19Z</time>
      </trkpt>
      <trkpt lat="47.67139" lon="-3.50569">
        <ele>-4.67</ele>
        <time>2016-04-30T14:33:31Z</time>
      </trkpt>
      <trkpt lat="47.67137" lon="-3.50614">
        <ele>-4.67</ele>
        <time>2016-04-30T14:33:42Z</time>
      </trkpt>
      <trkpt lat="47.67136" lon="-3.50659">
        <ele>-4.19</ele>
        <time>2016-04-30T14:33:53Z</time>
      </trkpt>
      <trkpt lat="47.67131" lon="-3.50711">
        <ele>-4.67</ele>
        <time>2016-04-30T14:34:06Z</time>
      </trkpt>
      <trkpt lat="47.67126" lon="-3.50743">
        <ele>-4.67</ele>
        <time>2016-04-30T14:34:14Z</time>
      </trkpt>
      <trkpt lat="47.67118" lon="-3.50788">
        <ele>-3.71</ele>
        <time>2016-04-30T14:34:25Z</time>
      </trkpt>
      <trkpt lat="47.67115" lon="-3.50831">
        <ele>-4.19</ele>
        <time>2016-04-30T14:34:35Z</time>
      </trkpt>
      <trkpt lat="47.67108" lon="-3.5089">
        <ele>-3.71</ele>
        <time>2016-04-30T14:34:49Z</time>
      </trkpt>
      <trkpt lat="47.67107" lon="-3.50932">
        <ele>-4.19</ele>
        <time>2016-04-30T14:34:59Z</time>
      </trkpt>
      <trkpt lat="47.67106" lon="-3.50979">
        <ele>-2.75</ele>
        <time>2016-04-30T14:35:10Z</time>
      </trkpt>
      <trkpt lat="47.67097" lon="-3.51019">
        <ele>-3.71</ele>
        <time>2016-04-30T14:35:20Z</time>
      </trkpt>
      <trkpt lat="47.67088" lon="-3.51072">
        <ele>-3.71</ele>
        <time>2016-04-30T14:35:33Z</time>
      </trkpt>
      <trkpt lat="47.6708" lon="-3.51125">
        <ele>-3.71</ele>
        <time>2016-04-30T14:35:46Z</time>
      </trkpt>
      <trkpt lat="47.67068" lon="-3.51179">
        <ele>-3.71</ele>
        <time>2016-04-30T14:35:59Z</time>
      </trkpt>
      <trkpt lat="47.67065" lon="-3.51221">
        <ele>-4.19</ele>
        <time>2016-04-30T14:36:09Z</time>
      </trkpt>
      <trkpt lat="47.67064" lon="-3.51275">
        <ele>-3.23</ele>
        <time>2016-04-30T14:36:22Z</time>
      </trkpt>
      <trkpt lat="47.67061" lon="-3.51327">
        <ele>-3.71</ele>
        <time>2016-04-30T14:36:34Z</time>
      </trkpt>
      <trkpt lat="47.67054" lon="-3.51373">
        <ele>-3.71</ele>
        <time>2016-04-30T14:36:45Z</time>
      </trkpt>
      <trkpt lat="47.67049" lon="-3.51414">
        <ele>-5.15</ele>
        <time>2016-04-30T14:36:55Z</time>
      </trkpt>
      <trkpt lat="47.67041" lon="-3.51476">
        <ele>-6.11</ele>
        <time>2016-04-30T14:37:10Z</time>
      </trkpt>
      <trkpt lat="47.67038" lon="-3.51528">
        <ele>-5.63</ele>
        <time>2016-04-30T14:37:22Z</time>
      </trkpt>
      <trkpt lat="47.67035" lon="-3.51573">
        <ele>-5.15</ele>
        <time>2016-04-30T14:37:33Z</time>
      </trkpt>
      <trkpt lat="47.67034" lon="-3.51616">
        <ele>-5.63</ele>
        <time>2016-04-30T14:37:43Z</time>
      </trkpt>
      <trkpt lat="47.67032" lon="-3.51663">
        <ele>-4.67</ele>
        <time>2016-04-30T14:37:54Z</time>
      </trkpt>
      <trkpt lat="47.67029" lon="-3.5171">
        <ele>-3.71</ele>
        <time>2016-04-30T14:38:05Z</time>
      </trkpt>
      <trkpt lat="47.6703" lon="-3.51765">
        <ele>-3.71</ele>
        <time>2016-04-30T14:38:18Z</time>
      </trkpt>
      <trkpt lat="47.6703" lon="-3.51814">
        <ele>-3.23</ele>
        <time>2016-04-30T14:38:30Z</time>
      </trkpt>
      <trkpt lat="47.67036" lon="-3.51863">
        <ele>-3.23</ele>
        <time>2016-04-30T14:38:42Z</time>
      </trkpt>
      <trkpt lat="47.6704" lon="-3.51905">
        <ele>-3.23</ele>
        <time>2016-04-30T14:38:52Z</time>
      </trkpt>
      <trkpt lat="47.67037" lon="-3.51952">
        <ele>-2.27</ele>
        <time>2016-04-30T14:39:03Z</time>
      </trkpt>
      <trkpt lat="47.67018" lon="-3.52001">
        <ele>-2.27</ele>
        <time>2016-04-30T14:39:16Z</time>
      </trkpt>
      <trkpt lat="47.66995" lon="-3.52045">
        <ele>-2.27</ele>
        <time>2016-04-30T14:39:28Z</time>
      </trkpt>
      <trkpt lat="47.66976" lon="-3.52094">
        <ele>-2.75</ele>
        <time>2016-04-30T14:39:40Z</time>
      </trkpt>
      <trkpt lat="47.66952" lon="-3.5215">
        <ele>-3.71</ele>
        <time>2016-04-30T14:39:54Z</time>
      </trkpt>
      <trkpt lat="47.66929" lon="-3.52194">
        <ele>-4.19</ele>
        <time>2016-04-30T14:40:06Z</time>
      </trkpt>
      <trkpt lat="47.66903" lon="-3.52238">
        <ele>-2.27</ele>
        <time>2016-04-30T14:40:19Z</time>
      </trkpt>
      <trkpt lat="47.66878" lon="-3.52279">
        <ele>-2.27</ele>
        <time>2016-04-30T14:40:32Z</time>
      </trkpt>
      <trkpt lat="47.66856" lon="-3.5233">
        <ele>-4.19</ele>
        <time>2016-04-30T14:40:46Z</time>
      </trkpt>
      <trkpt lat="47.66837" lon="-3.52372">
        <ele>-2.27</ele>
        <time>2016-04-30T14:40:57Z</time>
      </trkpt>
      <trkpt lat="47.66824" lon="-3.5239">
        <ele>-2.27</ele>
        <time>2016-04-30T14:41:03Z</time>
      </trkpt>
      <trkpt lat="47.66796" lon="-3.52422">
        <ele>-1.79</ele>
        <time>2016-04-30T14:41:15Z</time>
      </trkpt>
      <trkpt lat="47.6677" lon="-3.52464">
        <ele>-1.79</ele>
        <time>2016-04-30T14:41:28Z</time>
      </trkpt>
      <trkpt lat="47.66745" lon="-3.52504">
        <ele>-1.79</ele>
        <time>2016-04-30T14:41:41Z</time>
      </trkpt>
      <trkpt lat="47.66722" lon="-3.52552">
        <ele>-1.79</ele>
        <time>2016-04-30T14:41:55Z</time>
      </trkpt>
      <trkpt lat="47.66693" lon="-3.52594">
        <ele>-1.3</ele>
        <time>2016-04-30T14:42:09Z</time>
      </trkpt>
      <trkpt lat="47.66669" lon="-3.52618">
        <ele>-1.3</ele>
        <time>2016-04-30T14:42:19Z</time>
      </trkpt>
      <trkpt lat="47.66638" lon="-3.52647">
        <ele>-0.34</ele>
        <time>2016-04-30T14:42:32Z</time>
      </trkpt>
      <trkpt lat="47.66605" lon="-3.52682">
        <ele>-0.82</ele>
        <time>2016-04-30T14:42:47Z</time>
      </trkpt>
      <trkpt lat="47.66571" lon="-3.52711">
        <ele>-1.79</ele>
        <time>2016-04-30T14:43:00Z</time>
      </trkpt>
      <trkpt lat="47.66548" lon="-3.52739">
        <ele>-3.23</ele>
        <time>2016-04-30T14:43:12Z</time>
      </trkpt>
      <trkpt lat="47.66523" lon="-3.52761">
        <ele>-3.71</ele>
        <time>2016-04-30T14:43:23Z</time>
      </trkpt>
      <trkpt lat="47.66505" lon="-3.5278">
        <ele>-4.67</ele>
        <time>2016-04-30T14:43:31Z</time>
      </trkpt>
      <trkpt lat="47.66491" lon="-3.52794">
        <ele>-4.19</ele>
        <time>2016-04-30T14:43:37Z</time>
      </trkpt>
      <trkpt lat="47.66471" lon="-3.52811">
        <ele>-2.75</ele>
        <time>2016-04-30T14:43:46Z</time>
      </trkpt>
      <trkpt lat="47.66454" lon="-3.52822">
        <ele>-2.75</ele>
        <time>2016-04-30T14:43:53Z</time>
      </trkpt>
      <trkpt lat="47.66419" lon="-3.52848">
        <ele>-4.19</ele>
        <time>2016-04-30T14:44:10Z</time>
      </trkpt>
      <trkpt lat="47.66394" lon="-3.52862">
        <ele>-5.15</ele>
        <time>2016-04-30T14:44:22Z</time>
      </trkpt>
      <trkpt lat="47.66385" lon="-3.52869">
        <ele>-6.11</ele>
        <time>2016-04-30T14:44:26Z</time>
      </trkpt>
      <trkpt lat="47.66353" lon="-3.52888">
        <ele>-6.59</ele>
        <time>2016-04-30T14:44:39Z</time>
      </trkpt>
      <trkpt lat="47.66329" lon="-3.52898">
        <ele>-3.23</ele>
        <time>2016-04-30T14:44:50Z</time>
      </trkpt>
      <trkpt lat="47.66307" lon="-3.5291">
        <ele>-2.75</ele>
        <time>2016-04-30T14:45:00Z</time>
      </trkpt>
      <trkpt lat="47.66305" lon="-3.52911">
        <ele>-2.75</ele>
        <time>2016-04-30T14:45:01Z</time>
      </trkpt>
      <trkpt lat="47.66283" lon="-3.52925">
        <ele>-5.15</ele>
        <time>2016-04-30T14:45:11Z</time>
      </trkpt>
      <trkpt lat="47.6626" lon="-3.52943">
        <ele>-5.63</ele>
        <time>2016-04-30T14:45:22Z</time>
      </trkpt>
      <trkpt lat="47.66229" lon="-3.52964">
        <ele>-8.51</ele>
        <time>2016-04-30T14:45:36Z</time>
      </trkpt>
      <trkpt lat="47.66206" lon="-3.52977">
        <ele>-8.51</ele>
        <time>2016-04-30T14:45:47Z</time>
      </trkpt>
      <trkpt lat="47.66178" lon="-3.52984">
        <ele>-6.11</ele>
        <time>2016-04-30T14:46:01Z</time>
      </trkpt>
      <trkpt lat="47.66159" lon="-3.52991">
        <ele>-7.07</ele>
        <time>2016-04-30T14:46:10Z</time>
      </trkpt>
      <trkpt lat="47.66147" lon="-3.52996">
        <ele>-6.11</ele>
        <time>2016-04-30T14:46:15Z</time>
      </trkpt>
      <trkpt lat="47.66112" lon="-3.53013">
        <ele>-4.67</ele>
        <time>2016-04-30T14:46:31Z</time>
      </trkpt>
      <trkpt lat="47.66094" lon="-3.53025">
        <ele>-4.67</ele>
        <time>2016-04-30T14:46:39Z</time>
      </trkpt>
      <trkpt lat="47.66064" lon="-3.53039">
        <ele>-3.23</ele>
        <time>2016-04-30T14:46:53Z</time>
      </trkpt>
      <trkpt lat="47.66055" lon="-3.53043">
        <ele>-3.23</ele>
        <time>2016-04-30T14:46:57Z</time>
      </trkpt>
      <trkpt lat="47.66028" lon="-3.53071">
        <ele>-3.23</ele>
        <time>2016-04-30T14:47:10Z</time>
      </trkpt>
      <trkpt lat="47.65998" lon="-3.53085">
        <ele>-3.23</ele>
        <time>2016-04-30T14:47:22Z</time>
      </trkpt>
      <trkpt lat="47.65972" lon="-3.531">
        <ele>-2.75</ele>
        <time>2016-04-30T14:47:33Z</time>
      </trkpt>
      <trkpt lat="47.65945" lon="-3.53117">
        <ele>-3.23</ele>
        <time>2016-04-30T14:47:44Z</time>
      </trkpt>
      <trkpt lat="47.65927" lon="-3.53136">
        <ele>-2.75</ele>
        <time>2016-04-30T14:47:53Z</time>
      </trkpt>
      <trkpt lat="47.6592" lon="-3.53147">
        <ele>-3.23</ele>
        <time>2016-04-30T14:47:57Z</time>
      </trkpt>
      <trkpt lat="47.65904" lon="-3.53178">
        <ele>-3.71</ele>
        <time>2016-04-30T14:48:07Z</time>
      </trkpt>
      <trkpt lat="47.65875" lon="-3.53218">
        <ele>-2.75</ele>
        <time>2016-04-30T14:48:21Z</time>
      </trkpt>
      <trkpt lat="47.6585" lon="-3.53231">
        <ele>-2.27</ele>
        <time>2016-04-30T14:48:31Z</time>
      </trkpt>
      <trkpt lat="47.65824" lon="-3.53234">
        <ele>-1.3</ele>
        <time>2016-04-30T14:48:42Z</time>
      </trkpt>
      <trkpt lat="47.65795" lon="-3.5325">
        <ele>-0.34</ele>
        <time>2016-04-30T14:48:53Z</time>
      </trkpt>
      <trkpt lat="47.65757" lon="-3.53249">
        <ele>-0.34</ele>
        <time>2016-04-30T14:49:08Z</time>
      </trkpt>
      <trkpt lat="47.65723" lon="-3.53257">
        <ele>0.62</ele>
        <time>2016-04-30T14:49:22Z</time>
      </trkpt>
      <trkpt lat="47.65696" lon="-3.53258">
        <ele>0.14</ele>
        <time>2016-04-30T14:49:34Z</time>
      </trkpt>
      <trkpt lat="47.65691" lon="-3.53258">
        <ele>0.62</ele>
        <time>2016-04-30T14:49:36Z</time>
      </trkpt>
      <trkpt lat="47.65658" lon="-3.53274">
        <ele>0.14</ele>
        <time>2016-04-30T14:49:49Z</time>
      </trkpt>
      <trkpt lat="47.65625" lon="-3.53298">
        <ele>0.62</ele>
        <time>2016-04-30T14:50:03Z</time>
      </trkpt>
      <trkpt lat="47.65602" lon="-3.53305">
        <ele>0.14</ele>
        <time>2016-04-30T14:50:12Z</time>
      </trkpt>
      <trkpt lat="47.65573" lon="-3.53314">
        <ele>-0.34</ele>
        <time>2016-04-30T14:50:24Z</time>
      </trkpt>
      <trkpt lat="47.65567" lon="-3.53316">
        <ele>-0.34</ele>
        <time>2016-04-30T14:50:26Z</time>
      </trkpt>
      <trkpt lat="47.65543" lon="-3.53326">
        <ele>0.14</ele>
        <time>2016-04-30T14:50:36Z</time>
      </trkpt>
      <trkpt lat="47.65515" lon="-3.53333">
        <ele>-0.34</ele>
        <time>2016-04-30T14:50:48Z</time>
      </trkpt>
      <trkpt lat="47.65495" lon="-3.5334">
        <ele>-1.79</ele>
        <time>2016-04-30T14:50:56Z</time>
      </trkpt>
      <trkpt lat="47.65467" lon="-3.53369">
        <ele>-2.27</ele>
        <time>2016-04-30T14:51:08Z</time>
      </trkpt>
      <trkpt lat="47.65437" lon="-3.53397">
        <ele>-2.27</ele>
        <time>2016-04-30T14:51:21Z</time>
      </trkpt>
      <trkpt lat="47.65417" lon="-3.534">
        <ele>0.14</ele>
        <time>2016-04-30T14:51:30Z</time>
      </trkpt>
      <trkpt lat="47.65391" lon="-3.53409">
        <ele>1.1</ele>
        <time>2016-04-30T14:51:42Z</time>
      </trkpt>
      <trkpt lat="47.65362" lon="-3.53425">
        <ele>-1.79</ele>
        <time>2016-04-30T14:51:55Z</time>
      </trkpt>
      <trkpt lat="47.65336" lon="-3.53427">
        <ele>-1.3</ele>
        <time>2016-04-30T14:52:06Z</time>
      </trkpt>
      <trkpt lat="47.65322" lon="-3.53432">
        <ele>-2.27</ele>
        <time>2016-04-30T14:52:12Z</time>
      </trkpt>
      <trkpt lat="47.65285" lon="-3.53427">
        <ele>-2.75</ele>
        <time>2016-04-30T14:52:28Z</time>
      </trkpt>
      <trkpt lat="47.65263" lon="-3.53419">
        <ele>-2.27</ele>
        <time>2016-04-30T14:52:39Z</time>
      </trkpt>
      <trkpt lat="47.65234" lon="-3.5342">
        <ele>-2.75</ele>
        <time>2016-04-30T14:52:50Z</time>
      </trkpt>
      <trkpt lat="47.65193" lon="-3.53417">
        <ele>-4.19</ele>
        <time>2016-04-30T14:53:04Z</time>
      </trkpt>
      <trkpt lat="47.65162" lon="-3.53417">
        <ele>-3.23</ele>
        <time>2016-04-30T14:53:16Z</time>
      </trkpt>
      <trkpt lat="47.65135" lon="-3.53427">
        <ele>-2.27</ele>
        <time>2016-04-30T14:53:27Z</time>
      </trkpt>
      <trkpt lat="47.65101" lon="-3.53442">
        <ele>-1.79</ele>
        <time>2016-04-30T14:53:40Z</time>
      </trkpt>
      <trkpt lat="47.6507" lon="-3.53459">
        <ele>-1.79</ele>
        <time>2016-04-30T14:53:52Z</time>
      </trkpt>
      <trkpt lat="47.65039" lon="-3.53464">
        <ele>-2.27</ele>
        <time>2016-04-30T14:54:04Z</time>
      </trkpt>
      <trkpt lat="47.65011" lon="-3.53474">
        <ele>-2.27</ele>
        <time>2016-04-30T14:54:15Z</time>
      </trkpt>
      <trkpt lat="47.64976" lon="-3.53488">
        <ele>-2.27</ele>
        <time>2016-04-30T14:54:28Z</time>
      </trkpt>
      <trkpt lat="47.64947" lon="-3.53484">
        <ele>-2.27</ele>
        <time>2016-04-30T14:54:40Z</time>
      </trkpt>
      <trkpt lat="47.64919" lon="-3.53477">
        <ele>-2.75</ele>
        <time>2016-04-30T14:54:52Z</time>
      </trkpt>
      <trkpt lat="47.64882" lon="-3.53473">
        <ele>-2.75</ele>
        <time>2016-04-30T14:55:07Z</time>
      </trkpt>
      <trkpt lat="47.64852" lon="-3.53466">
        <ele>-3.23</ele>
        <time>2016-04-30T14:55:19Z</time>
      </trkpt>
      <trkpt lat="47.64825" lon="-3.53454">
        <ele>-4.19</ele>
        <time>2016-04-30T14:55:31Z</time>
      </trkpt>
      <trkpt lat="47.64793" lon="-3.53459">
        <ele>-4.67</ele>
        <time>2016-04-30T14:55:43Z</time>
      </trkpt>
      <trkpt lat="47.64757" lon="-3.53468">
        <ele>-4.67</ele>
        <time>2016-04-30T14:55:56Z</time>
      </trkpt>
      <trkpt lat="47.64727" lon="-3.53471">
        <ele>-5.63</ele>
        <time>2016-04-30T14:56:07Z</time>
      </trkpt>
      <trkpt lat="47.64696" lon="-3.53474">
        <ele>-6.11</ele>
        <time>2016-04-30T14:56:19Z</time>
      </trkpt>
      <trkpt lat="47.64659" lon="-3.53479">
        <ele>-6.11</ele>
        <time>2016-04-30T14:56:33Z</time>
      </trkpt>
      <trkpt lat="47.64629" lon="-3.53488">
        <ele>-5.15</ele>
        <time>2016-04-30T14:56:45Z</time>
      </trkpt>
      <trkpt lat="47.64605" lon="-3.53501">
        <ele>-5.63</ele>
        <time>2016-04-30T14:56:55Z</time>
      </trkpt>
      <trkpt lat="47.64577" lon="-3.53507">
        <ele>-4.67</ele>
        <time>2016-04-30T14:57:06Z</time>
      </trkpt>
      <trkpt lat="47.6455" lon="-3.53509">
        <ele>-6.11</ele>
        <time>2016-04-30T14:57:17Z</time>
      </trkpt>
      <trkpt lat="47.64533" lon="-3.53511">
        <ele>-6.59</ele>
        <time>2016-04-30T14:57:24Z</time>
      </trkpt>
      <trkpt lat="47.64529" lon="-3.53513">
        <ele>-6.59</ele>
        <time>2016-04-30T14:57:26Z</time>
      </trkpt>
      <trkpt lat="47.64517" lon="-3.53518">
        <ele>-7.07</ele>
        <time>2016-04-30T14:57:31Z</time>
      </trkpt>
      <trkpt lat="47.64491" lon="-3.53517">
        <ele>-8.03</ele>
        <time>2016-04-30T14:57:42Z</time>
      </trkpt>
      <trkpt lat="47.64458" lon="-3.53515">
        <ele>-9.48</ele>
        <time>2016-04-30T14:57:55Z</time>
      </trkpt>
      <trkpt lat="47.64418" lon="-3.53532">
        <ele>-10.44</ele>
        <time>2016-04-30T14:58:12Z</time>
      </trkpt>
      <trkpt lat="47.6438" lon="-3.53534">
        <ele>-9</ele>
        <time>2016-04-30T14:58:27Z</time>
      </trkpt>
      <trkpt lat="47.64356" lon="-3.53522">
        <ele>-8.51</ele>
        <time>2016-04-30T14:58:40Z</time>
      </trkpt>
      <trkpt lat="47.64324" lon="-3.53524">
        <ele>-8.03</ele>
        <time>2016-04-30T14:58:53Z</time>
      </trkpt>
      <trkpt lat="47.64286" lon="-3.53528">
        <ele>-6.11</ele>
        <time>2016-04-30T14:59:10Z</time>
      </trkpt>
      <trkpt lat="47.64255" lon="-3.53518">
        <ele>-5.63</ele>
        <time>2016-04-30T14:59:24Z</time>
      </trkpt>
      <trkpt lat="47.64224" lon="-3.53513">
        <ele>-5.63</ele>
        <time>2016-04-30T14:59:38Z</time>
      </trkpt>
      <trkpt lat="47.64193" lon="-3.53502">
        <ele>-5.15</ele>
        <time>2016-04-30T14:59:52Z</time>
      </trkpt>
      <trkpt lat="47.6417" lon="-3.53496">
        <ele>-4.67</ele>
        <time>2016-04-30T15:00:03Z</time>
      </trkpt>
      <trkpt lat="47.6416" lon="-3.53494">
        <ele>-4.67</ele>
        <time>2016-04-30T15:00:07Z</time>
      </trkpt>
      <trkpt lat="47.64128" lon="-3.53485">
        <ele>-4.19</ele>
        <time>2016-04-30T15:00:21Z</time>
      </trkpt>
      <trkpt lat="47.641" lon="-3.53472">
        <ele>-3.71</ele>
        <time>2016-04-30T15:00:34Z</time>
      </trkpt>
      <trkpt lat="47.64068" lon="-3.53472">
        <ele>-4.67</ele>
        <time>2016-04-30T15:00:47Z</time>
      </trkpt>
      <trkpt lat="47.6404" lon="-3.53468">
        <ele>-4.67</ele>
        <time>2016-04-30T15:00:58Z</time>
      </trkpt>
      <trkpt lat="47.64013" lon="-3.53458">
        <ele>-4.67</ele>
        <time>2016-04-30T15:01:10Z</time>
      </trkpt>
      <trkpt lat="47.63988" lon="-3.53453">
        <ele>-4.67</ele>
        <time>2016-04-30T15:01:21Z</time>
      </trkpt>
      <trkpt lat="47.63956" lon="-3.53442">
        <ele>-5.63</ele>
        <time>2016-04-30T15:01:35Z</time>
      </trkpt>
      <trkpt lat="47.63913" lon="-3.53427">
        <ele>-6.59</ele>
        <time>2016-04-30T15:01:53Z</time>
      </trkpt>
      <trkpt lat="47.63877" lon="-3.53414">
        <ele>-6.59</ele>
        <time>2016-04-30T15:02:09Z</time>
      </trkpt>
      <trkpt lat="47.6384" lon="-3.53406">
        <ele>-7.07</ele>
        <time>2016-04-30T15:02:24Z</time>
      </trkpt>
      <trkpt lat="47.63811" lon="-3.53393">
        <ele>-7.07</ele>
        <time>2016-04-30T15:02:38Z</time>
      </trkpt>
      <trkpt lat="47.63779" lon="-3.53378">
        <ele>-6.59</ele>
        <time>2016-04-30T15:02:52Z</time>
      </trkpt>
      <trkpt lat="47.6375" lon="-3.53367">
        <ele>-6.59</ele>
        <time>2016-04-30T15:03:04Z</time>
      </trkpt>
      <trkpt lat="47.63711" lon="-3.53356">
        <ele>-5.63</ele>
        <time>2016-04-30T15:03:20Z</time>
      </trkpt>
      <trkpt lat="47.63674" lon="-3.53344">
        <ele>-6.11</ele>
        <time>2016-04-30T15:03:35Z</time>
      </trkpt>
      <trkpt lat="47.63639" lon="-3.53334">
        <ele>-5.15</ele>
        <time>2016-04-30T15:03:50Z</time>
      </trkpt>
      <trkpt lat="47.63604" lon="-3.53323">
        <ele>-4.67</ele>
        <time>2016-04-30T15:04:05Z</time>
      </trkpt>
      <trkpt lat="47.63569" lon="-3.53313">
        <ele>-4.67</ele>
        <time>2016-04-30T15:04:19Z</time>
      </trkpt>
      <trkpt lat="47.63533" lon="-3.53309">
        <ele>-5.15</ele>
        <time>2016-04-30T15:04:33Z</time>
      </trkpt>
      <trkpt lat="47.63498" lon="-3.53315">
        <ele>-5.15</ele>
        <time>2016-04-30T15:04:45Z</time>
      </trkpt>
      <trkpt lat="47.63454" lon="-3.53309">
        <ele>-4.67</ele>
        <time>2016-04-30T15:05:01Z</time>
      </trkpt>
      <trkpt lat="47.63423" lon="-3.53303">
        <ele>-4.19</ele>
        <time>2016-04-30T15:05:13Z</time>
      </trkpt>
      <trkpt lat="47.63386" lon="-3.53314">
        <ele>-5.15</ele>
        <time>2016-04-30T15:05:28Z</time>
      </trkpt>
      <trkpt lat="47.63359" lon="-3.5333">
        <ele>-4.67</ele>
        <time>2016-04-30T15:05:38Z</time>
      </trkpt>
      <trkpt lat="47.63321" lon="-3.53319">
        <ele>-5.15</ele>
        <time>2016-04-30T15:05:52Z</time>
      </trkpt>
      <trkpt lat="47.63292" lon="-3.53309">
        <ele>-5.63</ele>
        <time>2016-04-30T15:06:05Z</time>
      </trkpt>
      <trkpt lat="47.63259" lon="-3.53303">
        <ele>-6.11</ele>
        <time>2016-04-30T15:06:18Z</time>
      </trkpt>
      <trkpt lat="47.63234" lon="-3.53297">
        <ele>-7.07</ele>
        <time>2016-04-30T15:06:28Z</time>
      </trkpt>
      <trkpt lat="47.63196" lon="-3.53293">
        <ele>-7.07</ele>
        <time>2016-04-30T15:06:43Z</time>
      </trkpt>
      <trkpt lat="47.63154" lon="-3.53282">
        <ele>-6.59</ele>
        <time>2016-04-30T15:07:00Z</time>
      </trkpt>
      <trkpt lat="47.63117" lon="-3.53273">
        <ele>-6.11</ele>
        <time>2016-04-30T15:07:15Z</time>
      </trkpt>
      <trkpt lat="47.63084" lon="-3.53264">
        <ele>-6.11</ele>
        <time>2016-04-30T15:07:29Z</time>
      </trkpt>
      <trkpt lat="47.63046" lon="-3.53247">
        <ele>-6.11</ele>
        <time>2016-04-30T15:07:45Z</time>
      </trkpt>
      <trkpt lat="47.63018" lon="-3.53241">
        <ele>-5.63</ele>
        <time>2016-04-30T15:07:56Z</time>
      </trkpt>
      <trkpt lat="47.62987" lon="-3.53229">
        <ele>-4.19</ele>
        <time>2016-04-30T15:08:09Z</time>
      </trkpt>
      <trkpt lat="47.6296" lon="-3.53215">
        <ele>-4.67</ele>
        <time>2016-04-30T15:08:21Z</time>
      </trkpt>
      <trkpt lat="47.62935" lon="-3.53204">
        <ele>-5.63</ele>
        <time>2016-04-30T15:08:31Z</time>
      </trkpt>
      <trkpt lat="47.62899" lon="-3.5319">
        <ele>-6.11</ele>
        <time>2016-04-30T15:08:44Z</time>
      </trkpt>
      <trkpt lat="47.62871" lon="-3.53168">
        <ele>-6.11</ele>
        <time>2016-04-30T15:08:57Z</time>
      </trkpt>
      <trkpt lat="47.62847" lon="-3.53158">
        <ele>-6.11</ele>
        <time>2016-04-30T15:09:07Z</time>
      </trkpt>
      <trkpt lat="47.62814" lon="-3.53153">
        <ele>-6.59</ele>
        <time>2016-04-30T15:09:20Z</time>
      </trkpt>
      <trkpt lat="47.62783" lon="-3.53146">
        <ele>-5.15</ele>
        <time>2016-04-30T15:09:32Z</time>
      </trkpt>
      <trkpt lat="47.62755" lon="-3.53134">
        <ele>-4.67</ele>
        <time>2016-04-30T15:09:44Z</time>
      </trkpt>
      <trkpt lat="47.62726" lon="-3.53126">
        <ele>-3.23</ele>
        <time>2016-04-30T15:09:56Z</time>
      </trkpt>
      <trkpt lat="47.62684" lon="-3.53127">
        <ele>-3.23</ele>
        <time>2016-04-30T15:10:11Z</time>
      </trkpt>
      <trkpt lat="47.62643" lon="-3.53117">
        <ele>-1.79</ele>
        <time>2016-04-30T15:10:26Z</time>
      </trkpt>
      <trkpt lat="47.62615" lon="-3.53108">
        <ele>-0.34</ele>
        <time>2016-04-30T15:10:37Z</time>
      </trkpt>
      <trkpt lat="47.62572" lon="-3.53101">
        <ele>-1.3</ele>
        <time>2016-04-30T15:10:52Z</time>
      </trkpt>
      <trkpt lat="47.62541" lon="-3.53092">
        <ele>-1.79</ele>
        <time>2016-04-30T15:11:03Z</time>
      </trkpt>
      <trkpt lat="47.62505" lon="-3.53086">
        <ele>-2.75</ele>
        <time>2016-04-30T15:11:15Z</time>
      </trkpt>
      <trkpt lat="47.62472" lon="-3.5307">
        <ele>-2.27</ele>
        <time>2016-04-30T15:11:27Z</time>
      </trkpt>
      <trkpt lat="47.6244" lon="-3.53057">
        <ele>-2.27</ele>
        <time>2016-04-30T15:11:39Z</time>
      </trkpt>
      <trkpt lat="47.62404" lon="-3.53032">
        <ele>-1.3</ele>
        <time>2016-04-30T15:11:54Z</time>
      </trkpt>
      <trkpt lat="47.6237" lon="-3.53003">
        <ele>-1.79</ele>
        <time>2016-04-30T15:12:09Z</time>
      </trkpt>
      <trkpt lat="47.62338" lon="-3.52978">
        <ele>-0.82</ele>
        <time>2016-04-30T15:12:24Z</time>
      </trkpt>
      <trkpt lat="47.62312" lon="-3.52965">
        <ele>-0.82</ele>
        <time>2016-04-30T15:12:35Z</time>
      </trkpt>
      <trkpt lat="47.623" lon="-3.52963">
        <ele>-0.82</ele>
        <time>2016-04-30T15:12:39Z</time>
      </trkpt>
      <trkpt lat="47.62261" lon="-3.52943">
        <ele>-0.82</ele>
        <time>2016-04-30T15:12:55Z</time>
      </trkpt>
      <trkpt lat="47.62236" lon="-3.52931">
        <ele>-0.82</ele>
        <time>2016-04-30T15:13:06Z</time>
      </trkpt>
      <trkpt lat="47.62208" lon="-3.52914">
        <ele>-0.82</ele>
        <time>2016-04-30T15:13:18Z</time>
      </trkpt>
      <trkpt lat="47.62179" lon="-3.52891">
        <ele>-0.82</ele>
        <time>2016-04-30T15:13:32Z</time>
      </trkpt>
      <trkpt lat="47.62151" lon="-3.52873">
        <ele>0.14</ele>
        <time>2016-04-30T15:13:45Z</time>
      </trkpt>
      <trkpt lat="47.62126" lon="-3.52853">
        <ele>-0.34</ele>
        <time>2016-04-30T15:13:57Z</time>
      </trkpt>
      <trkpt lat="47.62094" lon="-3.52833">
        <ele>0.14</ele>
        <time>2016-04-30T15:14:11Z</time>
      </trkpt>
      <trkpt lat="47.6207" lon="-3.5282">
        <ele>-0.34</ele>
        <time>2016-04-30T15:14:22Z</time>
      </trkpt>
      <trkpt lat="47.62029" lon="-3.52802">
        <ele>0.62</ele>
        <time>2016-04-30T15:14:39Z</time>
      </trkpt>
      <trkpt lat="47.61997" lon="-3.52787">
        <ele>1.1</ele>
        <time>2016-04-30T15:14:53Z</time>
      </trkpt>
      <trkpt lat="47.6197" lon="-3.52766">
        <ele>1.1</ele>
        <time>2016-04-30T15:15:06Z</time>
      </trkpt>
      <trkpt lat="47.6194" lon="-3.52745">
        <ele>1.58</ele>
        <time>2016-04-30T15:15:20Z</time>
      </trkpt>
      <trkpt lat="47.61915" lon="-3.52728">
        <ele>1.1</ele>
        <time>2016-04-30T15:15:31Z</time>
      </trkpt>
      <trkpt lat="47.61886" lon="-3.52709">
        <ele>1.1</ele>
        <time>2016-04-30T15:15:44Z</time>
      </trkpt>
      <trkpt lat="47.61862" lon="-3.52696">
        <ele>1.58</ele>
        <time>2016-04-30T15:15:55Z</time>
      </trkpt>
      <trkpt lat="47.61836" lon="-3.5269">
        <ele>0.14</ele>
        <time>2016-04-30T15:16:05Z</time>
      </trkpt>
      <trkpt lat="47.61803" lon="-3.52686">
        <ele>-0.82</ele>
        <time>2016-04-30T15:16:17Z</time>
      </trkpt>
      <trkpt lat="47.61769" lon="-3.5268">
        <ele>0.14</ele>
        <time>2016-04-30T15:16:30Z</time>
      </trkpt>
      <trkpt lat="47.61739" lon="-3.52672">
        <ele>1.1</ele>
        <time>2016-04-30T15:16:41Z</time>
      </trkpt>
      <trkpt lat="47.61714" lon="-3.52646">
        <ele>2.06</ele>
        <time>2016-04-30T15:16:54Z</time>
      </trkpt>
      <trkpt lat="47.61688" lon="-3.52627">
        <ele>1.58</ele>
        <time>2016-04-30T15:17:07Z</time>
      </trkpt>
      <trkpt lat="47.61659" lon="-3.52605">
        <ele>1.1</ele>
        <time>2016-04-30T15:17:22Z</time>
      </trkpt>
      <trkpt lat="47.61635" lon="-3.52585">
        <ele>1.58</ele>
        <time>2016-04-30T15:17:35Z</time>
      </trkpt>
      <trkpt lat="47.61606" lon="-3.52568">
        <ele>2.06</ele>
        <time>2016-04-30T15:17:49Z</time>
      </trkpt>
      <trkpt lat="47.61577" lon="-3.52556">
        <ele>1.58</ele>
        <time>2016-04-30T15:18:01Z</time>
      </trkpt>
      <trkpt lat="47.61548" lon="-3.52543">
        <ele>1.58</ele>
        <time>2016-04-30T15:18:13Z</time>
      </trkpt>
      <trkpt lat="47.61521" lon="-3.52532">
        <ele>1.1</ele>
        <time>2016-04-30T15:18:24Z</time>
      </trkpt>
      <trkpt lat="47.61481" lon="-3.52529">
        <ele>1.1</ele>
        <time>2016-04-30T15:18:39Z</time>
      </trkpt>
      <trkpt lat="47.61448" lon="-3.52516">
        <ele>1.1</ele>
        <time>2016-04-30T15:18:51Z</time>
      </trkpt>
      <trkpt lat="47.61416" lon="-3.52497">
        <ele>1.58</ele>
        <time>2016-04-30T15:19:04Z</time>
      </trkpt>
      <trkpt lat="47.61384" lon="-3.52478">
        <ele>1.58</ele>
        <time>2016-04-30T15:19:18Z</time>
      </trkpt>
      <trkpt lat="47.61362" lon="-3.52457">
        <ele>2.54</ele>
        <time>2016-04-30T15:19:29Z</time>
      </trkpt>
      <trkpt lat="47.61328" lon="-3.52437">
        <ele>0.62</ele>
        <time>2016-04-30T15:19:44Z</time>
      </trkpt>
      <trkpt lat="47.61295" lon="-3.5242">
        <ele>-0.34</ele>
        <time>2016-04-30T15:19:58Z</time>
      </trkpt>
      <trkpt lat="47.61262" lon="-3.52402">
        <ele>-0.34</ele>
        <time>2016-04-30T15:20:11Z</time>
      </trkpt>
      <trkpt lat="47.6123" lon="-3.52378">
        <ele>0.14</ele>
        <time>2016-04-30T15:20:25Z</time>
      </trkpt>
      <trkpt lat="47.612" lon="-3.52361">
        <ele>0.62</ele>
        <time>2016-04-30T15:20:38Z</time>
      </trkpt>
      <trkpt lat="47.61166" lon="-3.52339">
        <ele>1.1</ele>
        <time>2016-04-30T15:20:53Z</time>
      </trkpt>
      <trkpt lat="47.61132" lon="-3.52318">
        <ele>0.62</ele>
        <time>2016-04-30T15:21:07Z</time>
      </trkpt>
      <trkpt lat="47.61102" lon="-3.52303">
        <ele>1.1</ele>
        <time>2016-04-30T15:21:19Z</time>
      </trkpt>
      <trkpt lat="47.6107" lon="-3.52284">
        <ele>1.1</ele>
        <time>2016-04-30T15:21:32Z</time>
      </trkpt>
      <trkpt lat="47.61042" lon="-3.52266">
        <ele>1.1</ele>
        <time>2016-04-30T15:21:44Z</time>
      </trkpt>
      <trkpt lat="47.61015" lon="-3.52244">
        <ele>0.62</ele>
        <time>2016-04-30T15:21:58Z</time>
      </trkpt>
      <trkpt lat="47.60987" lon="-3.52229">
        <ele>0.62</ele>
        <time>2016-04-30T15:22:10Z</time>
      </trkpt>
      <trkpt lat="47.60957" lon="-3.52219">
        <ele>0.62</ele>
        <time>2016-04-30T15:22:21Z</time>
      </trkpt>
      <trkpt lat="47.60919" lon="-3.52203">
        <ele>1.1</ele>
        <time>2016-04-30T15:22:36Z</time>
      </trkpt>
      <trkpt lat="47.6089" lon="-3.52181">
        <ele>0.14</ele>
        <time>2016-04-30T15:22:50Z</time>
      </trkpt>
      <trkpt lat="47.60864" lon="-3.52163">
        <ele>0.62</ele>
        <time>2016-04-30T15:23:02Z</time>
      </trkpt>
      <trkpt lat="47.60826" lon="-3.52146">
        <ele>0.14</ele>
        <time>2016-04-30T15:23:16Z</time>
      </trkpt>
      <trkpt lat="47.60794" lon="-3.52132">
        <ele>0.14</ele>
        <time>2016-04-30T15:23:28Z</time>
      </trkpt>
      <trkpt lat="47.60765" lon="-3.52115">
        <ele>0.14</ele>
        <time>2016-04-30T15:23:40Z</time>
      </trkpt>
      <trkpt lat="47.60734" lon="-3.52094">
        <ele>0.14</ele>
        <time>2016-04-30T15:23:53Z</time>
      </trkpt>
      <trkpt lat="47.60709" lon="-3.52078">
        <ele>-0.34</ele>
        <time>2016-04-30T15:24:03Z</time>
      </trkpt>
      <trkpt lat="47.60679" lon="-3.52059">
        <ele>-0.34</ele>
        <time>2016-04-30T15:24:16Z</time>
      </trkpt>
      <trkpt lat="47.60649" lon="-3.52035">
        <ele>-0.34</ele>
        <time>2016-04-30T15:24:30Z</time>
      </trkpt>
      <trkpt lat="47.60623" lon="-3.52011">
        <ele>0.14</ele>
        <time>2016-04-30T15:24:43Z</time>
      </trkpt>
      <trkpt lat="47.60593" lon="-3.5199">
        <ele>0.14</ele>
        <time>2016-04-30T15:24:56Z</time>
      </trkpt>
      <trkpt lat="47.6056" lon="-3.51966">
        <ele>-0.82</ele>
        <time>2016-04-30T15:25:10Z</time>
      </trkpt>
      <trkpt lat="47.60522" lon="-3.51938">
        <ele>-1.3</ele>
        <time>2016-04-30T15:25:26Z</time>
      </trkpt>
      <trkpt lat="47.60492" lon="-3.51918">
        <ele>-1.3</ele>
        <time>2016-04-30T15:25:38Z</time>
      </trkpt>
      <trkpt lat="47.60463" lon="-3.51899">
        <ele>0.14</ele>
        <time>2016-04-30T15:25:51Z</time>
      </trkpt>
      <trkpt lat="47.60438" lon="-3.51887">
        <ele>-0.82</ele>
        <time>2016-04-30T15:26:01Z</time>
      </trkpt>
      <trkpt lat="47.60407" lon="-3.51868">
        <ele>-1.3</ele>
        <time>2016-04-30T15:26:14Z</time>
      </trkpt>
      <trkpt lat="47.60386" lon="-3.51855">
        <ele>-1.3</ele>
        <time>2016-04-30T15:26:24Z</time>
      </trkpt>
      <trkpt lat="47.60363" lon="-3.51843">
        <ele>-1.79</ele>
        <time>2016-04-30T15:26:34Z</time>
      </trkpt>
      <trkpt lat="47.6034" lon="-3.51832">
        <ele>-1.79</ele>
        <time>2016-04-30T15:26:44Z</time>
      </trkpt>
      <trkpt lat="47.60307" lon="-3.51819">
        <ele>-1.79</ele>
        <time>2016-04-30T15:26:57Z</time>
      </trkpt>
      <trkpt lat="47.60266" lon="-3.51796">
        <ele>-2.27</ele>
        <time>2016-04-30T15:27:14Z</time>
      </trkpt>
      <trkpt lat="47.60234" lon="-3.51781">
        <ele>-1.79</ele>
        <time>2016-04-30T15:27:26Z</time>
      </trkpt>
      <trkpt lat="47.6019" lon="-3.5177">
        <ele>-1.79</ele>
        <time>2016-04-30T15:27:41Z</time>
      </trkpt>
      <trkpt lat="47.60159" lon="-3.51755">
        <ele>-0.82</ele>
        <time>2016-04-30T15:27:53Z</time>
      </trkpt>
      <trkpt lat="47.60128" lon="-3.51732">
        <ele>-0.82</ele>
        <time>2016-04-30T15:28:07Z</time>
      </trkpt>
      <trkpt lat="47.60107" lon="-3.51712">
        <ele>-1.3</ele>
        <time>2016-04-30T15:28:18Z</time>
      </trkpt>
      <trkpt lat="47.60082" lon="-3.51701">
        <ele>0.14</ele>
        <time>2016-04-30T15:28:28Z</time>
      </trkpt>
      <trkpt lat="47.60057" lon="-3.51685">
        <ele>-0.34</ele>
        <time>2016-04-30T15:28:39Z</time>
      </trkpt>
      <trkpt lat="47.60023" lon="-3.51674">
        <ele>-0.34</ele>
        <time>2016-04-30T15:28:52Z</time>
      </trkpt>
      <trkpt lat="47.59993" lon="-3.5166">
        <ele>-0.82</ele>
        <time>2016-04-30T15:29:03Z</time>
      </trkpt>
      <trkpt lat="47.59966" lon="-3.51639">
        <ele>-1.3</ele>
        <time>2016-04-30T15:29:16Z</time>
      </trkpt>
      <trkpt lat="47.59938" lon="-3.51617">
        <ele>-1.79</ele>
        <time>2016-04-30T15:29:30Z</time>
      </trkpt>
      <trkpt lat="47.59912" lon="-3.516">
        <ele>-0.82</ele>
        <time>2016-04-30T15:29:42Z</time>
      </trkpt>
      <trkpt lat="47.59884" lon="-3.51586">
        <ele>-0.82</ele>
        <time>2016-04-30T15:29:54Z</time>
      </trkpt>
      <trkpt lat="47.59845" lon="-3.51578">
        <ele>-0.82</ele>
        <time>2016-04-30T15:30:09Z</time>
      </trkpt>
      <trkpt lat="47.5981" lon="-3.51565">
        <ele>-1.3</ele>
        <time>2016-04-30T15:30:23Z</time>
      </trkpt>
      <trkpt lat="47.59807" lon="-3.51564">
        <ele>-1.3</ele>
        <time>2016-04-30T15:30:24Z</time>
      </trkpt>
      <trkpt lat="47.59795" lon="-3.51559">
        <ele>-1.79</ele>
        <time>2016-04-30T15:30:29Z</time>
      </trkpt>
      <trkpt lat="47.59767" lon="-3.51541">
        <ele>-2.27</ele>
        <time>2016-04-30T15:30:42Z</time>
      </trkpt>
      <trkpt lat="47.59743" lon="-3.51525">
        <ele>-1.79</ele>
        <time>2016-04-30T15:30:53Z</time>
      </trkpt>
      <trkpt lat="47.59722" lon="-3.51509">
        <ele>-1.79</ele>
        <time>2016-04-30T15:31:04Z</time>
      </trkpt>
      <trkpt lat="47.59699" lon="-3.51488">
        <ele>-1.3</ele>
        <time>2016-04-30T15:31:16Z</time>
      </trkpt>
      <trkpt lat="47.59668" lon="-3.51474">
        <ele>-1.3</ele>
        <time>2016-04-30T15:31:29Z</time>
      </trkpt>
      <trkpt lat="47.59657" lon="-3.51467">
        <ele>-1.3</ele>
        <time>2016-04-30T15:31:34Z</time>
      </trkpt>
      <trkpt lat="47.59644" lon="-3.51463">
        <ele>-1.79</ele>
        <time>2016-04-30T15:31:39Z</time>
      </trkpt>
      <trkpt lat="47.59634" lon="-3.51459">
        <ele>-1.79</ele>
        <time>2016-04-30T15:31:43Z</time>
      </trkpt>
      <trkpt lat="47.59618" lon="-3.51454">
        <ele>-1.79</ele>
        <time>2016-04-30T15:31:49Z</time>
      </trkpt>
      <trkpt lat="47.59593" lon="-3.51448">
        <ele>-1.3</ele>
        <time>2016-04-30T15:31:59Z</time>
      </trkpt>
      <trkpt lat="47.59569" lon="-3.51439">
        <ele>-1.79</ele>
        <time>2016-04-30T15:32:09Z</time>
      </trkpt>
      <trkpt lat="47.59543" lon="-3.51425">
        <ele>-1.3</ele>
        <time>2016-04-30T15:32:21Z</time>
      </trkpt>
      <trkpt lat="47.59539" lon="-3.51422">
        <ele>-0.82</ele>
        <time>2016-04-30T15:32:23Z</time>
      </trkpt>
      <trkpt lat="47.59507" lon="-3.51414">
        <ele>-0.82</ele>
        <time>2016-04-30T15:32:37Z</time>
      </trkpt>
      <trkpt lat="47.59488" lon="-3.51415">
        <ele>-0.82</ele>
        <time>2016-04-30T15:32:44Z</time>
      </trkpt>
      <trkpt lat="47.59466" lon="-3.51429">
        <ele>-2.27</ele>
        <time>2016-04-30T15:32:53Z</time>
      </trkpt>
      <trkpt lat="47.59435" lon="-3.51453">
        <ele>-2.75</ele>
        <time>2016-04-30T15:33:06Z</time>
      </trkpt>
      <trkpt lat="47.59432" lon="-3.51453">
        <ele>-2.75</ele>
        <time>2016-04-30T15:33:07Z</time>
      </trkpt>
      <trkpt lat="47.59403" lon="-3.51447">
        <ele>-1.79</ele>
        <time>2016-04-30T15:33:19Z</time>
      </trkpt>
      <trkpt lat="47.59374" lon="-3.51441">
        <ele>-2.27</ele>
        <time>2016-04-30T15:33:31Z</time>
      </trkpt>
      <trkpt lat="47.59345" lon="-3.51439">
        <ele>-2.27</ele>
        <time>2016-04-30T15:33:42Z</time>
      </trkpt>
      <trkpt lat="47.59308" lon="-3.51433">
        <ele>-2.27</ele>
        <time>2016-04-30T15:33:55Z</time>
      </trkpt>
      <trkpt lat="47.59284" lon="-3.51422">
        <ele>-1.3</ele>
        <time>2016-04-30T15:34:06Z</time>
      </trkpt>
      <trkpt lat="47.59262" lon="-3.51409">
        <ele>-0.82</ele>
        <time>2016-04-30T15:34:18Z</time>
      </trkpt>
      <trkpt lat="47.59235" lon="-3.514">
        <ele>-0.82</ele>
        <time>2016-04-30T15:34:31Z</time>
      </trkpt>
      <trkpt lat="47.59204" lon="-3.51398">
        <ele>-1.3</ele>
        <time>2016-04-30T15:34:43Z</time>
      </trkpt>
      <trkpt lat="47.59179" lon="-3.51386">
        <ele>-0.82</ele>
        <time>2016-04-30T15:34:55Z</time>
      </trkpt>
      <trkpt lat="47.59151" lon="-3.51372">
        <ele>-0.82</ele>
        <time>2016-04-30T15:35:09Z</time>
      </trkpt>
      <trkpt lat="47.59124" lon="-3.5136">
        <ele>-1.3</ele>
        <time>2016-04-30T15:35:22Z</time>
      </trkpt>
      <trkpt lat="47.59101" lon="-3.5135">
        <ele>-1.3</ele>
        <time>2016-04-30T15:35:33Z</time>
      </trkpt>
      <trkpt lat="47.59076" lon="-3.51341">
        <ele>-2.75</ele>
        <time>2016-04-30T15:35:44Z</time>
      </trkpt>
      <trkpt lat="47.59046" lon="-3.51327">
        <ele>-2.27</ele>
        <time>2016-04-30T15:35:57Z</time>
      </trkpt>
      <trkpt lat="47.59015" lon="-3.51312">
        <ele>-2.27</ele>
        <time>2016-04-30T15:36:10Z</time>
      </trkpt>
      <trkpt lat="47.58979" lon="-3.51303">
        <ele>-3.71</ele>
        <time>2016-04-30T15:36:24Z</time>
      </trkpt>
      <trkpt lat="47.58957" lon="-3.51289">
        <ele>-5.63</ele>
        <time>2016-04-30T15:36:34Z</time>
      </trkpt>
      <trkpt lat="47.58955" lon="-3.51287">
        <ele>-5.63</ele>
        <time>2016-04-30T15:36:35Z</time>
      </trkpt>
      <trkpt lat="47.58945" lon="-3.51281">
        <ele>-5.15</ele>
        <time>2016-04-30T15:36:40Z</time>
      </trkpt>
      <trkpt lat="47.58928" lon="-3.5127">
        <ele>-5.15</ele>
        <time>2016-04-30T15:36:49Z</time>
      </trkpt>
      <trkpt lat="47.58899" lon="-3.5125">
        <ele>-4.67</ele>
        <time>2016-04-30T15:37:04Z</time>
      </trkpt>
      <trkpt lat="47.58874" lon="-3.51222">
        <ele>-5.15</ele>
        <time>2016-04-30T15:37:19Z</time>
      </trkpt>
      <trkpt lat="47.5885" lon="-3.51212">
        <ele>-5.63</ele>
        <time>2016-04-30T15:37:31Z</time>
      </trkpt>
      <trkpt lat="47.58831" lon="-3.51198">
        <ele>-6.11</ele>
        <time>2016-04-30T15:37:43Z</time>
      </trkpt>
      <trkpt lat="47.58813" lon="-3.51185">
        <ele>-5.63</ele>
        <time>2016-04-30T15:37:54Z</time>
      </trkpt>
      <trkpt lat="47.58796" lon="-3.51171">
        <ele>-5.15</ele>
        <time>2016-04-30T15:38:04Z</time>
      </trkpt>
      <trkpt lat="47.58785" lon="-3.51163">
        <ele>-4.19</ele>
        <time>2016-04-30T15:38:10Z</time>
      </trkpt>
      <trkpt lat="47.58778" lon="-3.51158">
        <ele>-3.71</ele>
        <time>2016-04-30T15:38:14Z</time>
      </trkpt>
      <trkpt lat="47.58762" lon="-3.51134">
        <ele>-3.71</ele>
        <time>2016-04-30T15:38:26Z</time>
      </trkpt>
      <trkpt lat="47.58746" lon="-3.51104">
        <ele>-2.75</ele>
        <time>2016-04-30T15:38:40Z</time>
      </trkpt>
      <trkpt lat="47.5874" lon="-3.51065">
        <ele>-2.75</ele>
        <time>2016-04-30T15:38:54Z</time>
      </trkpt>
      <trkpt lat="47.58738" lon="-3.51046">
        <ele>-3.23</ele>
        <time>2016-04-30T15:39:00Z</time>
      </trkpt>
      <trkpt lat="47.58739" lon="-3.51036">
        <ele>-3.23</ele>
        <time>2016-04-30T15:39:04Z</time>
      </trkpt>
      <trkpt lat="47.58742" lon="-3.50998">
        <ele>-3.71</ele>
        <time>2016-04-30T15:39:17Z</time>
      </trkpt>
      <trkpt lat="47.58737" lon="-3.50952">
        <ele>-4.67</ele>
        <time>2016-04-30T15:39:32Z</time>
      </trkpt>
      <trkpt lat="47.58734" lon="-3.50908">
        <ele>-4.19</ele>
        <time>2016-04-30T15:39:45Z</time>
      </trkpt>
      <trkpt lat="47.58726" lon="-3.50868">
        <ele>-3.23</ele>
        <time>2016-04-30T15:39:58Z</time>
      </trkpt>
      <trkpt lat="47.58719" lon="-3.50821">
        <ele>-2.75</ele>
        <time>2016-04-30T15:40:13Z</time>
      </trkpt>
      <trkpt lat="47.58718" lon="-3.50775">
        <ele>-2.27</ele>
        <time>2016-04-30T15:40:26Z</time>
      </trkpt>
      <trkpt lat="47.58715" lon="-3.50728">
        <ele>-2.75</ele>
        <time>2016-04-30T15:40:39Z</time>
      </trkpt>
      <trkpt lat="47.5871" lon="-3.50678">
        <ele>-2.27</ele>
        <time>2016-04-30T15:40:52Z</time>
      </trkpt>
      <trkpt lat="47.5871" lon="-3.5063">
        <ele>-2.27</ele>
        <time>2016-04-30T15:41:05Z</time>
      </trkpt>
      <trkpt lat="47.58706" lon="-3.5058">
        <ele>-3.23</ele>
        <time>2016-04-30T15:41:17Z</time>
      </trkpt>
      <trkpt lat="47.58705" lon="-3.50517">
        <ele>-2.27</ele>
        <time>2016-04-30T15:41:32Z</time>
      </trkpt>
      <trkpt lat="47.58703" lon="-3.50463">
        <ele>-0.82</ele>
        <time>2016-04-30T15:41:45Z</time>
      </trkpt>
      <trkpt lat="47.58699" lon="-3.50406">
        <ele>0.14</ele>
        <time>2016-04-30T15:41:59Z</time>
      </trkpt>
      <trkpt lat="47.58695" lon="-3.5035">
        <ele>0.62</ele>
        <time>2016-04-30T15:42:12Z</time>
      </trkpt>
      <trkpt lat="47.58689" lon="-3.50296">
        <ele>2.06</ele>
        <time>2016-04-30T15:42:25Z</time>
      </trkpt>
      <trkpt lat="47.58686" lon="-3.50243">
        <ele>2.06</ele>
        <time>2016-04-30T15:42:38Z</time>
      </trkpt>
      <trkpt lat="47.58679" lon="-3.50206">
        <ele>2.54</ele>
        <time>2016-04-30T15:42:48Z</time>
      </trkpt>
      <trkpt lat="47.5868" lon="-3.50165">
        <ele>2.06</ele>
        <time>2016-04-30T15:43:00Z</time>
      </trkpt>
      <trkpt lat="47.58688" lon="-3.50107">
        <ele>0.62</ele>
        <time>2016-04-30T15:43:13Z</time>
      </trkpt>
      <trkpt lat="47.58684" lon="-3.5006">
        <ele>-1.3</ele>
        <time>2016-04-30T15:43:25Z</time>
      </trkpt>
      <trkpt lat="47.58687" lon="-3.50006">
        <ele>-0.82</ele>
        <time>2016-04-30T15:43:37Z</time>
      </trkpt>
      <trkpt lat="47.58689" lon="-3.49961">
        <ele>0.62</ele>
        <time>2016-04-30T15:43:47Z</time>
      </trkpt>
      <trkpt lat="47.5869" lon="-3.49918">
        <ele>0.62</ele>
        <time>2016-04-30T15:43:58Z</time>
      </trkpt>
      <trkpt lat="47.58693" lon="-3.49871">
        <ele>0.62</ele>
        <time>2016-04-30T15:44:09Z</time>
      </trkpt>
      <trkpt lat="47.58689" lon="-3.49824">
        <ele>0.14</ele>
        <time>2016-04-30T15:44:21Z</time>
      </trkpt>
      <trkpt lat="47.58682" lon="-3.49785">
        <ele>-0.34</ele>
        <time>2016-04-30T15:44:31Z</time>
      </trkpt>
      <trkpt lat="47.58693" lon="-3.49737">
        <ele>1.1</ele>
        <time>2016-04-30T15:44:43Z</time>
      </trkpt>
      <trkpt lat="47.58693" lon="-3.49694">
        <ele>1.1</ele>
        <time>2016-04-30T15:44:53Z</time>
      </trkpt>
      <trkpt lat="47.58705" lon="-3.49653">
        <ele>1.58</ele>
        <time>2016-04-30T15:45:04Z</time>
      </trkpt>
      <trkpt lat="47.58708" lon="-3.496">
        <ele>0.62</ele>
        <time>2016-04-30T15:45:17Z</time>
      </trkpt>
      <trkpt lat="47.58713" lon="-3.49542">
        <ele>0.14</ele>
        <time>2016-04-30T15:45:32Z</time>
      </trkpt>
      <trkpt lat="47.58718" lon="-3.49491">
        <ele>0.14</ele>
        <time>2016-04-30T15:45:45Z</time>
      </trkpt>
      <trkpt lat="47.58724" lon="-3.49442">
        <ele>-0.34</ele>
        <time>2016-04-30T15:45:57Z</time>
      </trkpt>
      <trkpt lat="47.58731" lon="-3.49382">
        <ele>0.14</ele>
        <time>2016-04-30T15:46:12Z</time>
      </trkpt>
      <trkpt lat="47.58736" lon="-3.49329">
        <ele>0.14</ele>
        <time>2016-04-30T15:46:25Z</time>
      </trkpt>
      <trkpt lat="47.58742" lon="-3.4927">
        <ele>-0.34</ele>
        <time>2016-04-30T15:46:39Z</time>
      </trkpt>
      <trkpt lat="47.5875" lon="-3.49202">
        <ele>-0.34</ele>
        <time>2016-04-30T15:46:55Z</time>
      </trkpt>
      <trkpt lat="47.58754" lon="-3.49153">
        <ele>-0.82</ele>
        <time>2016-04-30T15:47:07Z</time>
      </trkpt>
      <trkpt lat="47.58758" lon="-3.49102">
        <ele>0.62</ele>
        <time>2016-04-30T15:47:18Z</time>
      </trkpt>
      <trkpt lat="47.58757" lon="-3.49067">
        <ele>-0.34</ele>
        <time>2016-04-30T15:47:26Z</time>
      </trkpt>
      <trkpt lat="47.58757" lon="-3.49053">
        <ele>-0.82</ele>
        <time>2016-04-30T15:47:30Z</time>
      </trkpt>
      <trkpt lat="47.5876" lon="-3.49038">
        <ele>-0.82</ele>
        <time>2016-04-30T15:47:34Z</time>
      </trkpt>
      <trkpt lat="47.5877" lon="-3.48976">
        <ele>-0.82</ele>
        <time>2016-04-30T15:47:50Z</time>
      </trkpt>
      <trkpt lat="47.58771" lon="-3.48934">
        <ele>-1.3</ele>
        <time>2016-04-30T15:48:01Z</time>
      </trkpt>
      <trkpt lat="47.58775" lon="-3.48887">
        <ele>-1.3</ele>
        <time>2016-04-30T15:48:12Z</time>
      </trkpt>
      <trkpt lat="47.58776" lon="-3.48828">
        <ele>-2.27</ele>
        <time>2016-04-30T15:48:26Z</time>
      </trkpt>
      <trkpt lat="47.58775" lon="-3.48786">
        <ele>-2.27</ele>
        <time>2016-04-30T15:48:36Z</time>
      </trkpt>
      <trkpt lat="47.58775" lon="-3.4873">
        <ele>-1.3</ele>
        <time>2016-04-30T15:48:50Z</time>
      </trkpt>
      <trkpt lat="47.58773" lon="-3.4868">
        <ele>-0.82</ele>
        <time>2016-04-30T15:49:02Z</time>
      </trkpt>
      <trkpt lat="47.58774" lon="-3.48615">
        <ele>-2.27</ele>
        <time>2016-04-30T15:49:17Z</time>
      </trkpt>
      <trkpt lat="47.58769" lon="-3.48558">
        <ele>-1.3</ele>
        <time>2016-04-30T15:49:30Z</time>
      </trkpt>
      <trkpt lat="47.58762" lon="-3.48503">
        <ele>-1.79</ele>
        <time>2016-04-30T15:49:44Z</time>
      </trkpt>
      <trkpt lat="47.58768" lon="-3.4844">
        <ele>-0.82</ele>
        <time>2016-04-30T15:49:59Z</time>
      </trkpt>
      <trkpt lat="47.58774" lon="-3.48393">
        <ele>-0.34</ele>
        <time>2016-04-30T15:50:10Z</time>
      </trkpt>
      <trkpt lat="47.58773" lon="-3.48352">
        <ele>-0.34</ele>
        <time>2016-04-30T15:50:20Z</time>
      </trkpt>
      <trkpt lat="47.58773" lon="-3.48302">
        <ele>-0.34</ele>
        <time>2016-04-30T15:50:32Z</time>
      </trkpt>
      <trkpt lat="47.58784" lon="-3.48231">
        <ele>0.14</ele>
        <time>2016-04-30T15:50:49Z</time>
      </trkpt>
      <trkpt lat="47.58781" lon="-3.48164">
        <ele>-0.34</ele>
        <time>2016-04-30T15:51:05Z</time>
      </trkpt>
      <trkpt lat="47.58784" lon="-3.48116">
        <ele>-0.82</ele>
        <time>2016-04-30T15:51:16Z</time>
      </trkpt>
      <trkpt lat="47.58785" lon="-3.48073">
        <ele>-1.79</ele>
        <time>2016-04-30T15:51:27Z</time>
      </trkpt>
      <trkpt lat="47.58785" lon="-3.48022">
        <ele>-1.79</ele>
        <time>2016-04-30T15:51:39Z</time>
      </trkpt>
      <trkpt lat="47.58786" lon="-3.47971">
        <ele>-3.23</ele>
        <time>2016-04-30T15:51:50Z</time>
      </trkpt>
      <trkpt lat="47.58782" lon="-3.47923">
        <ele>-3.23</ele>
        <time>2016-04-30T15:52:01Z</time>
      </trkpt>
      <trkpt lat="47.58782" lon="-3.4787">
        <ele>-2.75</ele>
        <time>2016-04-30T15:52:14Z</time>
      </trkpt>
      <trkpt lat="47.58783" lon="-3.47814">
        <ele>-2.27</ele>
        <time>2016-04-30T15:52:27Z</time>
      </trkpt>
      <trkpt lat="47.58776" lon="-3.47755">
        <ele>-1.3</ele>
        <time>2016-04-30T15:52:41Z</time>
      </trkpt>
      <trkpt lat="47.58785" lon="-3.47698">
        <ele>-1.3</ele>
        <time>2016-04-30T15:52:55Z</time>
      </trkpt>
      <trkpt lat="47.58788" lon="-3.47645">
        <ele>-0.82</ele>
        <time>2016-04-30T15:53:08Z</time>
      </trkpt>
      <trkpt lat="47.58791" lon="-3.47614">
        <ele>-0.82</ele>
        <time>2016-04-30T15:53:15Z</time>
      </trkpt>
      <trkpt lat="47.58787" lon="-3.47567">
        <ele>-2.75</ele>
        <time>2016-04-30T15:53:27Z</time>
      </trkpt>
      <trkpt lat="47.58786" lon="-3.47521">
        <ele>-2.75</ele>
        <time>2016-04-30T15:53:38Z</time>
      </trkpt>
      <trkpt lat="47.58789" lon="-3.4747">
        <ele>-2.27</ele>
        <time>2016-04-30T15:53:49Z</time>
      </trkpt>
      <trkpt lat="47.58795" lon="-3.47455">
        <ele>-1.79</ele>
        <time>2016-04-30T15:53:53Z</time>
      </trkpt>
      <trkpt lat="47.58803" lon="-3.47397">
        <ele>-1.79</ele>
        <time>2016-04-30T15:54:07Z</time>
      </trkpt>
      <trkpt lat="47.58812" lon="-3.47327">
        <ele>-1.3</ele>
        <time>2016-04-30T15:54:23Z</time>
      </trkpt>
      <trkpt lat="47.58815" lon="-3.47268">
        <ele>-0.82</ele>
        <time>2016-04-30T15:54:37Z</time>
      </trkpt>
      <trkpt lat="47.58825" lon="-3.47215">
        <ele>-0.34</ele>
        <time>2016-04-30T15:54:49Z</time>
      </trkpt>
      <trkpt lat="47.58829" lon="-3.47155">
        <ele>-0.34</ele>
        <time>2016-04-30T15:55:04Z</time>
      </trkpt>
      <trkpt lat="47.58838" lon="-3.47097">
        <ele>-0.34</ele>
        <time>2016-04-30T15:55:18Z</time>
      </trkpt>
      <trkpt lat="47.58847" lon="-3.47041">
        <ele>0.14</ele>
        <time>2016-04-30T15:55:30Z</time>
      </trkpt>
      <trkpt lat="47.58852" lon="-3.47001">
        <ele>0.62</ele>
        <time>2016-04-30T15:55:40Z</time>
      </trkpt>
      <trkpt lat="47.58866" lon="-3.46947">
        <ele>0.14</ele>
        <time>2016-04-30T15:55:53Z</time>
      </trkpt>
      <trkpt lat="47.58888" lon="-3.46885">
        <ele>-0.34</ele>
        <time>2016-04-30T15:56:09Z</time>
      </trkpt>
      <trkpt lat="47.58908" lon="-3.46833">
        <ele>0.14</ele>
        <time>2016-04-30T15:56:22Z</time>
      </trkpt>
      <trkpt lat="47.5893" lon="-3.46785">
        <ele>-0.34</ele>
        <time>2016-04-30T15:56:35Z</time>
      </trkpt>
      <trkpt lat="47.58948" lon="-3.4673">
        <ele>-0.82</ele>
        <time>2016-04-30T15:56:48Z</time>
      </trkpt>
      <trkpt lat="47.58957" lon="-3.46687">
        <ele>-1.3</ele>
        <time>2016-04-30T15:56:59Z</time>
      </trkpt>
      <trkpt lat="47.58957" lon="-3.46628">
        <ele>-0.34</ele>
        <time>2016-04-30T15:57:13Z</time>
      </trkpt>
      <trkpt lat="47.58961" lon="-3.46571">
        <ele>-0.34</ele>
        <time>2016-04-30T15:57:26Z</time>
      </trkpt>
      <trkpt lat="47.58975" lon="-3.46513">
        <ele>-1.3</ele>
        <time>2016-04-30T15:57:40Z</time>
      </trkpt>
      <trkpt lat="47.58981" lon="-3.46461">
        <ele>-0.34</ele>
        <time>2016-04-30T15:57:52Z</time>
      </trkpt>
      <trkpt lat="47.58986" lon="-3.46407">
        <ele>-0.82</ele>
        <time>2016-04-30T15:58:05Z</time>
      </trkpt>
      <trkpt lat="47.59" lon="-3.46368">
        <ele>-1.3</ele>
        <time>2016-04-30T15:58:15Z</time>
      </trkpt>
      <trkpt lat="47.59004" lon="-3.46329">
        <ele>-0.82</ele>
        <time>2016-04-30T15:58:24Z</time>
      </trkpt>
      <trkpt lat="47.59006" lon="-3.46318">
        <ele>-0.82</ele>
        <time>2016-04-30T15:58:27Z</time>
      </trkpt>
      <trkpt lat="47.59009" lon="-3.46301">
        <ele>-0.82</ele>
        <time>2016-04-30T15:58:30Z</time>
      </trkpt>
      <trkpt lat="47.59006" lon="-3.46248">
        <ele>-1.3</ele>
        <time>2016-04-30T15:58:42Z</time>
      </trkpt>
      <trkpt lat="47.59007" lon="-3.46199">
        <ele>-1.3</ele>
        <time>2016-04-30T15:58:53Z</time>
      </trkpt>
      <trkpt lat="47.59009" lon="-3.46137">
        <ele>-1.3</ele>
        <time>2016-04-30T15:59:08Z</time>
      </trkpt>
      <trkpt lat="47.59013" lon="-3.46084">
        <ele>-2.27</ele>
        <time>2016-04-30T15:59:20Z</time>
      </trkpt>
      <trkpt lat="47.59015" lon="-3.46017">
        <ele>-1.3</ele>
        <time>2016-04-30T15:59:37Z</time>
      </trkpt>
      <trkpt lat="47.59024" lon="-3.4596">
        <ele>-1.3</ele>
        <time>2016-04-30T15:59:51Z</time>
      </trkpt>
      <trkpt lat="47.59035" lon="-3.45924">
        <ele>-1.3</ele>
        <time>2016-04-30T16:00:00Z</time>
      </trkpt>
      <trkpt lat="47.59043" lon="-3.45882">
        <ele>-0.82</ele>
        <time>2016-04-30T16:00:10Z</time>
      </trkpt>
      <trkpt lat="47.59059" lon="-3.45817">
        <ele>-0.34</ele>
        <time>2016-04-30T16:00:25Z</time>
      </trkpt>
      <trkpt lat="47.59065" lon="-3.45756">
        <ele>-0.34</ele>
        <time>2016-04-30T16:00:39Z</time>
      </trkpt>
      <trkpt lat="47.59073" lon="-3.45708">
        <ele>-0.82</ele>
        <time>2016-04-30T16:00:50Z</time>
      </trkpt>
      <trkpt lat="47.59082" lon="-3.45653">
        <ele>-0.34</ele>
        <time>2016-04-30T16:01:03Z</time>
      </trkpt>
      <trkpt lat="47.59088" lon="-3.45598">
        <ele>-0.82</ele>
        <time>2016-04-30T16:01:16Z</time>
      </trkpt>
      <trkpt lat="47.5909" lon="-3.45557">
        <ele>-1.3</ele>
        <time>2016-04-30T16:01:26Z</time>
      </trkpt>
      <trkpt lat="47.5909" lon="-3.45514">
        <ele>-2.27</ele>
        <time>2016-04-30T16:01:36Z</time>
      </trkpt>
      <trkpt lat="47.59089" lon="-3.45482">
        <ele>-2.27</ele>
        <time>2016-04-30T16:01:44Z</time>
      </trkpt>
      <trkpt lat="47.59084" lon="-3.45444">
        <ele>-2.27</ele>
        <time>2016-04-30T16:01:54Z</time>
      </trkpt>
      <trkpt lat="47.59075" lon="-3.45398">
        <ele>-1.79</ele>
        <time>2016-04-30T16:02:07Z</time>
      </trkpt>
      <trkpt lat="47.59077" lon="-3.45344">
        <ele>-1.3</ele>
        <time>2016-04-30T16:02:20Z</time>
      </trkpt>
      <trkpt lat="47.59086" lon="-3.45295">
        <ele>-0.82</ele>
        <time>2016-04-30T16:02:32Z</time>
      </trkpt>
      <trkpt lat="47.59094" lon="-3.45248">
        <ele>-1.3</ele>
        <time>2016-04-30T16:02:43Z</time>
      </trkpt>
      <trkpt lat="47.591" lon="-3.45195">
        <ele>-1.3</ele>
        <time>2016-04-30T16:02:56Z</time>
      </trkpt>
      <trkpt lat="47.59109" lon="-3.45139">
        <ele>-0.82</ele>
        <time>2016-04-30T16:03:10Z</time>
      </trkpt>
      <trkpt lat="47.59115" lon="-3.45088">
        <ele>-1.3</ele>
        <time>2016-04-30T16:03:23Z</time>
      </trkpt>
      <trkpt lat="47.59118" lon="-3.45028">
        <ele>-0.34</ele>
        <time>2016-04-30T16:03:38Z</time>
      </trkpt>
      <trkpt lat="47.5913" lon="-3.44974">
        <ele>-0.34</ele>
        <time>2016-04-30T16:03:50Z</time>
      </trkpt>
      <trkpt lat="47.59133" lon="-3.44929">
        <ele>-0.34</ele>
        <time>2016-04-30T16:04:02Z</time>
      </trkpt>
      <trkpt lat="47.59138" lon="-3.4487">
        <ele>0.14</ele>
        <time>2016-04-30T16:04:16Z</time>
      </trkpt>
      <trkpt lat="47.59141" lon="-3.44816">
        <ele>-0.34</ele>
        <time>2016-04-30T16:04:29Z</time>
      </trkpt>
      <trkpt lat="47.5915" lon="-3.44747">
        <ele>0.14</ele>
        <time>2016-04-30T16:04:46Z</time>
      </trkpt>
      <trkpt lat="47.59167" lon="-3.44691">
        <ele>-0.34</ele>
        <time>2016-04-30T16:05:00Z</time>
      </trkpt>
      <trkpt lat="47.59193" lon="-3.4464">
        <ele>-0.34</ele>
        <time>2016-04-30T16:05:14Z</time>
      </trkpt>
      <trkpt lat="47.59213" lon="-3.44592">
        <ele>-0.82</ele>
        <time>2016-04-30T16:05:27Z</time>
      </trkpt>
      <trkpt lat="47.59225" lon="-3.44548">
        <ele>-1.3</ele>
        <time>2016-04-30T16:05:38Z</time>
      </trkpt>
      <trkpt lat="47.59242" lon="-3.44504">
        <ele>-1.3</ele>
        <time>2016-04-30T16:05:49Z</time>
      </trkpt>
      <trkpt lat="47.59253" lon="-3.4445">
        <ele>-1.3</ele>
        <time>2016-04-30T16:06:02Z</time>
      </trkpt>
      <trkpt lat="47.59266" lon="-3.44391">
        <ele>-0.82</ele>
        <time>2016-04-30T16:06:17Z</time>
      </trkpt>
      <trkpt lat="47.5928" lon="-3.44336">
        <ele>-0.82</ele>
        <time>2016-04-30T16:06:31Z</time>
      </trkpt>
      <trkpt lat="47.5929" lon="-3.44284">
        <ele>-1.3</ele>
        <time>2016-04-30T16:06:44Z</time>
      </trkpt>
      <trkpt lat="47.5929" lon="-3.44236">
        <ele>-1.3</ele>
        <time>2016-04-30T16:06:57Z</time>
      </trkpt>
      <trkpt lat="47.59292" lon="-3.44189">
        <ele>-1.79</ele>
        <time>2016-04-30T16:07:10Z</time>
      </trkpt>
      <trkpt lat="47.59293" lon="-3.44148">
        <ele>-2.27</ele>
        <time>2016-04-30T16:07:21Z</time>
      </trkpt>
      <trkpt lat="47.59289" lon="-3.44102">
        <ele>-2.27</ele>
        <time>2016-04-30T16:07:33Z</time>
      </trkpt>
      <trkpt lat="47.59286" lon="-3.4405">
        <ele>-1.79</ele>
        <time>2016-04-30T16:07:47Z</time>
      </trkpt>
      <trkpt lat="47.59285" lon="-3.4401">
        <ele>-1.79</ele>
        <time>2016-04-30T16:07:57Z</time>
      </trkpt>
      <trkpt lat="47.59288" lon="-3.43967">
        <ele>-1.79</ele>
        <time>2016-04-30T16:08:07Z</time>
      </trkpt>
      <trkpt lat="47.59291" lon="-3.43936">
        <ele>-0.82</ele>
        <time>2016-04-30T16:08:15Z</time>
      </trkpt>
      <trkpt lat="47.59297" lon="-3.43895">
        <ele>-0.82</ele>
        <time>2016-04-30T16:08:26Z</time>
      </trkpt>
      <trkpt lat="47.59308" lon="-3.4385">
        <ele>-0.34</ele>
        <time>2016-04-30T16:08:37Z</time>
      </trkpt>
      <trkpt lat="47.59309" lon="-3.43812">
        <ele>-0.82</ele>
        <time>2016-04-30T16:08:46Z</time>
      </trkpt>
      <trkpt lat="47.59308" lon="-3.4377">
        <ele>-1.79</ele>
        <time>2016-04-30T16:08:57Z</time>
      </trkpt>
      <trkpt lat="47.59311" lon="-3.43729">
        <ele>-1.79</ele>
        <time>2016-04-30T16:09:07Z</time>
      </trkpt>
      <trkpt lat="47.59317" lon="-3.43669">
        <ele>-2.27</ele>
        <time>2016-04-30T16:09:22Z</time>
      </trkpt>
      <trkpt lat="47.59324" lon="-3.43592">
        <ele>-1.79</ele>
        <time>2016-04-30T16:09:42Z</time>
      </trkpt>
      <trkpt lat="47.59325" lon="-3.43533">
        <ele>-1.79</ele>
        <time>2016-04-30T16:09:56Z</time>
      </trkpt>
      <trkpt lat="47.59329" lon="-3.43453">
        <ele>-1.3</ele>
        <time>2016-04-30T16:10:15Z</time>
      </trkpt>
      <trkpt lat="47.59333" lon="-3.434">
        <ele>-0.82</ele>
        <time>2016-04-30T16:10:28Z</time>
      </trkpt>
      <trkpt lat="47.59339" lon="-3.43348">
        <ele>-0.34</ele>
        <time>2016-04-30T16:10:40Z</time>
      </trkpt>
      <trkpt lat="47.59342" lon="-3.43302">
        <ele>-0.82</ele>
        <time>2016-04-30T16:10:51Z</time>
      </trkpt>
      <trkpt lat="47.59345" lon="-3.43253">
        <ele>-0.34</ele>
        <time>2016-04-30T16:11:03Z</time>
      </trkpt>
      <trkpt lat="47.5935" lon="-3.43197">
        <ele>-0.34</ele>
        <time>2016-04-30T16:11:17Z</time>
      </trkpt>
      <trkpt lat="47.59355" lon="-3.43147">
        <ele>-0.82</ele>
        <time>2016-04-30T16:11:28Z</time>
      </trkpt>
      <trkpt lat="47.59363" lon="-3.431">
        <ele>-1.79</ele>
        <time>2016-04-30T16:11:38Z</time>
      </trkpt>
      <trkpt lat="47.59368" lon="-3.43034">
        <ele>-0.82</ele>
        <time>2016-04-30T16:11:54Z</time>
      </trkpt>
      <trkpt lat="47.59372" lon="-3.42987">
        <ele>-0.82</ele>
        <time>2016-04-30T16:12:05Z</time>
      </trkpt>
      <trkpt lat="47.59378" lon="-3.42939">
        <ele>-1.3</ele>
        <time>2016-04-30T16:12:17Z</time>
      </trkpt>
      <trkpt lat="47.59385" lon="-3.42886">
        <ele>-0.82</ele>
        <time>2016-04-30T16:12:29Z</time>
      </trkpt>
      <trkpt lat="47.59387" lon="-3.4284">
        <ele>-0.82</ele>
        <time>2016-04-30T16:12:40Z</time>
      </trkpt>
      <trkpt lat="47.59391" lon="-3.42793">
        <ele>-0.82</ele>
        <time>2016-04-30T16:12:52Z</time>
      </trkpt>
      <trkpt lat="47.59395" lon="-3.42734">
        <ele>-0.82</ele>
        <time>2016-04-30T16:13:06Z</time>
      </trkpt>
      <trkpt lat="47.59399" lon="-3.42683">
        <ele>-0.82</ele>
        <time>2016-04-30T16:13:17Z</time>
      </trkpt>
      <trkpt lat="47.59404" lon="-3.42624">
        <ele>-0.82</ele>
        <time>2016-04-30T16:13:31Z</time>
      </trkpt>
      <trkpt lat="47.59408" lon="-3.42557">
        <ele>-1.79</ele>
        <time>2016-04-30T16:13:46Z</time>
      </trkpt>
      <trkpt lat="47.59415" lon="-3.42494">
        <ele>-1.3</ele>
        <time>2016-04-30T16:13:59Z</time>
      </trkpt>
      <trkpt lat="47.59419" lon="-3.42437">
        <ele>0.14</ele>
        <time>2016-04-30T16:14:12Z</time>
      </trkpt>
      <trkpt lat="47.59421" lon="-3.42395">
        <ele>0.14</ele>
        <time>2016-04-30T16:14:23Z</time>
      </trkpt>
      <trkpt lat="47.59419" lon="-3.42343">
        <ele>0.62</ele>
        <time>2016-04-30T16:14:36Z</time>
      </trkpt>
      <trkpt lat="47.59417" lon="-3.42298">
        <ele>-0.82</ele>
        <time>2016-04-30T16:14:47Z</time>
      </trkpt>
      <trkpt lat="47.59411" lon="-3.42252">
        <ele>-0.34</ele>
        <time>2016-04-30T16:14:59Z</time>
      </trkpt>
      <trkpt lat="47.59395" lon="-3.42195">
        <ele>-0.82</ele>
        <time>2016-04-30T16:15:15Z</time>
      </trkpt>
      <trkpt lat="47.59385" lon="-3.42148">
        <ele>-1.79</ele>
        <time>2016-04-30T16:15:28Z</time>
      </trkpt>
      <trkpt lat="47.59391" lon="-3.42085">
        <ele>-2.27</ele>
        <time>2016-04-30T16:15:40Z</time>
      </trkpt>
      <trkpt lat="47.59392" lon="-3.42023">
        <ele>-2.27</ele>
        <time>2016-04-30T16:15:52Z</time>
      </trkpt>
      <trkpt lat="47.59396" lon="-3.41952">
        <ele>-2.27</ele>
        <time>2016-04-30T16:16:06Z</time>
      </trkpt>
      <trkpt lat="47.59399" lon="-3.41881">
        <ele>-2.75</ele>
        <time>2016-04-30T16:16:21Z</time>
      </trkpt>
      <trkpt lat="47.59405" lon="-3.41828">
        <ele>-3.23</ele>
        <time>2016-04-30T16:16:34Z</time>
      </trkpt>
      <trkpt lat="47.59412" lon="-3.4177">
        <ele>-2.75</ele>
        <time>2016-04-30T16:16:47Z</time>
      </trkpt>
      <trkpt lat="47.59416" lon="-3.41723">
        <ele>-3.71</ele>
        <time>2016-04-30T16:16:57Z</time>
      </trkpt>
      <trkpt lat="47.5942" lon="-3.41673">
        <ele>-2.75</ele>
        <time>2016-04-30T16:17:09Z</time>
      </trkpt>
      <trkpt lat="47.59425" lon="-3.41617">
        <ele>-1.79</ele>
        <time>2016-04-30T16:17:22Z</time>
      </trkpt>
      <trkpt lat="47.59429" lon="-3.41557">
        <ele>-1.79</ele>
        <time>2016-04-30T16:17:36Z</time>
      </trkpt>
      <trkpt lat="47.59432" lon="-3.41501">
        <ele>-2.75</ele>
        <time>2016-04-30T16:17:50Z</time>
      </trkpt>
      <trkpt lat="47.59435" lon="-3.4145">
        <ele>-2.27</ele>
        <time>2016-04-30T16:18:03Z</time>
      </trkpt>
      <trkpt lat="47.5944" lon="-3.41397">
        <ele>-3.23</ele>
        <time>2016-04-30T16:18:16Z</time>
      </trkpt>
      <trkpt lat="47.59446" lon="-3.41348">
        <ele>-3.23</ele>
        <time>2016-04-30T16:18:28Z</time>
      </trkpt>
      <trkpt lat="47.59449" lon="-3.41298">
        <ele>-2.75</ele>
        <time>2016-04-30T16:18:40Z</time>
      </trkpt>
      <trkpt lat="47.59451" lon="-3.41248">
        <ele>-3.23</ele>
        <time>2016-04-30T16:18:52Z</time>
      </trkpt>
      <trkpt lat="47.59456" lon="-3.41198">
        <ele>-2.75</ele>
        <time>2016-04-30T16:19:04Z</time>
      </trkpt>
      <trkpt lat="47.59462" lon="-3.41144">
        <ele>-2.75</ele>
        <time>2016-04-30T16:19:16Z</time>
      </trkpt>
      <trkpt lat="47.59467" lon="-3.41089">
        <ele>-3.71</ele>
        <time>2016-04-30T16:19:28Z</time>
      </trkpt>
      <trkpt lat="47.59469" lon="-3.41039">
        <ele>-3.71</ele>
        <time>2016-04-30T16:19:40Z</time>
      </trkpt>
      <trkpt lat="47.59473" lon="-3.4098">
        <ele>-2.75</ele>
        <time>2016-04-30T16:19:54Z</time>
      </trkpt>
      <trkpt lat="47.59477" lon="-3.40937">
        <ele>-2.75</ele>
        <time>2016-04-30T16:20:04Z</time>
      </trkpt>
      <trkpt lat="47.59482" lon="-3.40885">
        <ele>-2.27</ele>
        <time>2016-04-30T16:20:16Z</time>
      </trkpt>
      <trkpt lat="47.59485" lon="-3.40831">
        <ele>-1.79</ele>
        <time>2016-04-30T16:20:29Z</time>
      </trkpt>
      <trkpt lat="47.5949" lon="-3.4078">
        <ele>-1.3</ele>
        <time>2016-04-30T16:20:42Z</time>
      </trkpt>
      <trkpt lat="47.59498" lon="-3.40731">
        <ele>-0.34</ele>
        <time>2016-04-30T16:20:54Z</time>
      </trkpt>
      <trkpt lat="47.59509" lon="-3.40671">
        <ele>0.14</ele>
        <time>2016-04-30T16:21:09Z</time>
      </trkpt>
      <trkpt lat="47.59514" lon="-3.40626">
        <ele>-0.34</ele>
        <time>2016-04-30T16:21:20Z</time>
      </trkpt>
      <trkpt lat="47.59517" lon="-3.40573">
        <ele>0.62</ele>
        <time>2016-04-30T16:21:33Z</time>
      </trkpt>
      <trkpt lat="47.5952" lon="-3.40531">
        <ele>0.62</ele>
        <time>2016-04-30T16:21:44Z</time>
      </trkpt>
      <trkpt lat="47.59524" lon="-3.40491">
        <ele>1.1</ele>
        <time>2016-04-30T16:21:54Z</time>
      </trkpt>
      <trkpt lat="47.5953" lon="-3.40435">
        <ele>1.1</ele>
        <time>2016-04-30T16:22:08Z</time>
      </trkpt>
      <trkpt lat="47.59532" lon="-3.40388">
        <ele>0.62</ele>
        <time>2016-04-30T16:22:20Z</time>
      </trkpt>
      <trkpt lat="47.59537" lon="-3.40323">
        <ele>0.62</ele>
        <time>2016-04-30T16:22:36Z</time>
      </trkpt>
      <trkpt lat="47.59538" lon="-3.40274">
        <ele>0.14</ele>
        <time>2016-04-30T16:22:48Z</time>
      </trkpt>
      <trkpt lat="47.5954" lon="-3.40227">
        <ele>0.62</ele>
        <time>2016-04-30T16:23:00Z</time>
      </trkpt>
      <trkpt lat="47.5954" lon="-3.40186">
        <ele>0.62</ele>
        <time>2016-04-30T16:23:11Z</time>
      </trkpt>
      <trkpt lat="47.59544" lon="-3.40142">
        <ele>0.62</ele>
        <time>2016-04-30T16:23:23Z</time>
      </trkpt>
      <trkpt lat="47.59549" lon="-3.40094">
        <ele>-0.34</ele>
        <time>2016-04-30T16:23:35Z</time>
      </trkpt>
      <trkpt lat="47.59556" lon="-3.40039">
        <ele>-0.82</ele>
        <time>2016-04-30T16:23:48Z</time>
      </trkpt>
      <trkpt lat="47.59561" lon="-3.39989">
        <ele>-1.79</ele>
        <time>2016-04-30T16:24:00Z</time>
      </trkpt>
      <trkpt lat="47.59568" lon="-3.39947">
        <ele>-1.79</ele>
        <time>2016-04-30T16:24:10Z</time>
      </trkpt>
      <trkpt lat="47.59572" lon="-3.39898">
        <ele>-1.79</ele>
        <time>2016-04-30T16:24:21Z</time>
      </trkpt>
      <trkpt lat="47.59579" lon="-3.39835">
        <ele>-1.3</ele>
        <time>2016-04-30T16:24:35Z</time>
      </trkpt>
      <trkpt lat="47.59587" lon="-3.39795">
        <ele>-0.34</ele>
        <time>2016-04-30T16:24:45Z</time>
      </trkpt>
      <trkpt lat="47.59605" lon="-3.3975">
        <ele>-0.34</ele>
        <time>2016-04-30T16:24:57Z</time>
      </trkpt>
      <trkpt lat="47.5962" lon="-3.39705">
        <ele>-0.82</ele>
        <time>2016-04-30T16:25:08Z</time>
      </trkpt>
      <trkpt lat="47.59625" lon="-3.39661">
        <ele>-1.3</ele>
        <time>2016-04-30T16:25:19Z</time>
      </trkpt>
      <trkpt lat="47.5963" lon="-3.39617">
        <ele>-1.79</ele>
        <time>2016-04-30T16:25:30Z</time>
      </trkpt>
      <trkpt lat="47.59628" lon="-3.39569">
        <ele>-0.34</ele>
        <time>2016-04-30T16:25:43Z</time>
      </trkpt>
      <trkpt lat="47.59627" lon="-3.39527">
        <ele>-2.27</ele>
        <time>2016-04-30T16:25:55Z</time>
      </trkpt>
      <trkpt lat="47.59632" lon="-3.3948">
        <ele>-0.82</ele>
        <time>2016-04-30T16:26:08Z</time>
      </trkpt>
      <trkpt lat="47.59637" lon="-3.3943">
        <ele>-0.34</ele>
        <time>2016-04-30T16:26:20Z</time>
      </trkpt>
      <trkpt lat="47.59642" lon="-3.39359">
        <ele>0.62</ele>
        <time>2016-04-30T16:26:36Z</time>
      </trkpt>
      <trkpt lat="47.59646" lon="-3.39303">
        <ele>1.1</ele>
        <time>2016-04-30T16:26:49Z</time>
      </trkpt>
      <trkpt lat="47.5965" lon="-3.39247">
        <ele>1.1</ele>
        <time>2016-04-30T16:27:02Z</time>
      </trkpt>
      <trkpt lat="47.59654" lon="-3.39186">
        <ele>0.62</ele>
        <time>2016-04-30T16:27:16Z</time>
      </trkpt>
      <trkpt lat="47.59663" lon="-3.39117">
        <ele>1.58</ele>
        <time>2016-04-30T16:27:32Z</time>
      </trkpt>
      <trkpt lat="47.59678" lon="-3.39048">
        <ele>0.14</ele>
        <time>2016-04-30T16:27:47Z</time>
      </trkpt>
      <trkpt lat="47.5969" lon="-3.38995">
        <ele>0.62</ele>
        <time>2016-04-30T16:28:00Z</time>
      </trkpt>
      <trkpt lat="47.5971" lon="-3.38943">
        <ele>-0.34</ele>
        <time>2016-04-30T16:28:13Z</time>
      </trkpt>
      <trkpt lat="47.59725" lon="-3.38899">
        <ele>-0.34</ele>
        <time>2016-04-30T16:28:24Z</time>
      </trkpt>
      <trkpt lat="47.59747" lon="-3.38843">
        <ele>0.14</ele>
        <time>2016-04-30T16:28:38Z</time>
      </trkpt>
      <trkpt lat="47.59758" lon="-3.38814">
        <ele>0.14</ele>
        <time>2016-04-30T16:28:45Z</time>
      </trkpt>
      <trkpt lat="47.5978" lon="-3.38775">
        <ele>0.14</ele>
        <time>2016-04-30T16:28:56Z</time>
      </trkpt>
      <trkpt lat="47.59803" lon="-3.38725">
        <ele>0.14</ele>
        <time>2016-04-30T16:29:10Z</time>
      </trkpt>
      <trkpt lat="47.59831" lon="-3.38694">
        <ele>-1.3</ele>
        <time>2016-04-30T16:29:23Z</time>
      </trkpt>
      <trkpt lat="47.59849" lon="-3.38667">
        <ele>0.14</ele>
        <time>2016-04-30T16:29:34Z</time>
      </trkpt>
      <trkpt lat="47.59856" lon="-3.38657">
        <ele>-0.34</ele>
        <time>2016-04-30T16:29:38Z</time>
      </trkpt>
      <trkpt lat="47.59883" lon="-3.38623">
        <ele>-0.34</ele>
        <time>2016-04-30T16:29:52Z</time>
      </trkpt>
      <trkpt lat="47.59905" lon="-3.3858">
        <ele>-0.34</ele>
        <time>2016-04-30T16:30:05Z</time>
      </trkpt>
      <trkpt lat="47.59926" lon="-3.38542">
        <ele>-1.79</ele>
        <time>2016-04-30T16:30:17Z</time>
      </trkpt>
      <trkpt lat="47.59942" lon="-3.38506">
        <ele>-0.82</ele>
        <time>2016-04-30T16:30:29Z</time>
      </trkpt>
      <trkpt lat="47.59973" lon="-3.38488">
        <ele>0.14</ele>
        <time>2016-04-30T16:30:43Z</time>
      </trkpt>
      <trkpt lat="47.59979" lon="-3.38485">
        <ele>0.14</ele>
        <time>2016-04-30T16:30:46Z</time>
      </trkpt>
      <trkpt lat="47.59988" lon="-3.38483">
        <ele>-0.82</ele>
        <time>2016-04-30T16:30:50Z</time>
      </trkpt>
      <trkpt lat="47.60015" lon="-3.38479">
        <ele>-0.82</ele>
        <time>2016-04-30T16:31:02Z</time>
      </trkpt>
      <trkpt lat="47.60023" lon="-3.38478">
        <ele>-0.34</ele>
        <time>2016-04-30T16:31:06Z</time>
      </trkpt>
      <trkpt lat="47.60032" lon="-3.38478">
        <ele>-0.34</ele>
        <time>2016-04-30T16:31:11Z</time>
      </trkpt>
      <trkpt lat="47.60051" lon="-3.38477">
        <ele>-1.3</ele>
        <time>2016-04-30T16:31:23Z</time>
      </trkpt>
      <trkpt lat="47.60058" lon="-3.38475">
        <ele>-0.82</ele>
        <time>2016-04-30T16:31:27Z</time>
      </trkpt>
      <trkpt lat="47.60061" lon="-3.38474">
        <ele>-1.3</ele>
        <time>2016-04-30T16:31:29Z</time>
      </trkpt>
      <trkpt lat="47.60068" lon="-3.38473">
        <ele>-0.34</ele>
        <time>2016-04-30T16:31:33Z</time>
      </trkpt>
      <trkpt lat="47.60093" lon="-3.38461">
        <ele>-0.34</ele>
        <time>2016-04-30T16:31:46Z</time>
      </trkpt>
      <trkpt lat="47.60129" lon="-3.38449">
        <ele>0.14</ele>
        <time>2016-04-30T16:32:01Z</time>
      </trkpt>
      <trkpt lat="47.60153" lon="-3.38441">
        <ele>0.14</ele>
        <time>2016-04-30T16:32:12Z</time>
      </trkpt>
      <trkpt lat="47.60182" lon="-3.38434">
        <ele>0.14</ele>
        <time>2016-04-30T16:32:25Z</time>
      </trkpt>
      <trkpt lat="47.60203" lon="-3.38433">
        <ele>-0.82</ele>
        <time>2016-04-30T16:32:37Z</time>
      </trkpt>
      <trkpt lat="47.60228" lon="-3.38428">
        <ele>-0.34</ele>
        <time>2016-04-30T16:32:49Z</time>
      </trkpt>
      <trkpt lat="47.60236" lon="-3.38426">
        <ele>-0.34</ele>
        <time>2016-04-30T16:32:52Z</time>
      </trkpt>
      <trkpt lat="47.6027" lon="-3.38422">
        <ele>-0.34</ele>
        <time>2016-04-30T16:33:07Z</time>
      </trkpt>
      <trkpt lat="47.60292" lon="-3.38419">
        <ele>-0.34</ele>
        <time>2016-04-30T16:33:16Z</time>
      </trkpt>
      <trkpt lat="47.60327" lon="-3.38403">
        <ele>0.14</ele>
        <time>2016-04-30T16:33:30Z</time>
      </trkpt>
      <trkpt lat="47.60355" lon="-3.3838">
        <ele>0.14</ele>
        <time>2016-04-30T16:33:42Z</time>
      </trkpt>
      <trkpt lat="47.60392" lon="-3.38359">
        <ele>-0.82</ele>
        <time>2016-04-30T16:33:57Z</time>
      </trkpt>
      <trkpt lat="47.60423" lon="-3.3833">
        <ele>0.14</ele>
        <time>2016-04-30T16:34:12Z</time>
      </trkpt>
      <trkpt lat="47.60451" lon="-3.38305">
        <ele>0.62</ele>
        <time>2016-04-30T16:34:25Z</time>
      </trkpt>
      <trkpt lat="47.60484" lon="-3.38287">
        <ele>0.62</ele>
        <time>2016-04-30T16:34:39Z</time>
      </trkpt>
      <trkpt lat="47.60512" lon="-3.38274">
        <ele>0.14</ele>
        <time>2016-04-30T16:34:51Z</time>
      </trkpt>
      <trkpt lat="47.60541" lon="-3.38268">
        <ele>-0.34</ele>
        <time>2016-04-30T16:35:04Z</time>
      </trkpt>
      <trkpt lat="47.60567" lon="-3.38255">
        <ele>0.62</ele>
        <time>2016-04-30T16:35:17Z</time>
      </trkpt>
      <trkpt lat="47.60598" lon="-3.3824">
        <ele>0.14</ele>
        <time>2016-04-30T16:35:30Z</time>
      </trkpt>
      <trkpt lat="47.60634" lon="-3.38225">
        <ele>-0.34</ele>
        <time>2016-04-30T16:35:45Z</time>
      </trkpt>
      <trkpt lat="47.6067" lon="-3.38215">
        <ele>0.14</ele>
        <time>2016-04-30T16:36:02Z</time>
      </trkpt>
      <trkpt lat="47.60672" lon="-3.38215">
        <ele>0.62</ele>
        <time>2016-04-30T16:36:03Z</time>
      </trkpt>
      <trkpt lat="47.60711" lon="-3.38208">
        <ele>0.62</ele>
        <time>2016-04-30T16:36:21Z</time>
      </trkpt>
      <trkpt lat="47.60737" lon="-3.38202">
        <ele>1.1</ele>
        <time>2016-04-30T16:36:33Z</time>
      </trkpt>
      <trkpt lat="47.60766" lon="-3.38196">
        <ele>0.62</ele>
        <time>2016-04-30T16:36:46Z</time>
      </trkpt>
      <trkpt lat="47.60785" lon="-3.38193">
        <ele>0.14</ele>
        <time>2016-04-30T16:36:55Z</time>
      </trkpt>
      <trkpt lat="47.60808" lon="-3.38191">
        <ele>0.14</ele>
        <time>2016-04-30T16:37:07Z</time>
      </trkpt>
      <trkpt lat="47.60811" lon="-3.38191">
        <ele>0.14</ele>
        <time>2016-04-30T16:37:09Z</time>
      </trkpt>
      <trkpt lat="47.60834" lon="-3.38182">
        <ele>0.14</ele>
        <time>2016-04-30T16:37:21Z</time>
      </trkpt>
      <trkpt lat="47.60864" lon="-3.38176">
        <ele>0.14</ele>
        <time>2016-04-30T16:37:36Z</time>
      </trkpt>
      <trkpt lat="47.60891" lon="-3.38169">
        <ele>0.62</ele>
        <time>2016-04-30T16:37:50Z</time>
      </trkpt>
      <trkpt lat="47.60917" lon="-3.38166">
        <ele>0.62</ele>
        <time>2016-04-30T16:38:03Z</time>
      </trkpt>
      <trkpt lat="47.60939" lon="-3.38164">
        <ele>0.62</ele>
        <time>2016-04-30T16:38:16Z</time>
      </trkpt>
      <trkpt lat="47.60951" lon="-3.38165">
        <ele>0.14</ele>
        <time>2016-04-30T16:38:24Z</time>
      </trkpt>
      <trkpt lat="47.60976" lon="-3.38156">
        <ele>0.62</ele>
        <time>2016-04-30T16:38:40Z</time>
      </trkpt>
      <trkpt lat="47.61004" lon="-3.38147">
        <ele>0.62</ele>
        <time>2016-04-30T16:38:53Z</time>
      </trkpt>
      <trkpt lat="47.61037" lon="-3.38136">
        <ele>0.14</ele>
        <time>2016-04-30T16:39:08Z</time>
      </trkpt>
      <trkpt lat="47.61069" lon="-3.38131">
        <ele>0.62</ele>
        <time>2016-04-30T16:39:25Z</time>
      </trkpt>
      <trkpt lat="47.611" lon="-3.38123">
        <ele>0.62</ele>
        <time>2016-04-30T16:39:41Z</time>
      </trkpt>
      <trkpt lat="47.61133" lon="-3.38114">
        <ele>0.62</ele>
        <time>2016-04-30T16:39:56Z</time>
      </trkpt>
      <trkpt lat="47.6116" lon="-3.38109">
        <ele>0.14</ele>
        <time>2016-04-30T16:40:10Z</time>
      </trkpt>
      <trkpt lat="47.61192" lon="-3.38097">
        <ele>0.62</ele>
        <time>2016-04-30T16:40:24Z</time>
      </trkpt>
      <trkpt lat="47.61224" lon="-3.38092">
        <ele>0.14</ele>
        <time>2016-04-30T16:40:40Z</time>
      </trkpt>
      <trkpt lat="47.61253" lon="-3.38086">
        <ele>0.14</ele>
        <time>2016-04-30T16:40:55Z</time>
      </trkpt>
      <trkpt lat="47.61283" lon="-3.38081">
        <ele>0.14</ele>
        <time>2016-04-30T16:41:11Z</time>
      </trkpt>
      <trkpt lat="47.61309" lon="-3.3808">
        <ele>0.14</ele>
        <time>2016-04-30T16:41:27Z</time>
      </trkpt>
      <trkpt lat="47.61339" lon="-3.3807">
        <ele>0.62</ele>
        <time>2016-04-30T16:41:41Z</time>
      </trkpt>
      <trkpt lat="47.61367" lon="-3.3807">
        <ele>0.14</ele>
        <time>2016-04-30T16:41:54Z</time>
      </trkpt>
      <trkpt lat="47.61395" lon="-3.38064">
        <ele>-0.82</ele>
        <time>2016-04-30T16:42:08Z</time>
      </trkpt>
      <trkpt lat="47.6143" lon="-3.38056">
        <ele>-1.79</ele>
        <time>2016-04-30T16:42:23Z</time>
      </trkpt>
      <trkpt lat="47.6147" lon="-3.38046">
        <ele>-1.79</ele>
        <time>2016-04-30T16:42:41Z</time>
      </trkpt>
      <trkpt lat="47.61504" lon="-3.38036">
        <ele>-1.79</ele>
        <time>2016-04-30T16:42:57Z</time>
      </trkpt>
      <trkpt lat="47.61538" lon="-3.38025">
        <ele>-1.79</ele>
        <time>2016-04-30T16:43:12Z</time>
      </trkpt>
      <trkpt lat="47.61575" lon="-3.38016">
        <ele>-1.3</ele>
        <time>2016-04-30T16:43:28Z</time>
      </trkpt>
      <trkpt lat="47.61605" lon="-3.38009">
        <ele>-2.27</ele>
        <time>2016-04-30T16:43:42Z</time>
      </trkpt>
      <trkpt lat="47.61653" lon="-3.38001">
        <ele>-1.79</ele>
        <time>2016-04-30T16:44:03Z</time>
      </trkpt>
      <trkpt lat="47.61692" lon="-3.37993">
        <ele>-2.27</ele>
        <time>2016-04-30T16:44:21Z</time>
      </trkpt>
      <trkpt lat="47.61732" lon="-3.37983">
        <ele>-2.27</ele>
        <time>2016-04-30T16:44:40Z</time>
      </trkpt>
      <trkpt lat="47.61767" lon="-3.37977">
        <ele>-3.23</ele>
        <time>2016-04-30T16:44:58Z</time>
      </trkpt>
      <trkpt lat="47.61796" lon="-3.37972">
        <ele>-4.19</ele>
        <time>2016-04-30T16:45:13Z</time>
      </trkpt>
      <trkpt lat="47.61833" lon="-3.37963">
        <ele>-4.67</ele>
        <time>2016-04-30T16:45:31Z</time>
      </trkpt>
      <trkpt lat="47.61868" lon="-3.37958">
        <ele>-2.27</ele>
        <time>2016-04-30T16:45:48Z</time>
      </trkpt>
      <trkpt lat="47.619" lon="-3.3795">
        <ele>-1.79</ele>
        <time>2016-04-30T16:46:03Z</time>
      </trkpt>
      <trkpt lat="47.61933" lon="-3.37945">
        <ele>-2.27</ele>
        <time>2016-04-30T16:46:18Z</time>
      </trkpt>
      <trkpt lat="47.61966" lon="-3.37938">
        <ele>-2.75</ele>
        <time>2016-04-30T16:46:32Z</time>
      </trkpt>
      <trkpt lat="47.62002" lon="-3.37926">
        <ele>-3.23</ele>
        <time>2016-04-30T16:46:47Z</time>
      </trkpt>
      <trkpt lat="47.62037" lon="-3.37916">
        <ele>-2.75</ele>
        <time>2016-04-30T16:47:04Z</time>
      </trkpt>
      <trkpt lat="47.62069" lon="-3.37895">
        <ele>-2.27</ele>
        <time>2016-04-30T16:47:21Z</time>
      </trkpt>
      <trkpt lat="47.62106" lon="-3.37861">
        <ele>-2.27</ele>
        <time>2016-04-30T16:47:39Z</time>
      </trkpt>
      <trkpt lat="47.6214" lon="-3.37813">
        <ele>-1.3</ele>
        <time>2016-04-30T16:47:57Z</time>
      </trkpt>
      <trkpt lat="47.62168" lon="-3.37771">
        <ele>-1.79</ele>
        <time>2016-04-30T16:48:13Z</time>
      </trkpt>
      <trkpt lat="47.62192" lon="-3.37736">
        <ele>-1.79</ele>
        <time>2016-04-30T16:48:27Z</time>
      </trkpt>
      <trkpt lat="47.6222" lon="-3.37708">
        <ele>-0.34</ele>
        <time>2016-04-30T16:48:43Z</time>
      </trkpt>
      <trkpt lat="47.62253" lon="-3.37671">
        <ele>1.1</ele>
        <time>2016-04-30T16:49:01Z</time>
      </trkpt>
      <trkpt lat="47.62279" lon="-3.37648">
        <ele>1.1</ele>
        <time>2016-04-30T16:49:14Z</time>
      </trkpt>
      <trkpt lat="47.62302" lon="-3.37627">
        <ele>1.58</ele>
        <time>2016-04-30T16:49:27Z</time>
      </trkpt>
      <trkpt lat="47.62327" lon="-3.37604">
        <ele>1.1</ele>
        <time>2016-04-30T16:49:40Z</time>
      </trkpt>
      <trkpt lat="47.62359" lon="-3.37568">
        <ele>3.02</ele>
        <time>2016-04-30T16:49:57Z</time>
      </trkpt>
      <trkpt lat="47.62387" lon="-3.37547">
        <ele>3.02</ele>
        <time>2016-04-30T16:50:10Z</time>
      </trkpt>
      <trkpt lat="47.62423" lon="-3.37518">
        <ele>1.58</ele>
        <time>2016-04-30T16:50:27Z</time>
      </trkpt>
      <trkpt lat="47.62455" lon="-3.37501">
        <ele>0.62</ele>
        <time>2016-04-30T16:50:42Z</time>
      </trkpt>
      <trkpt lat="47.62487" lon="-3.3748">
        <ele>0.62</ele>
        <time>2016-04-30T16:50:57Z</time>
      </trkpt>
      <trkpt lat="47.6252" lon="-3.37458">
        <ele>0.14</ele>
        <time>2016-04-30T16:51:12Z</time>
      </trkpt>
      <trkpt lat="47.62557" lon="-3.37432">
        <ele>0.14</ele>
        <time>2016-04-30T16:51:29Z</time>
      </trkpt>
      <trkpt lat="47.62598" lon="-3.37399">
        <ele>0.14</ele>
        <time>2016-04-30T16:51:47Z</time>
      </trkpt>
      <trkpt lat="47.62623" lon="-3.37391">
        <ele>0.62</ele>
        <time>2016-04-30T16:51:59Z</time>
      </trkpt>
      <trkpt lat="47.62625" lon="-3.37391">
        <ele>0.62</ele>
        <time>2016-04-30T16:52:00Z</time>
      </trkpt>
      <trkpt lat="47.62657" lon="-3.37359">
        <ele>1.1</ele>
        <time>2016-04-30T16:52:15Z</time>
      </trkpt>
      <trkpt lat="47.62688" lon="-3.37336">
        <ele>0.14</ele>
        <time>2016-04-30T16:52:28Z</time>
      </trkpt>
      <trkpt lat="47.62729" lon="-3.37308">
        <ele>0.14</ele>
        <time>2016-04-30T16:52:45Z</time>
      </trkpt>
      <trkpt lat="47.62766" lon="-3.37286">
        <ele>0.14</ele>
        <time>2016-04-30T16:53:00Z</time>
      </trkpt>
      <trkpt lat="47.62807" lon="-3.37262">
        <ele>-0.34</ele>
        <time>2016-04-30T16:53:17Z</time>
      </trkpt>
      <trkpt lat="47.62846" lon="-3.37238">
        <ele>-0.82</ele>
        <time>2016-04-30T16:53:33Z</time>
      </trkpt>
      <trkpt lat="47.6288" lon="-3.37217">
        <ele>0.14</ele>
        <time>2016-04-30T16:53:47Z</time>
      </trkpt>
      <trkpt lat="47.62918" lon="-3.37184">
        <ele>-0.34</ele>
        <time>2016-04-30T16:54:03Z</time>
      </trkpt>
      <trkpt lat="47.6295" lon="-3.37158">
        <ele>-0.34</ele>
        <time>2016-04-30T16:54:17Z</time>
      </trkpt>
      <trkpt lat="47.62982" lon="-3.3713">
        <ele>-0.34</ele>
        <time>2016-04-30T16:54:33Z</time>
      </trkpt>
      <trkpt lat="47.63009" lon="-3.37097">
        <ele>0.14</ele>
        <time>2016-04-30T16:54:48Z</time>
      </trkpt>
      <trkpt lat="47.63037" lon="-3.37055">
        <ele>0.14</ele>
        <time>2016-04-30T16:55:04Z</time>
      </trkpt>
      <trkpt lat="47.63055" lon="-3.37014">
        <ele>0.62</ele>
        <time>2016-04-30T16:55:16Z</time>
      </trkpt>
      <trkpt lat="47.63085" lon="-3.36983">
        <ele>0.14</ele>
        <time>2016-04-30T16:55:31Z</time>
      </trkpt>
      <trkpt lat="47.63114" lon="-3.36959">
        <ele>0.62</ele>
        <time>2016-04-30T16:55:47Z</time>
      </trkpt>
      <trkpt lat="47.63127" lon="-3.36948">
        <ele>0.14</ele>
        <time>2016-04-30T16:55:55Z</time>
      </trkpt>
      <trkpt lat="47.6316" lon="-3.36918">
        <ele>-0.34</ele>
        <time>2016-04-30T16:56:13Z</time>
      </trkpt>
      <trkpt lat="47.63188" lon="-3.36897">
        <ele>0.14</ele>
        <time>2016-04-30T16:56:28Z</time>
      </trkpt>
      <trkpt lat="47.63218" lon="-3.36878">
        <ele>-0.82</ele>
        <time>2016-04-30T16:56:43Z</time>
      </trkpt>
      <trkpt lat="47.63239" lon="-3.36862">
        <ele>-0.34</ele>
        <time>2016-04-30T16:56:58Z</time>
      </trkpt>
      <trkpt lat="47.63264" lon="-3.36838">
        <ele>-0.82</ele>
        <time>2016-04-30T16:57:12Z</time>
      </trkpt>
      <trkpt lat="47.63291" lon="-3.36807">
        <ele>-0.34</ele>
        <time>2016-04-30T16:57:27Z</time>
      </trkpt>
      <trkpt lat="47.63321" lon="-3.36775">
        <ele>0.62</ele>
        <time>2016-04-30T16:57:42Z</time>
      </trkpt>
      <trkpt lat="47.63349" lon="-3.36736">
        <ele>0.62</ele>
        <time>2016-04-30T16:57:57Z</time>
      </trkpt>
      <trkpt lat="47.63376" lon="-3.36712">
        <ele>1.1</ele>
        <time>2016-04-30T16:58:10Z</time>
      </trkpt>
      <trkpt lat="47.63404" lon="-3.36689">
        <ele>0.14</ele>
        <time>2016-04-30T16:58:24Z</time>
      </trkpt>
      <trkpt lat="47.63434" lon="-3.36666">
        <ele>0.62</ele>
        <time>2016-04-30T16:58:39Z</time>
      </trkpt>
      <trkpt lat="47.63461" lon="-3.36646">
        <ele>0.14</ele>
        <time>2016-04-30T16:58:53Z</time>
      </trkpt>
      <trkpt lat="47.63492" lon="-3.36628">
        <ele>0.14</ele>
        <time>2016-04-30T16:59:09Z</time>
      </trkpt>
      <trkpt lat="47.6351" lon="-3.36619">
        <ele>-0.34</ele>
        <time>2016-04-30T16:59:21Z</time>
      </trkpt>
      <trkpt lat="47.6354" lon="-3.366">
        <ele>1.1</ele>
        <time>2016-04-30T16:59:37Z</time>
      </trkpt>
      <trkpt lat="47.63571" lon="-3.36581">
        <ele>2.06</ele>
        <time>2016-04-30T16:59:54Z</time>
      </trkpt>
      <trkpt lat="47.63596" lon="-3.36569">
        <ele>1.58</ele>
        <time>2016-04-30T17:00:06Z</time>
      </trkpt>
      <trkpt lat="47.63635" lon="-3.36554">
        <ele>1.1</ele>
        <time>2016-04-30T17:00:24Z</time>
      </trkpt>
      <trkpt lat="47.63669" lon="-3.36543">
        <ele>1.58</ele>
        <time>2016-04-30T17:00:39Z</time>
      </trkpt>
      <trkpt lat="47.63701" lon="-3.3653">
        <ele>1.58</ele>
        <time>2016-04-30T17:00:54Z</time>
      </trkpt>
      <trkpt lat="47.63727" lon="-3.3652">
        <ele>1.1</ele>
        <time>2016-04-30T17:01:06Z</time>
      </trkpt>
      <trkpt lat="47.63755" lon="-3.36511">
        <ele>1.1</ele>
        <time>2016-04-30T17:01:19Z</time>
      </trkpt>
      <trkpt lat="47.63784" lon="-3.36493">
        <ele>1.1</ele>
        <time>2016-04-30T17:01:33Z</time>
      </trkpt>
      <trkpt lat="47.6382" lon="-3.36473">
        <ele>1.1</ele>
        <time>2016-04-30T17:01:50Z</time>
      </trkpt>
      <trkpt lat="47.63855" lon="-3.36458">
        <ele>1.58</ele>
        <time>2016-04-30T17:02:05Z</time>
      </trkpt>
      <trkpt lat="47.63885" lon="-3.3644">
        <ele>1.58</ele>
        <time>2016-04-30T17:02:18Z</time>
      </trkpt>
      <trkpt lat="47.63918" lon="-3.36421">
        <ele>1.1</ele>
        <time>2016-04-30T17:02:32Z</time>
      </trkpt>
      <trkpt lat="47.63949" lon="-3.36395">
        <ele>2.06</ele>
        <time>2016-04-30T17:02:46Z</time>
      </trkpt>
      <trkpt lat="47.63975" lon="-3.36368">
        <ele>2.06</ele>
        <time>2016-04-30T17:02:58Z</time>
      </trkpt>
      <trkpt lat="47.64008" lon="-3.36335">
        <ele>2.54</ele>
        <time>2016-04-30T17:03:14Z</time>
      </trkpt>
      <trkpt lat="47.64027" lon="-3.36335">
        <ele>2.54</ele>
        <time>2016-04-30T17:03:23Z</time>
      </trkpt>
      <trkpt lat="47.64036" lon="-3.3633">
        <ele>2.54</ele>
        <time>2016-04-30T17:03:27Z</time>
      </trkpt>
      <trkpt lat="47.64074" lon="-3.36314">
        <ele>1.58</ele>
        <time>2016-04-30T17:03:42Z</time>
      </trkpt>
      <trkpt lat="47.64089" lon="-3.36309">
        <ele>1.58</ele>
        <time>2016-04-30T17:03:48Z</time>
      </trkpt>
      <trkpt lat="47.6412" lon="-3.36286">
        <ele>2.06</ele>
        <time>2016-04-30T17:04:01Z</time>
      </trkpt>
      <trkpt lat="47.64142" lon="-3.36274">
        <ele>2.06</ele>
        <time>2016-04-30T17:04:10Z</time>
      </trkpt>
      <trkpt lat="47.64171" lon="-3.3627">
        <ele>0.62</ele>
        <time>2016-04-30T17:04:22Z</time>
      </trkpt>
      <trkpt lat="47.64204" lon="-3.3626">
        <ele>-0.82</ele>
        <time>2016-04-30T17:04:36Z</time>
      </trkpt>
      <trkpt lat="47.6424" lon="-3.36252">
        <ele>-0.82</ele>
        <time>2016-04-30T17:04:51Z</time>
      </trkpt>
      <trkpt lat="47.64277" lon="-3.36246">
        <ele>-0.34</ele>
        <time>2016-04-30T17:05:07Z</time>
      </trkpt>
      <trkpt lat="47.64307" lon="-3.36242">
        <ele>0.14</ele>
        <time>2016-04-30T17:05:21Z</time>
      </trkpt>
      <trkpt lat="47.64331" lon="-3.36238">
        <ele>0.62</ele>
        <time>2016-04-30T17:05:33Z</time>
      </trkpt>
      <trkpt lat="47.64363" lon="-3.36231">
        <ele>1.1</ele>
        <time>2016-04-30T17:05:47Z</time>
      </trkpt>
      <trkpt lat="47.64395" lon="-3.3622">
        <ele>1.58</ele>
        <time>2016-04-30T17:06:01Z</time>
      </trkpt>
      <trkpt lat="47.64431" lon="-3.36206">
        <ele>1.58</ele>
        <time>2016-04-30T17:06:16Z</time>
      </trkpt>
      <trkpt lat="47.64471" lon="-3.36191">
        <ele>1.58</ele>
        <time>2016-04-30T17:06:33Z</time>
      </trkpt>
      <trkpt lat="47.64511" lon="-3.3618">
        <ele>0.62</ele>
        <time>2016-04-30T17:06:50Z</time>
      </trkpt>
      <trkpt lat="47.64547" lon="-3.36167">
        <ele>-1.3</ele>
        <time>2016-04-30T17:07:05Z</time>
      </trkpt>
      <trkpt lat="47.6458" lon="-3.36149">
        <ele>-1.3</ele>
        <time>2016-04-30T17:07:19Z</time>
      </trkpt>
      <trkpt lat="47.64606" lon="-3.36138">
        <ele>-0.34</ele>
        <time>2016-04-30T17:07:30Z</time>
      </trkpt>
      <trkpt lat="47.64638" lon="-3.3612">
        <ele>1.1</ele>
        <time>2016-04-30T17:07:44Z</time>
      </trkpt>
      <trkpt lat="47.64665" lon="-3.36102">
        <ele>2.54</ele>
        <time>2016-04-30T17:07:56Z</time>
      </trkpt>
      <trkpt lat="47.64695" lon="-3.36084">
        <ele>2.06</ele>
        <time>2016-04-30T17:08:09Z</time>
      </trkpt>
      <trkpt lat="47.64716" lon="-3.36055">
        <ele>2.06</ele>
        <time>2016-04-30T17:08:20Z</time>
      </trkpt>
      <trkpt lat="47.64729" lon="-3.36008">
        <ele>0.62</ele>
        <time>2016-04-30T17:08:35Z</time>
      </trkpt>
      <trkpt lat="47.6475" lon="-3.35971">
        <ele>0.62</ele>
        <time>2016-04-30T17:08:51Z</time>
      </trkpt>
      <trkpt lat="47.64757" lon="-3.35982">
        <ele>-0.34</ele>
        <time>2016-04-30T17:09:01Z</time>
      </trkpt>
      <trkpt lat="47.64755" lon="-3.35986">
        <ele>-0.34</ele>
        <time>2016-04-30T17:09:05Z</time>
      </trkpt>
      <trkpt lat="47.64752" lon="-3.35992">
        <ele>-0.34</ele>
        <time>2016-04-30T17:09:09Z</time>
      </trkpt>
      <trkpt lat="47.64743" lon="-3.36034">
        <ele>-0.82</ele>
        <time>2016-04-30T17:09:24Z</time>
      </trkpt>
      <trkpt lat="47.64742" lon="-3.36078">
        <ele>-0.82</ele>
        <time>2016-04-30T17:09:37Z</time>
      </trkpt>
      <trkpt lat="47.64742" lon="-3.36087">
        <ele>-0.82</ele>
        <time>2016-04-30T17:09:40Z</time>
      </trkpt>
      <trkpt lat="47.64743" lon="-3.36117">
        <ele>-1.79</ele>
        <time>2016-04-30T17:09:52Z</time>
      </trkpt>
      <trkpt lat="47.64743" lon="-3.36151">
        <ele>-1.3</ele>
        <time>2016-04-30T17:10:06Z</time>
      </trkpt>
      <trkpt lat="47.64741" lon="-3.36189">
        <ele>-1.3</ele>
        <time>2016-04-30T17:10:19Z</time>
      </trkpt>
      <trkpt lat="47.64734" lon="-3.36236">
        <ele>-0.34</ele>
        <time>2016-04-30T17:10:33Z</time>
      </trkpt>
      <trkpt lat="47.64728" lon="-3.36281">
        <ele>-0.82</ele>
        <time>2016-04-30T17:10:46Z</time>
      </trkpt>
      <trkpt lat="47.64727" lon="-3.36325">
        <ele>-1.3</ele>
        <time>2016-04-30T17:10:59Z</time>
      </trkpt>
      <trkpt lat="47.64724" lon="-3.36369">
        <ele>-1.79</ele>
        <time>2016-04-30T17:11:12Z</time>
      </trkpt>
      <trkpt lat="47.6472" lon="-3.36411">
        <ele>-1.79</ele>
        <time>2016-04-30T17:11:25Z</time>
      </trkpt>
      <trkpt lat="47.64718" lon="-3.3645">
        <ele>-0.82</ele>
        <time>2016-04-30T17:11:36Z</time>
      </trkpt>
      <trkpt lat="47.64716" lon="-3.36504">
        <ele>-1.79</ele>
        <time>2016-04-30T17:11:50Z</time>
      </trkpt>
      <trkpt lat="47.6471" lon="-3.3655">
        <ele>-1.3</ele>
        <time>2016-04-30T17:12:02Z</time>
      </trkpt>
      <trkpt lat="47.6471" lon="-3.36605">
        <ele>-2.75</ele>
        <time>2016-04-30T17:12:17Z</time>
      </trkpt>
      <trkpt lat="47.64713" lon="-3.36651">
        <ele>-1.79</ele>
        <time>2016-04-30T17:12:30Z</time>
      </trkpt>
      <trkpt lat="47.64713" lon="-3.36682">
        <ele>-2.27</ele>
        <time>2016-04-30T17:12:41Z</time>
      </trkpt>
      <trkpt lat="47.64709" lon="-3.3672">
        <ele>-2.75</ele>
        <time>2016-04-30T17:12:56Z</time>
      </trkpt>
      <trkpt lat="47.64711" lon="-3.36753">
        <ele>-2.75</ele>
        <time>2016-04-30T17:13:09Z</time>
      </trkpt>
      <trkpt lat="47.64728" lon="-3.36802">
        <ele>-3.71</ele>
        <time>2016-04-30T17:13:26Z</time>
      </trkpt>
      <trkpt lat="47.64746" lon="-3.36837">
        <ele>-4.19</ele>
        <time>2016-04-30T17:13:41Z</time>
      </trkpt>
      <trkpt lat="47.64765" lon="-3.36872">
        <ele>-3.23</ele>
        <time>2016-04-30T17:13:55Z</time>
      </trkpt>
      <trkpt lat="47.64767" lon="-3.36882">
        <ele>-2.75</ele>
        <time>2016-04-30T17:13:58Z</time>
      </trkpt>
      <trkpt lat="47.64771" lon="-3.36883">
        <ele>-4.19</ele>
        <time>2016-04-30T17:14:02Z</time>
      </trkpt>
      <trkpt lat="47.64775" lon="-3.36855">
        <ele>-4.19</ele>
        <time>2016-04-30T17:14:16Z</time>
      </trkpt>
      <trkpt lat="47.64781" lon="-3.36842">
        <ele>-3.23</ele>
        <time>2016-04-30T17:14:30Z</time>
      </trkpt>
      <trkpt lat="47.64781" lon="-3.36842">
        <ele>-3.23</ele>
        <time>2016-04-30T17:14:40Z</time>
      </trkpt>
      <trkpt lat="47.64775" lon="-3.36831">
        <ele>-3.23</ele>
        <time>2016-04-30T17:14:55Z</time>
      </trkpt>
      <trkpt lat="47.6477" lon="-3.36831">
        <ele>-3.23</ele>
        <time>2016-04-30T17:14:59Z</time>
      </trkpt>
      <trkpt lat="47.64766" lon="-3.36834">
        <ele>-2.75</ele>
        <time>2016-04-30T17:15:02Z</time>
      </trkpt>
      <trkpt lat="47.6476" lon="-3.3685">
        <ele>-1.3</ele>
        <time>2016-04-30T17:15:13Z</time>
      </trkpt>
      <trkpt lat="47.64742" lon="-3.36888">
        <ele>-3.23</ele>
        <time>2016-04-30T17:15:27Z</time>
      </trkpt>
      <trkpt lat="47.64738" lon="-3.36929">
        <ele>-1.79</ele>
        <time>2016-04-30T17:15:42Z</time>
      </trkpt>
      <trkpt lat="47.64729" lon="-3.36967">
        <ele>-1.3</ele>
        <time>2016-04-30T17:15:54Z</time>
      </trkpt>
      <trkpt lat="47.64715" lon="-3.3701">
        <ele>0.14</ele>
        <time>2016-04-30T17:16:08Z</time>
      </trkpt>
      <trkpt lat="47.64704" lon="-3.37046">
        <ele>0.14</ele>
        <time>2016-04-30T17:16:21Z</time>
      </trkpt>
      <trkpt lat="47.64695" lon="-3.37082">
        <ele>0.14</ele>
        <time>2016-04-30T17:16:35Z</time>
      </trkpt>
      <trkpt lat="47.64683" lon="-3.37127">
        <ele>-0.82</ele>
        <time>2016-04-30T17:16:50Z</time>
      </trkpt>
      <trkpt lat="47.6467" lon="-3.37162">
        <ele>-1.3</ele>
        <time>2016-04-30T17:17:01Z</time>
      </trkpt>
      <trkpt lat="47.64668" lon="-3.3717">
        <ele>-1.3</ele>
        <time>2016-04-30T17:17:03Z</time>
      </trkpt>
      <trkpt lat="47.64677" lon="-3.37172">
        <ele>-1.3</ele>
        <time>2016-04-30T17:17:13Z</time>
      </trkpt>
      <trkpt lat="47.647" lon="-3.37166">
        <ele>-1.79</ele>
        <time>2016-04-30T17:17:25Z</time>
      </trkpt>
      <trkpt lat="47.64716" lon="-3.37163">
        <ele>-1.79</ele>
        <time>2016-04-30T17:17:36Z</time>
      </trkpt>
      <trkpt lat="47.64719" lon="-3.37162">
        <ele>-2.27</ele>
        <time>2016-04-30T17:17:38Z</time>
      </trkpt>
      <trkpt lat="47.64746" lon="-3.37149">
        <ele>-1.79</ele>
        <time>2016-04-30T17:17:53Z</time>
      </trkpt>
      <trkpt lat="47.64753" lon="-3.37148">
        <ele>-1.3</ele>
        <time>2016-04-30T17:17:58Z</time>
      </trkpt>
      <trkpt lat="47.64778" lon="-3.37134">
        <ele>-1.3</ele>
        <time>2016-04-30T17:18:12Z</time>
      </trkpt>
      <trkpt lat="47.64807" lon="-3.37111">
        <ele>-1.79</ele>
        <time>2016-04-30T17:18:26Z</time>
      </trkpt>
      <trkpt lat="47.6483" lon="-3.37099">
        <ele>-2.27</ele>
        <time>2016-04-30T17:18:37Z</time>
      </trkpt>
      <trkpt lat="47.64854" lon="-3.37087">
        <ele>-2.27</ele>
        <time>2016-04-30T17:18:50Z</time>
      </trkpt>
      <trkpt lat="47.64883" lon="-3.37068">
        <ele>-1.79</ele>
        <time>2016-04-30T17:19:05Z</time>
      </trkpt>
      <trkpt lat="47.64911" lon="-3.37055">
        <ele>-2.27</ele>
        <time>2016-04-30T17:19:19Z</time>
      </trkpt>
      <trkpt lat="47.64917" lon="-3.37054">
        <ele>-1.79</ele>
        <time>2016-04-30T17:19:22Z</time>
      </trkpt>
      <trkpt lat="47.6493" lon="-3.3705">
        <ele>-2.27</ele>
        <time>2016-04-30T17:19:31Z</time>
      </trkpt>
      <trkpt lat="47.64956" lon="-3.37034">
        <ele>-2.75</ele>
        <time>2016-04-30T17:19:47Z</time>
      </trkpt>
      <trkpt lat="47.64962" lon="-3.3703">
        <ele>-2.75</ele>
        <time>2016-04-30T17:19:50Z</time>
      </trkpt>
      <trkpt lat="47.64993" lon="-3.37014">
        <ele>-3.71</ele>
        <time>2016-04-30T17:20:05Z</time>
      </trkpt>
      <trkpt lat="47.65022" lon="-3.37003">
        <ele>-3.23</ele>
        <time>2016-04-30T17:20:19Z</time>
      </trkpt>
      <trkpt lat="47.65049" lon="-3.36991">
        <ele>-3.23</ele>
        <time>2016-04-30T17:20:31Z</time>
      </trkpt>
      <trkpt lat="47.65072" lon="-3.36988">
        <ele>-3.23</ele>
        <time>2016-04-30T17:20:43Z</time>
      </trkpt>
      <trkpt lat="47.65101" lon="-3.36984">
        <ele>-3.71</ele>
        <time>2016-04-30T17:20:58Z</time>
      </trkpt>
      <trkpt lat="47.65105" lon="-3.36986">
        <ele>-2.75</ele>
        <time>2016-04-30T17:21:01Z</time>
      </trkpt>
      <trkpt lat="47.65125" lon="-3.36981">
        <ele>-3.23</ele>
        <time>2016-04-30T17:21:14Z</time>
      </trkpt>
      <trkpt lat="47.65135" lon="-3.36979">
        <ele>-2.75</ele>
        <time>2016-04-30T17:21:22Z</time>
      </trkpt>
      <trkpt lat="47.65139" lon="-3.36978">
        <ele>-2.75</ele>
        <time>2016-04-30T17:21:25Z</time>
      </trkpt>
      <trkpt lat="47.65147" lon="-3.36971">
        <ele>-3.23</ele>
        <time>2016-04-30T17:21:31Z</time>
      </trkpt>
      <trkpt lat="47.65175" lon="-3.36948">
        <ele>-4.19</ele>
        <time>2016-04-30T17:21:45Z</time>
      </trkpt>
      <trkpt lat="47.65202" lon="-3.36922">
        <ele>-3.23</ele>
        <time>2016-04-30T17:21:59Z</time>
      </trkpt>
      <trkpt lat="47.65206" lon="-3.3692">
        <ele>-2.27</ele>
        <time>2016-04-30T17:22:01Z</time>
      </trkpt>
      <trkpt lat="47.65216" lon="-3.36913">
        <ele>-3.23</ele>
        <time>2016-04-30T17:22:07Z</time>
      </trkpt>
      <trkpt lat="47.65244" lon="-3.36891">
        <ele>-3.71</ele>
        <time>2016-04-30T17:22:22Z</time>
      </trkpt>
      <trkpt lat="47.65248" lon="-3.36888">
        <ele>-3.23</ele>
        <time>2016-04-30T17:22:24Z</time>
      </trkpt>
      <trkpt lat="47.65256" lon="-3.36884">
        <ele>-3.71</ele>
        <time>2016-04-30T17:22:29Z</time>
      </trkpt>
      <trkpt lat="47.65279" lon="-3.36863">
        <ele>-1.79</ele>
        <time>2016-04-30T17:22:42Z</time>
      </trkpt>
      <trkpt lat="47.65303" lon="-3.36841">
        <ele>-0.82</ele>
        <time>2016-04-30T17:22:55Z</time>
      </trkpt>
      <trkpt lat="47.6533" lon="-3.36817">
        <ele>-1.3</ele>
        <time>2016-04-30T17:23:10Z</time>
      </trkpt>
      <trkpt lat="47.65359" lon="-3.36793">
        <ele>-2.27</ele>
        <time>2016-04-30T17:23:25Z</time>
      </trkpt>
      <trkpt lat="47.65388" lon="-3.36768">
        <ele>-0.82</ele>
        <time>2016-04-30T17:23:40Z</time>
      </trkpt>
      <trkpt lat="47.65417" lon="-3.36746">
        <ele>-0.34</ele>
        <time>2016-04-30T17:23:55Z</time>
      </trkpt>
      <trkpt lat="47.65447" lon="-3.36729">
        <ele>0.62</ele>
        <time>2016-04-30T17:24:10Z</time>
      </trkpt>
      <trkpt lat="47.65473" lon="-3.36704">
        <ele>1.1</ele>
        <time>2016-04-30T17:24:24Z</time>
      </trkpt>
      <trkpt lat="47.65495" lon="-3.3669">
        <ele>0.62</ele>
        <time>2016-04-30T17:24:35Z</time>
      </trkpt>
      <trkpt lat="47.65502" lon="-3.36688">
        <ele>0.62</ele>
        <time>2016-04-30T17:24:39Z</time>
      </trkpt>
      <trkpt lat="47.65532" lon="-3.36666">
        <ele>0.14</ele>
        <time>2016-04-30T17:24:55Z</time>
      </trkpt>
      <trkpt lat="47.65556" lon="-3.36646">
        <ele>0.62</ele>
        <time>2016-04-30T17:25:08Z</time>
      </trkpt>
      <trkpt lat="47.65574" lon="-3.3663">
        <ele>1.1</ele>
        <time>2016-04-30T17:25:18Z</time>
      </trkpt>
      <trkpt lat="47.65582" lon="-3.3662">
        <ele>1.58</ele>
        <time>2016-04-30T17:25:23Z</time>
      </trkpt>
      <trkpt lat="47.6561" lon="-3.36597">
        <ele>1.1</ele>
        <time>2016-04-30T17:25:38Z</time>
      </trkpt>
      <trkpt lat="47.65638" lon="-3.36568">
        <ele>-0.34</ele>
        <time>2016-04-30T17:25:52Z</time>
      </trkpt>
      <trkpt lat="47.65659" lon="-3.3655">
        <ele>-2.27</ele>
        <time>2016-04-30T17:26:03Z</time>
      </trkpt>
      <trkpt lat="47.65684" lon="-3.36529">
        <ele>-0.82</ele>
        <time>2016-04-30T17:26:16Z</time>
      </trkpt>
      <trkpt lat="47.65703" lon="-3.36524">
        <ele>-0.82</ele>
        <time>2016-04-30T17:26:28Z</time>
      </trkpt>
      <trkpt lat="47.6572" lon="-3.36515">
        <ele>-1.3</ele>
        <time>2016-04-30T17:26:41Z</time>
      </trkpt>
      <trkpt lat="47.6572" lon="-3.36522">
        <ele>-1.79</ele>
        <time>2016-04-30T17:26:52Z</time>
      </trkpt>
      <trkpt lat="47.65719" lon="-3.36531">
        <ele>-3.23</ele>
        <time>2016-04-30T17:26:57Z</time>
      </trkpt>
      <trkpt lat="47.65714" lon="-3.36571">
        <ele>-4.67</ele>
        <time>2016-04-30T17:27:12Z</time>
      </trkpt>
      <trkpt lat="47.65712" lon="-3.36618">
        <ele>-5.15</ele>
        <time>2016-04-30T17:27:24Z</time>
      </trkpt>
      <trkpt lat="47.65712" lon="-3.36663">
        <ele>-3.71</ele>
        <time>2016-04-30T17:27:35Z</time>
      </trkpt>
      <trkpt lat="47.6571" lon="-3.36713">
        <ele>-2.27</ele>
        <time>2016-04-30T17:27:47Z</time>
      </trkpt>
      <trkpt lat="47.65707" lon="-3.36733">
        <ele>-1.3</ele>
        <time>2016-04-30T17:27:52Z</time>
      </trkpt>
      <trkpt lat="47.65705" lon="-3.3675">
        <ele>-1.3</ele>
        <time>2016-04-30T17:27:56Z</time>
      </trkpt>
      <trkpt lat="47.657" lon="-3.36793">
        <ele>-2.27</ele>
        <time>2016-04-30T17:28:07Z</time>
      </trkpt>
      <trkpt lat="47.65701" lon="-3.36845">
        <ele>-2.75</ele>
        <time>2016-04-30T17:28:20Z</time>
      </trkpt>
      <trkpt lat="47.657" lon="-3.36892">
        <ele>-4.67</ele>
        <time>2016-04-30T17:28:32Z</time>
      </trkpt>
      <trkpt lat="47.65697" lon="-3.36952">
        <ele>-4.19</ele>
        <time>2016-04-30T17:28:47Z</time>
      </trkpt>
      <trkpt lat="47.65695" lon="-3.37005">
        <ele>-3.71</ele>
        <time>2016-04-30T17:29:00Z</time>
      </trkpt>
      <trkpt lat="47.65691" lon="-3.37058">
        <ele>-2.75</ele>
        <time>2016-04-30T17:29:13Z</time>
      </trkpt>
      <trkpt lat="47.65688" lon="-3.37117">
        <ele>-3.23</ele>
        <time>2016-04-30T17:29:27Z</time>
      </trkpt>
      <trkpt lat="47.65682" lon="-3.37164">
        <ele>-2.75</ele>
        <time>2016-04-30T17:29:39Z</time>
      </trkpt>
      <trkpt lat="47.65687" lon="-3.37222">
        <ele>-2.27</ele>
        <time>2016-04-30T17:29:54Z</time>
      </trkpt>
      <trkpt lat="47.65688" lon="-3.37273">
        <ele>-1.79</ele>
        <time>2016-04-30T17:30:07Z</time>
      </trkpt>
      <trkpt lat="47.65686" lon="-3.37335">
        <ele>-1.79</ele>
        <time>2016-04-30T17:30:22Z</time>
      </trkpt>
      <trkpt lat="47.65683" lon="-3.37393">
        <ele>-2.75</ele>
        <time>2016-04-30T17:30:36Z</time>
      </trkpt>
      <trkpt lat="47.65679" lon="-3.37451">
        <ele>-3.71</ele>
        <time>2016-04-30T17:30:50Z</time>
      </trkpt>
      <trkpt lat="47.65678" lon="-3.37497">
        <ele>-3.23</ele>
        <time>2016-04-30T17:31:02Z</time>
      </trkpt>
      <trkpt lat="47.65675" lon="-3.37551">
        <ele>-3.23</ele>
        <time>2016-04-30T17:31:16Z</time>
      </trkpt>
      <trkpt lat="47.65672" lon="-3.376">
        <ele>-3.23</ele>
        <time>2016-04-30T17:31:29Z</time>
      </trkpt>
      <trkpt lat="47.65666" lon="-3.37664">
        <ele>-3.23</ele>
        <time>2016-04-30T17:31:45Z</time>
      </trkpt>
      <trkpt lat="47.65665" lon="-3.37719">
        <ele>-2.75</ele>
        <time>2016-04-30T17:31:59Z</time>
      </trkpt>
      <trkpt lat="47.6566" lon="-3.37772">
        <ele>-2.75</ele>
        <time>2016-04-30T17:32:13Z</time>
      </trkpt>
      <trkpt lat="47.65653" lon="-3.37827">
        <ele>-2.27</ele>
        <time>2016-04-30T17:32:28Z</time>
      </trkpt>
      <trkpt lat="47.65645" lon="-3.37875">
        <ele>-1.79</ele>
        <time>2016-04-30T17:32:41Z</time>
      </trkpt>
      <trkpt lat="47.65642" lon="-3.3793">
        <ele>-2.75</ele>
        <time>2016-04-30T17:32:57Z</time>
      </trkpt>
      <trkpt lat="47.65638" lon="-3.37971">
        <ele>-4.19</ele>
        <time>2016-04-30T17:33:08Z</time>
      </trkpt>
      <trkpt lat="47.65635" lon="-3.38011">
        <ele>-5.15</ele>
        <time>2016-04-30T17:33:20Z</time>
      </trkpt>
      <trkpt lat="47.65633" lon="-3.38065">
        <ele>-5.63</ele>
        <time>2016-04-30T17:33:35Z</time>
      </trkpt>
      <trkpt lat="47.65625" lon="-3.38127">
        <ele>-4.19</ele>
        <time>2016-04-30T17:33:52Z</time>
      </trkpt>
      <trkpt lat="47.65619" lon="-3.38169">
        <ele>-3.23</ele>
        <time>2016-04-30T17:34:06Z</time>
      </trkpt>
      <trkpt lat="47.65609" lon="-3.38202">
        <ele>-2.27</ele>
        <time>2016-04-30T17:34:19Z</time>
      </trkpt>
      <trkpt lat="47.65598" lon="-3.38236">
        <ele>-2.75</ele>
        <time>2016-04-30T17:34:31Z</time>
      </trkpt>
      <trkpt lat="47.6559" lon="-3.38276">
        <ele>-3.71</ele>
        <time>2016-04-30T17:34:44Z</time>
      </trkpt>
      <trkpt lat="47.65589" lon="-3.38291">
        <ele>-2.75</ele>
        <time>2016-04-30T17:34:52Z</time>
      </trkpt>
      <trkpt lat="47.65581" lon="-3.38322">
        <ele>-2.27</ele>
        <time>2016-04-30T17:35:07Z</time>
      </trkpt>
      <trkpt lat="47.65576" lon="-3.38359">
        <ele>-2.27</ele>
        <time>2016-04-30T17:35:23Z</time>
      </trkpt>
      <trkpt lat="47.65567" lon="-3.38385">
        <ele>-1.79</ele>
        <time>2016-04-30T17:35:37Z</time>
      </trkpt>
      <trkpt lat="47.65555" lon="-3.38421">
        <ele>-1.3</ele>
        <time>2016-04-30T17:35:53Z</time>
      </trkpt>
      <trkpt lat="47.65545" lon="-3.38456">
        <ele>-0.82</ele>
        <time>2016-04-30T17:36:07Z</time>
      </trkpt>
      <trkpt lat="47.65541" lon="-3.38468">
        <ele>-0.34</ele>
        <time>2016-04-30T17:36:12Z</time>
      </trkpt>
      <trkpt lat="47.65537" lon="-3.38504">
        <ele>-1.79</ele>
        <time>2016-04-30T17:36:25Z</time>
      </trkpt>
      <trkpt lat="47.65529" lon="-3.38549">
        <ele>-1.79</ele>
        <time>2016-04-30T17:36:40Z</time>
      </trkpt>
      <trkpt lat="47.65523" lon="-3.38582">
        <ele>-1.79</ele>
        <time>2016-04-30T17:36:51Z</time>
      </trkpt>
      <trkpt lat="47.65518" lon="-3.38617">
        <ele>-2.27</ele>
        <time>2016-04-30T17:37:02Z</time>
      </trkpt>
      <trkpt lat="47.65518" lon="-3.38655">
        <ele>-2.27</ele>
        <time>2016-04-30T17:37:15Z</time>
      </trkpt>
      <trkpt lat="47.65516" lon="-3.38694">
        <ele>-1.3</ele>
        <time>2016-04-30T17:37:28Z</time>
      </trkpt>
      <trkpt lat="47.65513" lon="-3.38744">
        <ele>-0.34</ele>
        <time>2016-04-30T17:37:43Z</time>
      </trkpt>
      <trkpt lat="47.6551" lon="-3.38785">
        <ele>-0.82</ele>
        <time>2016-04-30T17:37:55Z</time>
      </trkpt>
      <trkpt lat="47.6551" lon="-3.38836">
        <ele>-1.3</ele>
        <time>2016-04-30T17:38:10Z</time>
      </trkpt>
      <trkpt lat="47.65509" lon="-3.38886">
        <ele>-0.82</ele>
        <time>2016-04-30T17:38:24Z</time>
      </trkpt>
      <trkpt lat="47.65505" lon="-3.38913">
        <ele>-0.34</ele>
        <time>2016-04-30T17:38:32Z</time>
      </trkpt>
      <trkpt lat="47.65499" lon="-3.38965">
        <ele>0.14</ele>
        <time>2016-04-30T17:38:46Z</time>
      </trkpt>
      <trkpt lat="47.65497" lon="-3.39015">
        <ele>-0.82</ele>
        <time>2016-04-30T17:39:00Z</time>
      </trkpt>
      <trkpt lat="47.65496" lon="-3.39055">
        <ele>-0.82</ele>
        <time>2016-04-30T17:39:12Z</time>
      </trkpt>
      <trkpt lat="47.65492" lon="-3.39099">
        <ele>-0.82</ele>
        <time>2016-04-30T17:39:25Z</time>
      </trkpt>
      <trkpt lat="47.65489" lon="-3.39145">
        <ele>-1.3</ele>
        <time>2016-04-30T17:39:38Z</time>
      </trkpt>
      <trkpt lat="47.65488" lon="-3.39194">
        <ele>-1.79</ele>
        <time>2016-04-30T17:39:52Z</time>
      </trkpt>
      <trkpt lat="47.65485" lon="-3.39242">
        <ele>-2.75</ele>
        <time>2016-04-30T17:40:06Z</time>
      </trkpt>
      <trkpt lat="47.65482" lon="-3.39296">
        <ele>-2.27</ele>
        <time>2016-04-30T17:40:21Z</time>
      </trkpt>
      <trkpt lat="47.65479" lon="-3.39348">
        <ele>-2.27</ele>
        <time>2016-04-30T17:40:36Z</time>
      </trkpt>
      <trkpt lat="47.65479" lon="-3.39392">
        <ele>-1.79</ele>
        <time>2016-04-30T17:40:49Z</time>
      </trkpt>
      <trkpt lat="47.65479" lon="-3.39434">
        <ele>-1.79</ele>
        <time>2016-04-30T17:41:03Z</time>
      </trkpt>
      <trkpt lat="47.65479" lon="-3.39479">
        <ele>-0.82</ele>
        <time>2016-04-30T17:41:16Z</time>
      </trkpt>
      <trkpt lat="47.6548" lon="-3.39525">
        <ele>-0.82</ele>
        <time>2016-04-30T17:41:29Z</time>
      </trkpt>
      <trkpt lat="47.6548" lon="-3.39567">
        <ele>-1.3</ele>
        <time>2016-04-30T17:41:42Z</time>
      </trkpt>
      <trkpt lat="47.6548" lon="-3.39602">
        <ele>-1.3</ele>
        <time>2016-04-30T17:41:54Z</time>
      </trkpt>
      <trkpt lat="47.65472" lon="-3.3966">
        <ele>-1.3</ele>
        <time>2016-04-30T17:42:11Z</time>
      </trkpt>
      <trkpt lat="47.65466" lon="-3.39711">
        <ele>-0.34</ele>
        <time>2016-04-30T17:42:25Z</time>
      </trkpt>
      <trkpt lat="47.65466" lon="-3.39763">
        <ele>-1.3</ele>
        <time>2016-04-30T17:42:39Z</time>
      </trkpt>
      <trkpt lat="47.65468" lon="-3.39812">
        <ele>-2.27</ele>
        <time>2016-04-30T17:42:53Z</time>
      </trkpt>
      <trkpt lat="47.65473" lon="-3.39867">
        <ele>-2.27</ele>
        <time>2016-04-30T17:43:09Z</time>
      </trkpt>
      <trkpt lat="47.65478" lon="-3.39917">
        <ele>-1.3</ele>
        <time>2016-04-30T17:43:24Z</time>
      </trkpt>
      <trkpt lat="47.6548" lon="-3.3996">
        <ele>-1.3</ele>
        <time>2016-04-30T17:43:36Z</time>
      </trkpt>
      <trkpt lat="47.65482" lon="-3.40003">
        <ele>-0.82</ele>
        <time>2016-04-30T17:43:48Z</time>
      </trkpt>
      <trkpt lat="47.6548" lon="-3.40055">
        <ele>-1.3</ele>
        <time>2016-04-30T17:44:02Z</time>
      </trkpt>
      <trkpt lat="47.65477" lon="-3.40102">
        <ele>-0.82</ele>
        <time>2016-04-30T17:44:15Z</time>
      </trkpt>
      <trkpt lat="47.65475" lon="-3.40152">
        <ele>-0.82</ele>
        <time>2016-04-30T17:44:29Z</time>
      </trkpt>
      <trkpt lat="47.65477" lon="-3.40196">
        <ele>0.14</ele>
        <time>2016-04-30T17:44:41Z</time>
      </trkpt>
      <trkpt lat="47.65471" lon="-3.40246">
        <ele>-0.34</ele>
        <time>2016-04-30T17:44:55Z</time>
      </trkpt>
      <trkpt lat="47.65469" lon="-3.40286">
        <ele>-1.79</ele>
        <time>2016-04-30T17:45:07Z</time>
      </trkpt>
      <trkpt lat="47.65469" lon="-3.40332">
        <ele>-1.3</ele>
        <time>2016-04-30T17:45:22Z</time>
      </trkpt>
      <trkpt lat="47.65466" lon="-3.40382">
        <ele>-1.3</ele>
        <time>2016-04-30T17:45:39Z</time>
      </trkpt>
      <trkpt lat="47.65464" lon="-3.40423">
        <ele>-0.82</ele>
        <time>2016-04-30T17:45:52Z</time>
      </trkpt>
      <trkpt lat="47.65461" lon="-3.4047">
        <ele>-0.82</ele>
        <time>2016-04-30T17:46:07Z</time>
      </trkpt>
      <trkpt lat="47.65458" lon="-3.40505">
        <ele>-1.3</ele>
        <time>2016-04-30T17:46:18Z</time>
      </trkpt>
      <trkpt lat="47.65457" lon="-3.40541">
        <ele>-1.3</ele>
        <time>2016-04-30T17:46:30Z</time>
      </trkpt>
      <trkpt lat="47.65456" lon="-3.4057">
        <ele>-1.3</ele>
        <time>2016-04-30T17:46:41Z</time>
      </trkpt>
      <trkpt lat="47.65455" lon="-3.40605">
        <ele>-0.34</ele>
        <time>2016-04-30T17:46:53Z</time>
      </trkpt>
      <trkpt lat="47.65453" lon="-3.40657">
        <ele>-0.82</ele>
        <time>2016-04-30T17:47:08Z</time>
      </trkpt>
      <trkpt lat="47.6545" lon="-3.4069">
        <ele>-1.79</ele>
        <time>2016-04-30T17:47:19Z</time>
      </trkpt>
      <trkpt lat="47.65447" lon="-3.40727">
        <ele>-1.3</ele>
        <time>2016-04-30T17:47:32Z</time>
      </trkpt>
      <trkpt lat="47.65434" lon="-3.40775">
        <ele>-0.34</ele>
        <time>2016-04-30T17:47:47Z</time>
      </trkpt>
      <trkpt lat="47.65435" lon="-3.40809">
        <ele>-0.82</ele>
        <time>2016-04-30T17:47:58Z</time>
      </trkpt>
      <trkpt lat="47.65439" lon="-3.40849">
        <ele>-0.82</ele>
        <time>2016-04-30T17:48:12Z</time>
      </trkpt>
      <trkpt lat="47.65441" lon="-3.40886">
        <ele>-0.82</ele>
        <time>2016-04-30T17:48:25Z</time>
      </trkpt>
      <trkpt lat="47.65441" lon="-3.40928">
        <ele>-1.3</ele>
        <time>2016-04-30T17:48:40Z</time>
      </trkpt>
      <trkpt lat="47.6544" lon="-3.40965">
        <ele>-1.79</ele>
        <time>2016-04-30T17:48:53Z</time>
      </trkpt>
      <trkpt lat="47.6544" lon="-3.40999">
        <ele>-1.79</ele>
        <time>2016-04-30T17:49:06Z</time>
      </trkpt>
      <trkpt lat="47.65438" lon="-3.41029">
        <ele>-1.79</ele>
        <time>2016-04-30T17:49:17Z</time>
      </trkpt>
      <trkpt lat="47.65439" lon="-3.41063">
        <ele>-2.75</ele>
        <time>2016-04-30T17:49:30Z</time>
      </trkpt>
      <trkpt lat="47.65439" lon="-3.41092">
        <ele>-2.75</ele>
        <time>2016-04-30T17:49:44Z</time>
      </trkpt>
      <trkpt lat="47.65435" lon="-3.41135">
        <ele>-1.79</ele>
        <time>2016-04-30T17:50:01Z</time>
      </trkpt>
      <trkpt lat="47.65429" lon="-3.41179">
        <ele>-2.27</ele>
        <time>2016-04-30T17:50:17Z</time>
      </trkpt>
      <trkpt lat="47.65426" lon="-3.41222">
        <ele>-2.27</ele>
        <time>2016-04-30T17:50:31Z</time>
      </trkpt>
      <trkpt lat="47.65425" lon="-3.41262">
        <ele>-1.79</ele>
        <time>2016-04-30T17:50:45Z</time>
      </trkpt>
      <trkpt lat="47.65422" lon="-3.41294">
        <ele>-0.82</ele>
        <time>2016-04-30T17:50:57Z</time>
      </trkpt>
      <trkpt lat="47.65417" lon="-3.41322">
        <ele>-0.82</ele>
        <time>2016-04-30T17:51:08Z</time>
      </trkpt>
      <trkpt lat="47.65414" lon="-3.41354">
        <ele>-1.79</ele>
        <time>2016-04-30T17:51:21Z</time>
      </trkpt>
      <trkpt lat="47.65412" lon="-3.41399">
        <ele>-1.79</ele>
        <time>2016-04-30T17:51:36Z</time>
      </trkpt>
      <trkpt lat="47.65408" lon="-3.41433">
        <ele>-2.27</ele>
        <time>2016-04-30T17:51:49Z</time>
      </trkpt>
      <trkpt lat="47.65405" lon="-3.41465">
        <ele>-2.27</ele>
        <time>2016-04-30T17:52:03Z</time>
      </trkpt>
      <trkpt lat="47.654" lon="-3.41497">
        <ele>-2.27</ele>
        <time>2016-04-30T17:52:18Z</time>
      </trkpt>
      <trkpt lat="47.65394" lon="-3.41538">
        <ele>-1.79</ele>
        <time>2016-04-30T17:52:34Z</time>
      </trkpt>
      <trkpt lat="47.65391" lon="-3.41569">
        <ele>-2.27</ele>
        <time>2016-04-30T17:52:47Z</time>
      </trkpt>
      <trkpt lat="47.65389" lon="-3.41591">
        <ele>-1.3</ele>
        <time>2016-04-30T17:52:59Z</time>
      </trkpt>
      <trkpt lat="47.65384" lon="-3.41624">
        <ele>-1.3</ele>
        <time>2016-04-30T17:53:14Z</time>
      </trkpt>
      <trkpt lat="47.65379" lon="-3.41658">
        <ele>-1.79</ele>
        <time>2016-04-30T17:53:28Z</time>
      </trkpt>
      <trkpt lat="47.65376" lon="-3.41678">
        <ele>-1.3</ele>
        <time>2016-04-30T17:53:37Z</time>
      </trkpt>
      <trkpt lat="47.65373" lon="-3.41714">
        <ele>-1.79</ele>
        <time>2016-04-30T17:53:53Z</time>
      </trkpt>
      <trkpt lat="47.65369" lon="-3.41745">
        <ele>-2.75</ele>
        <time>2016-04-30T17:54:09Z</time>
      </trkpt>
      <trkpt lat="47.65361" lon="-3.41786">
        <ele>-1.79</ele>
        <time>2016-04-30T17:54:26Z</time>
      </trkpt>
      <trkpt lat="47.65356" lon="-3.41818">
        <ele>-1.3</ele>
        <time>2016-04-30T17:54:37Z</time>
      </trkpt>
      <trkpt lat="47.65352" lon="-3.41858">
        <ele>-1.3</ele>
        <time>2016-04-30T17:54:51Z</time>
      </trkpt>
      <trkpt lat="47.65349" lon="-3.41892">
        <ele>-1.3</ele>
        <time>2016-04-30T17:55:03Z</time>
      </trkpt>
      <trkpt lat="47.65344" lon="-3.41935">
        <ele>-0.82</ele>
        <time>2016-04-30T17:55:17Z</time>
      </trkpt>
      <trkpt lat="47.65341" lon="-3.41983">
        <ele>-0.82</ele>
        <time>2016-04-30T17:55:33Z</time>
      </trkpt>
      <trkpt lat="47.65338" lon="-3.42024">
        <ele>-0.34</ele>
        <time>2016-04-30T17:55:48Z</time>
      </trkpt>
      <trkpt lat="47.65336" lon="-3.42058">
        <ele>-0.82</ele>
        <time>2016-04-30T17:56:00Z</time>
      </trkpt>
      <trkpt lat="47.65334" lon="-3.42104">
        <ele>-0.34</ele>
        <time>2016-04-30T17:56:15Z</time>
      </trkpt>
      <trkpt lat="47.6533" lon="-3.42151">
        <ele>-0.82</ele>
        <time>2016-04-30T17:56:29Z</time>
      </trkpt>
      <trkpt lat="47.65324" lon="-3.42202">
        <ele>-0.82</ele>
        <time>2016-04-30T17:56:44Z</time>
      </trkpt>
      <trkpt lat="47.65319" lon="-3.42246">
        <ele>-0.34</ele>
        <time>2016-04-30T17:56:57Z</time>
      </trkpt>
      <trkpt lat="47.65314" lon="-3.42301">
        <ele>0.62</ele>
        <time>2016-04-30T17:57:13Z</time>
      </trkpt>
      <trkpt lat="47.65308" lon="-3.42341">
        <ele>0.14</ele>
        <time>2016-04-30T17:57:26Z</time>
      </trkpt>
      <trkpt lat="47.65306" lon="-3.42388">
        <ele>0.14</ele>
        <time>2016-04-30T17:57:41Z</time>
      </trkpt>
      <trkpt lat="47.65299" lon="-3.42442">
        <ele>0.14</ele>
        <time>2016-04-30T17:57:58Z</time>
      </trkpt>
      <trkpt lat="47.65293" lon="-3.4249">
        <ele>1.1</ele>
        <time>2016-04-30T17:58:15Z</time>
      </trkpt>
      <trkpt lat="47.65289" lon="-3.42522">
        <ele>0.62</ele>
        <time>2016-04-30T17:58:27Z</time>
      </trkpt>
      <trkpt lat="47.65286" lon="-3.42557">
        <ele>0.14</ele>
        <time>2016-04-30T17:58:38Z</time>
      </trkpt>
      <trkpt lat="47.65285" lon="-3.42598">
        <ele>-0.82</ele>
        <time>2016-04-30T17:58:52Z</time>
      </trkpt>
      <trkpt lat="47.65282" lon="-3.42639">
        <ele>-0.82</ele>
        <time>2016-04-30T17:59:06Z</time>
      </trkpt>
      <trkpt lat="47.6528" lon="-3.42687">
        <ele>-0.34</ele>
        <time>2016-04-30T17:59:22Z</time>
      </trkpt>
      <trkpt lat="47.65278" lon="-3.4273">
        <ele>0.14</ele>
        <time>2016-04-30T17:59:37Z</time>
      </trkpt>
      <trkpt lat="47.65276" lon="-3.42757">
        <ele>0.62</ele>
        <time>2016-04-30T17:59:49Z</time>
      </trkpt>
      <trkpt lat="47.65274" lon="-3.42795">
        <ele>0.62</ele>
        <time>2016-04-30T18:00:03Z</time>
      </trkpt>
      <trkpt lat="47.65269" lon="-3.42838">
        <ele>0.62</ele>
        <time>2016-04-30T18:00:18Z</time>
      </trkpt>
      <trkpt lat="47.65263" lon="-3.42887">
        <ele>0.62</ele>
        <time>2016-04-30T18:00:36Z</time>
      </trkpt>
      <trkpt lat="47.65258" lon="-3.42923">
        <ele>1.1</ele>
        <time>2016-04-30T18:00:52Z</time>
      </trkpt>
      <trkpt lat="47.65253" lon="-3.42955">
        <ele>0.62</ele>
        <time>2016-04-30T18:01:06Z</time>
      </trkpt>
      <trkpt lat="47.65248" lon="-3.42975">
        <ele>0.62</ele>
        <time>2016-04-30T18:01:19Z</time>
      </trkpt>
      <trkpt lat="47.65241" lon="-3.42998">
        <ele>0.62</ele>
        <time>2016-04-30T18:01:32Z</time>
      </trkpt>
      <trkpt lat="47.65235" lon="-3.43029">
        <ele>1.58</ele>
        <time>2016-04-30T18:01:46Z</time>
      </trkpt>
      <trkpt lat="47.65229" lon="-3.43058">
        <ele>1.1</ele>
        <time>2016-04-30T18:01:59Z</time>
      </trkpt>
      <trkpt lat="47.65228" lon="-3.43064">
        <ele>1.1</ele>
        <time>2016-04-30T18:02:02Z</time>
      </trkpt>
      <trkpt lat="47.65219" lon="-3.43088">
        <ele>0.62</ele>
        <time>2016-04-30T18:02:15Z</time>
      </trkpt>
      <trkpt lat="47.65211" lon="-3.43117">
        <ele>1.1</ele>
        <time>2016-04-30T18:02:29Z</time>
      </trkpt>
      <trkpt lat="47.65203" lon="-3.43141">
        <ele>0.62</ele>
        <time>2016-04-30T18:02:40Z</time>
      </trkpt>
      <trkpt lat="47.65194" lon="-3.43169">
        <ele>1.1</ele>
        <time>2016-04-30T18:02:52Z</time>
      </trkpt>
      <trkpt lat="47.65179" lon="-3.43207">
        <ele>1.1</ele>
        <time>2016-04-30T18:03:06Z</time>
      </trkpt>
      <trkpt lat="47.65169" lon="-3.43232">
        <ele>0.62</ele>
        <time>2016-04-30T18:03:15Z</time>
      </trkpt>
      <trkpt lat="47.65156" lon="-3.43274">
        <ele>0.62</ele>
        <time>2016-04-30T18:03:29Z</time>
      </trkpt>
      <trkpt lat="47.65146" lon="-3.43307">
        <ele>0.14</ele>
        <time>2016-04-30T18:03:42Z</time>
      </trkpt>
      <trkpt lat="47.65133" lon="-3.4335">
        <ele>0.62</ele>
        <time>2016-04-30T18:03:57Z</time>
      </trkpt>
      <trkpt lat="47.65117" lon="-3.43387">
        <ele>0.62</ele>
        <time>2016-04-30T18:04:12Z</time>
      </trkpt>
      <trkpt lat="47.65101" lon="-3.43427">
        <ele>0.62</ele>
        <time>2016-04-30T18:04:27Z</time>
      </trkpt>
      <trkpt lat="47.65088" lon="-3.43458">
        <ele>0.62</ele>
        <time>2016-04-30T18:04:40Z</time>
      </trkpt>
      <trkpt lat="47.65085" lon="-3.43468">
        <ele>0.62</ele>
        <time>2016-04-30T18:04:45Z</time>
      </trkpt>
      <trkpt lat="47.65076" lon="-3.4349">
        <ele>0.62</ele>
        <time>2016-04-30T18:04:57Z</time>
      </trkpt>
      <trkpt lat="47.6507" lon="-3.43515">
        <ele>0.14</ele>
        <time>2016-04-30T18:05:10Z</time>
      </trkpt>
      <trkpt lat="47.6507" lon="-3.43516">
        <ele>0.14</ele>
        <time>2016-04-30T18:05:11Z</time>
      </trkpt>
      <trkpt lat="47.65066" lon="-3.43522">
        <ele>0.14</ele>
        <time>2016-04-30T18:05:16Z</time>
      </trkpt>
      <trkpt lat="47.65068" lon="-3.43526">
        <ele>-0.82</ele>
        <time>2016-04-30T18:05:26Z</time>
      </trkpt>
      <trkpt lat="47.65072" lon="-3.43517">
        <ele>-0.82</ele>
        <time>2016-04-30T18:05:31Z</time>
      </trkpt>
      <trkpt lat="47.6509" lon="-3.43484">
        <ele>-0.82</ele>
        <time>2016-04-30T18:05:46Z</time>
      </trkpt>
      <trkpt lat="47.65097" lon="-3.43478">
        <ele>-0.82</ele>
        <time>2016-04-30T18:05:52Z</time>
      </trkpt>
      <trkpt lat="47.65113" lon="-3.43456">
        <ele>-0.34</ele>
        <time>2016-04-30T18:06:05Z</time>
      </trkpt>
      <trkpt lat="47.65116" lon="-3.43455">
        <ele>-1.3</ele>
        <time>2016-04-30T18:06:08Z</time>
      </trkpt>
      <trkpt lat="47.65118" lon="-3.43455">
        <ele>-1.79</ele>
        <time>2016-04-30T18:06:10Z</time>
      </trkpt>
      <trkpt lat="47.65122" lon="-3.43453">
        <ele>-1.79</ele>
        <time>2016-04-30T18:06:15Z</time>
      </trkpt>
      <trkpt lat="47.65129" lon="-3.43458">
        <ele>-0.34</ele>
        <time>2016-04-30T18:06:24Z</time>
      </trkpt>
      <trkpt lat="47.65133" lon="-3.43467">
        <ele>-0.34</ele>
        <time>2016-04-30T18:06:39Z</time>
      </trkpt>
      <trkpt lat="47.65136" lon="-3.43468">
        <ele>-0.82</ele>
        <time>2016-04-30T18:06:43Z</time>
      </trkpt>
      <trkpt lat="47.65152" lon="-3.43471">
        <ele>-0.34</ele>
        <time>2016-04-30T18:06:58Z</time>
      </trkpt>
      <trkpt lat="47.65166" lon="-3.43487">
        <ele>0.14</ele>
        <time>2016-04-30T18:07:13Z</time>
      </trkpt>
      <trkpt lat="47.65172" lon="-3.43493">
        <ele>0.62</ele>
        <time>2016-04-30T18:07:19Z</time>
      </trkpt>
      <trkpt lat="47.6518" lon="-3.43514">
        <ele>0.14</ele>
        <time>2016-04-30T18:07:33Z</time>
      </trkpt>
      <trkpt lat="47.65181" lon="-3.43515">
        <ele>0.14</ele>
        <time>2016-04-30T18:07:34Z</time>
      </trkpt>
      <trkpt lat="47.65181" lon="-3.4352">
        <ele>0.14</ele>
        <time>2016-04-30T18:07:37Z</time>
      </trkpt>
      <trkpt lat="47.65185" lon="-3.43541">
        <ele>-1.3</ele>
        <time>2016-04-30T18:07:51Z</time>
      </trkpt>
      <trkpt lat="47.65181" lon="-3.43546">
        <ele>-1.79</ele>
        <time>2016-04-30T18:07:55Z</time>
      </trkpt>
      <trkpt lat="47.65162" lon="-3.43575">
        <ele>-1.79</ele>
        <time>2016-04-30T18:08:11Z</time>
      </trkpt>
      <trkpt lat="47.65149" lon="-3.43614">
        <ele>-1.3</ele>
        <time>2016-04-30T18:08:30Z</time>
      </trkpt>
      <trkpt lat="47.65142" lon="-3.43648">
        <ele>-0.82</ele>
        <time>2016-04-30T18:08:46Z</time>
      </trkpt>
      <trkpt lat="47.65133" lon="-3.43683">
        <ele>-0.34</ele>
        <time>2016-04-30T18:09:03Z</time>
      </trkpt>
      <trkpt lat="47.65117" lon="-3.43718">
        <ele>-0.34</ele>
        <time>2016-04-30T18:09:21Z</time>
      </trkpt>
      <trkpt lat="47.65102" lon="-3.43744">
        <ele>-0.34</ele>
        <time>2016-04-30T18:09:35Z</time>
      </trkpt>
      <trkpt lat="47.65092" lon="-3.43765">
        <ele>-0.34</ele>
        <time>2016-04-30T18:09:45Z</time>
      </trkpt>
      <trkpt lat="47.65087" lon="-3.43775">
        <ele>-0.82</ele>
        <time>2016-04-30T18:09:50Z</time>
      </trkpt>
      <trkpt lat="47.65067" lon="-3.43806">
        <ele>-0.34</ele>
        <time>2016-04-30T18:10:06Z</time>
      </trkpt>
      <trkpt lat="47.65054" lon="-3.43831">
        <ele>-1.3</ele>
        <time>2016-04-30T18:10:18Z</time>
      </trkpt>
      <trkpt lat="47.65033" lon="-3.43855">
        <ele>-0.82</ele>
        <time>2016-04-30T18:10:32Z</time>
      </trkpt>
      <trkpt lat="47.65024" lon="-3.43858">
        <ele>-0.34</ele>
        <time>2016-04-30T18:10:36Z</time>
      </trkpt>
      <trkpt lat="47.65008" lon="-3.4387">
        <ele>0.14</ele>
        <time>2016-04-30T18:10:45Z</time>
      </trkpt>
      <trkpt lat="47.64991" lon="-3.43885">
        <ele>0.62</ele>
        <time>2016-04-30T18:10:55Z</time>
      </trkpt>
      <trkpt lat="47.64982" lon="-3.43893">
        <ele>1.1</ele>
        <time>2016-04-30T18:11:00Z</time>
      </trkpt>
      <trkpt lat="47.64948" lon="-3.43917">
        <ele>1.58</ele>
        <time>2016-04-30T18:11:19Z</time>
      </trkpt>
      <trkpt lat="47.64921" lon="-3.43943">
        <ele>1.1</ele>
        <time>2016-04-30T18:11:36Z</time>
      </trkpt>
      <trkpt lat="47.649" lon="-3.43975">
        <ele>0.62</ele>
        <time>2016-04-30T18:11:52Z</time>
      </trkpt>
      <trkpt lat="47.64878" lon="-3.44001">
        <ele>0.62</ele>
        <time>2016-04-30T18:12:07Z</time>
      </trkpt>
      <trkpt lat="47.64857" lon="-3.44028">
        <ele>0.62</ele>
        <time>2016-04-30T18:12:22Z</time>
      </trkpt>
      <trkpt lat="47.64836" lon="-3.44045">
        <ele>0.62</ele>
        <time>2016-04-30T18:12:34Z</time>
      </trkpt>
      <trkpt lat="47.64808" lon="-3.44074">
        <ele>0.62</ele>
        <time>2016-04-30T18:12:51Z</time>
      </trkpt>
      <trkpt lat="47.6478" lon="-3.44107">
        <ele>1.1</ele>
        <time>2016-04-30T18:13:09Z</time>
      </trkpt>
      <trkpt lat="47.64753" lon="-3.44133">
        <ele>1.1</ele>
        <time>2016-04-30T18:13:26Z</time>
      </trkpt>
      <trkpt lat="47.64727" lon="-3.44161">
        <ele>-0.34</ele>
        <time>2016-04-30T18:13:42Z</time>
      </trkpt>
      <trkpt lat="47.64702" lon="-3.44186">
        <ele>-0.34</ele>
        <time>2016-04-30T18:13:57Z</time>
      </trkpt>
      <trkpt lat="47.64674" lon="-3.44214">
        <ele>-0.34</ele>
        <time>2016-04-30T18:14:14Z</time>
      </trkpt>
      <trkpt lat="47.64651" lon="-3.44245">
        <ele>0.14</ele>
        <time>2016-04-30T18:14:30Z</time>
      </trkpt>
      <trkpt lat="47.64629" lon="-3.44272">
        <ele>-0.34</ele>
        <time>2016-04-30T18:14:45Z</time>
      </trkpt>
      <trkpt lat="47.64604" lon="-3.44304">
        <ele>-0.34</ele>
        <time>2016-04-30T18:15:03Z</time>
      </trkpt>
      <trkpt lat="47.64582" lon="-3.4434">
        <ele>0.14</ele>
        <time>2016-04-30T18:15:20Z</time>
      </trkpt>
      <trkpt lat="47.64559" lon="-3.44385">
        <ele>0.62</ele>
        <time>2016-04-30T18:15:41Z</time>
      </trkpt>
      <trkpt lat="47.64543" lon="-3.44429">
        <ele>1.1</ele>
        <time>2016-04-30T18:15:59Z</time>
      </trkpt>
      <trkpt lat="47.64533" lon="-3.4446">
        <ele>1.1</ele>
        <time>2016-04-30T18:16:11Z</time>
      </trkpt>
      <trkpt lat="47.64528" lon="-3.445">
        <ele>1.58</ele>
        <time>2016-04-30T18:16:26Z</time>
      </trkpt>
      <trkpt lat="47.64521" lon="-3.44552">
        <ele>-0.82</ele>
        <time>2016-04-30T18:16:43Z</time>
      </trkpt>
      <trkpt lat="47.64514" lon="-3.44588">
        <ele>-1.3</ele>
        <time>2016-04-30T18:16:58Z</time>
      </trkpt>
      <trkpt lat="47.64507" lon="-3.44608">
        <ele>-1.3</ele>
        <time>2016-04-30T18:17:11Z</time>
      </trkpt>
      <trkpt lat="47.64502" lon="-3.44623">
        <ele>-1.79</ele>
        <time>2016-04-30T18:17:19Z</time>
      </trkpt>
      <trkpt lat="47.64485" lon="-3.44677">
        <ele>-2.27</ele>
        <time>2016-04-30T18:17:49Z</time>
      </trkpt>
      <trkpt lat="47.64471" lon="-3.44685">
        <ele>-2.75</ele>
        <time>2016-04-30T18:18:14Z</time>
      </trkpt>
      <trkpt lat="47.64467" lon="-3.44676">
        <ele>-2.75</ele>
        <time>2016-04-30T18:18:23Z</time>
      </trkpt>
      <trkpt lat="47.64456" lon="-3.4465">
        <ele>-2.75</ele>
        <time>2016-04-30T18:18:42Z</time>
      </trkpt>
      <trkpt lat="47.64443" lon="-3.44621">
        <ele>-0.82</ele>
        <time>2016-04-30T18:19:00Z</time>
      </trkpt>
      <trkpt lat="47.64438" lon="-3.44611">
        <ele>0.14</ele>
        <time>2016-04-30T18:19:07Z</time>
      </trkpt>
      <trkpt lat="47.64423" lon="-3.44594">
        <ele>-0.34</ele>
        <time>2016-04-30T18:19:25Z</time>
      </trkpt>
      <trkpt lat="47.64413" lon="-3.44576">
        <ele>-0.82</ele>
        <time>2016-04-30T18:19:38Z</time>
      </trkpt>
      <trkpt lat="47.64404" lon="-3.44562">
        <ele>-0.34</ele>
        <time>2016-04-30T18:19:55Z</time>
      </trkpt>
      <trkpt lat="47.64398" lon="-3.44553">
        <ele>-0.82</ele>
        <time>2016-04-30T18:20:10Z</time>
      </trkpt>
      <trkpt lat="47.64393" lon="-3.44552">
        <ele>-1.79</ele>
        <time>2016-04-30T18:20:23Z</time>
      </trkpt>
      <trkpt lat="47.64386" lon="-3.44553">
        <ele>-1.79</ele>
        <time>2016-04-30T18:20:39Z</time>
      </trkpt>
      <trkpt lat="47.64384" lon="-3.44557">
        <ele>-2.75</ele>
        <time>2016-04-30T18:20:59Z</time>
      </trkpt>
      <trkpt lat="47.64383" lon="-3.44562">
        <ele>-3.23</ele>
        <time>2016-04-30T18:21:14Z</time>
      </trkpt>
      <trkpt lat="47.64382" lon="-3.44567">
        <ele>-2.75</ele>
        <time>2016-04-30T18:21:28Z</time>
      </trkpt>
      <trkpt lat="47.64382" lon="-3.44569">
        <ele>-2.27</ele>
        <time>2016-04-30T18:21:43Z</time>
      </trkpt>
      <trkpt lat="47.64383" lon="-3.4457">
        <ele>-2.27</ele>
        <time>2016-04-30T18:21:55Z</time>
      </trkpt>
      <trkpt lat="47.64382" lon="-3.44571">
        <ele>-2.27</ele>
        <time>2016-04-30T18:22:17Z</time>
      </trkpt>
      <trkpt lat="47.64382" lon="-3.44572">
        <ele>-2.27</ele>
        <time>2016-04-30T18:22:28Z</time>
      </trkpt>
      <trkpt lat="47.64381" lon="-3.4457">
        <ele>-2.27</ele>
        <time>2016-04-30T18:22:47Z</time>
      </trkpt>
      <trkpt lat="47.64382" lon="-3.44572">
        <ele>-2.75</ele>
        <time>2016-04-30T18:23:00Z</time>
      </trkpt>
      <trkpt lat="47.64382" lon="-3.44572">
        <ele>-2.75</ele>
        <time>2016-04-30T18:23:13Z</time>
      </trkpt>
      <trkpt lat="47.64383" lon="-3.44572">
        <ele>-2.27</ele>
        <time>2016-04-30T18:23:24Z</time>
      </trkpt>
      <trkpt lat="47.64383" lon="-3.44573">
        <ele>-2.27</ele>
        <time>2016-04-30T18:23:38Z</time>
      </trkpt>
      <trkpt lat="47.64382" lon="-3.44572">
        <ele>-2.27</ele>
        <time>2016-04-30T18:23:51Z</time>
      </trkpt>
      <trkpt lat="47.64382" lon="-3.44571">
        <ele>-2.75</ele>
        <time>2016-04-30T18:24:04Z</time>
      </trkpt>
      <trkpt lat="47.64382" lon="-3.44571">
        <ele>-2.27</ele>
        <time>2016-04-30T18:24:23Z</time>
      </trkpt>
      <trkpt lat="47.64381" lon="-3.44571">
        <ele>-2.75</ele>
        <time>2016-04-30T18:24:40Z</time>
      </trkpt>
      <trkpt lat="47.6438" lon="-3.44571">
        <ele>-2.75</ele>
        <time>2016-04-30T18:24:53Z</time>
      </trkpt>
      <trkpt lat="47.6438" lon="-3.44573">
        <ele>-2.75</ele>
        <time>2016-04-30T18:25:07Z</time>
      </trkpt>
      <trkpt lat="47.6438" lon="-3.44574">
        <ele>-2.27</ele>
        <time>2016-04-30T18:25:25Z</time>
      </trkpt>
      <trkpt lat="47.6438" lon="-3.44572">
        <ele>-2.75</ele>
        <time>2016-04-30T18:25:42Z</time>
      </trkpt>
      <trkpt lat="47.64381" lon="-3.44572">
        <ele>-2.75</ele>
        <time>2016-04-30T18:25:57Z</time>
      </trkpt>
      <trkpt lat="47.64381" lon="-3.44572">
        <ele>-2.75</ele>
        <time>2016-04-30T18:26:17Z</time>
      </trkpt>
      <trkpt lat="47.64381" lon="-3.44572">
        <ele>-2.27</ele>
        <time>2016-04-30T18:26:32Z</time>
      </trkpt>
      <trkpt lat="47.64381" lon="-3.44572">
        <ele>-2.27</ele>
        <time>2016-04-30T18:26:47Z</time>
      </trkpt>
      <trkpt lat="47.64381" lon="-3.44571">
        <ele>-2.75</ele>
        <time>2016-04-30T18:27:08Z</time>
      </trkpt>
      <trkpt lat="47.64381" lon="-3.44571">
        <ele>-2.27</ele>
        <time>2016-04-30T18:27:31Z</time>
      </trkpt>
      <trkpt lat="47.64381" lon="-3.4457">
        <ele>-2.75</ele>
        <time>2016-04-30T18:27:52Z</time>
      </trkpt>
      <trkpt lat="47.64381" lon="-3.4457">
        <ele>-2.27</ele>
        <time>2016-04-30T18:28:04Z</time>
      </trkpt>
      <trkpt lat="47.64381" lon="-3.44574">
        <ele>0.62</ele>
        <time>2016-04-30T19:23:58Z</time>
      </trkpt>
      <trkpt lat="47.64383" lon="-3.44576">
        <ele>3.02</ele>
        <time>2016-04-30T19:24:15Z</time>
      </trkpt>
      <trkpt lat="47.6438" lon="-3.44573">
        <ele>2.54</ele>
        <time>2016-04-30T19:24:26Z</time>
      </trkpt>
      <trkpt lat="47.64381" lon="-3.44574">
        <ele>1.58</ele>
        <time>2016-04-30T19:24:42Z</time>
      </trkpt>
      <trkpt lat="47.64381" lon="-3.44579">
        <ele>2.06</ele>
        <time>2016-04-30T19:25:00Z</time>
      </trkpt>
    </trkseg>
  </trk>
  <trk>
    <name><![CDATA[Tracé actuel: 30 AVR 2016 21:25]]></name>
    <trkseg>
      <trkpt lat="47.6438" lon="-3.44579">
        <ele>1.1</ele>
        <time>2016-04-30T19:25:06Z</time>
      </trkpt>
      <trkpt lat="47.64378" lon="-3.44571">
        <ele>1.1</ele>
        <time>2016-04-30T19:25:30Z</time>
      </trkpt>
      <trkpt lat="47.64379" lon="-3.4457">
        <ele>4.46</ele>
        <time>2016-04-30T19:25:57Z</time>
      </trkpt>
      <trkpt lat="47.64379" lon="-3.44571">
        <ele>2.54</ele>
        <time>2016-04-30T19:26:24Z</time>
      </trkpt>
      <trkpt lat="47.6438" lon="-3.44579">
        <ele>2.06</ele>
        <time>2016-04-30T19:26:41Z</time>
      </trkpt>
      <trkpt lat="47.64375" lon="-3.44586">
        <ele>3.98</ele>
        <time>2016-04-30T19:26:55Z</time>
      </trkpt>
      <trkpt lat="47.64375" lon="-3.44586">
        <ele>3.02</ele>
        <time>2016-04-30T19:27:13Z</time>
      </trkpt>
      <trkpt lat="47.64373" lon="-3.44588">
        <ele>2.06</ele>
        <time>2016-04-30T19:27:22Z</time>
      </trkpt>
      <trkpt lat="47.6437" lon="-3.44598">
        <ele>0.62</ele>
        <time>2016-04-30T19:27:36Z</time>
      </trkpt>
      <trkpt lat="47.64364" lon="-3.44605">
        <ele>0.62</ele>
        <time>2016-04-30T19:27:46Z</time>
      </trkpt>
      <trkpt lat="47.64358" lon="-3.44612">
        <ele>2.06</ele>
        <time>2016-04-30T19:27:58Z</time>
      </trkpt>
      <trkpt lat="47.64344" lon="-3.44627">
        <ele>0.62</ele>
        <time>2016-04-30T19:28:09Z</time>
      </trkpt>
      <trkpt lat="47.64329" lon="-3.44633">
        <ele>-0.34</ele>
        <time>2016-04-30T19:28:23Z</time>
      </trkpt>
      <trkpt lat="47.64327" lon="-3.44634">
        <ele>-0.34</ele>
        <time>2016-04-30T19:28:25Z</time>
      </trkpt>
      <trkpt lat="47.64322" lon="-3.44636">
        <ele>0.14</ele>
        <time>2016-04-30T19:28:37Z</time>
      </trkpt>
      <trkpt lat="47.64321" lon="-3.44635">
        <ele>0.62</ele>
        <time>2016-04-30T19:28:54Z</time>
      </trkpt>
      <trkpt lat="47.6432" lon="-3.44635">
        <ele>1.1</ele>
        <time>2016-04-30T19:29:12Z</time>
      </trkpt>
      <trkpt lat="47.6432" lon="-3.44635">
        <ele>1.58</ele>
        <time>2016-04-30T19:29:29Z</time>
      </trkpt>
      <trkpt lat="47.64319" lon="-3.44635">
        <ele>1.58</ele>
        <time>2016-04-30T19:29:43Z</time>
      </trkpt>
      <trkpt lat="47.6432" lon="-3.44635">
        <ele>2.06</ele>
        <time>2016-04-30T19:30:01Z</time>
      </trkpt>
      <trkpt lat="47.64319" lon="-3.44634">
        <ele>2.06</ele>
        <time>2016-04-30T19:30:18Z</time>
      </trkpt>
      <trkpt lat="47.6432" lon="-3.44634">
        <ele>2.06</ele>
        <time>2016-04-30T19:30:46Z</time>
      </trkpt>
      <trkpt lat="47.6432" lon="-3.44634">
        <ele>2.06</ele>
        <time>2016-04-30T19:31:10Z</time>
      </trkpt>
      <trkpt lat="47.6432" lon="-3.44634">
        <ele>2.06</ele>
        <time>2016-04-30T19:31:22Z</time>
      </trkpt>
      <trkpt lat="47.64321" lon="-3.44635">
        <ele>2.06</ele>
        <time>2016-04-30T19:31:34Z</time>
      </trkpt>
      <trkpt lat="47.64323" lon="-3.44639">
        <ele>2.06</ele>
        <time>2016-04-30T19:31:38Z</time>
      </trkpt>
      <trkpt lat="47.64316" lon="-3.44662">
        <ele>0.14</ele>
        <time>2016-04-30T19:31:54Z</time>
      </trkpt>
      <trkpt lat="47.64309" lon="-3.44683">
        <ele>1.1</ele>
        <time>2016-04-30T19:32:07Z</time>
      </trkpt>
      <trkpt lat="47.64308" lon="-3.44687">
        <ele>-0.34</ele>
        <time>2016-04-30T19:32:11Z</time>
      </trkpt>
      <trkpt lat="47.643" lon="-3.44708">
        <ele>-2.75</ele>
        <time>2016-04-30T19:32:25Z</time>
      </trkpt>
      <trkpt lat="47.64292" lon="-3.44731">
        <ele>-2.75</ele>
        <time>2016-04-30T19:32:40Z</time>
      </trkpt>
      <trkpt lat="47.64286" lon="-3.44747">
        <ele>-3.23</ele>
        <time>2016-04-30T19:32:50Z</time>
      </trkpt>
      <trkpt lat="47.64286" lon="-3.44759">
        <ele>-1.79</ele>
        <time>2016-04-30T19:32:58Z</time>
      </trkpt>
      <trkpt lat="47.64298" lon="-3.44783">
        <ele>1.1</ele>
        <time>2016-04-30T19:33:14Z</time>
      </trkpt>
      <trkpt lat="47.643" lon="-3.4479">
        <ele>1.1</ele>
        <time>2016-04-30T19:33:18Z</time>
      </trkpt>
      <trkpt lat="47.6431" lon="-3.44799">
        <ele>0.62</ele>
        <time>2016-04-30T19:33:33Z</time>
      </trkpt>
      <trkpt lat="47.64307" lon="-3.44797">
        <ele>0.62</ele>
        <time>2016-04-30T19:33:37Z</time>
      </trkpt>
      <trkpt lat="47.64295" lon="-3.4479">
        <ele>1.1</ele>
        <time>2016-04-30T19:33:50Z</time>
      </trkpt>
      <trkpt lat="47.64285" lon="-3.44799">
        <ele>2.06</ele>
        <time>2016-04-30T19:34:04Z</time>
      </trkpt>
      <trkpt lat="47.64284" lon="-3.448">
        <ele>2.06</ele>
        <time>2016-04-30T19:34:05Z</time>
      </trkpt>
      <trkpt lat="47.6428" lon="-3.44803">
        <ele>3.02</ele>
        <time>2016-04-30T19:34:10Z</time>
      </trkpt>
      <trkpt lat="47.64269" lon="-3.44816">
        <ele>4.94</ele>
        <time>2016-04-30T19:34:24Z</time>
      </trkpt>
      <trkpt lat="47.64263" lon="-3.44823">
        <ele>5.91</ele>
        <time>2016-04-30T19:34:31Z</time>
      </trkpt>
      <trkpt lat="47.64256" lon="-3.44834">
        <ele>8.79</ele>
        <time>2016-04-30T19:34:44Z</time>
      </trkpt>
      <trkpt lat="47.64259" lon="-3.44842">
        <ele>5.91</ele>
        <time>2016-04-30T19:34:56Z</time>
      </trkpt>
      <trkpt lat="47.64256" lon="-3.44857">
        <ele>5.91</ele>
        <time>2016-04-30T19:35:09Z</time>
      </trkpt>
      <trkpt lat="47.6425" lon="-3.44861">
        <ele>19.36</ele>
        <time>2016-04-30T19:35:53Z</time>
      </trkpt>
      <trkpt lat="47.64246" lon="-3.44883">
        <ele>15.52</ele>
        <time>2016-04-30T19:36:08Z</time>
      </trkpt>
      <trkpt lat="47.64248" lon="-3.44882">
        <ele>17.44</ele>
        <time>2016-04-30T19:36:13Z</time>
      </trkpt>
      <trkpt lat="47.64254" lon="-3.44853">
        <ele>18.4</ele>
        <time>2016-04-30T19:36:33Z</time>
      </trkpt>
      <trkpt lat="47.64254" lon="-3.44852">
        <ele>17.44</ele>
        <time>2016-04-30T19:36:46Z</time>
      </trkpt>
      <trkpt lat="47.64256" lon="-3.4484">
        <ele>18.4</ele>
        <time>2016-04-30T19:36:54Z</time>
      </trkpt>
      <trkpt lat="47.6425" lon="-3.44834">
        <ele>16.96</ele>
        <time>2016-04-30T19:37:01Z</time>
      </trkpt>
      <trkpt lat="47.64236" lon="-3.44832">
        <ele>16</ele>
        <time>2016-04-30T19:37:18Z</time>
      </trkpt>
      <trkpt lat="47.64242" lon="-3.44832">
        <ele>14.56</ele>
        <time>2016-04-30T19:37:25Z</time>
      </trkpt>
      <trkpt lat="47.64253" lon="-3.44837">
        <ele>11.67</ele>
        <time>2016-04-30T19:37:41Z</time>
      </trkpt>
      <trkpt lat="47.64254" lon="-3.44839">
        <ele>11.19</ele>
        <time>2016-04-30T19:37:53Z</time>
      </trkpt>
      <trkpt lat="47.64253" lon="-3.44841">
        <ele>12.15</ele>
        <time>2016-04-30T19:38:05Z</time>
      </trkpt>
      <trkpt lat="47.64251" lon="-3.44842">
        <ele>10.71</ele>
        <time>2016-04-30T19:38:22Z</time>
      </trkpt>
      <trkpt lat="47.64249" lon="-3.44846">
        <ele>8.31</ele>
        <time>2016-04-30T19:38:37Z</time>
      </trkpt>
      <trkpt lat="47.64248" lon="-3.44845">
        <ele>7.83</ele>
        <time>2016-04-30T19:39:03Z</time>
      </trkpt>
      <trkpt lat="47.64244" lon="-3.44843">
        <ele>7.35</ele>
        <time>2016-04-30T19:39:28Z</time>
      </trkpt>
      <trkpt lat="47.64244" lon="-3.44848">
        <ele>3.5</ele>
        <time>2016-04-30T19:40:02Z</time>
      </trkpt>
      <trkpt lat="47.64247" lon="-3.44848">
        <ele>3.98</ele>
        <time>2016-04-30T19:40:35Z</time>
      </trkpt>
      <trkpt lat="47.64248" lon="-3.44849">
        <ele>4.46</ele>
        <time>2016-04-30T19:41:02Z</time>
      </trkpt>
      <trkpt lat="47.64251" lon="-3.44848">
        <ele>5.91</ele>
        <time>2016-04-30T19:41:29Z</time>
      </trkpt>
      <trkpt lat="47.64252" lon="-3.44848">
        <ele>5.91</ele>
        <time>2016-04-30T19:41:58Z</time>
      </trkpt>
      <trkpt lat="47.64251" lon="-3.44851">
        <ele>5.91</ele>
        <time>2016-04-30T19:42:28Z</time>
      </trkpt>
      <trkpt lat="47.64254" lon="-3.44853">
        <ele>7.83</ele>
        <time>2016-04-30T19:42:55Z</time>
      </trkpt>
      <trkpt lat="47.64255" lon="-3.44855">
        <ele>9.27</ele>
        <time>2016-04-30T19:43:38Z</time>
      </trkpt>
      <trkpt lat="47.64254" lon="-3.44853">
        <ele>10.23</ele>
        <time>2016-04-30T19:44:08Z</time>
      </trkpt>
      <trkpt lat="47.64254" lon="-3.44852">
        <ele>11.67</ele>
        <time>2016-04-30T19:44:40Z</time>
      </trkpt>
      <trkpt lat="47.64251" lon="-3.44851">
        <ele>12.63</ele>
        <time>2016-04-30T19:45:12Z</time>
      </trkpt>
      <trkpt lat="47.64251" lon="-3.44851">
        <ele>13.12</ele>
        <time>2016-04-30T19:45:44Z</time>
      </trkpt>
      <trkpt lat="47.64251" lon="-3.44852">
        <ele>13.12</ele>
        <time>2016-04-30T19:46:15Z</time>
      </trkpt>
      <trkpt lat="47.64248" lon="-3.44849">
        <ele>11.67</ele>
        <time>2016-04-30T19:46:40Z</time>
      </trkpt>
      <trkpt lat="47.64248" lon="-3.4485">
        <ele>11.19</ele>
        <time>2016-04-30T19:47:10Z</time>
      </trkpt>
      <trkpt lat="47.64258" lon="-3.44842">
        <ele>9.27</ele>
        <time>2016-04-30T19:47:49Z</time>
      </trkpt>
      <trkpt lat="47.64255" lon="-3.44851">
        <ele>14.56</ele>
        <time>2016-04-30T19:48:23Z</time>
      </trkpt>
      <trkpt lat="47.64256" lon="-3.44851">
        <ele>17.92</ele>
        <time>2016-04-30T19:48:54Z</time>
      </trkpt>
      <trkpt lat="47.64255" lon="-3.44855">
        <ele>16</ele>
        <time>2016-04-30T19:49:22Z</time>
      </trkpt>
      <trkpt lat="47.64247" lon="-3.44863">
        <ele>15.04</ele>
        <time>2016-04-30T19:49:48Z</time>
      </trkpt>
      <trkpt lat="47.64248" lon="-3.44856">
        <ele>12.15</ele>
        <time>2016-04-30T19:50:15Z</time>
      </trkpt>
      <trkpt lat="47.64248" lon="-3.44858">
        <ele>12.15</ele>
        <time>2016-04-30T19:50:43Z</time>
      </trkpt>
      <trkpt lat="47.64261" lon="-3.44859">
        <ele>13.6</ele>
        <time>2016-04-30T19:51:34Z</time>
      </trkpt>
      <trkpt lat="47.64264" lon="-3.44847">
        <ele>14.56</ele>
        <time>2016-04-30T19:52:00Z</time>
      </trkpt>
      <trkpt lat="47.64255" lon="-3.44842">
        <ele>12.63</ele>
        <time>2016-04-30T19:52:25Z</time>
      </trkpt>
      <trkpt lat="47.64256" lon="-3.44843">
        <ele>12.15</ele>
        <time>2016-04-30T19:52:29Z</time>
      </trkpt>
      <trkpt lat="47.64256" lon="-3.44832">
        <ele>10.71</ele>
        <time>2016-04-30T19:52:56Z</time>
      </trkpt>
      <trkpt lat="47.64256" lon="-3.44854">
        <ele>12.15</ele>
        <time>2016-04-30T19:53:17Z</time>
      </trkpt>
      <trkpt lat="47.64255" lon="-3.44851">
        <ele>10.71</ele>
        <time>2016-04-30T19:53:39Z</time>
      </trkpt>
      <trkpt lat="47.64258" lon="-3.44844">
        <ele>9.27</ele>
        <time>2016-04-30T19:54:05Z</time>
      </trkpt>
      <trkpt lat="47.64255" lon="-3.44844">
        <ele>8.31</ele>
        <time>2016-04-30T19:54:17Z</time>
      </trkpt>
      <trkpt lat="47.64248" lon="-3.44853">
        <ele>7.83</ele>
        <time>2016-04-30T19:55:19Z</time>
      </trkpt>
      <trkpt lat="47.64245" lon="-3.44855">
        <ele>5.42</ele>
        <time>2016-04-30T19:55:43Z</time>
      </trkpt>
      <trkpt lat="47.64238" lon="-3.44857">
        <ele>4.46</ele>
        <time>2016-04-30T19:56:09Z</time>
      </trkpt>
      <trkpt lat="47.64232" lon="-3.44852">
        <ele>4.46</ele>
        <time>2016-04-30T19:56:36Z</time>
      </trkpt>
      <trkpt lat="47.64235" lon="-3.44852">
        <ele>4.46</ele>
        <time>2016-04-30T19:56:39Z</time>
      </trkpt>
      <trkpt lat="47.64254" lon="-3.44858">
        <ele>3.5</ele>
        <time>2016-04-30T19:57:17Z</time>
      </trkpt>
      <trkpt lat="47.64254" lon="-3.44852">
        <ele>3.98</ele>
        <time>2016-04-30T19:57:43Z</time>
      </trkpt>
      <trkpt lat="47.64246" lon="-3.44856">
        <ele>6.87</ele>
        <time>2016-04-30T19:58:05Z</time>
      </trkpt>
      <trkpt lat="47.64248" lon="-3.44852">
        <ele>7.35</ele>
        <time>2016-04-30T19:58:31Z</time>
      </trkpt>
      <trkpt lat="47.64248" lon="-3.44852">
        <ele>7.35</ele>
        <time>2016-04-30T19:58:59Z</time>
      </trkpt>
      <trkpt lat="47.64252" lon="-3.4485">
        <ele>8.31</ele>
        <time>2016-04-30T20:00:23Z</time>
      </trkpt>
      <trkpt lat="47.64255" lon="-3.44848">
        <ele>2.06</ele>
        <time>2016-04-30T20:00:49Z</time>
      </trkpt>
      <trkpt lat="47.64258" lon="-3.44839">
        <ele>0.62</ele>
        <time>2016-04-30T20:01:18Z</time>
      </trkpt>
      <trkpt lat="47.64252" lon="-3.44846">
        <ele>11.19</ele>
        <time>2016-04-30T20:01:45Z</time>
      </trkpt>
      <trkpt lat="47.64247" lon="-3.44857">
        <ele>10.23</ele>
        <time>2016-04-30T20:02:01Z</time>
      </trkpt>
      <trkpt lat="47.64245" lon="-3.44852">
        <ele>4.94</ele>
        <time>2016-04-30T20:02:24Z</time>
      </trkpt>
      <trkpt lat="47.6424" lon="-3.44849">
        <ele>-1.3</ele>
        <time>2016-04-30T20:02:46Z</time>
      </trkpt>
      <trkpt lat="47.64241" lon="-3.44861">
        <ele>-0.82</ele>
        <time>2016-04-30T20:03:09Z</time>
      </trkpt>
      <trkpt lat="47.64237" lon="-3.44858">
        <ele>2.54</ele>
        <time>2016-04-30T20:03:34Z</time>
      </trkpt>
      <trkpt lat="47.6424" lon="-3.44856">
        <ele>3.02</ele>
        <time>2016-04-30T20:04:04Z</time>
      </trkpt>
      <trkpt lat="47.64241" lon="-3.44853">
        <ele>3.02</ele>
        <time>2016-04-30T20:04:41Z</time>
      </trkpt>
      <trkpt lat="47.64238" lon="-3.44851">
        <ele>2.54</ele>
        <time>2016-04-30T20:04:48Z</time>
      </trkpt>
      <trkpt lat="47.64248" lon="-3.44847">
        <ele>3.02</ele>
        <time>2016-04-30T20:05:08Z</time>
      </trkpt>
      <trkpt lat="47.64249" lon="-3.44848">
        <ele>3.5</ele>
        <time>2016-04-30T20:05:38Z</time>
      </trkpt>
      <trkpt lat="47.64249" lon="-3.44849">
        <ele>3.98</ele>
        <time>2016-04-30T20:06:08Z</time>
      </trkpt>
      <trkpt lat="47.6424" lon="-3.44873">
        <ele>5.91</ele>
        <time>2016-04-30T20:06:34Z</time>
      </trkpt>
      <trkpt lat="47.64242" lon="-3.44867">
        <ele>5.91</ele>
        <time>2016-04-30T20:07:00Z</time>
      </trkpt>
      <trkpt lat="47.64248" lon="-3.4486">
        <ele>5.91</ele>
        <time>2016-04-30T20:07:18Z</time>
      </trkpt>
      <trkpt lat="47.64248" lon="-3.4486">
        <ele>7.35</ele>
        <time>2016-04-30T20:07:37Z</time>
      </trkpt>
      <trkpt lat="47.64243" lon="-3.44859">
        <ele>8.79</ele>
        <time>2016-04-30T20:07:58Z</time>
      </trkpt>
      <trkpt lat="47.64237" lon="-3.44867">
        <ele>10.71</ele>
        <time>2016-04-30T20:08:06Z</time>
      </trkpt>
      <trkpt lat="47.64234" lon="-3.44865">
        <ele>9.27</ele>
        <time>2016-04-30T20:08:33Z</time>
      </trkpt>
      <trkpt lat="47.64244" lon="-3.44856">
        <ele>9.27</ele>
        <time>2016-04-30T20:08:55Z</time>
      </trkpt>
      <trkpt lat="47.64249" lon="-3.44851">
        <ele>9.27</ele>
        <time>2016-04-30T20:09:24Z</time>
      </trkpt>
      <trkpt lat="47.64247" lon="-3.4485">
        <ele>8.79</ele>
        <time>2016-04-30T20:09:51Z</time>
      </trkpt>
      <trkpt lat="47.64243" lon="-3.44848">
        <ele>7.83</ele>
        <time>2016-04-30T20:10:14Z</time>
      </trkpt>
      <trkpt lat="47.64244" lon="-3.4485">
        <ele>7.35</ele>
        <time>2016-04-30T20:10:45Z</time>
      </trkpt>
      <trkpt lat="47.64246" lon="-3.44848">
        <ele>8.31</ele>
        <time>2016-04-30T20:11:13Z</time>
      </trkpt>
      <trkpt lat="47.64246" lon="-3.44846">
        <ele>9.27</ele>
        <time>2016-04-30T20:11:24Z</time>
      </trkpt>
      <trkpt lat="47.64241" lon="-3.44848">
        <ele>9.27</ele>
        <time>2016-04-30T20:11:48Z</time>
      </trkpt>
      <trkpt lat="47.64242" lon="-3.44852">
        <ele>9.27</ele>
        <time>2016-04-30T20:12:17Z</time>
      </trkpt>
      <trkpt lat="47.64253" lon="-3.44856">
        <ele>11.19</ele>
        <time>2016-04-30T20:12:40Z</time>
      </trkpt>
      <trkpt lat="47.64254" lon="-3.44851">
        <ele>12.15</ele>
        <time>2016-04-30T20:13:08Z</time>
      </trkpt>
      <trkpt lat="47.64254" lon="-3.44851">
        <ele>13.6</ele>
        <time>2016-04-30T20:13:39Z</time>
      </trkpt>
      <trkpt lat="47.64254" lon="-3.44851">
        <ele>16</ele>
        <time>2016-04-30T20:14:09Z</time>
      </trkpt>
      <trkpt lat="47.64256" lon="-3.44848">
        <ele>15.52</ele>
        <time>2016-04-30T20:14:38Z</time>
      </trkpt>
      <trkpt lat="47.6426" lon="-3.44848">
        <ele>16.48</ele>
        <time>2016-04-30T20:15:10Z</time>
      </trkpt>
      <trkpt lat="47.64259" lon="-3.44847">
        <ele>16.48</ele>
        <time>2016-04-30T20:15:37Z</time>
      </trkpt>
      <trkpt lat="47.64258" lon="-3.44847">
        <ele>16.96</ele>
        <time>2016-04-30T20:16:12Z</time>
      </trkpt>
      <trkpt lat="47.64258" lon="-3.44849">
        <ele>16.96</ele>
        <time>2016-04-30T20:16:39Z</time>
      </trkpt>
      <trkpt lat="47.64252" lon="-3.4485">
        <ele>16.48</ele>
        <time>2016-04-30T20:17:04Z</time>
      </trkpt>
      <trkpt lat="47.64249" lon="-3.44848">
        <ele>16</ele>
        <time>2016-04-30T20:17:32Z</time>
      </trkpt>
      <trkpt lat="47.64255" lon="-3.44855">
        <ele>11.67</ele>
        <time>2016-04-30T20:17:53Z</time>
      </trkpt>
      <trkpt lat="47.64253" lon="-3.44853">
        <ele>11.67</ele>
        <time>2016-04-30T20:18:22Z</time>
      </trkpt>
      <trkpt lat="47.64248" lon="-3.44854">
        <ele>10.23</ele>
        <time>2016-04-30T20:18:52Z</time>
      </trkpt>
      <trkpt lat="47.64243" lon="-3.44851">
        <ele>8.79</ele>
        <time>2016-04-30T20:19:15Z</time>
      </trkpt>
      <trkpt lat="47.64244" lon="-3.44848">
        <ele>5.42</ele>
        <time>2016-04-30T20:19:34Z</time>
      </trkpt>
      <trkpt lat="47.6425" lon="-3.44848">
        <ele>7.83</ele>
        <time>2016-04-30T20:19:54Z</time>
      </trkpt>
      <trkpt lat="47.64256" lon="-3.44855">
        <ele>4.94</ele>
        <time>2016-04-30T20:20:15Z</time>
      </trkpt>
      <trkpt lat="47.64259" lon="-3.44851">
        <ele>3.98</ele>
        <time>2016-04-30T20:20:39Z</time>
      </trkpt>
      <trkpt lat="47.64259" lon="-3.44851">
        <ele>2.54</ele>
        <time>2016-04-30T20:21:02Z</time>
      </trkpt>
      <trkpt lat="47.64269" lon="-3.44851">
        <ele>3.02</ele>
        <time>2016-04-30T20:21:22Z</time>
      </trkpt>
      <trkpt lat="47.64249" lon="-3.44845">
        <ele>3.98</ele>
        <time>2016-04-30T20:21:43Z</time>
      </trkpt>
      <trkpt lat="47.64248" lon="-3.44843">
        <ele>3.5</ele>
        <time>2016-04-30T20:22:06Z</time>
      </trkpt>
      <trkpt lat="47.64249" lon="-3.44846">
        <ele>3.5</ele>
        <time>2016-04-30T20:22:30Z</time>
      </trkpt>
      <trkpt lat="47.64251" lon="-3.44846">
        <ele>5.42</ele>
        <time>2016-04-30T20:23:02Z</time>
      </trkpt>
      <trkpt lat="47.64253" lon="-3.44846">
        <ele>5.42</ele>
        <time>2016-04-30T20:23:15Z</time>
      </trkpt>
      <trkpt lat="47.64264" lon="-3.44839">
        <ele>7.35</ele>
        <time>2016-04-30T20:23:47Z</time>
      </trkpt>
      <trkpt lat="47.64257" lon="-3.44844">
        <ele>6.87</ele>
        <time>2016-04-30T20:24:16Z</time>
      </trkpt>
      <trkpt lat="47.64245" lon="-3.44846">
        <ele>7.35</ele>
        <time>2016-04-30T20:24:42Z</time>
      </trkpt>
      <trkpt lat="47.64246" lon="-3.44846">
        <ele>7.83</ele>
        <time>2016-04-30T20:25:07Z</time>
      </trkpt>
      <trkpt lat="47.64244" lon="-3.44842">
        <ele>7.35</ele>
        <time>2016-04-30T20:25:31Z</time>
      </trkpt>
      <trkpt lat="47.64246" lon="-3.44845">
        <ele>7.35</ele>
        <time>2016-04-30T20:25:56Z</time>
      </trkpt>
      <trkpt lat="47.64247" lon="-3.44845">
        <ele>7.35</ele>
        <time>2016-04-30T20:26:26Z</time>
      </trkpt>
      <trkpt lat="47.64248" lon="-3.44849">
        <ele>6.87</ele>
        <time>2016-04-30T20:26:51Z</time>
      </trkpt>
      <trkpt lat="47.64245" lon="-3.44848">
        <ele>6.39</ele>
        <time>2016-04-30T20:27:16Z</time>
      </trkpt>
      <trkpt lat="47.64227" lon="-3.44831">
        <ele>3.5</ele>
        <time>2016-04-30T20:27:44Z</time>
      </trkpt>
      <trkpt lat="47.64227" lon="-3.44836">
        <ele>3.5</ele>
        <time>2016-04-30T20:28:08Z</time>
      </trkpt>
      <trkpt lat="47.64247" lon="-3.44846">
        <ele>3.98</ele>
        <time>2016-04-30T20:28:35Z</time>
      </trkpt>
      <trkpt lat="47.64247" lon="-3.44853">
        <ele>6.39</ele>
        <time>2016-04-30T20:28:57Z</time>
      </trkpt>
      <trkpt lat="47.64254" lon="-3.44848">
        <ele>6.39</ele>
        <time>2016-04-30T20:29:21Z</time>
      </trkpt>
      <trkpt lat="47.64251" lon="-3.44846">
        <ele>6.87</ele>
        <time>2016-04-30T20:29:47Z</time>
      </trkpt>
      <trkpt lat="47.6425" lon="-3.44845">
        <ele>7.35</ele>
        <time>2016-04-30T20:30:15Z</time>
      </trkpt>
      <trkpt lat="47.6425" lon="-3.44846">
        <ele>7.35</ele>
        <time>2016-04-30T20:30:41Z</time>
      </trkpt>
      <trkpt lat="47.64251" lon="-3.44847">
        <ele>8.31</ele>
        <time>2016-04-30T20:31:12Z</time>
      </trkpt>
      <trkpt lat="47.6425" lon="-3.4485">
        <ele>8.31</ele>
        <time>2016-04-30T20:31:41Z</time>
      </trkpt>
      <trkpt lat="47.64248" lon="-3.44849">
        <ele>7.83</ele>
        <time>2016-04-30T20:32:15Z</time>
      </trkpt>
      <trkpt lat="47.64248" lon="-3.44848">
        <ele>8.31</ele>
        <time>2016-04-30T20:32:39Z</time>
      </trkpt>
      <trkpt lat="47.64247" lon="-3.4485">
        <ele>7.83</ele>
        <time>2016-04-30T20:33:06Z</time>
      </trkpt>
      <trkpt lat="47.64251" lon="-3.44848">
        <ele>7.83</ele>
        <time>2016-04-30T20:33:31Z</time>
      </trkpt>
      <trkpt lat="47.64246" lon="-3.44849">
        <ele>3.98</ele>
        <time>2016-04-30T20:33:52Z</time>
      </trkpt>
      <trkpt lat="47.64249" lon="-3.44848">
        <ele>4.46</ele>
        <time>2016-04-30T20:34:16Z</time>
      </trkpt>
      <trkpt lat="47.64247" lon="-3.44855">
        <ele>3.5</ele>
        <time>2016-04-30T20:34:41Z</time>
      </trkpt>
      <trkpt lat="47.64245" lon="-3.4486">
        <ele>4.46</ele>
        <time>2016-04-30T20:35:01Z</time>
      </trkpt>
      <trkpt lat="47.64238" lon="-3.44872">
        <ele>3.98</ele>
        <time>2016-04-30T20:35:22Z</time>
      </trkpt>
      <trkpt lat="47.64242" lon="-3.44865">
        <ele>3.98</ele>
        <time>2016-04-30T20:35:51Z</time>
      </trkpt>
      <trkpt lat="47.64242" lon="-3.4487">
        <ele>4.46</ele>
        <time>2016-04-30T20:36:08Z</time>
      </trkpt>
      <trkpt lat="47.64243" lon="-3.44868">
        <ele>-1.3</ele>
        <time>2016-04-30T20:36:34Z</time>
      </trkpt>
      <trkpt lat="47.64231" lon="-3.44888">
        <ele>-1.79</ele>
        <time>2016-04-30T20:36:55Z</time>
      </trkpt>
      <trkpt lat="47.64225" lon="-3.44922">
        <ele>-1.79</ele>
        <time>2016-04-30T20:37:27Z</time>
      </trkpt>
      <trkpt lat="47.64236" lon="-3.44889">
        <ele>3.5</ele>
        <time>2016-04-30T20:37:51Z</time>
      </trkpt>
      <trkpt lat="47.64249" lon="-3.44861">
        <ele>4.46</ele>
        <time>2016-04-30T20:38:17Z</time>
      </trkpt>
      <trkpt lat="47.64248" lon="-3.44843">
        <ele>3.02</ele>
        <time>2016-04-30T20:38:40Z</time>
      </trkpt>
      <trkpt lat="47.64244" lon="-3.44846">
        <ele>2.06</ele>
        <time>2016-04-30T20:39:05Z</time>
      </trkpt>
      <trkpt lat="47.64246" lon="-3.44848">
        <ele>3.02</ele>
        <time>2016-04-30T20:39:27Z</time>
      </trkpt>
      <trkpt lat="47.64252" lon="-3.44848">
        <ele>7.35</ele>
        <time>2016-04-30T20:39:54Z</time>
      </trkpt>
      <trkpt lat="47.64252" lon="-3.44841">
        <ele>12.63</ele>
        <time>2016-04-30T20:40:14Z</time>
      </trkpt>
      <trkpt lat="47.64253" lon="-3.44842">
        <ele>16</ele>
        <time>2016-04-30T20:40:27Z</time>
      </trkpt>
      <trkpt lat="47.64253" lon="-3.44843">
        <ele>16.96</ele>
        <time>2016-04-30T20:40:47Z</time>
      </trkpt>
      <trkpt lat="47.64254" lon="-3.44843">
        <ele>17.44</ele>
        <time>2016-04-30T20:41:04Z</time>
      </trkpt>
      <trkpt lat="47.64254" lon="-3.44844">
        <ele>16.96</ele>
        <time>2016-04-30T20:41:20Z</time>
      </trkpt>
      <trkpt lat="47.64255" lon="-3.44844">
        <ele>17.44</ele>
        <time>2016-04-30T20:41:34Z</time>
      </trkpt>
      <trkpt lat="47.64255" lon="-3.44845">
        <ele>16.48</ele>
        <time>2016-04-30T20:41:55Z</time>
      </trkpt>
      <trkpt lat="47.64256" lon="-3.44844">
        <ele>16.96</ele>
        <time>2016-04-30T20:42:14Z</time>
      </trkpt>
      <trkpt lat="47.64257" lon="-3.44844">
        <ele>17.44</ele>
        <time>2016-04-30T20:42:37Z</time>
      </trkpt>
      <trkpt lat="47.64257" lon="-3.44844">
        <ele>18.4</ele>
        <time>2016-04-30T20:43:01Z</time>
      </trkpt>
      <trkpt lat="47.64258" lon="-3.44843">
        <ele>18.4</ele>
        <time>2016-04-30T20:43:25Z</time>
      </trkpt>
      <trkpt lat="47.64258" lon="-3.44843">
        <ele>18.4</ele>
        <time>2016-04-30T20:43:39Z</time>
      </trkpt>
      <trkpt lat="47.64258" lon="-3.44843">
        <ele>18.4</ele>
        <time>2016-04-30T20:43:53Z</time>
      </trkpt>
      <trkpt lat="47.64259" lon="-3.44843">
        <ele>18.4</ele>
        <time>2016-04-30T20:44:14Z</time>
      </trkpt>
      <trkpt lat="47.64259" lon="-3.44842">
        <ele>18.88</ele>
        <time>2016-04-30T20:44:33Z</time>
      </trkpt>
      <trkpt lat="47.64259" lon="-3.44842">
        <ele>19.36</ele>
        <time>2016-04-30T20:44:48Z</time>
      </trkpt>
      <trkpt lat="47.64259" lon="-3.44842">
        <ele>19.36</ele>
        <time>2016-04-30T20:45:01Z</time>
      </trkpt>
      <trkpt lat="47.64259" lon="-3.44842">
        <ele>19.36</ele>
        <time>2016-04-30T20:45:20Z</time>
      </trkpt>
      <trkpt lat="47.64258" lon="-3.44842">
        <ele>18.88</ele>
        <time>2016-04-30T20:45:35Z</time>
      </trkpt>
      <trkpt lat="47.64252" lon="-3.44846">
        <ele>16.48</ele>
        <time>2016-04-30T20:45:51Z</time>
      </trkpt>
      <trkpt lat="47.64251" lon="-3.44846">
        <ele>16</ele>
        <time>2016-04-30T20:46:20Z</time>
      </trkpt>
      <trkpt lat="47.64253" lon="-3.44843">
        <ele>14.08</ele>
        <time>2016-04-30T20:46:45Z</time>
      </trkpt>
      <trkpt lat="47.64251" lon="-3.44847">
        <ele>13.6</ele>
        <time>2016-04-30T20:47:11Z</time>
      </trkpt>
      <trkpt lat="47.64252" lon="-3.44847">
        <ele>13.6</ele>
        <time>2016-04-30T20:47:43Z</time>
      </trkpt>
      <trkpt lat="47.64253" lon="-3.44848">
        <ele>12.63</ele>
        <time>2016-04-30T20:48:11Z</time>
      </trkpt>
      <trkpt lat="47.64255" lon="-3.44844">
        <ele>12.15</ele>
        <time>2016-04-30T20:48:32Z</time>
      </trkpt>
      <trkpt lat="47.64253" lon="-3.44858">
        <ele>10.23</ele>
        <time>2016-04-30T20:48:51Z</time>
      </trkpt>
      <trkpt lat="47.64254" lon="-3.44852">
        <ele>11.67</ele>
        <time>2016-04-30T20:49:15Z</time>
      </trkpt>
      <trkpt lat="47.64252" lon="-3.44845">
        <ele>12.63</ele>
        <time>2016-04-30T20:49:37Z</time>
      </trkpt>
      <trkpt lat="47.64265" lon="-3.44841">
        <ele>11.67</ele>
        <time>2016-04-30T20:50:01Z</time>
      </trkpt>
      <trkpt lat="47.64253" lon="-3.44848">
        <ele>11.19</ele>
        <time>2016-04-30T20:50:24Z</time>
      </trkpt>
      <trkpt lat="47.64251" lon="-3.44846">
        <ele>10.23</ele>
        <time>2016-04-30T20:50:52Z</time>
      </trkpt>
      <trkpt lat="47.64243" lon="-3.44843">
        <ele>12.63</ele>
        <time>2016-04-30T20:51:16Z</time>
      </trkpt>
      <trkpt lat="47.64252" lon="-3.44842">
        <ele>11.19</ele>
        <time>2016-04-30T20:51:36Z</time>
      </trkpt>
      <trkpt lat="47.6425" lon="-3.44844">
        <ele>11.19</ele>
        <time>2016-04-30T20:52:05Z</time>
      </trkpt>
      <trkpt lat="47.64249" lon="-3.44845">
        <ele>9.75</ele>
        <time>2016-04-30T20:52:30Z</time>
      </trkpt>
      <trkpt lat="47.6425" lon="-3.44847">
        <ele>7.83</ele>
        <time>2016-04-30T20:52:54Z</time>
      </trkpt>
      <trkpt lat="47.6425" lon="-3.44845">
        <ele>8.31</ele>
        <time>2016-04-30T20:53:17Z</time>
      </trkpt>
      <trkpt lat="47.64251" lon="-3.44845">
        <ele>8.31</ele>
        <time>2016-04-30T20:53:42Z</time>
      </trkpt>
      <trkpt lat="47.64251" lon="-3.44847">
        <ele>8.79</ele>
        <time>2016-04-30T20:54:11Z</time>
      </trkpt>
      <trkpt lat="47.64251" lon="-3.44848">
        <ele>9.27</ele>
        <time>2016-04-30T20:54:47Z</time>
      </trkpt>
      <trkpt lat="47.6425" lon="-3.44848">
        <ele>9.75</ele>
        <time>2016-04-30T20:55:23Z</time>
      </trkpt>
      <trkpt lat="47.64252" lon="-3.4485">
        <ele>10.23</ele>
        <time>2016-04-30T20:55:49Z</time>
      </trkpt>
      <trkpt lat="47.64256" lon="-3.44861">
        <ele>7.35</ele>
        <time>2016-04-30T20:56:12Z</time>
      </trkpt>
      <trkpt lat="47.64251" lon="-3.44853">
        <ele>9.27</ele>
        <time>2016-04-30T20:56:44Z</time>
      </trkpt>
      <trkpt lat="47.6425" lon="-3.44851">
        <ele>10.23</ele>
        <time>2016-04-30T20:57:14Z</time>
      </trkpt>
      <trkpt lat="47.64249" lon="-3.44851">
        <ele>10.23</ele>
        <time>2016-04-30T20:57:42Z</time>
      </trkpt>
      <trkpt lat="47.6425" lon="-3.44849">
        <ele>9.27</ele>
        <time>2016-04-30T20:58:07Z</time>
      </trkpt>
      <trkpt lat="47.64249" lon="-3.44846">
        <ele>10.23</ele>
        <time>2016-04-30T20:58:21Z</time>
      </trkpt>
      <trkpt lat="47.64247" lon="-3.44846">
        <ele>10.71</ele>
        <time>2016-04-30T20:58:40Z</time>
      </trkpt>
      <trkpt lat="47.64247" lon="-3.44845">
        <ele>11.19</ele>
        <time>2016-04-30T20:59:00Z</time>
      </trkpt>
      <trkpt lat="47.64246" lon="-3.44844">
        <ele>12.15</ele>
        <time>2016-04-30T20:59:24Z</time>
      </trkpt>
      <trkpt lat="47.64246" lon="-3.44843">
        <ele>13.12</ele>
        <time>2016-04-30T20:59:52Z</time>
      </trkpt>
      <trkpt lat="47.64246" lon="-3.44843">
        <ele>13.6</ele>
        <time>2016-04-30T21:00:14Z</time>
      </trkpt>
      <trkpt lat="47.64246" lon="-3.44843">
        <ele>14.56</ele>
        <time>2016-04-30T21:00:43Z</time>
      </trkpt>
      <trkpt lat="47.64246" lon="-3.44842">
        <ele>14.56</ele>
        <time>2016-04-30T21:01:06Z</time>
      </trkpt>
      <trkpt lat="47.64246" lon="-3.44842">
        <ele>14.56</ele>
        <time>2016-04-30T21:01:34Z</time>
      </trkpt>
      <trkpt lat="47.64246" lon="-3.44842">
        <ele>15.04</ele>
        <time>2016-04-30T21:01:58Z</time>
      </trkpt>
      <trkpt lat="47.64246" lon="-3.44841">
        <ele>15.52</ele>
        <time>2016-04-30T21:02:20Z</time>
      </trkpt>
      <trkpt lat="47.64245" lon="-3.44841">
        <ele>15.52</ele>
        <time>2016-04-30T21:02:43Z</time>
      </trkpt>
      <trkpt lat="47.64245" lon="-3.44841">
        <ele>15.52</ele>
        <time>2016-04-30T21:03:08Z</time>
      </trkpt>
      <trkpt lat="47.64246" lon="-3.44841">
        <ele>15.52</ele>
        <time>2016-04-30T21:03:28Z</time>
      </trkpt>
      <trkpt lat="47.64246" lon="-3.4484">
        <ele>15.52</ele>
        <time>2016-04-30T21:03:55Z</time>
      </trkpt>
      <trkpt lat="47.64246" lon="-3.4484">
        <ele>16</ele>
        <time>2016-04-30T21:04:12Z</time>
      </trkpt>
      <trkpt lat="47.64246" lon="-3.4484">
        <ele>16.48</ele>
        <time>2016-04-30T21:04:34Z</time>
      </trkpt>
      <trkpt lat="47.64246" lon="-3.44839">
        <ele>16.96</ele>
        <time>2016-04-30T21:05:00Z</time>
      </trkpt>
      <trkpt lat="47.64246" lon="-3.44839">
        <ele>17.44</ele>
        <time>2016-04-30T21:05:25Z</time>
      </trkpt>
      <trkpt lat="47.64246" lon="-3.44838">
        <ele>17.92</ele>
        <time>2016-04-30T21:05:52Z</time>
      </trkpt>
      <trkpt lat="47.64246" lon="-3.44838">
        <ele>17.92</ele>
        <time>2016-04-30T21:06:20Z</time>
      </trkpt>
      <trkpt lat="47.64247" lon="-3.44838">
        <ele>17.92</ele>
        <time>2016-04-30T21:06:41Z</time>
      </trkpt>
      <trkpt lat="47.64247" lon="-3.44838">
        <ele>18.4</ele>
        <time>2016-04-30T21:07:08Z</time>
      </trkpt>
      <trkpt lat="47.64247" lon="-3.44838">
        <ele>18.88</ele>
        <time>2016-04-30T21:07:32Z</time>
      </trkpt>
      <trkpt lat="47.64246" lon="-3.44838">
        <ele>18.4</ele>
        <time>2016-04-30T21:07:57Z</time>
      </trkpt>
      <trkpt lat="47.64245" lon="-3.44839">
        <ele>18.4</ele>
        <time>2016-04-30T21:08:23Z</time>
      </trkpt>
      <trkpt lat="47.64245" lon="-3.44839">
        <ele>18.4</ele>
        <time>2016-04-30T21:08:38Z</time>
      </trkpt>
      <trkpt lat="47.64245" lon="-3.44838">
        <ele>18.4</ele>
        <time>2016-04-30T21:09:04Z</time>
      </trkpt>
      <trkpt lat="47.64245" lon="-3.44839">
        <ele>18.88</ele>
        <time>2016-04-30T21:09:25Z</time>
      </trkpt>
      <trkpt lat="47.64245" lon="-3.44838">
        <ele>18.88</ele>
        <time>2016-04-30T21:09:42Z</time>
      </trkpt>
      <trkpt lat="47.64245" lon="-3.44838">
        <ele>18.88</ele>
        <time>2016-04-30T21:10:01Z</time>
      </trkpt>
      <trkpt lat="47.64245" lon="-3.44839">
        <ele>18.88</ele>
        <time>2016-04-30T21:10:21Z</time>
      </trkpt>
      <trkpt lat="47.64245" lon="-3.4484">
        <ele>18.88</ele>
        <time>2016-04-30T21:10:43Z</time>
      </trkpt>
      <trkpt lat="47.64245" lon="-3.4484">
        <ele>18.4</ele>
        <time>2016-04-30T21:11:04Z</time>
      </trkpt>
      <trkpt lat="47.64245" lon="-3.44839">
        <ele>18.4</ele>
        <time>2016-04-30T21:11:23Z</time>
      </trkpt>
      <trkpt lat="47.64245" lon="-3.4484">
        <ele>17.92</ele>
        <time>2016-04-30T21:11:41Z</time>
      </trkpt>
      <trkpt lat="47.64244" lon="-3.44839">
        <ele>17.92</ele>
        <time>2016-04-30T21:12:02Z</time>
      </trkpt>
      <trkpt lat="47.64244" lon="-3.44839">
        <ele>17.92</ele>
        <time>2016-04-30T21:12:22Z</time>
      </trkpt>
      <trkpt lat="47.64245" lon="-3.4484">
        <ele>18.4</ele>
        <time>2016-04-30T21:12:40Z</time>
      </trkpt>
      <trkpt lat="47.64246" lon="-3.44839">
        <ele>18.4</ele>
        <time>2016-04-30T21:13:05Z</time>
      </trkpt>
      <trkpt lat="47.64245" lon="-3.44839">
        <ele>17.92</ele>
        <time>2016-04-30T21:13:29Z</time>
      </trkpt>
      <trkpt lat="47.64245" lon="-3.44839">
        <ele>17.92</ele>
        <time>2016-04-30T21:13:51Z</time>
      </trkpt>
      <trkpt lat="47.64245" lon="-3.44839">
        <ele>17.92</ele>
        <time>2016-04-30T21:14:12Z</time>
      </trkpt>
      <trkpt lat="47.64245" lon="-3.44838">
        <ele>18.88</ele>
        <time>2016-04-30T21:14:40Z</time>
      </trkpt>
      <trkpt lat="47.64245" lon="-3.44838">
        <ele>18.88</ele>
        <time>2016-04-30T21:15:01Z</time>
      </trkpt>
      <trkpt lat="47.64246" lon="-3.44838">
        <ele>18.88</ele>
        <time>2016-04-30T21:15:19Z</time>
      </trkpt>
      <trkpt lat="47.64246" lon="-3.44838">
        <ele>18.88</ele>
        <time>2016-04-30T21:15:36Z</time>
      </trkpt>
      <trkpt lat="47.64246" lon="-3.44839">
        <ele>19.36</ele>
        <time>2016-04-30T21:15:52Z</time>
      </trkpt>
      <trkpt lat="47.64246" lon="-3.44839">
        <ele>18.88</ele>
        <time>2016-04-30T21:16:17Z</time>
      </trkpt>
      <trkpt lat="47.64246" lon="-3.4484">
        <ele>18.88</ele>
        <time>2016-04-30T21:16:35Z</time>
      </trkpt>
      <trkpt lat="47.64246" lon="-3.4484">
        <ele>19.36</ele>
        <time>2016-04-30T21:17:04Z</time>
      </trkpt>
      <trkpt lat="47.64246" lon="-3.44839">
        <ele>18.88</ele>
        <time>2016-04-30T21:17:28Z</time>
      </trkpt>
      <trkpt lat="47.64247" lon="-3.44839">
        <ele>18.88</ele>
        <time>2016-04-30T21:17:55Z</time>
      </trkpt>
      <trkpt lat="47.64246" lon="-3.44839">
        <ele>18.4</ele>
        <time>2016-04-30T21:18:14Z</time>
      </trkpt>
      <trkpt lat="47.64246" lon="-3.44839">
        <ele>17.92</ele>
        <time>2016-04-30T21:18:42Z</time>
      </trkpt>
      <trkpt lat="47.64246" lon="-3.44839">
        <ele>17.44</ele>
        <time>2016-04-30T21:19:18Z</time>
      </trkpt>
      <trkpt lat="47.64246" lon="-3.44839">
        <ele>17.44</ele>
        <time>2016-04-30T21:19:44Z</time>
      </trkpt>
      <trkpt lat="47.64246" lon="-3.44838">
        <ele>17.44</ele>
        <time>2016-04-30T21:20:15Z</time>
      </trkpt>
      <trkpt lat="47.64246" lon="-3.44839">
        <ele>17.44</ele>
        <time>2016-04-30T21:20:40Z</time>
      </trkpt>
      <trkpt lat="47.64245" lon="-3.44839">
        <ele>17.44</ele>
        <time>2016-04-30T21:21:03Z</time>
      </trkpt>
      <trkpt lat="47.64246" lon="-3.44839">
        <ele>18.4</ele>
        <time>2016-04-30T21:21:36Z</time>
      </trkpt>
      <trkpt lat="47.64246" lon="-3.44838">
        <ele>17.44</ele>
        <time>2016-04-30T21:21:56Z</time>
      </trkpt>
      <trkpt lat="47.64249" lon="-3.44839">
        <ele>15.04</ele>
        <time>2016-04-30T21:22:10Z</time>
      </trkpt>
      <trkpt lat="47.64249" lon="-3.44838">
        <ele>14.08</ele>
        <time>2016-04-30T21:22:11Z</time>
      </trkpt>
      <trkpt lat="47.6425" lon="-3.44836">
        <ele>13.12</ele>
        <time>2016-04-30T21:22:13Z</time>
      </trkpt>
      <trkpt lat="47.64264" lon="-3.4482">
        <ele>9.27</ele>
        <time>2016-04-30T21:22:27Z</time>
      </trkpt>
      <trkpt lat="47.64281" lon="-3.44801">
        <ele>8.31</ele>
        <time>2016-04-30T21:22:44Z</time>
      </trkpt>
      <trkpt lat="47.64286" lon="-3.44787">
        <ele>8.31</ele>
        <time>2016-04-30T21:22:53Z</time>
      </trkpt>
      <trkpt lat="47.6429" lon="-3.4476">
        <ele>8.31</ele>
        <time>2016-04-30T21:23:08Z</time>
      </trkpt>
      <trkpt lat="47.64299" lon="-3.44733">
        <ele>10.23</ele>
        <time>2016-04-30T21:23:24Z</time>
      </trkpt>
      <trkpt lat="47.64307" lon="-3.44703">
        <ele>9.27</ele>
        <time>2016-04-30T21:23:40Z</time>
      </trkpt>
      <trkpt lat="47.64315" lon="-3.44676">
        <ele>8.31</ele>
        <time>2016-04-30T21:23:55Z</time>
      </trkpt>
      <trkpt lat="47.64319" lon="-3.44666">
        <ele>8.79</ele>
        <time>2016-04-30T21:24:01Z</time>
      </trkpt>
      <trkpt lat="47.64323" lon="-3.44657">
        <ele>7.83</ele>
        <time>2016-04-30T21:24:07Z</time>
      </trkpt>
      <trkpt lat="47.6433" lon="-3.44634">
        <ele>7.35</ele>
        <time>2016-04-30T21:24:23Z</time>
      </trkpt>
      <trkpt lat="47.64331" lon="-3.44634">
        <ele>8.31</ele>
        <time>2016-04-30T21:24:28Z</time>
      </trkpt>
      <trkpt lat="47.64344" lon="-3.44634">
        <ele>7.83</ele>
        <time>2016-04-30T21:24:42Z</time>
      </trkpt>
      <trkpt lat="47.64345" lon="-3.44633">
        <ele>7.83</ele>
        <time>2016-04-30T21:24:43Z</time>
      </trkpt>
      <trkpt lat="47.64355" lon="-3.4462">
        <ele>6.39</ele>
        <time>2016-04-30T21:24:55Z</time>
      </trkpt>
      <trkpt lat="47.64364" lon="-3.44607">
        <ele>4.46</ele>
        <time>2016-04-30T21:25:11Z</time>
      </trkpt>
      <trkpt lat="47.64374" lon="-3.44592">
        <ele>3.5</ele>
        <time>2016-04-30T21:25:27Z</time>
      </trkpt>
      <trkpt lat="47.64382" lon="-3.4458">
        <ele>2.54</ele>
        <time>2016-04-30T21:25:40Z</time>
      </trkpt>
      <trkpt lat="47.64384" lon="-3.44576">
        <ele>1.58</ele>
        <time>2016-04-30T21:25:51Z</time>
      </trkpt>
      <trkpt lat="47.6438" lon="-3.44571">
        <ele>2.06</ele>
        <time>2016-04-30T21:26:04Z</time>
      </trkpt>
      <trkpt lat="47.64381" lon="-3.44571">
        <ele>2.06</ele>
        <time>2016-04-30T21:26:20Z</time>
      </trkpt>
      <trkpt lat="47.64381" lon="-3.44571">
        <ele>2.06</ele>
        <time>2016-04-30T21:26:38Z</time>
      </trkpt>
      <trkpt lat="47.6438" lon="-3.44571">
        <ele>2.06</ele>
        <time>2016-04-30T21:26:53Z</time>
      </trkpt>
      <trkpt lat="47.64381" lon="-3.44571">
        <ele>2.06</ele>
        <time>2016-04-30T21:27:15Z</time>
      </trkpt>
      <trkpt lat="47.64381" lon="-3.4457">
        <ele>1.1</ele>
        <time>2016-04-30T21:27:33Z</time>
      </trkpt>
      <trkpt lat="47.64381" lon="-3.44569">
        <ele>1.1</ele>
        <time>2016-04-30T21:27:51Z</time>
      </trkpt>
      <trkpt lat="47.64381" lon="-3.44568">
        <ele>1.1</ele>
        <time>2016-04-30T21:28:08Z</time>
      </trkpt>
      <trkpt lat="47.64381" lon="-3.44568">
        <ele>1.58</ele>
        <time>2016-04-30T21:28:32Z</time>
      </trkpt>
      <trkpt lat="47.64381" lon="-3.44568">
        <ele>1.58</ele>
        <time>2016-04-30T21:28:49Z</time>
      </trkpt>
      <trkpt lat="47.64381" lon="-3.44569">
        <ele>1.58</ele>
        <time>2016-04-30T21:29:06Z</time>
      </trkpt>
      <trkpt lat="47.64381" lon="-3.4457">
        <ele>2.54</ele>
        <time>2016-04-30T21:29:39Z</time>
      </trkpt>
      <trkpt lat="47.6438" lon="-3.44571">
        <ele>3.02</ele>
        <time>2016-04-30T21:30:08Z</time>
      </trkpt>
      <trkpt lat="47.6438" lon="-3.44571">
        <ele>3.5</ele>
        <time>2016-04-30T21:30:32Z</time>
      </trkpt>
      <trkpt lat="47.64379" lon="-3.44571">
        <ele>3.98</ele>
        <time>2016-04-30T21:30:59Z</time>
      </trkpt>
      <trkpt lat="47.64379" lon="-3.44571">
        <ele>4.46</ele>
        <time>2016-04-30T21:31:38Z</time>
      </trkpt>
      <trkpt lat="47.64379" lon="-3.44572">
        <ele>4.46</ele>
        <time>2016-04-30T21:32:12Z</time>
      </trkpt>
      <trkpt lat="47.64379" lon="-3.44572">
        <ele>4.46</ele>
        <time>2016-04-30T21:32:43Z</time>
      </trkpt>
      <trkpt lat="47.6438" lon="-3.44572">
        <ele>4.94</ele>
        <time>2016-04-30T21:33:02Z</time>
      </trkpt>
      <trkpt lat="47.6438" lon="-3.4457">
        <ele>4.94</ele>
        <time>2016-04-30T21:33:18Z</time>
      </trkpt>
      <trkpt lat="47.64381" lon="-3.44568">
        <ele>4.94</ele>
        <time>2016-04-30T21:33:39Z</time>
      </trkpt>
      <trkpt lat="47.64381" lon="-3.44566">
        <ele>3.5</ele>
        <time>2016-04-30T21:33:58Z</time>
      </trkpt>
      <trkpt lat="47.64381" lon="-3.44566">
        <ele>3.5</ele>
        <time>2016-04-30T21:34:13Z</time>
      </trkpt>
      <trkpt lat="47.64382" lon="-3.44565">
        <ele>3.98</ele>
        <time>2016-04-30T21:34:35Z</time>
      </trkpt>
      <trkpt lat="47.64382" lon="-3.44564">
        <ele>4.46</ele>
        <time>2016-04-30T21:34:56Z</time>
      </trkpt>
      <trkpt lat="47.64382" lon="-3.44565">
        <ele>5.42</ele>
        <time>2016-04-30T21:35:15Z</time>
      </trkpt>
      <trkpt lat="47.64383" lon="-3.44565">
        <ele>5.42</ele>
        <time>2016-04-30T21:35:35Z</time>
      </trkpt>
      <trkpt lat="47.64384" lon="-3.44566">
        <ele>5.42</ele>
        <time>2016-04-30T21:35:56Z</time>
      </trkpt>
      <trkpt lat="47.64385" lon="-3.44566">
        <ele>6.39</ele>
        <time>2016-04-30T21:36:13Z</time>
      </trkpt>
      <trkpt lat="47.64384" lon="-3.44566">
        <ele>7.35</ele>
        <time>2016-04-30T21:36:35Z</time>
      </trkpt>
      <trkpt lat="47.64385" lon="-3.44565">
        <ele>8.31</ele>
        <time>2016-04-30T21:37:01Z</time>
      </trkpt>
      <trkpt lat="47.64385" lon="-3.44565">
        <ele>9.75</ele>
        <time>2016-04-30T21:37:21Z</time>
      </trkpt>
      <trkpt lat="47.64385" lon="-3.44565">
        <ele>9.75</ele>
        <time>2016-04-30T21:37:44Z</time>
      </trkpt>
      <trkpt lat="47.64385" lon="-3.44564">
        <ele>9.75</ele>
        <time>2016-04-30T21:38:06Z</time>
      </trkpt>
      <trkpt lat="47.64384" lon="-3.44564">
        <ele>9.27</ele>
        <time>2016-04-30T21:38:29Z</time>
      </trkpt>
      <trkpt lat="47.64383" lon="-3.44564">
        <ele>9.75</ele>
        <time>2016-04-30T21:38:49Z</time>
      </trkpt>
      <trkpt lat="47.64383" lon="-3.44562">
        <ele>10.23</ele>
        <time>2016-04-30T21:39:09Z</time>
      </trkpt>
      <trkpt lat="47.64383" lon="-3.44561">
        <ele>11.19</ele>
        <time>2016-04-30T21:39:31Z</time>
      </trkpt>
      <trkpt lat="47.64383" lon="-3.44561">
        <ele>10.71</ele>
        <time>2016-04-30T21:39:55Z</time>
      </trkpt>
      <trkpt lat="47.64383" lon="-3.44561">
        <ele>10.71</ele>
        <time>2016-04-30T21:40:10Z</time>
      </trkpt>
      <trkpt lat="47.64382" lon="-3.44561">
        <ele>10.71</ele>
        <time>2016-04-30T21:40:27Z</time>
      </trkpt>
      <trkpt lat="47.64383" lon="-3.44561">
        <ele>10.23</ele>
        <time>2016-04-30T21:40:57Z</time>
      </trkpt>
      <trkpt lat="47.64383" lon="-3.44563">
        <ele>9.27</ele>
        <time>2016-04-30T21:41:19Z</time>
      </trkpt>
      <trkpt lat="47.64384" lon="-3.44564">
        <ele>8.31</ele>
        <time>2016-04-30T21:41:43Z</time>
      </trkpt>
      <trkpt lat="47.64384" lon="-3.44564">
        <ele>7.83</ele>
        <time>2016-04-30T21:42:06Z</time>
      </trkpt>
      <trkpt lat="47.64384" lon="-3.44565">
        <ele>7.83</ele>
        <time>2016-04-30T21:42:21Z</time>
      </trkpt>
      <trkpt lat="47.64384" lon="-3.44565">
        <ele>8.31</ele>
        <time>2016-04-30T21:42:39Z</time>
      </trkpt>
      <trkpt lat="47.64384" lon="-3.44564">
        <ele>8.79</ele>
        <time>2016-04-30T21:43:01Z</time>
      </trkpt>
      <trkpt lat="47.64384" lon="-3.44563">
        <ele>8.31</ele>
        <time>2016-04-30T21:43:25Z</time>
      </trkpt>
      <trkpt lat="47.64384" lon="-3.44563">
        <ele>7.83</ele>
        <time>2016-04-30T21:43:51Z</time>
      </trkpt>
      <trkpt lat="47.64384" lon="-3.44564">
        <ele>8.31</ele>
        <time>2016-04-30T21:44:17Z</time>
      </trkpt>
      <trkpt lat="47.64385" lon="-3.44564">
        <ele>8.79</ele>
        <time>2016-04-30T21:44:46Z</time>
      </trkpt>
      <trkpt lat="47.64385" lon="-3.44565">
        <ele>8.79</ele>
        <time>2016-04-30T21:45:14Z</time>
      </trkpt>
      <trkpt lat="47.64385" lon="-3.44566">
        <ele>9.27</ele>
        <time>2016-04-30T21:45:38Z</time>
      </trkpt>
      <trkpt lat="47.64385" lon="-3.44567">
        <ele>8.31</ele>
        <time>2016-04-30T21:45:54Z</time>
      </trkpt>
      <trkpt lat="47.64385" lon="-3.44567">
        <ele>8.31</ele>
        <time>2016-04-30T21:46:17Z</time>
      </trkpt>
      <trkpt lat="47.64385" lon="-3.44566">
        <ele>8.79</ele>
        <time>2016-04-30T21:46:52Z</time>
      </trkpt>
      <trkpt lat="47.64385" lon="-3.44566">
        <ele>8.79</ele>
        <time>2016-04-30T21:47:21Z</time>
      </trkpt>
      <trkpt lat="47.64385" lon="-3.44566">
        <ele>8.31</ele>
        <time>2016-04-30T21:47:42Z</time>
      </trkpt>
      <trkpt lat="47.64385" lon="-3.44566">
        <ele>7.83</ele>
        <time>2016-04-30T21:48:09Z</time>
      </trkpt>
      <trkpt lat="47.64385" lon="-3.44566">
        <ele>7.83</ele>
        <time>2016-04-30T21:48:36Z</time>
      </trkpt>
      <trkpt lat="47.64384" lon="-3.44568">
        <ele>6.39</ele>
        <time>2016-04-30T21:49:03Z</time>
      </trkpt>
      <trkpt lat="47.64383" lon="-3.44568">
        <ele>5.42</ele>
        <time>2016-04-30T21:49:39Z</time>
      </trkpt>
      <trkpt lat="47.64383" lon="-3.44568">
        <ele>4.94</ele>
        <time>2016-04-30T21:49:52Z</time>
      </trkpt>
      <trkpt lat="47.64383" lon="-3.44569">
        <ele>4.94</ele>
        <time>2016-04-30T21:50:21Z</time>
      </trkpt>
      <trkpt lat="47.64384" lon="-3.4457">
        <ele>4.94</ele>
        <time>2016-04-30T21:50:48Z</time>
      </trkpt>
      <trkpt lat="47.64383" lon="-3.4457">
        <ele>4.46</ele>
        <time>2016-04-30T21:51:18Z</time>
      </trkpt>
      <trkpt lat="47.64383" lon="-3.4457">
        <ele>4.46</ele>
        <time>2016-04-30T21:51:48Z</time>
      </trkpt>
      <trkpt lat="47.64383" lon="-3.44571">
        <ele>4.46</ele>
        <time>2016-04-30T21:52:19Z</time>
      </trkpt>
      <trkpt lat="47.64383" lon="-3.44571">
        <ele>4.46</ele>
        <time>2016-04-30T21:52:53Z</time>
      </trkpt>
      <trkpt lat="47.64383" lon="-3.44571">
        <ele>4.46</ele>
        <time>2016-04-30T21:53:27Z</time>
      </trkpt>
      <trkpt lat="47.64383" lon="-3.44571">
        <ele>3.98</ele>
        <time>2016-04-30T21:54:02Z</time>
      </trkpt>
      <trkpt lat="47.64383" lon="-3.4457">
        <ele>3.98</ele>
        <time>2016-04-30T21:54:41Z</time>
      </trkpt>
      <trkpt lat="47.64383" lon="-3.4457">
        <ele>4.46</ele>
        <time>2016-04-30T21:55:17Z</time>
      </trkpt>
      <trkpt lat="47.64383" lon="-3.4457">
        <ele>4.46</ele>
        <time>2016-04-30T21:55:47Z</time>
      </trkpt>
      <trkpt lat="47.64383" lon="-3.4457">
        <ele>3.98</ele>
        <time>2016-04-30T21:56:15Z</time>
      </trkpt>
      <trkpt lat="47.64383" lon="-3.4457">
        <ele>4.46</ele>
        <time>2016-04-30T21:56:49Z</time>
      </trkpt>
      <trkpt lat="47.64383" lon="-3.4457">
        <ele>4.46</ele>
        <time>2016-04-30T21:57:28Z</time>
      </trkpt>
      <trkpt lat="47.64383" lon="-3.44571">
        <ele>4.94</ele>
        <time>2016-04-30T21:58:07Z</time>
      </trkpt>
      <trkpt lat="47.64383" lon="-3.4457">
        <ele>3.5</ele>
        <time>2016-04-30T21:58:44Z</time>
      </trkpt>
      <trkpt lat="47.64383" lon="-3.44571">
        <ele>3.02</ele>
        <time>2016-04-30T21:59:18Z</time>
      </trkpt>
      <trkpt lat="47.64383" lon="-3.4457">
        <ele>3.5</ele>
        <time>2016-04-30T21:59:47Z</time>
      </trkpt>
      <trkpt lat="47.64383" lon="-3.44569">
        <ele>3.5</ele>
        <time>2016-04-30T22:00:24Z</time>
      </trkpt>
      <trkpt lat="47.64383" lon="-3.44569">
        <ele>3.5</ele>
        <time>2016-04-30T22:00:55Z</time>
      </trkpt>
      <trkpt lat="47.64384" lon="-3.44569">
        <ele>3.5</ele>
        <time>2016-04-30T22:01:28Z</time>
      </trkpt>
      <trkpt lat="47.64384" lon="-3.44569">
        <ele>3.98</ele>
        <time>2016-04-30T22:02:08Z</time>
      </trkpt>
      <trkpt lat="47.64384" lon="-3.4457">
        <ele>4.46</ele>
        <time>2016-04-30T22:02:42Z</time>
      </trkpt>
      <trkpt lat="47.64383" lon="-3.4457">
        <ele>3.5</ele>
        <time>2016-04-30T22:03:16Z</time>
      </trkpt>
      <trkpt lat="47.64384" lon="-3.4457">
        <ele>3.02</ele>
        <time>2016-04-30T22:03:55Z</time>
      </trkpt>
      <trkpt lat="47.64384" lon="-3.4457">
        <ele>3.5</ele>
        <time>2016-04-30T22:04:24Z</time>
      </trkpt>
      <trkpt lat="47.64384" lon="-3.44569">
        <ele>3.98</ele>
        <time>2016-04-30T22:04:58Z</time>
      </trkpt>
      <trkpt lat="47.64383" lon="-3.4457">
        <ele>3.98</ele>
        <time>2016-04-30T22:05:37Z</time>
      </trkpt>
      <trkpt lat="47.64384" lon="-3.44569">
        <ele>3.98</ele>
        <time>2016-04-30T22:06:15Z</time>
      </trkpt>
      <trkpt lat="47.64384" lon="-3.44569">
        <ele>3.98</ele>
        <time>2016-04-30T22:06:46Z</time>
      </trkpt>
      <trkpt lat="47.64384" lon="-3.44569">
        <ele>4.46</ele>
        <time>2016-04-30T22:07:22Z</time>
      </trkpt>
      <trkpt lat="47.64384" lon="-3.44569">
        <ele>3.5</ele>
        <time>2016-04-30T22:08:03Z</time>
      </trkpt>
      <trkpt lat="47.64384" lon="-3.44569">
        <ele>3.02</ele>
        <time>2016-04-30T22:08:49Z</time>
      </trkpt>
      <trkpt lat="47.64384" lon="-3.44569">
        <ele>3.02</ele>
        <time>2016-04-30T22:09:38Z</time>
      </trkpt>
      <trkpt lat="47.64385" lon="-3.44569">
        <ele>2.54</ele>
        <time>2016-04-30T22:10:25Z</time>
      </trkpt>
      <trkpt lat="47.64384" lon="-3.44568">
        <ele>2.54</ele>
        <time>2016-04-30T22:11:13Z</time>
      </trkpt>
      <trkpt lat="47.64384" lon="-3.44569">
        <ele>2.06</ele>
        <time>2016-04-30T22:11:53Z</time>
      </trkpt>
      <trkpt lat="47.64383" lon="-3.4457">
        <ele>1.58</ele>
        <time>2016-04-30T22:12:25Z</time>
      </trkpt>
      <trkpt lat="47.64384" lon="-3.4457">
        <ele>1.1</ele>
        <time>2016-04-30T22:13:09Z</time>
      </trkpt>
      <trkpt lat="47.64384" lon="-3.4457">
        <ele>1.58</ele>
        <time>2016-04-30T22:13:52Z</time>
      </trkpt>
      <trkpt lat="47.64384" lon="-3.4457">
        <ele>1.1</ele>
        <time>2016-04-30T22:14:38Z</time>
      </trkpt>
      <trkpt lat="47.64385" lon="-3.4457">
        <ele>1.1</ele>
        <time>2016-04-30T22:15:22Z</time>
      </trkpt>
      <trkpt lat="47.64385" lon="-3.44569">
        <ele>1.58</ele>
        <time>2016-04-30T22:16:06Z</time>
      </trkpt>
      <trkpt lat="47.64385" lon="-3.44569">
        <ele>1.58</ele>
        <time>2016-04-30T22:16:53Z</time>
      </trkpt>
      <trkpt lat="47.64385" lon="-3.44569">
        <ele>1.58</ele>
        <time>2016-04-30T22:17:41Z</time>
      </trkpt>
      <trkpt lat="47.64385" lon="-3.44569">
        <ele>1.58</ele>
        <time>2016-04-30T22:18:33Z</time>
      </trkpt>
      <trkpt lat="47.64385" lon="-3.4457">
        <ele>0.62</ele>
        <time>2016-04-30T22:19:11Z</time>
      </trkpt>
      <trkpt lat="47.64384" lon="-3.44569">
        <ele>1.1</ele>
        <time>2016-04-30T22:19:52Z</time>
      </trkpt>
      <trkpt lat="47.64384" lon="-3.44569">
        <ele>2.54</ele>
        <time>2016-04-30T22:20:41Z</time>
      </trkpt>
      <trkpt lat="47.64384" lon="-3.44569">
        <ele>1.58</ele>
        <time>2016-04-30T22:21:28Z</time>
      </trkpt>
      <trkpt lat="47.64384" lon="-3.44569">
        <ele>1.1</ele>
        <time>2016-04-30T22:22:20Z</time>
      </trkpt>
      <trkpt lat="47.64384" lon="-3.4457">
        <ele>1.1</ele>
        <time>2016-04-30T22:23:16Z</time>
      </trkpt>
      <trkpt lat="47.64384" lon="-3.4457">
        <ele>1.1</ele>
        <time>2016-04-30T22:24:00Z</time>
      </trkpt>
      <trkpt lat="47.64385" lon="-3.4457">
        <ele>1.58</ele>
        <time>2016-04-30T22:24:45Z</time>
      </trkpt>
      <trkpt lat="47.64384" lon="-3.44571">
        <ele>1.1</ele>
        <time>2016-04-30T22:25:31Z</time>
      </trkpt>
      <trkpt lat="47.64383" lon="-3.44572">
        <ele>1.58</ele>
        <time>2016-04-30T22:26:10Z</time>
      </trkpt>
      <trkpt lat="47.64382" lon="-3.44571">
        <ele>2.06</ele>
        <time>2016-04-30T22:26:45Z</time>
      </trkpt>
      <trkpt lat="47.64383" lon="-3.44571">
        <ele>2.54</ele>
        <time>2016-04-30T22:27:28Z</time>
      </trkpt>
      <trkpt lat="47.64384" lon="-3.4457">
        <ele>3.02</ele>
        <time>2016-04-30T22:28:17Z</time>
      </trkpt>
      <trkpt lat="47.64384" lon="-3.4457">
        <ele>3.5</ele>
        <time>2016-04-30T22:28:59Z</time>
      </trkpt>
      <trkpt lat="47.64384" lon="-3.4457">
        <ele>2.54</ele>
        <time>2016-04-30T22:29:44Z</time>
      </trkpt>
      <trkpt lat="47.64384" lon="-3.44569">
        <ele>3.5</ele>
        <time>2016-04-30T22:30:30Z</time>
      </trkpt>
      <trkpt lat="47.64383" lon="-3.4457">
        <ele>3.5</ele>
        <time>2016-04-30T22:31:04Z</time>
      </trkpt>
      <trkpt lat="47.64384" lon="-3.44571">
        <ele>3.02</ele>
        <time>2016-04-30T22:31:40Z</time>
      </trkpt>
      <trkpt lat="47.64384" lon="-3.4457">
        <ele>3.98</ele>
        <time>2016-04-30T22:32:21Z</time>
      </trkpt>
      <trkpt lat="47.64383" lon="-3.4457">
        <ele>3.98</ele>
        <time>2016-04-30T22:32:59Z</time>
      </trkpt>
      <trkpt lat="47.64384" lon="-3.4457">
        <ele>4.46</ele>
        <time>2016-04-30T22:33:48Z</time>
      </trkpt>
      <trkpt lat="47.64384" lon="-3.44571">
        <ele>4.46</ele>
        <time>2016-04-30T22:34:30Z</time>
      </trkpt>
      <trkpt lat="47.64384" lon="-3.4457">
        <ele>4.46</ele>
        <time>2016-04-30T22:35:08Z</time>
      </trkpt>
      <trkpt lat="47.64384" lon="-3.4457">
        <ele>4.46</ele>
        <time>2016-04-30T22:35:43Z</time>
      </trkpt>
      <trkpt lat="47.64383" lon="-3.44571">
        <ele>3.98</ele>
        <time>2016-04-30T22:36:30Z</time>
      </trkpt>
      <trkpt lat="47.64383" lon="-3.44571">
        <ele>3.98</ele>
        <time>2016-04-30T22:37:08Z</time>
      </trkpt>
      <trkpt lat="47.64383" lon="-3.4457">
        <ele>4.46</ele>
        <time>2016-04-30T22:37:41Z</time>
      </trkpt>
      <trkpt lat="47.64384" lon="-3.4457">
        <ele>3.98</ele>
        <time>2016-04-30T22:38:18Z</time>
      </trkpt>
      <trkpt lat="47.64384" lon="-3.4457">
        <ele>4.46</ele>
        <time>2016-04-30T22:39:05Z</time>
      </trkpt>
      <trkpt lat="47.64384" lon="-3.44571">
        <ele>4.46</ele>
        <time>2016-04-30T22:39:41Z</time>
      </trkpt>
      <trkpt lat="47.64383" lon="-3.44571">
        <ele>3.5</ele>
        <time>2016-04-30T22:40:12Z</time>
      </trkpt>
      <trkpt lat="47.64384" lon="-3.44571">
        <ele>3.5</ele>
        <time>2016-04-30T22:40:48Z</time>
      </trkpt>
      <trkpt lat="47.64384" lon="-3.44569">
        <ele>3.98</ele>
        <time>2016-04-30T22:41:24Z</time>
      </trkpt>
      <trkpt lat="47.64384" lon="-3.44569">
        <ele>4.46</ele>
        <time>2016-04-30T22:41:54Z</time>
      </trkpt>
      <trkpt lat="47.64384" lon="-3.44569">
        <ele>4.46</ele>
        <time>2016-04-30T22:42:27Z</time>
      </trkpt>
      <trkpt lat="47.64384" lon="-3.44569">
        <ele>5.42</ele>
        <time>2016-04-30T22:43:04Z</time>
      </trkpt>
      <trkpt lat="47.64384" lon="-3.4457">
        <ele>5.42</ele>
        <time>2016-04-30T22:43:44Z</time>
      </trkpt>
      <trkpt lat="47.64384" lon="-3.44571">
        <ele>5.42</ele>
        <time>2016-04-30T22:44:23Z</time>
      </trkpt>
      <trkpt lat="47.64383" lon="-3.44572">
        <ele>5.42</ele>
        <time>2016-04-30T22:45:05Z</time>
      </trkpt>
      <trkpt lat="47.64383" lon="-3.44572">
        <ele>5.42</ele>
        <time>2016-04-30T22:45:43Z</time>
      </trkpt>
      <trkpt lat="47.64384" lon="-3.44571">
        <ele>5.42</ele>
        <time>2016-04-30T22:46:08Z</time>
      </trkpt>
      <trkpt lat="47.64384" lon="-3.44571">
        <ele>6.39</ele>
        <time>2016-04-30T22:46:46Z</time>
      </trkpt>
      <trkpt lat="47.64384" lon="-3.44572">
        <ele>5.91</ele>
        <time>2016-04-30T22:47:28Z</time>
      </trkpt>
      <trkpt lat="47.64383" lon="-3.44572">
        <ele>6.39</ele>
        <time>2016-04-30T22:48:02Z</time>
      </trkpt>
      <trkpt lat="47.64384" lon="-3.44571">
        <ele>5.91</ele>
        <time>2016-04-30T22:48:33Z</time>
      </trkpt>
      <trkpt lat="47.64383" lon="-3.44572">
        <ele>5.91</ele>
        <time>2016-04-30T22:49:05Z</time>
      </trkpt>
      <trkpt lat="47.64383" lon="-3.44572">
        <ele>5.91</ele>
        <time>2016-04-30T22:49:42Z</time>
      </trkpt>
      <trkpt lat="47.64383" lon="-3.44572">
        <ele>5.91</ele>
        <time>2016-04-30T22:50:12Z</time>
      </trkpt>
      <trkpt lat="47.64384" lon="-3.44571">
        <ele>5.91</ele>
        <time>2016-04-30T22:50:43Z</time>
      </trkpt>
      <trkpt lat="47.64384" lon="-3.44572">
        <ele>5.91</ele>
        <time>2016-04-30T22:51:18Z</time>
      </trkpt>
      <trkpt lat="47.64383" lon="-3.44571">
        <ele>5.91</ele>
        <time>2016-04-30T22:51:48Z</time>
      </trkpt>
      <trkpt lat="47.64383" lon="-3.44571">
        <ele>4.94</ele>
        <time>2016-04-30T22:52:23Z</time>
      </trkpt>
      <trkpt lat="47.64383" lon="-3.44572">
        <ele>4.94</ele>
        <time>2016-04-30T22:53:11Z</time>
      </trkpt>
      <trkpt lat="47.64383" lon="-3.44571">
        <ele>4.94</ele>
        <time>2016-04-30T22:53:47Z</time>
      </trkpt>
      <trkpt lat="47.64382" lon="-3.44571">
        <ele>4.46</ele>
        <time>2016-04-30T22:54:18Z</time>
      </trkpt>
      <trkpt lat="47.64383" lon="-3.4457">
        <ele>4.46</ele>
        <time>2016-04-30T22:54:59Z</time>
      </trkpt>
      <trkpt lat="47.64383" lon="-3.44569">
        <ele>4.46</ele>
        <time>2016-04-30T22:55:35Z</time>
      </trkpt>
      <trkpt lat="47.64383" lon="-3.4457">
        <ele>3.98</ele>
        <time>2016-04-30T22:56:12Z</time>
      </trkpt>
      <trkpt lat="47.64384" lon="-3.44571">
        <ele>4.46</ele>
        <time>2016-04-30T22:56:53Z</time>
      </trkpt>
      <trkpt lat="47.64383" lon="-3.4457">
        <ele>4.94</ele>
        <time>2016-04-30T22:57:32Z</time>
      </trkpt>
      <trkpt lat="47.64383" lon="-3.44571">
        <ele>3.98</ele>
        <time>2016-04-30T22:58:15Z</time>
      </trkpt>
      <trkpt lat="47.64383" lon="-3.4457">
        <ele>3.98</ele>
        <time>2016-04-30T22:58:48Z</time>
      </trkpt>
      <trkpt lat="47.64383" lon="-3.4457">
        <ele>4.46</ele>
        <time>2016-04-30T22:59:27Z</time>
      </trkpt>
      <trkpt lat="47.64382" lon="-3.44571">
        <ele>3.02</ele>
        <time>2016-04-30T22:59:58Z</time>
      </trkpt>
      <trkpt lat="47.64382" lon="-3.4457">
        <ele>3.02</ele>
        <time>2016-04-30T23:00:33Z</time>
      </trkpt>
      <trkpt lat="47.64382" lon="-3.44571">
        <ele>3.5</ele>
        <time>2016-04-30T23:01:08Z</time>
      </trkpt>
      <trkpt lat="47.64383" lon="-3.44571">
        <ele>2.06</ele>
        <time>2016-04-30T23:01:51Z</time>
      </trkpt>
      <trkpt lat="47.64383" lon="-3.44571">
        <ele>2.54</ele>
        <time>2016-04-30T23:02:38Z</time>
      </trkpt>
      <trkpt lat="47.64383" lon="-3.44571">
        <ele>2.54</ele>
        <time>2016-04-30T23:03:12Z</time>
      </trkpt>
      <trkpt lat="47.64382" lon="-3.44571">
        <ele>3.98</ele>
        <time>2016-04-30T23:03:43Z</time>
      </trkpt>
      <trkpt lat="47.64383" lon="-3.4457">
        <ele>4.46</ele>
        <time>2016-04-30T23:04:22Z</time>
      </trkpt>
      <trkpt lat="47.64383" lon="-3.4457">
        <ele>4.94</ele>
        <time>2016-04-30T23:05:05Z</time>
      </trkpt>
      <trkpt lat="47.64383" lon="-3.44571">
        <ele>4.94</ele>
        <time>2016-04-30T23:05:50Z</time>
      </trkpt>
      <trkpt lat="47.64383" lon="-3.4457">
        <ele>3.5</ele>
        <time>2016-04-30T23:06:26Z</time>
      </trkpt>
      <trkpt lat="47.64383" lon="-3.4457">
        <ele>3.5</ele>
        <time>2016-04-30T23:07:05Z</time>
      </trkpt>
      <trkpt lat="47.64383" lon="-3.44569">
        <ele>3.02</ele>
        <time>2016-04-30T23:07:48Z</time>
      </trkpt>
      <trkpt lat="47.64383" lon="-3.44569">
        <ele>3.5</ele>
        <time>2016-04-30T23:08:26Z</time>
      </trkpt>
      <trkpt lat="47.64383" lon="-3.4457">
        <ele>3.5</ele>
        <time>2016-04-30T23:09:12Z</time>
      </trkpt>
      <trkpt lat="47.64382" lon="-3.44571">
        <ele>3.98</ele>
        <time>2016-04-30T23:09:53Z</time>
      </trkpt>
      <trkpt lat="47.64382" lon="-3.4457">
        <ele>3.5</ele>
        <time>2016-04-30T23:10:31Z</time>
      </trkpt>
      <trkpt lat="47.64383" lon="-3.4457">
        <ele>3.02</ele>
        <time>2016-04-30T23:11:09Z</time>
      </trkpt>
      <trkpt lat="47.64383" lon="-3.44571">
        <ele>3.5</ele>
        <time>2016-04-30T23:11:53Z</time>
      </trkpt>
      <trkpt lat="47.64383" lon="-3.4457">
        <ele>3.02</ele>
        <time>2016-04-30T23:12:38Z</time>
      </trkpt>
      <trkpt lat="47.64384" lon="-3.44571">
        <ele>2.54</ele>
        <time>2016-04-30T23:13:15Z</time>
      </trkpt>
      <trkpt lat="47.64384" lon="-3.44571">
        <ele>2.54</ele>
        <time>2016-04-30T23:13:58Z</time>
      </trkpt>
      <trkpt lat="47.64384" lon="-3.44571">
        <ele>2.54</ele>
        <time>2016-04-30T23:14:33Z</time>
      </trkpt>
      <trkpt lat="47.64385" lon="-3.44572">
        <ele>2.06</ele>
        <time>2016-04-30T23:15:22Z</time>
      </trkpt>
      <trkpt lat="47.64384" lon="-3.44572">
        <ele>2.54</ele>
        <time>2016-04-30T23:15:55Z</time>
      </trkpt>
      <trkpt lat="47.64384" lon="-3.44571">
        <ele>0.62</ele>
        <time>2016-04-30T23:16:39Z</time>
      </trkpt>
      <trkpt lat="47.64384" lon="-3.44571">
        <ele>1.1</ele>
        <time>2016-04-30T23:17:20Z</time>
      </trkpt>
      <trkpt lat="47.64384" lon="-3.44571">
        <ele>0.62</ele>
        <time>2016-04-30T23:17:53Z</time>
      </trkpt>
      <trkpt lat="47.64384" lon="-3.44571">
        <ele>1.1</ele>
        <time>2016-04-30T23:18:28Z</time>
      </trkpt>
      <trkpt lat="47.64384" lon="-3.44571">
        <ele>2.54</ele>
        <time>2016-04-30T23:19:01Z</time>
      </trkpt>
      <trkpt lat="47.64384" lon="-3.4457">
        <ele>1.58</ele>
        <time>2016-04-30T23:19:44Z</time>
      </trkpt>
      <trkpt lat="47.64384" lon="-3.4457">
        <ele>2.06</ele>
        <time>2016-04-30T23:20:24Z</time>
      </trkpt>
      <trkpt lat="47.64384" lon="-3.4457">
        <ele>2.54</ele>
        <time>2016-04-30T23:21:05Z</time>
      </trkpt>
      <trkpt lat="47.64385" lon="-3.44571">
        <ele>3.02</ele>
        <time>2016-04-30T23:21:35Z</time>
      </trkpt>
      <trkpt lat="47.64384" lon="-3.4457">
        <ele>3.02</ele>
        <time>2016-04-30T23:22:17Z</time>
      </trkpt>
      <trkpt lat="47.64384" lon="-3.44569">
        <ele>3.02</ele>
        <time>2016-04-30T23:22:59Z</time>
      </trkpt>
      <trkpt lat="47.64384" lon="-3.44569">
        <ele>4.46</ele>
        <time>2016-04-30T23:23:41Z</time>
      </trkpt>
      <trkpt lat="47.64384" lon="-3.44569">
        <ele>4.46</ele>
        <time>2016-04-30T23:24:09Z</time>
      </trkpt>
      <trkpt lat="47.64384" lon="-3.44569">
        <ele>4.46</ele>
        <time>2016-04-30T23:24:44Z</time>
      </trkpt>
      <trkpt lat="47.64384" lon="-3.44569">
        <ele>3.98</ele>
        <time>2016-04-30T23:25:24Z</time>
      </trkpt>
      <trkpt lat="47.64384" lon="-3.44569">
        <ele>3.5</ele>
        <time>2016-04-30T23:25:53Z</time>
      </trkpt>
      <trkpt lat="47.64384" lon="-3.44569">
        <ele>3.5</ele>
        <time>2016-04-30T23:26:25Z</time>
      </trkpt>
      <trkpt lat="47.64384" lon="-3.44569">
        <ele>3.98</ele>
        <time>2016-04-30T23:26:57Z</time>
      </trkpt>
      <trkpt lat="47.64384" lon="-3.44569">
        <ele>3.02</ele>
        <time>2016-04-30T23:27:25Z</time>
      </trkpt>
      <trkpt lat="47.64383" lon="-3.44569">
        <ele>3.5</ele>
        <time>2016-04-30T23:27:51Z</time>
      </trkpt>
      <trkpt lat="47.64384" lon="-3.44569">
        <ele>2.54</ele>
        <time>2016-04-30T23:28:19Z</time>
      </trkpt>
      <trkpt lat="47.64385" lon="-3.44569">
        <ele>3.5</ele>
        <time>2016-04-30T23:28:56Z</time>
      </trkpt>
      <trkpt lat="47.64384" lon="-3.44569">
        <ele>3.02</ele>
        <time>2016-04-30T23:29:31Z</time>
      </trkpt>
      <trkpt lat="47.64384" lon="-3.44569">
        <ele>2.54</ele>
        <time>2016-04-30T23:30:10Z</time>
      </trkpt>
      <trkpt lat="47.64384" lon="-3.44569">
        <ele>2.06</ele>
        <time>2016-04-30T23:30:43Z</time>
      </trkpt>
      <trkpt lat="47.64384" lon="-3.4457">
        <ele>2.06</ele>
        <time>2016-04-30T23:31:18Z</time>
      </trkpt>
      <trkpt lat="47.64384" lon="-3.4457">
        <ele>2.06</ele>
        <time>2016-04-30T23:31:54Z</time>
      </trkpt>
      <trkpt lat="47.64384" lon="-3.44569">
        <ele>2.54</ele>
        <time>2016-04-30T23:32:30Z</time>
      </trkpt>
      <trkpt lat="47.64384" lon="-3.4457">
        <ele>2.06</ele>
        <time>2016-04-30T23:32:58Z</time>
      </trkpt>
      <trkpt lat="47.64384" lon="-3.4457">
        <ele>1.58</ele>
        <time>2016-04-30T23:33:33Z</time>
      </trkpt>
      <trkpt lat="47.64384" lon="-3.44569">
        <ele>1.1</ele>
        <time>2016-04-30T23:34:01Z</time>
      </trkpt>
      <trkpt lat="47.64384" lon="-3.4457">
        <ele>0.62</ele>
        <time>2016-04-30T23:34:36Z</time>
      </trkpt>
      <trkpt lat="47.64384" lon="-3.44569">
        <ele>1.58</ele>
        <time>2016-04-30T23:35:11Z</time>
      </trkpt>
      <trkpt lat="47.64384" lon="-3.4457">
        <ele>1.58</ele>
        <time>2016-04-30T23:35:43Z</time>
      </trkpt>
      <trkpt lat="47.64384" lon="-3.4457">
        <ele>1.1</ele>
        <time>2016-04-30T23:36:24Z</time>
      </trkpt>
      <trkpt lat="47.64384" lon="-3.44569">
        <ele>0.62</ele>
        <time>2016-04-30T23:36:52Z</time>
      </trkpt>
      <trkpt lat="47.64383" lon="-3.44571">
        <ele>-0.34</ele>
        <time>2016-04-30T23:37:34Z</time>
      </trkpt>
      <trkpt lat="47.64383" lon="-3.44571">
        <ele>-0.82</ele>
        <time>2016-04-30T23:38:12Z</time>
      </trkpt>
      <trkpt lat="47.64383" lon="-3.4457">
        <ele>-0.34</ele>
        <time>2016-04-30T23:38:58Z</time>
      </trkpt>
      <trkpt lat="47.64384" lon="-3.44571">
        <ele>-0.82</ele>
        <time>2016-04-30T23:39:44Z</time>
      </trkpt>
      <trkpt lat="47.64383" lon="-3.44571">
        <ele>-1.3</ele>
        <time>2016-04-30T23:40:17Z</time>
      </trkpt>
      <trkpt lat="47.64383" lon="-3.44571">
        <ele>-1.3</ele>
        <time>2016-04-30T23:40:53Z</time>
      </trkpt>
      <trkpt lat="47.64382" lon="-3.44571">
        <ele>-0.82</ele>
        <time>2016-04-30T23:41:20Z</time>
      </trkpt>
      <trkpt lat="47.64383" lon="-3.44572">
        <ele>-1.79</ele>
        <time>2016-04-30T23:42:05Z</time>
      </trkpt>
      <trkpt lat="47.64382" lon="-3.44572">
        <ele>-1.3</ele>
        <time>2016-04-30T23:42:46Z</time>
      </trkpt>
      <trkpt lat="47.64382" lon="-3.44571">
        <ele>-0.82</ele>
        <time>2016-04-30T23:43:33Z</time>
      </trkpt>
      <trkpt lat="47.64382" lon="-3.44571">
        <ele>-1.3</ele>
        <time>2016-04-30T23:44:10Z</time>
      </trkpt>
      <trkpt lat="47.64382" lon="-3.44571">
        <ele>-1.3</ele>
        <time>2016-04-30T23:44:51Z</time>
      </trkpt>
      <trkpt lat="47.64382" lon="-3.4457">
        <ele>-0.82</ele>
        <time>2016-04-30T23:45:43Z</time>
      </trkpt>
      <trkpt lat="47.64382" lon="-3.44571">
        <ele>-0.34</ele>
        <time>2016-04-30T23:46:20Z</time>
      </trkpt>
      <trkpt lat="47.64382" lon="-3.44571">
        <ele>-0.82</ele>
        <time>2016-04-30T23:47:03Z</time>
      </trkpt>
      <trkpt lat="47.64381" lon="-3.44571">
        <ele>-0.82</ele>
        <time>2016-04-30T23:47:38Z</time>
      </trkpt>
      <trkpt lat="47.64382" lon="-3.44571">
        <ele>-0.82</ele>
        <time>2016-04-30T23:48:11Z</time>
      </trkpt>
      <trkpt lat="47.64382" lon="-3.44572">
        <ele>-1.3</ele>
        <time>2016-04-30T23:48:44Z</time>
      </trkpt>
      <trkpt lat="47.64382" lon="-3.44572">
        <ele>-1.3</ele>
        <time>2016-04-30T23:49:12Z</time>
      </trkpt>
      <trkpt lat="47.64382" lon="-3.44571">
        <ele>-1.3</ele>
        <time>2016-04-30T23:49:51Z</time>
      </trkpt>
      <trkpt lat="47.64382" lon="-3.44572">
        <ele>-0.82</ele>
        <time>2016-04-30T23:50:23Z</time>
      </trkpt>
      <trkpt lat="47.64381" lon="-3.44572">
        <ele>-0.82</ele>
        <time>2016-04-30T23:50:53Z</time>
      </trkpt>
      <trkpt lat="47.64381" lon="-3.44573">
        <ele>-1.3</ele>
        <time>2016-04-30T23:51:27Z</time>
      </trkpt>
      <trkpt lat="47.64381" lon="-3.44572">
        <ele>-1.3</ele>
        <time>2016-04-30T23:52:03Z</time>
      </trkpt>
      <trkpt lat="47.6438" lon="-3.44572">
        <ele>-0.82</ele>
        <time>2016-04-30T23:52:46Z</time>
      </trkpt>
      <trkpt lat="47.6438" lon="-3.44573">
        <ele>-0.34</ele>
        <time>2016-04-30T23:53:22Z</time>
      </trkpt>
      <trkpt lat="47.6438" lon="-3.44573">
        <ele>-0.34</ele>
        <time>2016-04-30T23:53:58Z</time>
      </trkpt>
      <trkpt lat="47.6438" lon="-3.44572">
        <ele>-0.82</ele>
        <time>2016-04-30T23:54:36Z</time>
      </trkpt>
      <trkpt lat="47.6438" lon="-3.44572">
        <ele>-0.34</ele>
        <time>2016-04-30T23:54:58Z</time>
      </trkpt>
      <trkpt lat="47.6438" lon="-3.44573">
        <ele>-0.34</ele>
        <time>2016-04-30T23:55:38Z</time>
      </trkpt>
      <trkpt lat="47.64381" lon="-3.44573">
        <ele>-0.34</ele>
        <time>2016-04-30T23:56:15Z</time>
      </trkpt>
      <trkpt lat="47.64381" lon="-3.44571">
        <ele>0.62</ele>
        <time>2016-04-30T23:56:43Z</time>
      </trkpt>
      <trkpt lat="47.6438" lon="-3.44571">
        <ele>0.14</ele>
        <time>2016-04-30T23:57:13Z</time>
      </trkpt>
      <trkpt lat="47.6438" lon="-3.44572">
        <ele>0.14</ele>
        <time>2016-04-30T23:57:47Z</time>
      </trkpt>
      <trkpt lat="47.6438" lon="-3.44572">
        <ele>-0.34</ele>
        <time>2016-04-30T23:58:26Z</time>
      </trkpt>
      <trkpt lat="47.6438" lon="-3.44573">
        <ele>-0.82</ele>
        <time>2016-04-30T23:58:55Z</time>
      </trkpt>
      <trkpt lat="47.6438" lon="-3.44573">
        <ele>0.14</ele>
        <time>2016-04-30T23:59:30Z</time>
      </trkpt>
      <trkpt lat="47.6438" lon="-3.44573">
        <ele>1.1</ele>
        <time>2016-05-01T00:00:11Z</time>
      </trkpt>
      <trkpt lat="47.6438" lon="-3.44574">
        <ele>0.62</ele>
        <time>2016-05-01T00:00:44Z</time>
      </trkpt>
      <trkpt lat="47.64381" lon="-3.44574">
        <ele>0.62</ele>
        <time>2016-05-01T00:01:21Z</time>
      </trkpt>
      <trkpt lat="47.64381" lon="-3.44574">
        <ele>0.62</ele>
        <time>2016-05-01T00:01:54Z</time>
      </trkpt>
      <trkpt lat="47.64382" lon="-3.44573">
        <ele>0.62</ele>
        <time>2016-05-01T00:02:25Z</time>
      </trkpt>
      <trkpt lat="47.64381" lon="-3.44574">
        <ele>0.14</ele>
        <time>2016-05-01T00:03:01Z</time>
      </trkpt>
      <trkpt lat="47.64382" lon="-3.44575">
        <ele>0.14</ele>
        <time>2016-05-01T00:03:44Z</time>
      </trkpt>
      <trkpt lat="47.64382" lon="-3.44575">
        <ele>0.14</ele>
        <time>2016-05-01T00:04:21Z</time>
      </trkpt>
      <trkpt lat="47.64382" lon="-3.44574">
        <ele>1.58</ele>
        <time>2016-05-01T00:04:51Z</time>
      </trkpt>
      <trkpt lat="47.64383" lon="-3.44575">
        <ele>0.62</ele>
        <time>2016-05-01T00:05:38Z</time>
      </trkpt>
      <trkpt lat="47.64382" lon="-3.44576">
        <ele>0.14</ele>
        <time>2016-05-01T00:06:20Z</time>
      </trkpt>
      <trkpt lat="47.64382" lon="-3.44575">
        <ele>0.62</ele>
        <time>2016-05-01T00:07:00Z</time>
      </trkpt>
      <trkpt lat="47.64382" lon="-3.44575">
        <ele>1.1</ele>
        <time>2016-05-01T00:07:33Z</time>
      </trkpt>
      <trkpt lat="47.64382" lon="-3.44575">
        <ele>2.06</ele>
        <time>2016-05-01T00:08:14Z</time>
      </trkpt>
      <trkpt lat="47.64382" lon="-3.44574">
        <ele>2.54</ele>
        <time>2016-05-01T00:08:54Z</time>
      </trkpt>
      <trkpt lat="47.64381" lon="-3.44574">
        <ele>1.1</ele>
        <time>2016-05-01T00:09:34Z</time>
      </trkpt>
      <trkpt lat="47.64382" lon="-3.44574">
        <ele>1.58</ele>
        <time>2016-05-01T00:10:12Z</time>
      </trkpt>
      <trkpt lat="47.64382" lon="-3.44574">
        <ele>2.54</ele>
        <time>2016-05-01T00:10:57Z</time>
      </trkpt>
      <trkpt lat="47.64382" lon="-3.44573">
        <ele>1.58</ele>
        <time>2016-05-01T00:11:42Z</time>
      </trkpt>
      <trkpt lat="47.64382" lon="-3.44572">
        <ele>2.06</ele>
        <time>2016-05-01T00:12:22Z</time>
      </trkpt>
      <trkpt lat="47.64382" lon="-3.44574">
        <ele>2.06</ele>
        <time>2016-05-01T00:13:01Z</time>
      </trkpt>
      <trkpt lat="47.64382" lon="-3.44574">
        <ele>2.54</ele>
        <time>2016-05-01T00:13:38Z</time>
      </trkpt>
      <trkpt lat="47.64382" lon="-3.44574">
        <ele>2.06</ele>
        <time>2016-05-01T00:14:21Z</time>
      </trkpt>
      <trkpt lat="47.64382" lon="-3.44574">
        <ele>1.58</ele>
        <time>2016-05-01T00:15:05Z</time>
      </trkpt>
      <trkpt lat="47.64382" lon="-3.44574">
        <ele>1.58</ele>
        <time>2016-05-01T00:15:41Z</time>
      </trkpt>
      <trkpt lat="47.64383" lon="-3.44574">
        <ele>2.54</ele>
        <time>2016-05-01T00:16:25Z</time>
      </trkpt>
      <trkpt lat="47.64382" lon="-3.44573">
        <ele>3.02</ele>
        <time>2016-05-01T00:17:12Z</time>
      </trkpt>
      <trkpt lat="47.64382" lon="-3.44573">
        <ele>2.54</ele>
        <time>2016-05-01T00:17:52Z</time>
      </trkpt>
      <trkpt lat="47.64382" lon="-3.44573">
        <ele>2.54</ele>
        <time>2016-05-01T00:18:32Z</time>
      </trkpt>
      <trkpt lat="47.64382" lon="-3.44573">
        <ele>2.06</ele>
        <time>2016-05-01T00:19:18Z</time>
      </trkpt>
      <trkpt lat="47.64382" lon="-3.44573">
        <ele>2.06</ele>
        <time>2016-05-01T00:20:05Z</time>
      </trkpt>
      <trkpt lat="47.64382" lon="-3.44573">
        <ele>1.58</ele>
        <time>2016-05-01T00:20:46Z</time>
      </trkpt>
      <trkpt lat="47.64382" lon="-3.44572">
        <ele>0.14</ele>
        <time>2016-05-01T00:21:26Z</time>
      </trkpt>
      <trkpt lat="47.64382" lon="-3.44572">
        <ele>1.1</ele>
        <time>2016-05-01T00:22:04Z</time>
      </trkpt>
      <trkpt lat="47.64382" lon="-3.44572">
        <ele>0.62</ele>
        <time>2016-05-01T00:22:47Z</time>
      </trkpt>
      <trkpt lat="47.64383" lon="-3.44572">
        <ele>0.14</ele>
        <time>2016-05-01T00:23:20Z</time>
      </trkpt>
      <trkpt lat="47.64382" lon="-3.44571">
        <ele>1.1</ele>
        <time>2016-05-01T00:23:52Z</time>
      </trkpt>
      <trkpt lat="47.64382" lon="-3.44572">
        <ele>0.62</ele>
        <time>2016-05-01T00:24:37Z</time>
      </trkpt>
      <trkpt lat="47.64381" lon="-3.44573">
        <ele>0.14</ele>
        <time>2016-05-01T00:25:08Z</time>
      </trkpt>
      <trkpt lat="47.64382" lon="-3.44572">
        <ele>-0.34</ele>
        <time>2016-05-01T00:25:39Z</time>
      </trkpt>
      <trkpt lat="47.64382" lon="-3.44571">
        <ele>-0.82</ele>
        <time>2016-05-01T00:26:28Z</time>
      </trkpt>
      <trkpt lat="47.64381" lon="-3.44571">
        <ele>-0.34</ele>
        <time>2016-05-01T00:27:13Z</time>
      </trkpt>
      <trkpt lat="47.64381" lon="-3.44571">
        <ele>0.14</ele>
        <time>2016-05-01T00:27:43Z</time>
      </trkpt>
      <trkpt lat="47.64382" lon="-3.44571">
        <ele>0.62</ele>
        <time>2016-05-01T00:28:22Z</time>
      </trkpt>
      <trkpt lat="47.64381" lon="-3.44571">
        <ele>1.58</ele>
        <time>2016-05-01T00:28:56Z</time>
      </trkpt>
      <trkpt lat="47.64383" lon="-3.44572">
        <ele>0.62</ele>
        <time>2016-05-01T00:29:38Z</time>
      </trkpt>
      <trkpt lat="47.64383" lon="-3.44573">
        <ele>1.1</ele>
        <time>2016-05-01T00:30:13Z</time>
      </trkpt>
      <trkpt lat="47.64382" lon="-3.44572">
        <ele>1.1</ele>
        <time>2016-05-01T00:31:01Z</time>
      </trkpt>
      <trkpt lat="47.64383" lon="-3.44573">
        <ele>1.1</ele>
        <time>2016-05-01T00:31:39Z</time>
      </trkpt>
      <trkpt lat="47.64382" lon="-3.44573">
        <ele>1.1</ele>
        <time>2016-05-01T00:32:17Z</time>
      </trkpt>
      <trkpt lat="47.64382" lon="-3.44572">
        <ele>1.1</ele>
        <time>2016-05-01T00:32:48Z</time>
      </trkpt>
      <trkpt lat="47.64382" lon="-3.44572">
        <ele>0.14</ele>
        <time>2016-05-01T00:33:26Z</time>
      </trkpt>
      <trkpt lat="47.64382" lon="-3.44571">
        <ele>0.62</ele>
        <time>2016-05-01T00:33:58Z</time>
      </trkpt>
      <trkpt lat="47.64382" lon="-3.44571">
        <ele>2.54</ele>
        <time>2016-05-01T00:34:36Z</time>
      </trkpt>
      <trkpt lat="47.64382" lon="-3.44571">
        <ele>2.54</ele>
        <time>2016-05-01T00:35:02Z</time>
      </trkpt>
      <trkpt lat="47.64382" lon="-3.44571">
        <ele>2.54</ele>
        <time>2016-05-01T00:35:45Z</time>
      </trkpt>
      <trkpt lat="47.64382" lon="-3.44571">
        <ele>2.54</ele>
        <time>2016-05-01T00:36:24Z</time>
      </trkpt>
      <trkpt lat="47.64383" lon="-3.44571">
        <ele>3.5</ele>
        <time>2016-05-01T00:37:10Z</time>
      </trkpt>
      <trkpt lat="47.64383" lon="-3.44571">
        <ele>3.02</ele>
        <time>2016-05-01T00:37:42Z</time>
      </trkpt>
      <trkpt lat="47.64383" lon="-3.44571">
        <ele>3.5</ele>
        <time>2016-05-01T00:38:16Z</time>
      </trkpt>
      <trkpt lat="47.64382" lon="-3.44571">
        <ele>3.5</ele>
        <time>2016-05-01T00:39:04Z</time>
      </trkpt>
      <trkpt lat="47.64381" lon="-3.44572">
        <ele>2.06</ele>
        <time>2016-05-01T00:39:47Z</time>
      </trkpt>
      <trkpt lat="47.64381" lon="-3.44571">
        <ele>0.62</ele>
        <time>2016-05-01T00:40:28Z</time>
      </trkpt>
      <trkpt lat="47.64383" lon="-3.44571">
        <ele>1.1</ele>
        <time>2016-05-01T00:41:02Z</time>
      </trkpt>
      <trkpt lat="47.64383" lon="-3.44572">
        <ele>1.58</ele>
        <time>2016-05-01T00:41:38Z</time>
      </trkpt>
      <trkpt lat="47.64383" lon="-3.44572">
        <ele>1.58</ele>
        <time>2016-05-01T00:42:11Z</time>
      </trkpt>
      <trkpt lat="47.64384" lon="-3.44572">
        <ele>2.06</ele>
        <time>2016-05-01T00:42:56Z</time>
      </trkpt>
      <trkpt lat="47.64384" lon="-3.44571">
        <ele>2.06</ele>
        <time>2016-05-01T00:43:36Z</time>
      </trkpt>
      <trkpt lat="47.64384" lon="-3.4457">
        <ele>2.54</ele>
        <time>2016-05-01T00:44:13Z</time>
      </trkpt>
      <trkpt lat="47.64384" lon="-3.4457">
        <ele>2.06</ele>
        <time>2016-05-01T00:44:45Z</time>
      </trkpt>
      <trkpt lat="47.64383" lon="-3.4457">
        <ele>2.06</ele>
        <time>2016-05-01T00:45:23Z</time>
      </trkpt>
      <trkpt lat="47.64382" lon="-3.4457">
        <ele>2.54</ele>
        <time>2016-05-01T00:46:00Z</time>
      </trkpt>
      <trkpt lat="47.64382" lon="-3.4457">
        <ele>2.06</ele>
        <time>2016-05-01T00:46:42Z</time>
      </trkpt>
      <trkpt lat="47.64382" lon="-3.44569">
        <ele>1.58</ele>
        <time>2016-05-01T00:47:14Z</time>
      </trkpt>
      <trkpt lat="47.64383" lon="-3.44569">
        <ele>1.1</ele>
        <time>2016-05-01T00:47:48Z</time>
      </trkpt>
      <trkpt lat="47.64382" lon="-3.4457">
        <ele>1.1</ele>
        <time>2016-05-01T00:48:21Z</time>
      </trkpt>
      <trkpt lat="47.64383" lon="-3.44571">
        <ele>0.14</ele>
        <time>2016-05-01T00:48:56Z</time>
      </trkpt>
      <trkpt lat="47.64383" lon="-3.4457">
        <ele>-0.82</ele>
        <time>2016-05-01T00:49:32Z</time>
      </trkpt>
      <trkpt lat="47.64383" lon="-3.4457">
        <ele>-0.82</ele>
        <time>2016-05-01T00:50:14Z</time>
      </trkpt>
      <trkpt lat="47.64383" lon="-3.44569">
        <ele>-0.82</ele>
        <time>2016-05-01T00:50:55Z</time>
      </trkpt>
      <trkpt lat="47.64382" lon="-3.4457">
        <ele>-1.3</ele>
        <time>2016-05-01T00:51:28Z</time>
      </trkpt>
      <trkpt lat="47.64383" lon="-3.44571">
        <ele>-0.82</ele>
        <time>2016-05-01T00:52:02Z</time>
      </trkpt>
      <trkpt lat="47.64384" lon="-3.44571">
        <ele>1.1</ele>
        <time>2016-05-01T00:52:35Z</time>
      </trkpt>
      <trkpt lat="47.64383" lon="-3.44571">
        <ele>1.58</ele>
        <time>2016-05-01T00:53:16Z</time>
      </trkpt>
      <trkpt lat="47.64382" lon="-3.4457">
        <ele>2.06</ele>
        <time>2016-05-01T00:53:44Z</time>
      </trkpt>
      <trkpt lat="47.64383" lon="-3.44569">
        <ele>1.1</ele>
        <time>2016-05-01T00:54:18Z</time>
      </trkpt>
      <trkpt lat="47.64383" lon="-3.4457">
        <ele>1.1</ele>
        <time>2016-05-01T00:54:57Z</time>
      </trkpt>
      <trkpt lat="47.64382" lon="-3.44571">
        <ele>0.62</ele>
        <time>2016-05-01T00:55:23Z</time>
      </trkpt>
      <trkpt lat="47.64382" lon="-3.44571">
        <ele>1.1</ele>
        <time>2016-05-01T00:56:06Z</time>
      </trkpt>
      <trkpt lat="47.64384" lon="-3.44571">
        <ele>1.58</ele>
        <time>2016-05-01T00:56:58Z</time>
      </trkpt>
      <trkpt lat="47.64384" lon="-3.44571">
        <ele>1.1</ele>
        <time>2016-05-01T00:57:24Z</time>
      </trkpt>
      <trkpt lat="47.64383" lon="-3.4457">
        <ele>0.62</ele>
        <time>2016-05-01T00:58:00Z</time>
      </trkpt>
      <trkpt lat="47.64383" lon="-3.4457">
        <ele>0.14</ele>
        <time>2016-05-01T00:58:44Z</time>
      </trkpt>
      <trkpt lat="47.64383" lon="-3.4457">
        <ele>0.62</ele>
        <time>2016-05-01T00:59:20Z</time>
      </trkpt>
      <trkpt lat="47.64382" lon="-3.44569">
        <ele>-0.34</ele>
        <time>2016-05-01T00:59:54Z</time>
      </trkpt>
      <trkpt lat="47.64383" lon="-3.4457">
        <ele>1.1</ele>
        <time>2016-05-01T01:00:44Z</time>
      </trkpt>
      <trkpt lat="47.64383" lon="-3.44571">
        <ele>0.14</ele>
        <time>2016-05-01T01:01:24Z</time>
      </trkpt>
      <trkpt lat="47.64384" lon="-3.4457">
        <ele>0.62</ele>
        <time>2016-05-01T01:02:11Z</time>
      </trkpt>
      <trkpt lat="47.64384" lon="-3.4457">
        <ele>0.14</ele>
        <time>2016-05-01T01:02:56Z</time>
      </trkpt>
      <trkpt lat="47.64384" lon="-3.44571">
        <ele>-0.82</ele>
        <time>2016-05-01T01:03:40Z</time>
      </trkpt>
      <trkpt lat="47.64385" lon="-3.44571">
        <ele>-0.34</ele>
        <time>2016-05-01T01:04:21Z</time>
      </trkpt>
      <trkpt lat="47.64384" lon="-3.44571">
        <ele>-0.34</ele>
        <time>2016-05-01T01:05:07Z</time>
      </trkpt>
      <trkpt lat="47.64384" lon="-3.4457">
        <ele>-0.34</ele>
        <time>2016-05-01T01:05:56Z</time>
      </trkpt>
      <trkpt lat="47.64383" lon="-3.4457">
        <ele>0.14</ele>
        <time>2016-05-01T01:06:49Z</time>
      </trkpt>
      <trkpt lat="47.64383" lon="-3.44569">
        <ele>0.62</ele>
        <time>2016-05-01T01:07:34Z</time>
      </trkpt>
      <trkpt lat="47.64384" lon="-3.44569">
        <ele>1.58</ele>
        <time>2016-05-01T01:08:22Z</time>
      </trkpt>
      <trkpt lat="47.64384" lon="-3.44568">
        <ele>0.62</ele>
        <time>2016-05-01T01:09:09Z</time>
      </trkpt>
      <trkpt lat="47.64384" lon="-3.4457">
        <ele>0.62</ele>
        <time>2016-05-01T01:10:10Z</time>
      </trkpt>
      <trkpt lat="47.64382" lon="-3.4457">
        <ele>0.14</ele>
        <time>2016-05-01T01:10:50Z</time>
      </trkpt>
      <trkpt lat="47.64383" lon="-3.4457">
        <ele>0.14</ele>
        <time>2016-05-01T01:11:42Z</time>
      </trkpt>
      <trkpt lat="47.64383" lon="-3.4457">
        <ele>-0.34</ele>
        <time>2016-05-01T01:12:25Z</time>
      </trkpt>
      <trkpt lat="47.64385" lon="-3.44569">
        <ele>0.14</ele>
        <time>2016-05-01T01:13:21Z</time>
      </trkpt>
      <trkpt lat="47.64385" lon="-3.44569">
        <ele>0.62</ele>
        <time>2016-05-01T01:14:07Z</time>
      </trkpt>
      <trkpt lat="47.64385" lon="-3.44567">
        <ele>1.1</ele>
        <time>2016-05-01T01:15:01Z</time>
      </trkpt>
      <trkpt lat="47.64386" lon="-3.44567">
        <ele>0.62</ele>
        <time>2016-05-01T01:15:54Z</time>
      </trkpt>
      <trkpt lat="47.64384" lon="-3.44568">
        <ele>0.14</ele>
        <time>2016-05-01T01:16:41Z</time>
      </trkpt>
      <trkpt lat="47.64383" lon="-3.44569">
        <ele>1.1</ele>
        <time>2016-05-01T01:17:26Z</time>
      </trkpt>
      <trkpt lat="47.64382" lon="-3.4457">
        <ele>0.62</ele>
        <time>2016-05-01T01:18:13Z</time>
      </trkpt>
      <trkpt lat="47.64382" lon="-3.4457">
        <ele>0.14</ele>
        <time>2016-05-01T01:18:55Z</time>
      </trkpt>
      <trkpt lat="47.64382" lon="-3.44569">
        <ele>0.62</ele>
        <time>2016-05-01T01:19:42Z</time>
      </trkpt>
      <trkpt lat="47.64382" lon="-3.4457">
        <ele>-0.34</ele>
        <time>2016-05-01T01:20:27Z</time>
      </trkpt>
      <trkpt lat="47.64384" lon="-3.4457">
        <ele>-0.34</ele>
        <time>2016-05-01T01:21:12Z</time>
      </trkpt>
      <trkpt lat="47.64384" lon="-3.4457">
        <ele>-0.82</ele>
        <time>2016-05-01T01:22:01Z</time>
      </trkpt>
      <trkpt lat="47.64383" lon="-3.4457">
        <ele>-0.34</ele>
        <time>2016-05-01T01:22:45Z</time>
      </trkpt>
      <trkpt lat="47.64384" lon="-3.4457">
        <ele>-0.82</ele>
        <time>2016-05-01T01:23:22Z</time>
      </trkpt>
      <trkpt lat="47.64384" lon="-3.4457">
        <ele>-1.3</ele>
        <time>2016-05-01T01:24:07Z</time>
      </trkpt>
      <trkpt lat="47.64383" lon="-3.4457">
        <ele>-0.34</ele>
        <time>2016-05-01T01:24:49Z</time>
      </trkpt>
      <trkpt lat="47.64383" lon="-3.44568">
        <ele>0.62</ele>
        <time>2016-05-01T01:25:33Z</time>
      </trkpt>
      <trkpt lat="47.64383" lon="-3.44568">
        <ele>1.58</ele>
        <time>2016-05-01T01:26:25Z</time>
      </trkpt>
      <trkpt lat="47.64383" lon="-3.44569">
        <ele>1.1</ele>
        <time>2016-05-01T01:27:05Z</time>
      </trkpt>
      <trkpt lat="47.64383" lon="-3.44569">
        <ele>0.14</ele>
        <time>2016-05-01T01:27:49Z</time>
      </trkpt>
      <trkpt lat="47.64383" lon="-3.44569">
        <ele>-0.82</ele>
        <time>2016-05-01T01:28:29Z</time>
      </trkpt>
      <trkpt lat="47.64383" lon="-3.44568">
        <ele>-1.79</ele>
        <time>2016-05-01T01:29:15Z</time>
      </trkpt>
      <trkpt lat="47.64383" lon="-3.44569">
        <ele>-2.27</ele>
        <time>2016-05-01T01:29:48Z</time>
      </trkpt>
      <trkpt lat="47.64383" lon="-3.44568">
        <ele>-1.79</ele>
        <time>2016-05-01T01:30:32Z</time>
      </trkpt>
      <trkpt lat="47.64382" lon="-3.44568">
        <ele>-2.27</ele>
        <time>2016-05-01T01:31:10Z</time>
      </trkpt>
      <trkpt lat="47.64382" lon="-3.44569">
        <ele>-2.27</ele>
        <time>2016-05-01T01:31:57Z</time>
      </trkpt>
      <trkpt lat="47.64383" lon="-3.4457">
        <ele>-2.27</ele>
        <time>2016-05-01T01:32:28Z</time>
      </trkpt>
      <trkpt lat="47.64383" lon="-3.44571">
        <ele>-2.75</ele>
        <time>2016-05-01T01:33:07Z</time>
      </trkpt>
      <trkpt lat="47.64383" lon="-3.44569">
        <ele>-2.27</ele>
        <time>2016-05-01T01:33:52Z</time>
      </trkpt>
      <trkpt lat="47.64383" lon="-3.4457">
        <ele>-1.3</ele>
        <time>2016-05-01T01:34:33Z</time>
      </trkpt>
      <trkpt lat="47.64382" lon="-3.4457">
        <ele>-1.79</ele>
        <time>2016-05-01T01:35:14Z</time>
      </trkpt>
      <trkpt lat="47.64383" lon="-3.44569">
        <ele>-1.79</ele>
        <time>2016-05-01T01:35:58Z</time>
      </trkpt>
      <trkpt lat="47.64384" lon="-3.44568">
        <ele>-1.3</ele>
        <time>2016-05-01T01:36:41Z</time>
      </trkpt>
      <trkpt lat="47.64384" lon="-3.44569">
        <ele>-1.79</ele>
        <time>2016-05-01T01:37:22Z</time>
      </trkpt>
      <trkpt lat="47.64383" lon="-3.4457">
        <ele>-1.3</ele>
        <time>2016-05-01T01:38:03Z</time>
      </trkpt>
      <trkpt lat="47.64382" lon="-3.4457">
        <ele>-1.3</ele>
        <time>2016-05-01T01:38:43Z</time>
      </trkpt>
      <trkpt lat="47.64382" lon="-3.4457">
        <ele>-1.3</ele>
        <time>2016-05-01T01:39:19Z</time>
      </trkpt>
      <trkpt lat="47.64382" lon="-3.4457">
        <ele>-1.79</ele>
        <time>2016-05-01T01:40:06Z</time>
      </trkpt>
      <trkpt lat="47.64382" lon="-3.44569">
        <ele>-2.75</ele>
        <time>2016-05-01T01:40:44Z</time>
      </trkpt>
      <trkpt lat="47.64382" lon="-3.44569">
        <ele>-3.23</ele>
        <time>2016-05-01T01:41:21Z</time>
      </trkpt>
      <trkpt lat="47.64382" lon="-3.4457">
        <ele>-3.23</ele>
        <time>2016-05-01T01:41:51Z</time>
      </trkpt>
      <trkpt lat="47.64382" lon="-3.4457">
        <ele>-2.75</ele>
        <time>2016-05-01T01:42:34Z</time>
      </trkpt>
      <trkpt lat="47.64383" lon="-3.4457">
        <ele>-2.75</ele>
        <time>2016-05-01T01:43:17Z</time>
      </trkpt>
      <trkpt lat="47.64382" lon="-3.44569">
        <ele>-3.23</ele>
        <time>2016-05-01T01:43:49Z</time>
      </trkpt>
      <trkpt lat="47.64383" lon="-3.4457">
        <ele>-3.23</ele>
        <time>2016-05-01T01:44:29Z</time>
      </trkpt>
      <trkpt lat="47.64382" lon="-3.4457">
        <ele>-3.23</ele>
        <time>2016-05-01T01:45:01Z</time>
      </trkpt>
      <trkpt lat="47.64382" lon="-3.44571">
        <ele>-2.75</ele>
        <time>2016-05-01T01:45:45Z</time>
      </trkpt>
      <trkpt lat="47.64382" lon="-3.44571">
        <ele>-2.75</ele>
        <time>2016-05-01T01:46:18Z</time>
      </trkpt>
      <trkpt lat="47.64382" lon="-3.4457">
        <ele>-2.27</ele>
        <time>2016-05-01T01:46:57Z</time>
      </trkpt>
      <trkpt lat="47.64382" lon="-3.4457">
        <ele>-3.23</ele>
        <time>2016-05-01T01:47:29Z</time>
      </trkpt>
      <trkpt lat="47.64383" lon="-3.44569">
        <ele>-1.79</ele>
        <time>2016-05-01T01:48:11Z</time>
      </trkpt>
      <trkpt lat="47.64382" lon="-3.44569">
        <ele>0.14</ele>
        <time>2016-05-01T01:48:49Z</time>
      </trkpt>
      <trkpt lat="47.64383" lon="-3.44569">
        <ele>-0.82</ele>
        <time>2016-05-01T01:49:25Z</time>
      </trkpt>
      <trkpt lat="47.64383" lon="-3.44568">
        <ele>-1.3</ele>
        <time>2016-05-01T01:50:08Z</time>
      </trkpt>
      <trkpt lat="47.64383" lon="-3.44566">
        <ele>-1.3</ele>
        <time>2016-05-01T01:50:46Z</time>
      </trkpt>
      <trkpt lat="47.64382" lon="-3.44567">
        <ele>-2.27</ele>
        <time>2016-05-01T01:51:24Z</time>
      </trkpt>
      <trkpt lat="47.64382" lon="-3.44568">
        <ele>-1.79</ele>
        <time>2016-05-01T01:52:14Z</time>
      </trkpt>
      <trkpt lat="47.64383" lon="-3.4457">
        <ele>-1.79</ele>
        <time>2016-05-01T01:53:00Z</time>
      </trkpt>
      <trkpt lat="47.64383" lon="-3.44571">
        <ele>-0.82</ele>
        <time>2016-05-01T01:53:33Z</time>
      </trkpt>
      <trkpt lat="47.64383" lon="-3.4457">
        <ele>-0.82</ele>
        <time>2016-05-01T01:54:13Z</time>
      </trkpt>
      <trkpt lat="47.64382" lon="-3.44571">
        <ele>-1.79</ele>
        <time>2016-05-01T01:54:57Z</time>
      </trkpt>
      <trkpt lat="47.64383" lon="-3.44571">
        <ele>-1.79</ele>
        <time>2016-05-01T01:55:30Z</time>
      </trkpt>
      <trkpt lat="47.64382" lon="-3.4457">
        <ele>-1.79</ele>
        <time>2016-05-01T01:56:13Z</time>
      </trkpt>
      <trkpt lat="47.64383" lon="-3.4457">
        <ele>-2.75</ele>
        <time>2016-05-01T01:56:55Z</time>
      </trkpt>
      <trkpt lat="47.64383" lon="-3.44571">
        <ele>-2.27</ele>
        <time>2016-05-01T01:57:32Z</time>
      </trkpt>
      <trkpt lat="47.64382" lon="-3.4457">
        <ele>-2.27</ele>
        <time>2016-05-01T01:58:15Z</time>
      </trkpt>
      <trkpt lat="47.64381" lon="-3.4457">
        <ele>-1.79</ele>
        <time>2016-05-01T01:58:54Z</time>
      </trkpt>
      <trkpt lat="47.64382" lon="-3.4457">
        <ele>-2.75</ele>
        <time>2016-05-01T01:59:26Z</time>
      </trkpt>
      <trkpt lat="47.64381" lon="-3.4457">
        <ele>-1.79</ele>
        <time>2016-05-01T02:00:03Z</time>
      </trkpt>
      <trkpt lat="47.64382" lon="-3.4457">
        <ele>-2.75</ele>
        <time>2016-05-01T02:00:37Z</time>
      </trkpt>
      <trkpt lat="47.64383" lon="-3.4457">
        <ele>-3.23</ele>
        <time>2016-05-01T02:01:08Z</time>
      </trkpt>
      <trkpt lat="47.64382" lon="-3.4457">
        <ele>-3.23</ele>
        <time>2016-05-01T02:01:47Z</time>
      </trkpt>
      <trkpt lat="47.64383" lon="-3.4457">
        <ele>-2.75</ele>
        <time>2016-05-01T02:02:33Z</time>
      </trkpt>
      <trkpt lat="47.64383" lon="-3.44571">
        <ele>-2.27</ele>
        <time>2016-05-01T02:03:10Z</time>
      </trkpt>
      <trkpt lat="47.64384" lon="-3.44571">
        <ele>-2.75</ele>
        <time>2016-05-01T02:03:57Z</time>
      </trkpt>
      <trkpt lat="47.64384" lon="-3.44571">
        <ele>-2.27</ele>
        <time>2016-05-01T02:04:45Z</time>
      </trkpt>
      <trkpt lat="47.64383" lon="-3.4457">
        <ele>-1.3</ele>
        <time>2016-05-01T02:05:31Z</time>
      </trkpt>
      <trkpt lat="47.64384" lon="-3.44571">
        <ele>-2.75</ele>
        <time>2016-05-01T02:06:06Z</time>
      </trkpt>
      <trkpt lat="47.64384" lon="-3.4457">
        <ele>-3.23</ele>
        <time>2016-05-01T02:06:48Z</time>
      </trkpt>
      <trkpt lat="47.64383" lon="-3.4457">
        <ele>-3.71</ele>
        <time>2016-05-01T02:07:33Z</time>
      </trkpt>
      <trkpt lat="47.64384" lon="-3.44569">
        <ele>-3.23</ele>
        <time>2016-05-01T02:08:06Z</time>
      </trkpt>
      <trkpt lat="47.64383" lon="-3.4457">
        <ele>-2.27</ele>
        <time>2016-05-01T02:08:47Z</time>
      </trkpt>
      <trkpt lat="47.64383" lon="-3.4457">
        <ele>-2.75</ele>
        <time>2016-05-01T02:09:22Z</time>
      </trkpt>
      <trkpt lat="47.64383" lon="-3.44569">
        <ele>-2.75</ele>
        <time>2016-05-01T02:09:56Z</time>
      </trkpt>
      <trkpt lat="47.64382" lon="-3.44569">
        <ele>-4.19</ele>
        <time>2016-05-01T02:10:31Z</time>
      </trkpt>
      <trkpt lat="47.64382" lon="-3.44568">
        <ele>-4.67</ele>
        <time>2016-05-01T02:11:05Z</time>
      </trkpt>
      <trkpt lat="47.64382" lon="-3.44569">
        <ele>-6.11</ele>
        <time>2016-05-01T02:11:49Z</time>
      </trkpt>
      <trkpt lat="47.64382" lon="-3.44571">
        <ele>-5.63</ele>
        <time>2016-05-01T02:12:23Z</time>
      </trkpt>
      <trkpt lat="47.64382" lon="-3.4457">
        <ele>-5.15</ele>
        <time>2016-05-01T02:12:57Z</time>
      </trkpt>
      <trkpt lat="47.64382" lon="-3.4457">
        <ele>-5.15</ele>
        <time>2016-05-01T02:13:24Z</time>
      </trkpt>
      <trkpt lat="47.64382" lon="-3.4457">
        <ele>-5.15</ele>
        <time>2016-05-01T02:13:55Z</time>
      </trkpt>
      <trkpt lat="47.64382" lon="-3.4457">
        <ele>-5.63</ele>
        <time>2016-05-01T02:14:28Z</time>
      </trkpt>
      <trkpt lat="47.64382" lon="-3.44571">
        <ele>-6.11</ele>
        <time>2016-05-01T02:14:58Z</time>
      </trkpt>
      <trkpt lat="47.64383" lon="-3.44571">
        <ele>-5.63</ele>
        <time>2016-05-01T02:15:32Z</time>
      </trkpt>
      <trkpt lat="47.64383" lon="-3.44571">
        <ele>-5.15</ele>
        <time>2016-05-01T02:16:06Z</time>
      </trkpt>
      <trkpt lat="47.64383" lon="-3.4457">
        <ele>-3.71</ele>
        <time>2016-05-01T02:16:38Z</time>
      </trkpt>
      <trkpt lat="47.64383" lon="-3.4457">
        <ele>-2.75</ele>
        <time>2016-05-01T02:17:13Z</time>
      </trkpt>
      <trkpt lat="47.64384" lon="-3.4457">
        <ele>-2.27</ele>
        <time>2016-05-01T02:17:52Z</time>
      </trkpt>
      <trkpt lat="47.64385" lon="-3.44569">
        <ele>-1.3</ele>
        <time>2016-05-01T02:18:27Z</time>
      </trkpt>
      <trkpt lat="47.64384" lon="-3.4457">
        <ele>-2.27</ele>
        <time>2016-05-01T02:19:02Z</time>
      </trkpt>
      <trkpt lat="47.64384" lon="-3.4457">
        <ele>-1.3</ele>
        <time>2016-05-01T02:19:43Z</time>
      </trkpt>
      <trkpt lat="47.64385" lon="-3.44569">
        <ele>-1.79</ele>
        <time>2016-05-01T02:20:16Z</time>
      </trkpt>
      <trkpt lat="47.64385" lon="-3.44569">
        <ele>-1.79</ele>
        <time>2016-05-01T02:20:56Z</time>
      </trkpt>
      <trkpt lat="47.64385" lon="-3.44569">
        <ele>-1.3</ele>
        <time>2016-05-01T02:21:36Z</time>
      </trkpt>
      <trkpt lat="47.64385" lon="-3.44569">
        <ele>-1.79</ele>
        <time>2016-05-01T02:22:16Z</time>
      </trkpt>
      <trkpt lat="47.64384" lon="-3.4457">
        <ele>-1.79</ele>
        <time>2016-05-01T02:22:53Z</time>
      </trkpt>
      <trkpt lat="47.64384" lon="-3.4457">
        <ele>-1.3</ele>
        <time>2016-05-01T02:23:26Z</time>
      </trkpt>
      <trkpt lat="47.64385" lon="-3.4457">
        <ele>-2.75</ele>
        <time>2016-05-01T02:24:12Z</time>
      </trkpt>
      <trkpt lat="47.64385" lon="-3.4457">
        <ele>-1.3</ele>
        <time>2016-05-01T02:24:57Z</time>
      </trkpt>
      <trkpt lat="47.64385" lon="-3.4457">
        <ele>-1.3</ele>
        <time>2016-05-01T02:25:39Z</time>
      </trkpt>
      <trkpt lat="47.64385" lon="-3.4457">
        <ele>-1.3</ele>
        <time>2016-05-01T02:26:16Z</time>
      </trkpt>
      <trkpt lat="47.64385" lon="-3.44569">
        <ele>-0.82</ele>
        <time>2016-05-01T02:26:56Z</time>
      </trkpt>
      <trkpt lat="47.64385" lon="-3.44569">
        <ele>-1.3</ele>
        <time>2016-05-01T02:27:36Z</time>
      </trkpt>
      <trkpt lat="47.64384" lon="-3.44569">
        <ele>-0.34</ele>
        <time>2016-05-01T02:28:18Z</time>
      </trkpt>
      <trkpt lat="47.64385" lon="-3.4457">
        <ele>-0.82</ele>
        <time>2016-05-01T02:28:52Z</time>
      </trkpt>
      <trkpt lat="47.64384" lon="-3.4457">
        <ele>-1.3</ele>
        <time>2016-05-01T02:29:31Z</time>
      </trkpt>
      <trkpt lat="47.64384" lon="-3.4457">
        <ele>-0.82</ele>
        <time>2016-05-01T02:30:10Z</time>
      </trkpt>
      <trkpt lat="47.64384" lon="-3.4457">
        <ele>-0.82</ele>
        <time>2016-05-01T02:30:53Z</time>
      </trkpt>
      <trkpt lat="47.64385" lon="-3.4457">
        <ele>-0.82</ele>
        <time>2016-05-01T02:31:30Z</time>
      </trkpt>
      <trkpt lat="47.64384" lon="-3.44569">
        <ele>-0.34</ele>
        <time>2016-05-01T02:32:25Z</time>
      </trkpt>
      <trkpt lat="47.64384" lon="-3.44568">
        <ele>0.14</ele>
        <time>2016-05-01T02:33:04Z</time>
      </trkpt>
      <trkpt lat="47.64384" lon="-3.4457">
        <ele>1.1</ele>
        <time>2016-05-01T02:33:35Z</time>
      </trkpt>
      <trkpt lat="47.64384" lon="-3.4457">
        <ele>0.62</ele>
        <time>2016-05-01T02:34:11Z</time>
      </trkpt>
      <trkpt lat="47.64385" lon="-3.44569">
        <ele>0.62</ele>
        <time>2016-05-01T02:34:50Z</time>
      </trkpt>
      <trkpt lat="47.64384" lon="-3.44569">
        <ele>0.62</ele>
        <time>2016-05-01T02:35:28Z</time>
      </trkpt>
      <trkpt lat="47.64384" lon="-3.44569">
        <ele>0.14</ele>
        <time>2016-05-01T02:35:58Z</time>
      </trkpt>
      <trkpt lat="47.64384" lon="-3.4457">
        <ele>-0.34</ele>
        <time>2016-05-01T02:36:26Z</time>
      </trkpt>
      <trkpt lat="47.64384" lon="-3.4457">
        <ele>-0.82</ele>
        <time>2016-05-01T02:36:45Z</time>
      </trkpt>
      <trkpt lat="47.64383" lon="-3.4457">
        <ele>-0.34</ele>
        <time>2016-05-01T02:37:23Z</time>
      </trkpt>
      <trkpt lat="47.64383" lon="-3.44571">
        <ele>1.1</ele>
        <time>2016-05-01T02:38:00Z</time>
      </trkpt>
      <trkpt lat="47.64384" lon="-3.4457">
        <ele>1.58</ele>
        <time>2016-05-01T02:38:44Z</time>
      </trkpt>
      <trkpt lat="47.64384" lon="-3.44571">
        <ele>2.54</ele>
        <time>2016-05-01T02:39:26Z</time>
      </trkpt>
      <trkpt lat="47.64385" lon="-3.4457">
        <ele>2.06</ele>
        <time>2016-05-01T02:40:01Z</time>
      </trkpt>
      <trkpt lat="47.64385" lon="-3.4457">
        <ele>2.06</ele>
        <time>2016-05-01T02:40:36Z</time>
      </trkpt>
      <trkpt lat="47.64384" lon="-3.4457">
        <ele>1.58</ele>
        <time>2016-05-01T02:41:22Z</time>
      </trkpt>
      <trkpt lat="47.64385" lon="-3.44571">
        <ele>1.58</ele>
        <time>2016-05-01T02:42:03Z</time>
      </trkpt>
      <trkpt lat="47.64385" lon="-3.4457">
        <ele>1.58</ele>
        <time>2016-05-01T02:42:43Z</time>
      </trkpt>
      <trkpt lat="47.64386" lon="-3.44571">
        <ele>2.06</ele>
        <time>2016-05-01T02:43:19Z</time>
      </trkpt>
      <trkpt lat="47.64386" lon="-3.4457">
        <ele>2.54</ele>
        <time>2016-05-01T02:44:00Z</time>
      </trkpt>
      <trkpt lat="47.64386" lon="-3.44569">
        <ele>1.58</ele>
        <time>2016-05-01T02:44:34Z</time>
      </trkpt>
      <trkpt lat="47.64387" lon="-3.4457">
        <ele>3.02</ele>
        <time>2016-05-01T02:45:06Z</time>
      </trkpt>
      <trkpt lat="47.64387" lon="-3.4457">
        <ele>3.98</ele>
        <time>2016-05-01T02:45:49Z</time>
      </trkpt>
      <trkpt lat="47.64386" lon="-3.44569">
        <ele>3.98</ele>
        <time>2016-05-01T02:46:38Z</time>
      </trkpt>
      <trkpt lat="47.64388" lon="-3.4457">
        <ele>5.91</ele>
        <time>2016-05-01T02:47:21Z</time>
      </trkpt>
      <trkpt lat="47.64387" lon="-3.44569">
        <ele>5.42</ele>
        <time>2016-05-01T02:47:51Z</time>
      </trkpt>
      <trkpt lat="47.64386" lon="-3.4457">
        <ele>3.98</ele>
        <time>2016-05-01T02:48:32Z</time>
      </trkpt>
      <trkpt lat="47.64385" lon="-3.44569">
        <ele>3.02</ele>
        <time>2016-05-01T02:49:11Z</time>
      </trkpt>
      <trkpt lat="47.64385" lon="-3.44569">
        <ele>2.06</ele>
        <time>2016-05-01T02:49:57Z</time>
      </trkpt>
      <trkpt lat="47.64384" lon="-3.4457">
        <ele>2.06</ele>
        <time>2016-05-01T02:50:43Z</time>
      </trkpt>
      <trkpt lat="47.64384" lon="-3.4457">
        <ele>1.1</ele>
        <time>2016-05-01T02:51:26Z</time>
      </trkpt>
      <trkpt lat="47.64385" lon="-3.44571">
        <ele>1.58</ele>
        <time>2016-05-01T02:52:06Z</time>
      </trkpt>
      <trkpt lat="47.64385" lon="-3.44571">
        <ele>1.58</ele>
        <time>2016-05-01T02:52:47Z</time>
      </trkpt>
      <trkpt lat="47.64385" lon="-3.4457">
        <ele>0.62</ele>
        <time>2016-05-01T02:53:24Z</time>
      </trkpt>
      <trkpt lat="47.64384" lon="-3.4457">
        <ele>0.62</ele>
        <time>2016-05-01T02:53:57Z</time>
      </trkpt>
      <trkpt lat="47.64385" lon="-3.44571">
        <ele>1.1</ele>
        <time>2016-05-01T02:54:36Z</time>
      </trkpt>
      <trkpt lat="47.64386" lon="-3.44571">
        <ele>1.1</ele>
        <time>2016-05-01T02:55:18Z</time>
      </trkpt>
      <trkpt lat="47.64386" lon="-3.44571">
        <ele>1.58</ele>
        <time>2016-05-01T02:55:55Z</time>
      </trkpt>
      <trkpt lat="47.64386" lon="-3.44571">
        <ele>1.58</ele>
        <time>2016-05-01T02:56:26Z</time>
      </trkpt>
      <trkpt lat="47.64385" lon="-3.44571">
        <ele>1.58</ele>
        <time>2016-05-01T02:57:10Z</time>
      </trkpt>
      <trkpt lat="47.64385" lon="-3.44572">
        <ele>1.1</ele>
        <time>2016-05-01T02:57:45Z</time>
      </trkpt>
      <trkpt lat="47.64384" lon="-3.44571">
        <ele>0.62</ele>
        <time>2016-05-01T02:58:23Z</time>
      </trkpt>
      <trkpt lat="47.64384" lon="-3.4457">
        <ele>0.14</ele>
        <time>2016-05-01T02:58:57Z</time>
      </trkpt>
      <trkpt lat="47.64384" lon="-3.4457">
        <ele>-0.34</ele>
        <time>2016-05-01T02:59:40Z</time>
      </trkpt>
      <trkpt lat="47.64384" lon="-3.44571">
        <ele>-0.82</ele>
        <time>2016-05-01T03:00:22Z</time>
      </trkpt>
      <trkpt lat="47.64385" lon="-3.4457">
        <ele>-1.79</ele>
        <time>2016-05-01T03:01:03Z</time>
      </trkpt>
      <trkpt lat="47.64384" lon="-3.44571">
        <ele>-1.3</ele>
        <time>2016-05-01T03:01:43Z</time>
      </trkpt>
      <trkpt lat="47.64385" lon="-3.44573">
        <ele>-1.3</ele>
        <time>2016-05-01T03:02:25Z</time>
      </trkpt>
      <trkpt lat="47.64385" lon="-3.44573">
        <ele>-0.34</ele>
        <time>2016-05-01T03:03:00Z</time>
      </trkpt>
      <trkpt lat="47.64384" lon="-3.44572">
        <ele>-0.82</ele>
        <time>2016-05-01T03:03:36Z</time>
      </trkpt>
      <trkpt lat="47.64383" lon="-3.4457">
        <ele>0.14</ele>
        <time>2016-05-01T03:04:16Z</time>
      </trkpt>
      <trkpt lat="47.64383" lon="-3.44571">
        <ele>0.14</ele>
        <time>2016-05-01T03:04:59Z</time>
      </trkpt>
      <trkpt lat="47.64384" lon="-3.4457">
        <ele>1.1</ele>
        <time>2016-05-01T03:05:41Z</time>
      </trkpt>
      <trkpt lat="47.64384" lon="-3.4457">
        <ele>1.58</ele>
        <time>2016-05-01T03:06:12Z</time>
      </trkpt>
      <trkpt lat="47.64384" lon="-3.4457">
        <ele>1.1</ele>
        <time>2016-05-01T03:06:44Z</time>
      </trkpt>
      <trkpt lat="47.64384" lon="-3.4457">
        <ele>0.14</ele>
        <time>2016-05-01T03:07:28Z</time>
      </trkpt>
      <trkpt lat="47.64384" lon="-3.44571">
        <ele>0.14</ele>
        <time>2016-05-01T03:08:13Z</time>
      </trkpt>
      <trkpt lat="47.64383" lon="-3.4457">
        <ele>-0.82</ele>
        <time>2016-05-01T03:08:56Z</time>
      </trkpt>
      <trkpt lat="47.64383" lon="-3.44571">
        <ele>-0.82</ele>
        <time>2016-05-01T03:09:42Z</time>
      </trkpt>
      <trkpt lat="47.64384" lon="-3.44571">
        <ele>0.14</ele>
        <time>2016-05-01T03:10:15Z</time>
      </trkpt>
      <trkpt lat="47.64384" lon="-3.44571">
        <ele>-0.82</ele>
        <time>2016-05-01T03:10:47Z</time>
      </trkpt>
      <trkpt lat="47.64384" lon="-3.44571">
        <ele>-1.3</ele>
        <time>2016-05-01T03:11:25Z</time>
      </trkpt>
      <trkpt lat="47.64385" lon="-3.44571">
        <ele>-0.82</ele>
        <time>2016-05-01T03:12:01Z</time>
      </trkpt>
      <trkpt lat="47.64386" lon="-3.44572">
        <ele>-0.34</ele>
        <time>2016-05-01T03:12:36Z</time>
      </trkpt>
      <trkpt lat="47.64385" lon="-3.44572">
        <ele>-0.34</ele>
        <time>2016-05-01T03:13:19Z</time>
      </trkpt>
      <trkpt lat="47.64386" lon="-3.44573">
        <ele>-0.82</ele>
        <time>2016-05-01T03:14:00Z</time>
      </trkpt>
      <trkpt lat="47.64386" lon="-3.44573">
        <ele>-0.34</ele>
        <time>2016-05-01T03:14:33Z</time>
      </trkpt>
      <trkpt lat="47.64385" lon="-3.44573">
        <ele>-0.82</ele>
        <time>2016-05-01T03:15:09Z</time>
      </trkpt>
      <trkpt lat="47.64385" lon="-3.44573">
        <ele>0.14</ele>
        <time>2016-05-01T03:15:37Z</time>
      </trkpt>
      <trkpt lat="47.64385" lon="-3.44572">
        <ele>-0.34</ele>
        <time>2016-05-01T03:16:07Z</time>
      </trkpt>
      <trkpt lat="47.64386" lon="-3.44571">
        <ele>0.14</ele>
        <time>2016-05-01T03:16:44Z</time>
      </trkpt>
      <trkpt lat="47.64385" lon="-3.4457">
        <ele>0.14</ele>
        <time>2016-05-01T03:17:22Z</time>
      </trkpt>
      <trkpt lat="47.64386" lon="-3.44571">
        <ele>0.14</ele>
        <time>2016-05-01T03:17:53Z</time>
      </trkpt>
      <trkpt lat="47.64384" lon="-3.44573">
        <ele>0.14</ele>
        <time>2016-05-01T03:18:20Z</time>
      </trkpt>
      <trkpt lat="47.64384" lon="-3.44572">
        <ele>-0.34</ele>
        <time>2016-05-01T03:18:44Z</time>
      </trkpt>
      <trkpt lat="47.64383" lon="-3.44571">
        <ele>0.14</ele>
        <time>2016-05-01T03:19:16Z</time>
      </trkpt>
      <trkpt lat="47.64383" lon="-3.4457">
        <ele>0.62</ele>
        <time>2016-05-01T03:19:41Z</time>
      </trkpt>
      <trkpt lat="47.64382" lon="-3.4457">
        <ele>1.1</ele>
        <time>2016-05-01T03:20:06Z</time>
      </trkpt>
      <trkpt lat="47.64383" lon="-3.4457">
        <ele>1.58</ele>
        <time>2016-05-01T03:20:28Z</time>
      </trkpt>
      <trkpt lat="47.64383" lon="-3.4457">
        <ele>-0.34</ele>
        <time>2016-05-01T03:20:55Z</time>
      </trkpt>
      <trkpt lat="47.64384" lon="-3.4457">
        <ele>0.62</ele>
        <time>2016-05-01T03:21:25Z</time>
      </trkpt>
      <trkpt lat="47.64386" lon="-3.4457">
        <ele>1.1</ele>
        <time>2016-05-01T03:21:55Z</time>
      </trkpt>
      <trkpt lat="47.64387" lon="-3.44572">
        <ele>0.62</ele>
        <time>2016-05-01T03:22:22Z</time>
      </trkpt>
      <trkpt lat="47.64385" lon="-3.44571">
        <ele>0.14</ele>
        <time>2016-05-01T03:23:00Z</time>
      </trkpt>
      <trkpt lat="47.64385" lon="-3.44571">
        <ele>1.58</ele>
        <time>2016-05-01T03:23:36Z</time>
      </trkpt>
      <trkpt lat="47.64385" lon="-3.44571">
        <ele>1.1</ele>
        <time>2016-05-01T03:23:58Z</time>
      </trkpt>
      <trkpt lat="47.64384" lon="-3.44571">
        <ele>2.06</ele>
        <time>2016-05-01T03:24:31Z</time>
      </trkpt>
      <trkpt lat="47.64384" lon="-3.44571">
        <ele>2.06</ele>
        <time>2016-05-01T03:25:00Z</time>
      </trkpt>
      <trkpt lat="47.64384" lon="-3.44572">
        <ele>2.06</ele>
        <time>2016-05-01T03:25:19Z</time>
      </trkpt>
      <trkpt lat="47.64384" lon="-3.44571">
        <ele>1.58</ele>
        <time>2016-05-01T03:25:46Z</time>
      </trkpt>
      <trkpt lat="47.64384" lon="-3.4457">
        <ele>1.58</ele>
        <time>2016-05-01T03:26:16Z</time>
      </trkpt>
      <trkpt lat="47.64384" lon="-3.44569">
        <ele>2.06</ele>
        <time>2016-05-01T03:26:46Z</time>
      </trkpt>
      <trkpt lat="47.64384" lon="-3.44569">
        <ele>1.1</ele>
        <time>2016-05-01T03:27:23Z</time>
      </trkpt>
      <trkpt lat="47.64382" lon="-3.4457">
        <ele>1.58</ele>
        <time>2016-05-01T03:27:55Z</time>
      </trkpt>
      <trkpt lat="47.64382" lon="-3.44571">
        <ele>1.1</ele>
        <time>2016-05-01T03:28:33Z</time>
      </trkpt>
      <trkpt lat="47.64383" lon="-3.44571">
        <ele>0.14</ele>
        <time>2016-05-01T03:28:58Z</time>
      </trkpt>
      <trkpt lat="47.64383" lon="-3.44571">
        <ele>0.14</ele>
        <time>2016-05-01T03:29:28Z</time>
      </trkpt>
      <trkpt lat="47.64383" lon="-3.44569">
        <ele>-0.34</ele>
        <time>2016-05-01T03:30:01Z</time>
      </trkpt>
      <trkpt lat="47.64383" lon="-3.44569">
        <ele>-0.82</ele>
        <time>2016-05-01T03:30:32Z</time>
      </trkpt>
      <trkpt lat="47.64383" lon="-3.4457">
        <ele>-0.34</ele>
        <time>2016-05-01T03:31:01Z</time>
      </trkpt>
      <trkpt lat="47.64382" lon="-3.44571">
        <ele>-0.82</ele>
        <time>2016-05-01T03:31:31Z</time>
      </trkpt>
      <trkpt lat="47.64381" lon="-3.4457">
        <ele>-0.82</ele>
        <time>2016-05-01T03:31:52Z</time>
      </trkpt>
      <trkpt lat="47.64381" lon="-3.4457">
        <ele>-1.3</ele>
        <time>2016-05-01T03:32:25Z</time>
      </trkpt>
      <trkpt lat="47.64381" lon="-3.4457">
        <ele>-0.82</ele>
        <time>2016-05-01T03:32:50Z</time>
      </trkpt>
      <trkpt lat="47.6438" lon="-3.4457">
        <ele>-0.82</ele>
        <time>2016-05-01T03:33:20Z</time>
      </trkpt>
      <trkpt lat="47.64379" lon="-3.44571">
        <ele>-1.3</ele>
        <time>2016-05-01T03:33:51Z</time>
      </trkpt>
      <trkpt lat="47.6438" lon="-3.44571">
        <ele>-1.3</ele>
        <time>2016-05-01T03:34:30Z</time>
      </trkpt>
      <trkpt lat="47.64379" lon="-3.44571">
        <ele>-0.82</ele>
        <time>2016-05-01T03:35:01Z</time>
      </trkpt>
      <trkpt lat="47.6438" lon="-3.44571">
        <ele>-0.34</ele>
        <time>2016-05-01T03:35:33Z</time>
      </trkpt>
      <trkpt lat="47.6438" lon="-3.44571">
        <ele>0.14</ele>
        <time>2016-05-01T03:36:08Z</time>
      </trkpt>
      <trkpt lat="47.64381" lon="-3.44571">
        <ele>0.14</ele>
        <time>2016-05-01T03:36:33Z</time>
      </trkpt>
      <trkpt lat="47.64381" lon="-3.44571">
        <ele>0.14</ele>
        <time>2016-05-01T03:37:01Z</time>
      </trkpt>
      <trkpt lat="47.64381" lon="-3.44572">
        <ele>-0.34</ele>
        <time>2016-05-01T03:37:18Z</time>
      </trkpt>
      <trkpt lat="47.64382" lon="-3.44571">
        <ele>-0.82</ele>
        <time>2016-05-01T03:37:43Z</time>
      </trkpt>
      <trkpt lat="47.64382" lon="-3.44571">
        <ele>-0.82</ele>
        <time>2016-05-01T03:38:05Z</time>
      </trkpt>
      <trkpt lat="47.64382" lon="-3.44572">
        <ele>-1.79</ele>
        <time>2016-05-01T03:38:29Z</time>
      </trkpt>
      <trkpt lat="47.64382" lon="-3.44571">
        <ele>-0.82</ele>
        <time>2016-05-01T03:39:00Z</time>
      </trkpt>
      <trkpt lat="47.64382" lon="-3.44571">
        <ele>-0.82</ele>
        <time>2016-05-01T03:39:20Z</time>
      </trkpt>
      <trkpt lat="47.64383" lon="-3.44571">
        <ele>-0.34</ele>
        <time>2016-05-01T03:39:45Z</time>
      </trkpt>
      <trkpt lat="47.64383" lon="-3.44571">
        <ele>-0.34</ele>
        <time>2016-05-01T03:40:12Z</time>
      </trkpt>
      <trkpt lat="47.64382" lon="-3.44571">
        <ele>-0.82</ele>
        <time>2016-05-01T03:40:46Z</time>
      </trkpt>
      <trkpt lat="47.64381" lon="-3.44571">
        <ele>-1.3</ele>
        <time>2016-05-01T03:41:19Z</time>
      </trkpt>
      <trkpt lat="47.64381" lon="-3.44571">
        <ele>-1.3</ele>
        <time>2016-05-01T03:41:50Z</time>
      </trkpt>
      <trkpt lat="47.64381" lon="-3.44571">
        <ele>-0.82</ele>
        <time>2016-05-01T03:42:18Z</time>
      </trkpt>
      <trkpt lat="47.64381" lon="-3.44571">
        <ele>-0.82</ele>
        <time>2016-05-01T03:42:44Z</time>
      </trkpt>
      <trkpt lat="47.64381" lon="-3.44571">
        <ele>-1.3</ele>
        <time>2016-05-01T03:43:09Z</time>
      </trkpt>
      <trkpt lat="47.64382" lon="-3.4457">
        <ele>-0.82</ele>
        <time>2016-05-01T03:43:39Z</time>
      </trkpt>
      <trkpt lat="47.64383" lon="-3.4457">
        <ele>-0.82</ele>
        <time>2016-05-01T03:44:11Z</time>
      </trkpt>
      <trkpt lat="47.64383" lon="-3.4457">
        <ele>-0.34</ele>
        <time>2016-05-01T03:44:42Z</time>
      </trkpt>
      <trkpt lat="47.64382" lon="-3.44571">
        <ele>2.06</ele>
        <time>2016-05-01T03:45:16Z</time>
      </trkpt>
      <trkpt lat="47.64383" lon="-3.44571">
        <ele>0.62</ele>
        <time>2016-05-01T03:45:41Z</time>
      </trkpt>
      <trkpt lat="47.64383" lon="-3.44571">
        <ele>1.1</ele>
        <time>2016-05-01T03:46:10Z</time>
      </trkpt>
      <trkpt lat="47.64383" lon="-3.4457">
        <ele>1.58</ele>
        <time>2016-05-01T03:46:43Z</time>
      </trkpt>
      <trkpt lat="47.64383" lon="-3.4457">
        <ele>1.1</ele>
        <time>2016-05-01T03:47:10Z</time>
      </trkpt>
      <trkpt lat="47.64383" lon="-3.44571">
        <ele>1.1</ele>
        <time>2016-05-01T03:47:30Z</time>
      </trkpt>
      <trkpt lat="47.64383" lon="-3.4457">
        <ele>0.14</ele>
        <time>2016-05-01T03:48:02Z</time>
      </trkpt>
      <trkpt lat="47.64384" lon="-3.4457">
        <ele>0.14</ele>
        <time>2016-05-01T03:48:26Z</time>
      </trkpt>
      <trkpt lat="47.64384" lon="-3.4457">
        <ele>0.14</ele>
        <time>2016-05-01T03:48:58Z</time>
      </trkpt>
      <trkpt lat="47.64384" lon="-3.4457">
        <ele>0.62</ele>
        <time>2016-05-01T03:49:16Z</time>
      </trkpt>
      <trkpt lat="47.64384" lon="-3.4457">
        <ele>0.62</ele>
        <time>2016-05-01T03:49:40Z</time>
      </trkpt>
      <trkpt lat="47.64384" lon="-3.44571">
        <ele>0.14</ele>
        <time>2016-05-01T03:50:11Z</time>
      </trkpt>
      <trkpt lat="47.64384" lon="-3.44571">
        <ele>-0.34</ele>
        <time>2016-05-01T03:50:29Z</time>
      </trkpt>
      <trkpt lat="47.64383" lon="-3.44571">
        <ele>-0.34</ele>
        <time>2016-05-01T03:50:55Z</time>
      </trkpt>
      <trkpt lat="47.64383" lon="-3.44571">
        <ele>0.14</ele>
        <time>2016-05-01T03:51:19Z</time>
      </trkpt>
      <trkpt lat="47.64383" lon="-3.44571">
        <ele>0.14</ele>
        <time>2016-05-01T03:51:46Z</time>
      </trkpt>
      <trkpt lat="47.64383" lon="-3.44571">
        <ele>0.62</ele>
        <time>2016-05-01T03:52:13Z</time>
      </trkpt>
      <trkpt lat="47.64383" lon="-3.44571">
        <ele>0.62</ele>
        <time>2016-05-01T03:52:43Z</time>
      </trkpt>
      <trkpt lat="47.64384" lon="-3.4457">
        <ele>0.62</ele>
        <time>2016-05-01T03:53:16Z</time>
      </trkpt>
      <trkpt lat="47.64384" lon="-3.4457">
        <ele>1.1</ele>
        <time>2016-05-01T03:53:56Z</time>
      </trkpt>
      <trkpt lat="47.64384" lon="-3.44571">
        <ele>1.1</ele>
        <time>2016-05-01T03:54:22Z</time>
      </trkpt>
      <trkpt lat="47.64384" lon="-3.44572">
        <ele>2.06</ele>
        <time>2016-05-01T03:54:52Z</time>
      </trkpt>
      <trkpt lat="47.64384" lon="-3.44572">
        <ele>2.06</ele>
        <time>2016-05-01T03:55:25Z</time>
      </trkpt>
      <trkpt lat="47.64384" lon="-3.44572">
        <ele>3.02</ele>
        <time>2016-05-01T03:55:54Z</time>
      </trkpt>
      <trkpt lat="47.64385" lon="-3.44571">
        <ele>3.98</ele>
        <time>2016-05-01T03:56:34Z</time>
      </trkpt>
      <trkpt lat="47.64384" lon="-3.4457">
        <ele>4.94</ele>
        <time>2016-05-01T03:57:14Z</time>
      </trkpt>
      <trkpt lat="47.64384" lon="-3.4457">
        <ele>4.94</ele>
        <time>2016-05-01T03:57:52Z</time>
      </trkpt>
      <trkpt lat="47.64384" lon="-3.4457">
        <ele>4.94</ele>
        <time>2016-05-01T03:58:26Z</time>
      </trkpt>
      <trkpt lat="47.64384" lon="-3.44571">
        <ele>3.98</ele>
        <time>2016-05-01T03:59:09Z</time>
      </trkpt>
      <trkpt lat="47.64383" lon="-3.44571">
        <ele>3.98</ele>
        <time>2016-05-01T03:59:52Z</time>
      </trkpt>
      <trkpt lat="47.64383" lon="-3.4457">
        <ele>3.98</ele>
        <time>2016-05-01T04:00:26Z</time>
      </trkpt>
      <trkpt lat="47.64384" lon="-3.44571">
        <ele>2.06</ele>
        <time>2016-05-01T04:01:18Z</time>
      </trkpt>
      <trkpt lat="47.64384" lon="-3.44571">
        <ele>1.1</ele>
        <time>2016-05-01T04:02:03Z</time>
      </trkpt>
      <trkpt lat="47.64384" lon="-3.44571">
        <ele>0.62</ele>
        <time>2016-05-01T04:02:40Z</time>
      </trkpt>
      <trkpt lat="47.64383" lon="-3.4457">
        <ele>0.62</ele>
        <time>2016-05-01T04:03:19Z</time>
      </trkpt>
      <trkpt lat="47.64382" lon="-3.4457">
        <ele>1.1</ele>
        <time>2016-05-01T04:04:11Z</time>
      </trkpt>
      <trkpt lat="47.64383" lon="-3.44571">
        <ele>1.1</ele>
        <time>2016-05-01T04:04:36Z</time>
      </trkpt>
      <trkpt lat="47.64383" lon="-3.44571">
        <ele>1.1</ele>
        <time>2016-05-01T04:05:15Z</time>
      </trkpt>
      <trkpt lat="47.64384" lon="-3.44571">
        <ele>0.62</ele>
        <time>2016-05-01T04:05:48Z</time>
      </trkpt>
      <trkpt lat="47.64383" lon="-3.44572">
        <ele>0.14</ele>
        <time>2016-05-01T04:06:31Z</time>
      </trkpt>
      <trkpt lat="47.64384" lon="-3.44572">
        <ele>0.62</ele>
        <time>2016-05-01T04:07:09Z</time>
      </trkpt>
      <trkpt lat="47.64383" lon="-3.44572">
        <ele>0.62</ele>
        <time>2016-05-01T04:07:39Z</time>
      </trkpt>
      <trkpt lat="47.64383" lon="-3.44572">
        <ele>0.14</ele>
        <time>2016-05-01T04:08:15Z</time>
      </trkpt>
      <trkpt lat="47.64383" lon="-3.44571">
        <ele>0.62</ele>
        <time>2016-05-01T04:08:54Z</time>
      </trkpt>
      <trkpt lat="47.64383" lon="-3.44573">
        <ele>0.62</ele>
        <time>2016-05-01T04:09:24Z</time>
      </trkpt>
      <trkpt lat="47.64382" lon="-3.44572">
        <ele>2.06</ele>
        <time>2016-05-01T04:10:06Z</time>
      </trkpt>
      <trkpt lat="47.64383" lon="-3.44573">
        <ele>3.02</ele>
        <time>2016-05-01T04:10:41Z</time>
      </trkpt>
      <trkpt lat="47.64383" lon="-3.44572">
        <ele>3.02</ele>
        <time>2016-05-01T04:11:14Z</time>
      </trkpt>
      <trkpt lat="47.64383" lon="-3.44572">
        <ele>3.02</ele>
        <time>2016-05-01T04:11:48Z</time>
      </trkpt>
      <trkpt lat="47.64383" lon="-3.44572">
        <ele>3.5</ele>
        <time>2016-05-01T04:12:18Z</time>
      </trkpt>
      <trkpt lat="47.64383" lon="-3.44572">
        <ele>3.5</ele>
        <time>2016-05-01T04:13:06Z</time>
      </trkpt>
      <trkpt lat="47.64383" lon="-3.44572">
        <ele>3.98</ele>
        <time>2016-05-01T04:13:48Z</time>
      </trkpt>
      <trkpt lat="47.64382" lon="-3.44572">
        <ele>3.98</ele>
        <time>2016-05-01T04:14:36Z</time>
      </trkpt>
      <trkpt lat="47.64383" lon="-3.44572">
        <ele>3.98</ele>
        <time>2016-05-01T04:15:16Z</time>
      </trkpt>
      <trkpt lat="47.64384" lon="-3.44572">
        <ele>4.94</ele>
        <time>2016-05-01T04:15:59Z</time>
      </trkpt>
      <trkpt lat="47.64383" lon="-3.44572">
        <ele>5.42</ele>
        <time>2016-05-01T04:16:57Z</time>
      </trkpt>
      <trkpt lat="47.64383" lon="-3.44572">
        <ele>6.39</ele>
        <time>2016-05-01T04:17:52Z</time>
      </trkpt>
      <trkpt lat="47.64383" lon="-3.44571">
        <ele>5.42</ele>
        <time>2016-05-01T04:18:34Z</time>
      </trkpt>
      <trkpt lat="47.64383" lon="-3.44571">
        <ele>4.46</ele>
        <time>2016-05-01T04:19:08Z</time>
      </trkpt>
      <trkpt lat="47.64383" lon="-3.44571">
        <ele>3.98</ele>
        <time>2016-05-01T04:19:46Z</time>
      </trkpt>
      <trkpt lat="47.64383" lon="-3.44571">
        <ele>3.5</ele>
        <time>2016-05-01T04:20:22Z</time>
      </trkpt>
      <trkpt lat="47.64382" lon="-3.4457">
        <ele>2.54</ele>
        <time>2016-05-01T04:21:16Z</time>
      </trkpt>
      <trkpt lat="47.64384" lon="-3.44571">
        <ele>3.02</ele>
        <time>2016-05-01T04:22:04Z</time>
      </trkpt>
      <trkpt lat="47.64384" lon="-3.4457">
        <ele>3.02</ele>
        <time>2016-05-01T04:22:37Z</time>
      </trkpt>
      <trkpt lat="47.64383" lon="-3.4457">
        <ele>3.5</ele>
        <time>2016-05-01T04:23:07Z</time>
      </trkpt>
      <trkpt lat="47.64382" lon="-3.44572">
        <ele>3.98</ele>
        <time>2016-05-01T04:23:45Z</time>
      </trkpt>
      <trkpt lat="47.64383" lon="-3.44572">
        <ele>4.94</ele>
        <time>2016-05-01T04:24:20Z</time>
      </trkpt>
      <trkpt lat="47.64383" lon="-3.44572">
        <ele>5.91</ele>
        <time>2016-05-01T04:25:03Z</time>
      </trkpt>
      <trkpt lat="47.64383" lon="-3.44571">
        <ele>5.42</ele>
        <time>2016-05-01T04:25:39Z</time>
      </trkpt>
      <trkpt lat="47.64383" lon="-3.44572">
        <ele>6.39</ele>
        <time>2016-05-01T04:26:25Z</time>
      </trkpt>
      <trkpt lat="47.64383" lon="-3.44571">
        <ele>5.91</ele>
        <time>2016-05-01T04:27:07Z</time>
      </trkpt>
      <trkpt lat="47.64383" lon="-3.44571">
        <ele>5.42</ele>
        <time>2016-05-01T04:27:47Z</time>
      </trkpt>
      <trkpt lat="47.64383" lon="-3.4457">
        <ele>5.42</ele>
        <time>2016-05-01T04:28:24Z</time>
      </trkpt>
      <trkpt lat="47.64383" lon="-3.44569">
        <ele>5.91</ele>
        <time>2016-05-01T04:29:04Z</time>
      </trkpt>
      <trkpt lat="47.64383" lon="-3.4457">
        <ele>5.42</ele>
        <time>2016-05-01T04:29:41Z</time>
      </trkpt>
      <trkpt lat="47.64383" lon="-3.4457">
        <ele>5.91</ele>
        <time>2016-05-01T04:30:18Z</time>
      </trkpt>
      <trkpt lat="47.64383" lon="-3.4457">
        <ele>5.91</ele>
        <time>2016-05-01T04:31:00Z</time>
      </trkpt>
      <trkpt lat="47.64384" lon="-3.44571">
        <ele>6.39</ele>
        <time>2016-05-01T04:31:39Z</time>
      </trkpt>
      <trkpt lat="47.64383" lon="-3.44571">
        <ele>6.39</ele>
        <time>2016-05-01T04:32:23Z</time>
      </trkpt>
      <trkpt lat="47.64384" lon="-3.44571">
        <ele>6.87</ele>
        <time>2016-05-01T04:33:01Z</time>
      </trkpt>
      <trkpt lat="47.64383" lon="-3.4457">
        <ele>6.87</ele>
        <time>2016-05-01T04:33:46Z</time>
      </trkpt>
      <trkpt lat="47.64382" lon="-3.44571">
        <ele>6.87</ele>
        <time>2016-05-01T04:34:23Z</time>
      </trkpt>
      <trkpt lat="47.64382" lon="-3.4457">
        <ele>7.35</ele>
        <time>2016-05-01T04:35:15Z</time>
      </trkpt>
      <trkpt lat="47.64383" lon="-3.44571">
        <ele>7.35</ele>
        <time>2016-05-01T04:36:06Z</time>
      </trkpt>
      <trkpt lat="47.64383" lon="-3.4457">
        <ele>6.39</ele>
        <time>2016-05-01T04:36:43Z</time>
      </trkpt>
      <trkpt lat="47.64383" lon="-3.4457">
        <ele>5.42</ele>
        <time>2016-05-01T04:37:28Z</time>
      </trkpt>
      <trkpt lat="47.64382" lon="-3.44572">
        <ele>5.91</ele>
        <time>2016-05-01T04:38:06Z</time>
      </trkpt>
      <trkpt lat="47.64382" lon="-3.44572">
        <ele>5.42</ele>
        <time>2016-05-01T04:38:40Z</time>
      </trkpt>
      <trkpt lat="47.64382" lon="-3.44571">
        <ele>4.94</ele>
        <time>2016-05-01T04:39:20Z</time>
      </trkpt>
      <trkpt lat="47.64382" lon="-3.44571">
        <ele>3.98</ele>
        <time>2016-05-01T04:39:53Z</time>
      </trkpt>
      <trkpt lat="47.64383" lon="-3.4457">
        <ele>4.46</ele>
        <time>2016-05-01T04:40:24Z</time>
      </trkpt>
      <trkpt lat="47.64383" lon="-3.4457">
        <ele>4.46</ele>
        <time>2016-05-01T04:40:51Z</time>
      </trkpt>
      <trkpt lat="47.64384" lon="-3.4457">
        <ele>4.46</ele>
        <time>2016-05-01T04:41:20Z</time>
      </trkpt>
      <trkpt lat="47.64384" lon="-3.4457">
        <ele>3.98</ele>
        <time>2016-05-01T04:41:45Z</time>
      </trkpt>
      <trkpt lat="47.64383" lon="-3.44571">
        <ele>3.98</ele>
        <time>2016-05-01T04:42:22Z</time>
      </trkpt>
      <trkpt lat="47.64382" lon="-3.44572">
        <ele>3.98</ele>
        <time>2016-05-01T04:42:47Z</time>
      </trkpt>
      <trkpt lat="47.64382" lon="-3.44571">
        <ele>4.94</ele>
        <time>2016-05-01T04:43:18Z</time>
      </trkpt>
      <trkpt lat="47.64382" lon="-3.44571">
        <ele>4.94</ele>
        <time>2016-05-01T04:43:56Z</time>
      </trkpt>
      <trkpt lat="47.64381" lon="-3.44571">
        <ele>6.39</ele>
        <time>2016-05-01T04:44:28Z</time>
      </trkpt>
      <trkpt lat="47.64382" lon="-3.44572">
        <ele>6.87</ele>
        <time>2016-05-01T04:45:00Z</time>
      </trkpt>
      <trkpt lat="47.64381" lon="-3.44572">
        <ele>7.35</ele>
        <time>2016-05-01T04:45:36Z</time>
      </trkpt>
      <trkpt lat="47.64382" lon="-3.44573">
        <ele>7.35</ele>
        <time>2016-05-01T04:46:10Z</time>
      </trkpt>
      <trkpt lat="47.64381" lon="-3.44572">
        <ele>7.35</ele>
        <time>2016-05-01T04:46:46Z</time>
      </trkpt>
      <trkpt lat="47.64381" lon="-3.44573">
        <ele>7.35</ele>
        <time>2016-05-01T04:47:13Z</time>
      </trkpt>
      <trkpt lat="47.64382" lon="-3.44572">
        <ele>7.35</ele>
        <time>2016-05-01T04:47:44Z</time>
      </trkpt>
      <trkpt lat="47.6438" lon="-3.44573">
        <ele>6.87</ele>
        <time>2016-05-01T04:48:22Z</time>
      </trkpt>
      <trkpt lat="47.6438" lon="-3.44572">
        <ele>5.91</ele>
        <time>2016-05-01T04:49:03Z</time>
      </trkpt>
      <trkpt lat="47.6438" lon="-3.44572">
        <ele>5.42</ele>
        <time>2016-05-01T04:49:29Z</time>
      </trkpt>
      <trkpt lat="47.64379" lon="-3.44573">
        <ele>4.46</ele>
        <time>2016-05-01T04:49:58Z</time>
      </trkpt>
      <trkpt lat="47.6438" lon="-3.44572">
        <ele>3.5</ele>
        <time>2016-05-01T04:50:38Z</time>
      </trkpt>
      <trkpt lat="47.64381" lon="-3.44572">
        <ele>3.5</ele>
        <time>2016-05-01T04:51:13Z</time>
      </trkpt>
      <trkpt lat="47.64381" lon="-3.44573">
        <ele>3.02</ele>
        <time>2016-05-01T04:51:44Z</time>
      </trkpt>
      <trkpt lat="47.6438" lon="-3.44572">
        <ele>4.94</ele>
        <time>2016-05-01T04:52:30Z</time>
      </trkpt>
      <trkpt lat="47.64381" lon="-3.4457">
        <ele>4.46</ele>
        <time>2016-05-01T04:53:08Z</time>
      </trkpt>
      <trkpt lat="47.64381" lon="-3.44572">
        <ele>4.94</ele>
        <time>2016-05-01T04:53:53Z</time>
      </trkpt>
      <trkpt lat="47.64381" lon="-3.44573">
        <ele>4.94</ele>
        <time>2016-05-01T04:54:33Z</time>
      </trkpt>
      <trkpt lat="47.64381" lon="-3.44571">
        <ele>5.91</ele>
        <time>2016-05-01T04:55:13Z</time>
      </trkpt>
      <trkpt lat="47.64381" lon="-3.44572">
        <ele>4.94</ele>
        <time>2016-05-01T04:55:47Z</time>
      </trkpt>
      <trkpt lat="47.64381" lon="-3.44572">
        <ele>3.5</ele>
        <time>2016-05-01T04:56:24Z</time>
      </trkpt>
      <trkpt lat="47.64381" lon="-3.44572">
        <ele>3.98</ele>
        <time>2016-05-01T04:57:03Z</time>
      </trkpt>
      <trkpt lat="47.64382" lon="-3.44572">
        <ele>3.5</ele>
        <time>2016-05-01T04:57:45Z</time>
      </trkpt>
      <trkpt lat="47.64381" lon="-3.44573">
        <ele>4.46</ele>
        <time>2016-05-01T04:58:33Z</time>
      </trkpt>
      <trkpt lat="47.64381" lon="-3.44573">
        <ele>4.94</ele>
        <time>2016-05-01T04:59:15Z</time>
      </trkpt>
      <trkpt lat="47.64381" lon="-3.44574">
        <ele>5.42</ele>
        <time>2016-05-01T04:59:51Z</time>
      </trkpt>
      <trkpt lat="47.6438" lon="-3.44573">
        <ele>4.46</ele>
        <time>2016-05-01T05:00:23Z</time>
      </trkpt>
      <trkpt lat="47.6438" lon="-3.44572">
        <ele>4.46</ele>
        <time>2016-05-01T05:01:01Z</time>
      </trkpt>
      <trkpt lat="47.64381" lon="-3.44572">
        <ele>4.94</ele>
        <time>2016-05-01T05:01:37Z</time>
      </trkpt>
      <trkpt lat="47.64381" lon="-3.44572">
        <ele>4.94</ele>
        <time>2016-05-01T05:02:24Z</time>
      </trkpt>
      <trkpt lat="47.64381" lon="-3.44571">
        <ele>5.91</ele>
        <time>2016-05-01T05:02:55Z</time>
      </trkpt>
      <trkpt lat="47.64381" lon="-3.44572">
        <ele>5.91</ele>
        <time>2016-05-01T05:03:32Z</time>
      </trkpt>
      <trkpt lat="47.64382" lon="-3.44573">
        <ele>5.42</ele>
        <time>2016-05-01T05:04:02Z</time>
      </trkpt>
      <trkpt lat="47.64382" lon="-3.44573">
        <ele>6.39</ele>
        <time>2016-05-01T05:04:36Z</time>
      </trkpt>
      <trkpt lat="47.64382" lon="-3.44574">
        <ele>6.39</ele>
        <time>2016-05-01T05:05:09Z</time>
      </trkpt>
      <trkpt lat="47.64382" lon="-3.44574">
        <ele>5.91</ele>
        <time>2016-05-01T05:05:41Z</time>
      </trkpt>
      <trkpt lat="47.64382" lon="-3.44575">
        <ele>6.39</ele>
        <time>2016-05-01T05:06:15Z</time>
      </trkpt>
      <trkpt lat="47.64382" lon="-3.44575">
        <ele>6.39</ele>
        <time>2016-05-01T05:06:45Z</time>
      </trkpt>
      <trkpt lat="47.64382" lon="-3.44576">
        <ele>5.91</ele>
        <time>2016-05-01T05:07:30Z</time>
      </trkpt>
      <trkpt lat="47.64381" lon="-3.44575">
        <ele>5.42</ele>
        <time>2016-05-01T05:08:04Z</time>
      </trkpt>
      <trkpt lat="47.64381" lon="-3.44575">
        <ele>5.42</ele>
        <time>2016-05-01T05:08:33Z</time>
      </trkpt>
      <trkpt lat="47.64382" lon="-3.44577">
        <ele>6.39</ele>
        <time>2016-05-01T05:09:06Z</time>
      </trkpt>
      <trkpt lat="47.64382" lon="-3.44576">
        <ele>6.39</ele>
        <time>2016-05-01T05:09:29Z</time>
      </trkpt>
      <trkpt lat="47.64382" lon="-3.44576">
        <ele>5.91</ele>
        <time>2016-05-01T05:10:00Z</time>
      </trkpt>
      <trkpt lat="47.64382" lon="-3.44576">
        <ele>5.42</ele>
        <time>2016-05-01T05:10:31Z</time>
      </trkpt>
      <trkpt lat="47.64382" lon="-3.44575">
        <ele>4.94</ele>
        <time>2016-05-01T05:10:53Z</time>
      </trkpt>
      <trkpt lat="47.64383" lon="-3.44574">
        <ele>5.42</ele>
        <time>2016-05-01T05:11:35Z</time>
      </trkpt>
      <trkpt lat="47.64383" lon="-3.44573">
        <ele>5.42</ele>
        <time>2016-05-01T05:12:01Z</time>
      </trkpt>
      <trkpt lat="47.64383" lon="-3.44574">
        <ele>4.94</ele>
        <time>2016-05-01T05:12:29Z</time>
      </trkpt>
      <trkpt lat="47.64382" lon="-3.44574">
        <ele>4.46</ele>
        <time>2016-05-01T05:13:00Z</time>
      </trkpt>
      <trkpt lat="47.64382" lon="-3.44574">
        <ele>3.98</ele>
        <time>2016-05-01T05:13:26Z</time>
      </trkpt>
      <trkpt lat="47.64383" lon="-3.44574">
        <ele>2.54</ele>
        <time>2016-05-01T05:14:05Z</time>
      </trkpt>
      <trkpt lat="47.64384" lon="-3.44575">
        <ele>2.06</ele>
        <time>2016-05-01T05:14:38Z</time>
      </trkpt>
      <trkpt lat="47.64383" lon="-3.44576">
        <ele>2.06</ele>
        <time>2016-05-01T05:15:08Z</time>
      </trkpt>
      <trkpt lat="47.64384" lon="-3.44574">
        <ele>2.06</ele>
        <time>2016-05-01T05:15:51Z</time>
      </trkpt>
      <trkpt lat="47.64384" lon="-3.44575">
        <ele>2.54</ele>
        <time>2016-05-01T05:16:19Z</time>
      </trkpt>
      <trkpt lat="47.64383" lon="-3.44574">
        <ele>2.54</ele>
        <time>2016-05-01T05:16:54Z</time>
      </trkpt>
      <trkpt lat="47.64383" lon="-3.44574">
        <ele>2.54</ele>
        <time>2016-05-01T05:17:24Z</time>
      </trkpt>
      <trkpt lat="47.64382" lon="-3.44573">
        <ele>3.02</ele>
        <time>2016-05-01T05:18:04Z</time>
      </trkpt>
      <trkpt lat="47.64381" lon="-3.44574">
        <ele>2.54</ele>
        <time>2016-05-01T05:18:32Z</time>
      </trkpt>
      <trkpt lat="47.64381" lon="-3.44573">
        <ele>2.54</ele>
        <time>2016-05-01T05:19:06Z</time>
      </trkpt>
      <trkpt lat="47.64382" lon="-3.44573">
        <ele>3.5</ele>
        <time>2016-05-01T05:19:48Z</time>
      </trkpt>
      <trkpt lat="47.64381" lon="-3.44572">
        <ele>3.02</ele>
        <time>2016-05-01T05:20:25Z</time>
      </trkpt>
      <trkpt lat="47.64383" lon="-3.44571">
        <ele>3.02</ele>
        <time>2016-05-01T05:21:10Z</time>
      </trkpt>
      <trkpt lat="47.64382" lon="-3.44572">
        <ele>1.58</ele>
        <time>2016-05-01T05:21:53Z</time>
      </trkpt>
      <trkpt lat="47.64382" lon="-3.44573">
        <ele>0.62</ele>
        <time>2016-05-01T05:22:29Z</time>
      </trkpt>
      <trkpt lat="47.64382" lon="-3.44573">
        <ele>0.62</ele>
        <time>2016-05-01T05:23:13Z</time>
      </trkpt>
      <trkpt lat="47.64382" lon="-3.44573">
        <ele>0.62</ele>
        <time>2016-05-01T05:23:58Z</time>
      </trkpt>
      <trkpt lat="47.64382" lon="-3.44573">
        <ele>0.14</ele>
        <time>2016-05-01T05:24:27Z</time>
      </trkpt>
      <trkpt lat="47.64382" lon="-3.44573">
        <ele>-0.82</ele>
        <time>2016-05-01T05:25:01Z</time>
      </trkpt>
      <trkpt lat="47.64382" lon="-3.44574">
        <ele>-1.3</ele>
        <time>2016-05-01T05:25:27Z</time>
      </trkpt>
      <trkpt lat="47.64382" lon="-3.44575">
        <ele>-0.34</ele>
        <time>2016-05-01T05:26:19Z</time>
      </trkpt>
      <trkpt lat="47.64382" lon="-3.44575">
        <ele>-1.3</ele>
        <time>2016-05-01T05:26:59Z</time>
      </trkpt>
      <trkpt lat="47.64381" lon="-3.44574">
        <ele>-0.34</ele>
        <time>2016-05-01T05:27:50Z</time>
      </trkpt>
      <trkpt lat="47.64382" lon="-3.44573">
        <ele>-0.34</ele>
        <time>2016-05-01T05:28:42Z</time>
      </trkpt>
      <trkpt lat="47.64382" lon="-3.44573">
        <ele>-0.34</ele>
        <time>2016-05-01T05:29:32Z</time>
      </trkpt>
      <trkpt lat="47.64382" lon="-3.44574">
        <ele>-0.82</ele>
        <time>2016-05-01T05:30:02Z</time>
      </trkpt>
      <trkpt lat="47.64382" lon="-3.44574">
        <ele>-1.79</ele>
        <time>2016-05-01T05:30:33Z</time>
      </trkpt>
      <trkpt lat="47.64381" lon="-3.44573">
        <ele>-2.27</ele>
        <time>2016-05-01T05:31:21Z</time>
      </trkpt>
      <trkpt lat="47.64382" lon="-3.44571">
        <ele>-3.71</ele>
        <time>2016-05-01T05:31:58Z</time>
      </trkpt>
      <trkpt lat="47.64382" lon="-3.44574">
        <ele>-4.67</ele>
        <time>2016-05-01T05:32:29Z</time>
      </trkpt>
      <trkpt lat="47.64383" lon="-3.44573">
        <ele>-4.19</ele>
        <time>2016-05-01T05:33:23Z</time>
      </trkpt>
      <trkpt lat="47.64383" lon="-3.44572">
        <ele>-5.63</ele>
        <time>2016-05-01T05:34:06Z</time>
      </trkpt>
      <trkpt lat="47.64382" lon="-3.44571">
        <ele>-6.59</ele>
        <time>2016-05-01T05:34:44Z</time>
      </trkpt>
      <trkpt lat="47.64383" lon="-3.44571">
        <ele>-5.63</ele>
        <time>2016-05-01T05:35:28Z</time>
      </trkpt>
      <trkpt lat="47.64382" lon="-3.44572">
        <ele>-5.15</ele>
        <time>2016-05-01T05:36:05Z</time>
      </trkpt>
      <trkpt lat="47.64382" lon="-3.44573">
        <ele>-6.11</ele>
        <time>2016-05-01T05:36:52Z</time>
      </trkpt>
      <trkpt lat="47.64383" lon="-3.44571">
        <ele>-5.15</ele>
        <time>2016-05-01T05:37:42Z</time>
      </trkpt>
      <trkpt lat="47.64383" lon="-3.44572">
        <ele>-4.67</ele>
        <time>2016-05-01T05:38:28Z</time>
      </trkpt>
      <trkpt lat="47.64383" lon="-3.44571">
        <ele>-4.67</ele>
        <time>2016-05-01T05:39:10Z</time>
      </trkpt>
      <trkpt lat="47.6438" lon="-3.44573">
        <ele>-4.19</ele>
        <time>2016-05-01T05:39:49Z</time>
      </trkpt>
      <trkpt lat="47.64381" lon="-3.44573">
        <ele>-5.15</ele>
        <time>2016-05-01T05:40:31Z</time>
      </trkpt>
      <trkpt lat="47.64382" lon="-3.44573">
        <ele>-6.59</ele>
        <time>2016-05-01T05:41:06Z</time>
      </trkpt>
      <trkpt lat="47.64382" lon="-3.44572">
        <ele>-5.63</ele>
        <time>2016-05-01T05:41:53Z</time>
      </trkpt>
      <trkpt lat="47.64382" lon="-3.44573">
        <ele>-5.15</ele>
        <time>2016-05-01T05:42:26Z</time>
      </trkpt>
      <trkpt lat="47.64382" lon="-3.44572">
        <ele>-5.15</ele>
        <time>2016-05-01T05:43:08Z</time>
      </trkpt>
      <trkpt lat="47.64382" lon="-3.44573">
        <ele>-5.15</ele>
        <time>2016-05-01T05:43:46Z</time>
      </trkpt>
      <trkpt lat="47.64382" lon="-3.44572">
        <ele>-3.23</ele>
        <time>2016-05-01T05:44:42Z</time>
      </trkpt>
      <trkpt lat="47.64381" lon="-3.44573">
        <ele>-2.75</ele>
        <time>2016-05-01T05:45:18Z</time>
      </trkpt>
      <trkpt lat="47.64382" lon="-3.44573">
        <ele>-2.75</ele>
        <time>2016-05-01T05:46:00Z</time>
      </trkpt>
      <trkpt lat="47.64382" lon="-3.44572">
        <ele>-4.19</ele>
        <time>2016-05-01T05:46:41Z</time>
      </trkpt>
      <trkpt lat="47.64382" lon="-3.44571">
        <ele>-4.19</ele>
        <time>2016-05-01T05:47:17Z</time>
      </trkpt>
      <trkpt lat="47.64382" lon="-3.44573">
        <ele>-3.71</ele>
        <time>2016-05-01T05:47:57Z</time>
      </trkpt>
      <trkpt lat="47.64382" lon="-3.44571">
        <ele>-4.19</ele>
        <time>2016-05-01T05:48:42Z</time>
      </trkpt>
      <trkpt lat="47.64382" lon="-3.44571">
        <ele>-4.67</ele>
        <time>2016-05-01T05:49:29Z</time>
      </trkpt>
      <trkpt lat="47.64382" lon="-3.44572">
        <ele>-4.67</ele>
        <time>2016-05-01T05:50:08Z</time>
      </trkpt>
      <trkpt lat="47.64381" lon="-3.44573">
        <ele>-4.67</ele>
        <time>2016-05-01T05:50:59Z</time>
      </trkpt>
      <trkpt lat="47.64382" lon="-3.44573">
        <ele>-6.11</ele>
        <time>2016-05-01T05:51:40Z</time>
      </trkpt>
      <trkpt lat="47.64382" lon="-3.44572">
        <ele>-6.59</ele>
        <time>2016-05-01T05:52:32Z</time>
      </trkpt>
      <trkpt lat="47.64383" lon="-3.44571">
        <ele>-6.11</ele>
        <time>2016-05-01T05:53:11Z</time>
      </trkpt>
      <trkpt lat="47.64382" lon="-3.44572">
        <ele>-6.11</ele>
        <time>2016-05-01T05:54:02Z</time>
      </trkpt>
      <trkpt lat="47.64383" lon="-3.44571">
        <ele>-5.63</ele>
        <time>2016-05-01T05:54:36Z</time>
      </trkpt>
      <trkpt lat="47.64382" lon="-3.44573">
        <ele>-5.63</ele>
        <time>2016-05-01T05:55:15Z</time>
      </trkpt>
      <trkpt lat="47.64382" lon="-3.44573">
        <ele>-5.63</ele>
        <time>2016-05-01T05:56:00Z</time>
      </trkpt>
      <trkpt lat="47.64383" lon="-3.44574">
        <ele>-6.59</ele>
        <time>2016-05-01T05:56:47Z</time>
      </trkpt>
      <trkpt lat="47.64382" lon="-3.44572">
        <ele>-6.59</ele>
        <time>2016-05-01T05:57:31Z</time>
      </trkpt>
      <trkpt lat="47.64381" lon="-3.44572">
        <ele>-6.59</ele>
        <time>2016-05-01T05:58:03Z</time>
      </trkpt>
      <trkpt lat="47.64381" lon="-3.44573">
        <ele>-5.15</ele>
        <time>2016-05-01T05:58:54Z</time>
      </trkpt>
      <trkpt lat="47.64381" lon="-3.44573">
        <ele>-5.63</ele>
        <time>2016-05-01T05:59:41Z</time>
      </trkpt>
      <trkpt lat="47.64381" lon="-3.44573">
        <ele>-6.59</ele>
        <time>2016-05-01T06:00:22Z</time>
      </trkpt>
      <trkpt lat="47.64381" lon="-3.44572">
        <ele>-7.07</ele>
        <time>2016-05-01T06:01:02Z</time>
      </trkpt>
      <trkpt lat="47.64381" lon="-3.44573">
        <ele>-6.59</ele>
        <time>2016-05-01T06:01:46Z</time>
      </trkpt>
      <trkpt lat="47.64381" lon="-3.44573">
        <ele>-5.15</ele>
        <time>2016-05-01T06:02:22Z</time>
      </trkpt>
      <trkpt lat="47.64382" lon="-3.44573">
        <ele>-6.59</ele>
        <time>2016-05-01T06:03:16Z</time>
      </trkpt>
      <trkpt lat="47.64382" lon="-3.44573">
        <ele>-7.07</ele>
        <time>2016-05-01T06:03:53Z</time>
      </trkpt>
      <trkpt lat="47.64381" lon="-3.44573">
        <ele>-7.07</ele>
        <time>2016-05-01T06:04:33Z</time>
      </trkpt>
      <trkpt lat="47.64381" lon="-3.44573">
        <ele>-7.07</ele>
        <time>2016-05-01T06:05:08Z</time>
      </trkpt>
      <trkpt lat="47.64381" lon="-3.44572">
        <ele>-6.59</ele>
        <time>2016-05-01T06:05:42Z</time>
      </trkpt>
      <trkpt lat="47.64382" lon="-3.44572">
        <ele>-6.59</ele>
        <time>2016-05-01T06:06:17Z</time>
      </trkpt>
      <trkpt lat="47.64381" lon="-3.44571">
        <ele>-5.15</ele>
        <time>2016-05-01T06:06:54Z</time>
      </trkpt>
      <trkpt lat="47.64381" lon="-3.44571">
        <ele>-4.67</ele>
        <time>2016-05-01T06:07:36Z</time>
      </trkpt>
      <trkpt lat="47.64382" lon="-3.44572">
        <ele>-4.67</ele>
        <time>2016-05-01T06:08:14Z</time>
      </trkpt>
      <trkpt lat="47.64381" lon="-3.44572">
        <ele>-4.67</ele>
        <time>2016-05-01T06:08:52Z</time>
      </trkpt>
      <trkpt lat="47.64381" lon="-3.44571">
        <ele>-3.71</ele>
        <time>2016-05-01T06:09:30Z</time>
      </trkpt>
      <trkpt lat="47.64381" lon="-3.44571">
        <ele>-3.23</ele>
        <time>2016-05-01T06:10:03Z</time>
      </trkpt>
      <trkpt lat="47.64381" lon="-3.4457">
        <ele>-3.23</ele>
        <time>2016-05-01T06:10:44Z</time>
      </trkpt>
      <trkpt lat="47.6438" lon="-3.4457">
        <ele>-3.71</ele>
        <time>2016-05-01T06:11:18Z</time>
      </trkpt>
      <trkpt lat="47.64381" lon="-3.44571">
        <ele>-3.71</ele>
        <time>2016-05-01T06:11:53Z</time>
      </trkpt>
      <trkpt lat="47.64381" lon="-3.44571">
        <ele>-3.71</ele>
        <time>2016-05-01T06:12:32Z</time>
      </trkpt>
      <trkpt lat="47.6438" lon="-3.44569">
        <ele>-4.19</ele>
        <time>2016-05-01T06:13:05Z</time>
      </trkpt>
      <trkpt lat="47.6438" lon="-3.44569">
        <ele>-4.19</ele>
        <time>2016-05-01T06:13:38Z</time>
      </trkpt>
      <trkpt lat="47.64381" lon="-3.4457">
        <ele>-3.71</ele>
        <time>2016-05-01T06:14:21Z</time>
      </trkpt>
      <trkpt lat="47.64382" lon="-3.44571">
        <ele>-2.27</ele>
        <time>2016-05-01T06:14:51Z</time>
      </trkpt>
      <trkpt lat="47.64382" lon="-3.44572">
        <ele>-1.79</ele>
        <time>2016-05-01T06:15:32Z</time>
      </trkpt>
      <trkpt lat="47.64382" lon="-3.44571">
        <ele>-1.79</ele>
        <time>2016-05-01T06:15:59Z</time>
      </trkpt>
      <trkpt lat="47.64382" lon="-3.44571">
        <ele>-1.79</ele>
        <time>2016-05-01T06:16:32Z</time>
      </trkpt>
      <trkpt lat="47.64382" lon="-3.4457">
        <ele>-1.79</ele>
        <time>2016-05-01T06:17:00Z</time>
      </trkpt>
      <trkpt lat="47.64382" lon="-3.44571">
        <ele>-1.3</ele>
        <time>2016-05-01T06:17:41Z</time>
      </trkpt>
      <trkpt lat="47.64382" lon="-3.44572">
        <ele>-1.3</ele>
        <time>2016-05-01T06:18:10Z</time>
      </trkpt>
      <trkpt lat="47.64382" lon="-3.44573">
        <ele>-1.3</ele>
        <time>2016-05-01T06:18:49Z</time>
      </trkpt>
      <trkpt lat="47.64381" lon="-3.44572">
        <ele>-0.82</ele>
        <time>2016-05-01T06:19:23Z</time>
      </trkpt>
      <trkpt lat="47.64381" lon="-3.44572">
        <ele>0.14</ele>
        <time>2016-05-01T06:20:01Z</time>
      </trkpt>
      <trkpt lat="47.64382" lon="-3.44572">
        <ele>0.14</ele>
        <time>2016-05-01T06:20:36Z</time>
      </trkpt>
      <trkpt lat="47.64383" lon="-3.44572">
        <ele>0.14</ele>
        <time>2016-05-01T06:21:11Z</time>
      </trkpt>
      <trkpt lat="47.64382" lon="-3.44571">
        <ele>1.58</ele>
        <time>2016-05-01T06:21:45Z</time>
      </trkpt>
      <trkpt lat="47.64382" lon="-3.44572">
        <ele>2.06</ele>
        <time>2016-05-01T06:22:14Z</time>
      </trkpt>
      <trkpt lat="47.64382" lon="-3.44571">
        <ele>1.58</ele>
        <time>2016-05-01T06:22:44Z</time>
      </trkpt>
      <trkpt lat="47.64381" lon="-3.44571">
        <ele>2.06</ele>
        <time>2016-05-01T06:23:21Z</time>
      </trkpt>
      <trkpt lat="47.64382" lon="-3.4457">
        <ele>3.02</ele>
        <time>2016-05-01T06:23:55Z</time>
      </trkpt>
      <trkpt lat="47.64381" lon="-3.4457">
        <ele>3.5</ele>
        <time>2016-05-01T06:24:24Z</time>
      </trkpt>
      <trkpt lat="47.64381" lon="-3.4457">
        <ele>3.5</ele>
        <time>2016-05-01T06:24:52Z</time>
      </trkpt>
      <trkpt lat="47.64381" lon="-3.44571">
        <ele>3.02</ele>
        <time>2016-05-01T06:25:23Z</time>
      </trkpt>
      <trkpt lat="47.64381" lon="-3.44571">
        <ele>3.5</ele>
        <time>2016-05-01T06:25:44Z</time>
      </trkpt>
      <trkpt lat="47.6438" lon="-3.4457">
        <ele>3.5</ele>
        <time>2016-05-01T06:26:05Z</time>
      </trkpt>
      <trkpt lat="47.6438" lon="-3.44571">
        <ele>3.5</ele>
        <time>2016-05-01T06:26:29Z</time>
      </trkpt>
      <trkpt lat="47.64381" lon="-3.44569">
        <ele>3.98</ele>
        <time>2016-05-01T06:27:01Z</time>
      </trkpt>
      <trkpt lat="47.64381" lon="-3.44569">
        <ele>3.5</ele>
        <time>2016-05-01T06:27:33Z</time>
      </trkpt>
      <trkpt lat="47.64382" lon="-3.4457">
        <ele>3.5</ele>
        <time>2016-05-01T06:28:06Z</time>
      </trkpt>
      <trkpt lat="47.64382" lon="-3.4457">
        <ele>3.02</ele>
        <time>2016-05-01T06:28:38Z</time>
      </trkpt>
      <trkpt lat="47.64382" lon="-3.4457">
        <ele>2.54</ele>
        <time>2016-05-01T06:29:12Z</time>
      </trkpt>
      <trkpt lat="47.64382" lon="-3.44572">
        <ele>3.02</ele>
        <time>2016-05-01T06:29:41Z</time>
      </trkpt>
      <trkpt lat="47.64383" lon="-3.44573">
        <ele>3.5</ele>
        <time>2016-05-01T06:30:09Z</time>
      </trkpt>
      <trkpt lat="47.64383" lon="-3.44571">
        <ele>3.02</ele>
        <time>2016-05-01T06:30:41Z</time>
      </trkpt>
      <trkpt lat="47.64382" lon="-3.44571">
        <ele>3.5</ele>
        <time>2016-05-01T06:31:16Z</time>
      </trkpt>
      <trkpt lat="47.64383" lon="-3.44572">
        <ele>3.5</ele>
        <time>2016-05-01T06:31:45Z</time>
      </trkpt>
      <trkpt lat="47.64383" lon="-3.44572">
        <ele>3.02</ele>
        <time>2016-05-01T06:32:18Z</time>
      </trkpt>
      <trkpt lat="47.64383" lon="-3.44572">
        <ele>3.02</ele>
        <time>2016-05-01T06:32:45Z</time>
      </trkpt>
      <trkpt lat="47.64384" lon="-3.44571">
        <ele>3.02</ele>
        <time>2016-05-01T06:33:21Z</time>
      </trkpt>
      <trkpt lat="47.64383" lon="-3.4457">
        <ele>2.54</ele>
        <time>2016-05-01T06:33:55Z</time>
      </trkpt>
      <trkpt lat="47.64383" lon="-3.44571">
        <ele>2.54</ele>
        <time>2016-05-01T06:34:19Z</time>
      </trkpt>
      <trkpt lat="47.64383" lon="-3.44571">
        <ele>2.06</ele>
        <time>2016-05-01T06:34:50Z</time>
      </trkpt>
      <trkpt lat="47.64383" lon="-3.44571">
        <ele>2.06</ele>
        <time>2016-05-01T06:35:27Z</time>
      </trkpt>
      <trkpt lat="47.64383" lon="-3.4457">
        <ele>2.06</ele>
        <time>2016-05-01T06:35:57Z</time>
      </trkpt>
      <trkpt lat="47.64383" lon="-3.4457">
        <ele>2.06</ele>
        <time>2016-05-01T06:36:17Z</time>
      </trkpt>
      <trkpt lat="47.64382" lon="-3.4457">
        <ele>1.58</ele>
        <time>2016-05-01T06:36:39Z</time>
      </trkpt>
      <trkpt lat="47.64381" lon="-3.4457">
        <ele>1.1</ele>
        <time>2016-05-01T06:37:00Z</time>
      </trkpt>
      <trkpt lat="47.64381" lon="-3.4457">
        <ele>0.62</ele>
        <time>2016-05-01T06:37:25Z</time>
      </trkpt>
      <trkpt lat="47.64381" lon="-3.4457">
        <ele>1.1</ele>
        <time>2016-05-01T06:37:49Z</time>
      </trkpt>
      <trkpt lat="47.64381" lon="-3.4457">
        <ele>1.1</ele>
        <time>2016-05-01T06:38:17Z</time>
      </trkpt>
      <trkpt lat="47.64381" lon="-3.4457">
        <ele>1.1</ele>
        <time>2016-05-01T06:38:43Z</time>
      </trkpt>
      <trkpt lat="47.64382" lon="-3.4457">
        <ele>0.62</ele>
        <time>2016-05-01T06:39:09Z</time>
      </trkpt>
      <trkpt lat="47.64383" lon="-3.4457">
        <ele>1.58</ele>
        <time>2016-05-01T06:39:38Z</time>
      </trkpt>
      <trkpt lat="47.64382" lon="-3.4457">
        <ele>1.58</ele>
        <time>2016-05-01T06:40:14Z</time>
      </trkpt>
      <trkpt lat="47.64382" lon="-3.4457">
        <ele>1.58</ele>
        <time>2016-05-01T06:40:47Z</time>
      </trkpt>
      <trkpt lat="47.64382" lon="-3.4457">
        <ele>2.06</ele>
        <time>2016-05-01T06:41:18Z</time>
      </trkpt>
      <trkpt lat="47.64382" lon="-3.4457">
        <ele>2.06</ele>
        <time>2016-05-01T06:41:52Z</time>
      </trkpt>
      <trkpt lat="47.64382" lon="-3.4457">
        <ele>2.06</ele>
        <time>2016-05-01T06:42:21Z</time>
      </trkpt>
      <trkpt lat="47.64381" lon="-3.4457">
        <ele>1.58</ele>
        <time>2016-05-01T06:42:48Z</time>
      </trkpt>
      <trkpt lat="47.64381" lon="-3.4457">
        <ele>2.06</ele>
        <time>2016-05-01T06:43:20Z</time>
      </trkpt>
      <trkpt lat="47.64382" lon="-3.44568">
        <ele>2.54</ele>
        <time>2016-05-01T06:43:52Z</time>
      </trkpt>
      <trkpt lat="47.64382" lon="-3.44569">
        <ele>2.06</ele>
        <time>2016-05-01T06:44:17Z</time>
      </trkpt>
      <trkpt lat="47.64382" lon="-3.44569">
        <ele>1.58</ele>
        <time>2016-05-01T06:44:52Z</time>
      </trkpt>
      <trkpt lat="47.64381" lon="-3.4457">
        <ele>1.58</ele>
        <time>2016-05-01T06:45:19Z</time>
      </trkpt>
      <trkpt lat="47.64381" lon="-3.4457">
        <ele>1.1</ele>
        <time>2016-05-01T06:45:43Z</time>
      </trkpt>
      <trkpt lat="47.64381" lon="-3.44571">
        <ele>1.58</ele>
        <time>2016-05-01T06:46:09Z</time>
      </trkpt>
      <trkpt lat="47.64381" lon="-3.4457">
        <ele>1.1</ele>
        <time>2016-05-01T06:46:29Z</time>
      </trkpt>
      <trkpt lat="47.64381" lon="-3.4457">
        <ele>1.1</ele>
        <time>2016-05-01T06:46:51Z</time>
      </trkpt>
      <trkpt lat="47.64381" lon="-3.4457">
        <ele>1.1</ele>
        <time>2016-05-01T06:47:21Z</time>
      </trkpt>
      <trkpt lat="47.64381" lon="-3.44571">
        <ele>1.58</ele>
        <time>2016-05-01T06:47:50Z</time>
      </trkpt>
      <trkpt lat="47.64382" lon="-3.4457">
        <ele>1.58</ele>
        <time>2016-05-01T06:48:16Z</time>
      </trkpt>
      <trkpt lat="47.64381" lon="-3.44569">
        <ele>1.58</ele>
        <time>2016-05-01T06:48:39Z</time>
      </trkpt>
      <trkpt lat="47.6438" lon="-3.44569">
        <ele>2.54</ele>
        <time>2016-05-01T06:49:07Z</time>
      </trkpt>
      <trkpt lat="47.6438" lon="-3.44569">
        <ele>2.54</ele>
        <time>2016-05-01T06:49:32Z</time>
      </trkpt>
      <trkpt lat="47.64381" lon="-3.44568">
        <ele>3.02</ele>
        <time>2016-05-01T06:49:59Z</time>
      </trkpt>
      <trkpt lat="47.6438" lon="-3.44568">
        <ele>2.54</ele>
        <time>2016-05-01T06:50:19Z</time>
      </trkpt>
      <trkpt lat="47.6438" lon="-3.44569">
        <ele>3.02</ele>
        <time>2016-05-01T06:50:45Z</time>
      </trkpt>
      <trkpt lat="47.64381" lon="-3.4457">
        <ele>2.54</ele>
        <time>2016-05-01T06:51:11Z</time>
      </trkpt>
      <trkpt lat="47.64381" lon="-3.4457">
        <ele>2.06</ele>
        <time>2016-05-01T06:51:39Z</time>
      </trkpt>
      <trkpt lat="47.64382" lon="-3.4457">
        <ele>2.06</ele>
        <time>2016-05-01T06:52:00Z</time>
      </trkpt>
      <trkpt lat="47.64382" lon="-3.44569">
        <ele>2.54</ele>
        <time>2016-05-01T06:52:25Z</time>
      </trkpt>
      <trkpt lat="47.64382" lon="-3.4457">
        <ele>3.02</ele>
        <time>2016-05-01T06:52:49Z</time>
      </trkpt>
      <trkpt lat="47.64382" lon="-3.4457">
        <ele>2.54</ele>
        <time>2016-05-01T06:53:13Z</time>
      </trkpt>
      <trkpt lat="47.64381" lon="-3.4457">
        <ele>2.54</ele>
        <time>2016-05-01T06:53:43Z</time>
      </trkpt>
      <trkpt lat="47.64381" lon="-3.44571">
        <ele>1.58</ele>
        <time>2016-05-01T06:54:10Z</time>
      </trkpt>
      <trkpt lat="47.64381" lon="-3.44572">
        <ele>1.1</ele>
        <time>2016-05-01T06:54:39Z</time>
      </trkpt>
      <trkpt lat="47.64381" lon="-3.44572">
        <ele>1.58</ele>
        <time>2016-05-01T06:55:08Z</time>
      </trkpt>
      <trkpt lat="47.64381" lon="-3.44573">
        <ele>1.58</ele>
        <time>2016-05-01T06:55:36Z</time>
      </trkpt>
      <trkpt lat="47.6438" lon="-3.44573">
        <ele>1.58</ele>
        <time>2016-05-01T06:56:00Z</time>
      </trkpt>
      <trkpt lat="47.6438" lon="-3.44572">
        <ele>1.58</ele>
        <time>2016-05-01T06:56:26Z</time>
      </trkpt>
      <trkpt lat="47.6438" lon="-3.44572">
        <ele>1.1</ele>
        <time>2016-05-01T06:56:50Z</time>
      </trkpt>
      <trkpt lat="47.6438" lon="-3.44572">
        <ele>1.58</ele>
        <time>2016-05-01T06:57:15Z</time>
      </trkpt>
      <trkpt lat="47.6438" lon="-3.44571">
        <ele>1.1</ele>
        <time>2016-05-01T06:57:44Z</time>
      </trkpt>
      <trkpt lat="47.6438" lon="-3.44572">
        <ele>2.06</ele>
        <time>2016-05-01T06:58:11Z</time>
      </trkpt>
      <trkpt lat="47.6438" lon="-3.44572">
        <ele>2.06</ele>
        <time>2016-05-01T06:58:36Z</time>
      </trkpt>
      <trkpt lat="47.64379" lon="-3.44572">
        <ele>2.54</ele>
        <time>2016-05-01T06:59:03Z</time>
      </trkpt>
      <trkpt lat="47.64378" lon="-3.44572">
        <ele>2.54</ele>
        <time>2016-05-01T06:59:28Z</time>
      </trkpt>
      <trkpt lat="47.64378" lon="-3.44571">
        <ele>1.58</ele>
        <time>2016-05-01T07:00:00Z</time>
      </trkpt>
      <trkpt lat="47.64378" lon="-3.44571">
        <ele>2.54</ele>
        <time>2016-05-01T07:00:29Z</time>
      </trkpt>
      <trkpt lat="47.64379" lon="-3.44571">
        <ele>2.54</ele>
        <time>2016-05-01T07:00:53Z</time>
      </trkpt>
      <trkpt lat="47.64379" lon="-3.44571">
        <ele>3.02</ele>
        <time>2016-05-01T07:01:22Z</time>
      </trkpt>
      <trkpt lat="47.64379" lon="-3.44571">
        <ele>3.98</ele>
        <time>2016-05-01T07:01:51Z</time>
      </trkpt>
      <trkpt lat="47.64379" lon="-3.44571">
        <ele>3.5</ele>
        <time>2016-05-01T07:02:14Z</time>
      </trkpt>
      <trkpt lat="47.6438" lon="-3.44572">
        <ele>3.5</ele>
        <time>2016-05-01T07:02:38Z</time>
      </trkpt>
      <trkpt lat="47.6438" lon="-3.44573">
        <ele>3.02</ele>
        <time>2016-05-01T07:03:03Z</time>
      </trkpt>
      <trkpt lat="47.64381" lon="-3.44573">
        <ele>4.46</ele>
        <time>2016-05-01T07:03:43Z</time>
      </trkpt>
      <trkpt lat="47.64381" lon="-3.44572">
        <ele>4.46</ele>
        <time>2016-05-01T07:04:14Z</time>
      </trkpt>
      <trkpt lat="47.64381" lon="-3.44572">
        <ele>3.98</ele>
        <time>2016-05-01T07:04:48Z</time>
      </trkpt>
      <trkpt lat="47.6438" lon="-3.44572">
        <ele>4.46</ele>
        <time>2016-05-01T07:05:30Z</time>
      </trkpt>
      <trkpt lat="47.64381" lon="-3.44573">
        <ele>3.02</ele>
        <time>2016-05-01T07:06:10Z</time>
      </trkpt>
      <trkpt lat="47.64381" lon="-3.44572">
        <ele>3.98</ele>
        <time>2016-05-01T07:06:49Z</time>
      </trkpt>
      <trkpt lat="47.64381" lon="-3.44572">
        <ele>3.02</ele>
        <time>2016-05-01T07:07:20Z</time>
      </trkpt>
      <trkpt lat="47.64381" lon="-3.44571">
        <ele>2.06</ele>
        <time>2016-05-01T07:08:00Z</time>
      </trkpt>
      <trkpt lat="47.64382" lon="-3.44572">
        <ele>1.58</ele>
        <time>2016-05-01T07:08:39Z</time>
      </trkpt>
      <trkpt lat="47.64381" lon="-3.44571">
        <ele>1.58</ele>
        <time>2016-05-01T07:09:25Z</time>
      </trkpt>
      <trkpt lat="47.64383" lon="-3.44571">
        <ele>2.06</ele>
        <time>2016-05-01T07:10:11Z</time>
      </trkpt>
      <trkpt lat="47.64382" lon="-3.4457">
        <ele>2.06</ele>
        <time>2016-05-01T07:10:56Z</time>
      </trkpt>
      <trkpt lat="47.64382" lon="-3.4457">
        <ele>1.58</ele>
        <time>2016-05-01T07:11:47Z</time>
      </trkpt>
      <trkpt lat="47.6438" lon="-3.44571">
        <ele>2.54</ele>
        <time>2016-05-01T07:12:39Z</time>
      </trkpt>
      <trkpt lat="47.64381" lon="-3.44571">
        <ele>2.54</ele>
        <time>2016-05-01T07:13:17Z</time>
      </trkpt>
      <trkpt lat="47.64381" lon="-3.4457">
        <ele>2.06</ele>
        <time>2016-05-01T07:14:06Z</time>
      </trkpt>
      <trkpt lat="47.64382" lon="-3.44569">
        <ele>1.1</ele>
        <time>2016-05-01T07:14:44Z</time>
      </trkpt>
      <trkpt lat="47.64382" lon="-3.44569">
        <ele>1.1</ele>
        <time>2016-05-01T07:15:21Z</time>
      </trkpt>
      <trkpt lat="47.64381" lon="-3.44569">
        <ele>2.06</ele>
        <time>2016-05-01T07:16:06Z</time>
      </trkpt>
      <trkpt lat="47.64381" lon="-3.44569">
        <ele>1.58</ele>
        <time>2016-05-01T07:16:50Z</time>
      </trkpt>
      <trkpt lat="47.64381" lon="-3.4457">
        <ele>1.58</ele>
        <time>2016-05-01T07:17:22Z</time>
      </trkpt>
      <trkpt lat="47.64381" lon="-3.4457">
        <ele>1.58</ele>
        <time>2016-05-01T07:18:06Z</time>
      </trkpt>
      <trkpt lat="47.64381" lon="-3.4457">
        <ele>1.1</ele>
        <time>2016-05-01T07:18:48Z</time>
      </trkpt>
      <trkpt lat="47.64381" lon="-3.44571">
        <ele>0.62</ele>
        <time>2016-05-01T07:19:22Z</time>
      </trkpt>
      <trkpt lat="47.64381" lon="-3.44571">
        <ele>0.62</ele>
        <time>2016-05-01T07:20:09Z</time>
      </trkpt>
      <trkpt lat="47.64382" lon="-3.44569">
        <ele>0.62</ele>
        <time>2016-05-01T07:21:00Z</time>
      </trkpt>
      <trkpt lat="47.64383" lon="-3.44568">
        <ele>0.14</ele>
        <time>2016-05-01T07:21:52Z</time>
      </trkpt>
      <trkpt lat="47.64383" lon="-3.44568">
        <ele>-0.34</ele>
        <time>2016-05-01T07:22:37Z</time>
      </trkpt>
      <trkpt lat="47.64384" lon="-3.44568">
        <ele>0.62</ele>
        <time>2016-05-01T07:23:20Z</time>
      </trkpt>
      <trkpt lat="47.64383" lon="-3.44567">
        <ele>1.1</ele>
        <time>2016-05-01T07:23:54Z</time>
      </trkpt>
      <trkpt lat="47.64383" lon="-3.44568">
        <ele>0.62</ele>
        <time>2016-05-01T07:24:28Z</time>
      </trkpt>
      <trkpt lat="47.64383" lon="-3.44568">
        <ele>1.58</ele>
        <time>2016-05-01T07:25:02Z</time>
      </trkpt>
      <trkpt lat="47.64384" lon="-3.44568">
        <ele>1.58</ele>
        <time>2016-05-01T07:25:46Z</time>
      </trkpt>
      <trkpt lat="47.64384" lon="-3.44568">
        <ele>1.58</ele>
        <time>2016-05-01T07:26:21Z</time>
      </trkpt>
      <trkpt lat="47.64383" lon="-3.44568">
        <ele>0.62</ele>
        <time>2016-05-01T07:26:56Z</time>
      </trkpt>
      <trkpt lat="47.64383" lon="-3.44568">
        <ele>0.62</ele>
        <time>2016-05-01T07:27:33Z</time>
      </trkpt>
      <trkpt lat="47.64383" lon="-3.44568">
        <ele>1.1</ele>
        <time>2016-05-01T07:28:12Z</time>
      </trkpt>
      <trkpt lat="47.64384" lon="-3.44569">
        <ele>0.62</ele>
        <time>2016-05-01T07:28:55Z</time>
      </trkpt>
      <trkpt lat="47.64384" lon="-3.44568">
        <ele>1.1</ele>
        <time>2016-05-01T07:29:35Z</time>
      </trkpt>
      <trkpt lat="47.64384" lon="-3.44568">
        <ele>0.62</ele>
        <time>2016-05-01T07:30:10Z</time>
      </trkpt>
      <trkpt lat="47.64384" lon="-3.44567">
        <ele>1.1</ele>
        <time>2016-05-01T07:30:48Z</time>
      </trkpt>
      <trkpt lat="47.64384" lon="-3.44568">
        <ele>1.1</ele>
        <time>2016-05-01T07:31:30Z</time>
      </trkpt>
      <trkpt lat="47.64384" lon="-3.44568">
        <ele>1.58</ele>
        <time>2016-05-01T07:32:15Z</time>
      </trkpt>
      <trkpt lat="47.64385" lon="-3.44567">
        <ele>1.58</ele>
        <time>2016-05-01T07:32:49Z</time>
      </trkpt>
      <trkpt lat="47.64385" lon="-3.44568">
        <ele>2.06</ele>
        <time>2016-05-01T07:33:24Z</time>
      </trkpt>
      <trkpt lat="47.64384" lon="-3.44569">
        <ele>2.06</ele>
        <time>2016-05-01T07:33:58Z</time>
      </trkpt>
      <trkpt lat="47.64384" lon="-3.44568">
        <ele>2.06</ele>
        <time>2016-05-01T07:34:32Z</time>
      </trkpt>
      <trkpt lat="47.64383" lon="-3.44568">
        <ele>2.54</ele>
        <time>2016-05-01T07:35:09Z</time>
      </trkpt>
      <trkpt lat="47.64384" lon="-3.4457">
        <ele>2.06</ele>
        <time>2016-05-01T07:35:47Z</time>
      </trkpt>
      <trkpt lat="47.64383" lon="-3.44571">
        <ele>2.06</ele>
        <time>2016-05-01T07:36:25Z</time>
      </trkpt>
      <trkpt lat="47.64382" lon="-3.44571">
        <ele>2.06</ele>
        <time>2016-05-01T07:36:57Z</time>
      </trkpt>
      <trkpt lat="47.64382" lon="-3.44571">
        <ele>2.06</ele>
        <time>2016-05-01T07:37:34Z</time>
      </trkpt>
      <trkpt lat="47.64382" lon="-3.44571">
        <ele>2.54</ele>
        <time>2016-05-01T07:38:07Z</time>
      </trkpt>
      <trkpt lat="47.64382" lon="-3.44572">
        <ele>2.06</ele>
        <time>2016-05-01T07:38:40Z</time>
      </trkpt>
      <trkpt lat="47.64381" lon="-3.44572">
        <ele>2.06</ele>
        <time>2016-05-01T07:39:12Z</time>
      </trkpt>
      <trkpt lat="47.64381" lon="-3.44572">
        <ele>1.58</ele>
        <time>2016-05-01T07:39:45Z</time>
      </trkpt>
      <trkpt lat="47.64381" lon="-3.44572">
        <ele>2.06</ele>
        <time>2016-05-01T07:40:13Z</time>
      </trkpt>
      <trkpt lat="47.64381" lon="-3.44572">
        <ele>2.06</ele>
        <time>2016-05-01T07:40:49Z</time>
      </trkpt>
      <trkpt lat="47.6438" lon="-3.44572">
        <ele>2.54</ele>
        <time>2016-05-01T07:41:19Z</time>
      </trkpt>
      <trkpt lat="47.6438" lon="-3.44572">
        <ele>2.06</ele>
        <time>2016-05-01T07:41:42Z</time>
      </trkpt>
      <trkpt lat="47.6438" lon="-3.44572">
        <ele>2.06</ele>
        <time>2016-05-01T07:42:03Z</time>
      </trkpt>
      <trkpt lat="47.6438" lon="-3.44572">
        <ele>2.54</ele>
        <time>2016-05-01T07:42:33Z</time>
      </trkpt>
      <trkpt lat="47.6438" lon="-3.44571">
        <ele>3.02</ele>
        <time>2016-05-01T07:43:01Z</time>
      </trkpt>
      <trkpt lat="47.6438" lon="-3.44571">
        <ele>3.5</ele>
        <time>2016-05-01T07:43:32Z</time>
      </trkpt>
      <trkpt lat="47.6438" lon="-3.44571">
        <ele>3.98</ele>
        <time>2016-05-01T07:43:59Z</time>
      </trkpt>
      <trkpt lat="47.64381" lon="-3.4457">
        <ele>3.98</ele>
        <time>2016-05-01T07:44:26Z</time>
      </trkpt>
      <trkpt lat="47.6438" lon="-3.4457">
        <ele>4.46</ele>
        <time>2016-05-01T07:44:57Z</time>
      </trkpt>
      <trkpt lat="47.64381" lon="-3.4457">
        <ele>3.5</ele>
        <time>2016-05-01T07:45:24Z</time>
      </trkpt>
      <trkpt lat="47.64382" lon="-3.4457">
        <ele>3.5</ele>
        <time>2016-05-01T07:45:57Z</time>
      </trkpt>
      <trkpt lat="47.64381" lon="-3.44571">
        <ele>3.98</ele>
        <time>2016-05-01T07:46:28Z</time>
      </trkpt>
      <trkpt lat="47.64382" lon="-3.4457">
        <ele>3.98</ele>
        <time>2016-05-01T07:47:04Z</time>
      </trkpt>
      <trkpt lat="47.64382" lon="-3.44569">
        <ele>4.46</ele>
        <time>2016-05-01T07:47:39Z</time>
      </trkpt>
      <trkpt lat="47.64382" lon="-3.4457">
        <ele>3.98</ele>
        <time>2016-05-01T07:48:11Z</time>
      </trkpt>
      <trkpt lat="47.64382" lon="-3.4457">
        <ele>3.98</ele>
        <time>2016-05-01T07:48:44Z</time>
      </trkpt>
      <trkpt lat="47.64382" lon="-3.4457">
        <ele>4.46</ele>
        <time>2016-05-01T07:49:17Z</time>
      </trkpt>
      <trkpt lat="47.64382" lon="-3.4457">
        <ele>4.46</ele>
        <time>2016-05-01T07:49:48Z</time>
      </trkpt>
      <trkpt lat="47.64382" lon="-3.4457">
        <ele>5.42</ele>
        <time>2016-05-01T07:50:25Z</time>
      </trkpt>
      <trkpt lat="47.64382" lon="-3.4457">
        <ele>5.42</ele>
        <time>2016-05-01T07:51:02Z</time>
      </trkpt>
      <trkpt lat="47.64381" lon="-3.4457">
        <ele>5.91</ele>
        <time>2016-05-01T07:51:37Z</time>
      </trkpt>
      <trkpt lat="47.64382" lon="-3.44571">
        <ele>7.35</ele>
        <time>2016-05-01T07:52:13Z</time>
      </trkpt>
      <trkpt lat="47.64382" lon="-3.44571">
        <ele>7.35</ele>
        <time>2016-05-01T07:52:49Z</time>
      </trkpt>
      <trkpt lat="47.64382" lon="-3.44571">
        <ele>7.35</ele>
        <time>2016-05-01T07:53:22Z</time>
      </trkpt>
      <trkpt lat="47.64382" lon="-3.44571">
        <ele>7.35</ele>
        <time>2016-05-01T07:54:00Z</time>
      </trkpt>
      <trkpt lat="47.64382" lon="-3.44572">
        <ele>6.87</ele>
        <time>2016-05-01T07:54:30Z</time>
      </trkpt>
      <trkpt lat="47.64382" lon="-3.44572">
        <ele>6.39</ele>
        <time>2016-05-01T07:55:09Z</time>
      </trkpt>
      <trkpt lat="47.64381" lon="-3.44572">
        <ele>6.39</ele>
        <time>2016-05-01T07:55:47Z</time>
      </trkpt>
      <trkpt lat="47.64381" lon="-3.44573">
        <ele>6.39</ele>
        <time>2016-05-01T07:56:31Z</time>
      </trkpt>
      <trkpt lat="47.64381" lon="-3.44573">
        <ele>5.91</ele>
        <time>2016-05-01T07:57:04Z</time>
      </trkpt>
      <trkpt lat="47.64381" lon="-3.44572">
        <ele>4.94</ele>
        <time>2016-05-01T07:57:50Z</time>
      </trkpt>
      <trkpt lat="47.64381" lon="-3.44571">
        <ele>4.94</ele>
        <time>2016-05-01T07:58:22Z</time>
      </trkpt>
      <trkpt lat="47.64382" lon="-3.44573">
        <ele>2.54</ele>
        <time>2016-05-01T07:59:01Z</time>
      </trkpt>
      <trkpt lat="47.64381" lon="-3.44572">
        <ele>2.06</ele>
        <time>2016-05-01T07:59:44Z</time>
      </trkpt>
      <trkpt lat="47.6438" lon="-3.44572">
        <ele>2.06</ele>
        <time>2016-05-01T08:00:17Z</time>
      </trkpt>
      <trkpt lat="47.6438" lon="-3.44572">
        <ele>3.02</ele>
        <time>2016-05-01T08:00:51Z</time>
      </trkpt>
      <trkpt lat="47.6438" lon="-3.44572">
        <ele>3.02</ele>
        <time>2016-05-01T08:01:24Z</time>
      </trkpt>
      <trkpt lat="47.64381" lon="-3.44572">
        <ele>2.06</ele>
        <time>2016-05-01T08:02:04Z</time>
      </trkpt>
      <trkpt lat="47.64381" lon="-3.44572">
        <ele>2.06</ele>
        <time>2016-05-01T08:02:36Z</time>
      </trkpt>
      <trkpt lat="47.64382" lon="-3.44571">
        <ele>1.58</ele>
        <time>2016-05-01T08:03:15Z</time>
      </trkpt>
      <trkpt lat="47.64381" lon="-3.44572">
        <ele>0.62</ele>
        <time>2016-05-01T08:03:52Z</time>
      </trkpt>
      <trkpt lat="47.64381" lon="-3.44573">
        <ele>0.62</ele>
        <time>2016-05-01T08:04:27Z</time>
      </trkpt>
      <trkpt lat="47.64381" lon="-3.44573">
        <ele>1.58</ele>
        <time>2016-05-01T08:05:02Z</time>
      </trkpt>
      <trkpt lat="47.64381" lon="-3.44573">
        <ele>1.58</ele>
        <time>2016-05-01T08:05:42Z</time>
      </trkpt>
      <trkpt lat="47.64381" lon="-3.44573">
        <ele>2.06</ele>
        <time>2016-05-01T08:06:12Z</time>
      </trkpt>
      <trkpt lat="47.64382" lon="-3.44573">
        <ele>2.06</ele>
        <time>2016-05-01T08:06:46Z</time>
      </trkpt>
      <trkpt lat="47.64381" lon="-3.44573">
        <ele>1.58</ele>
        <time>2016-05-01T08:07:19Z</time>
      </trkpt>
      <trkpt lat="47.64381" lon="-3.44573">
        <ele>1.58</ele>
        <time>2016-05-01T08:07:51Z</time>
      </trkpt>
      <trkpt lat="47.64381" lon="-3.44574">
        <ele>1.58</ele>
        <time>2016-05-01T08:08:26Z</time>
      </trkpt>
      <trkpt lat="47.64381" lon="-3.44573">
        <ele>2.06</ele>
        <time>2016-05-01T08:09:07Z</time>
      </trkpt>
      <trkpt lat="47.64381" lon="-3.44572">
        <ele>1.58</ele>
        <time>2016-05-01T08:09:39Z</time>
      </trkpt>
      <trkpt lat="47.64381" lon="-3.44572">
        <ele>1.1</ele>
        <time>2016-05-01T08:10:12Z</time>
      </trkpt>
      <trkpt lat="47.64381" lon="-3.44572">
        <ele>0.62</ele>
        <time>2016-05-01T08:10:47Z</time>
      </trkpt>
      <trkpt lat="47.64381" lon="-3.44572">
        <ele>0.62</ele>
        <time>2016-05-01T08:11:22Z</time>
      </trkpt>
      <trkpt lat="47.6438" lon="-3.44573">
        <ele>1.1</ele>
        <time>2016-05-01T08:12:00Z</time>
      </trkpt>
      <trkpt lat="47.64381" lon="-3.44573">
        <ele>1.1</ele>
        <time>2016-05-01T08:12:34Z</time>
      </trkpt>
      <trkpt lat="47.64381" lon="-3.44573">
        <ele>2.06</ele>
        <time>2016-05-01T08:13:08Z</time>
      </trkpt>
      <trkpt lat="47.64381" lon="-3.44573">
        <ele>2.06</ele>
        <time>2016-05-01T08:13:45Z</time>
      </trkpt>
      <trkpt lat="47.64382" lon="-3.44572">
        <ele>2.54</ele>
        <time>2016-05-01T08:14:24Z</time>
      </trkpt>
      <trkpt lat="47.64382" lon="-3.44572">
        <ele>2.06</ele>
        <time>2016-05-01T08:14:49Z</time>
      </trkpt>
      <trkpt lat="47.64382" lon="-3.44574">
        <ele>3.02</ele>
        <time>2016-05-01T08:15:22Z</time>
      </trkpt>
      <trkpt lat="47.64381" lon="-3.44574">
        <ele>3.5</ele>
        <time>2016-05-01T08:16:03Z</time>
      </trkpt>
      <trkpt lat="47.64381" lon="-3.44573">
        <ele>4.46</ele>
        <time>2016-05-01T08:16:41Z</time>
      </trkpt>
      <trkpt lat="47.64382" lon="-3.44573">
        <ele>3.98</ele>
        <time>2016-05-01T08:17:17Z</time>
      </trkpt>
      <trkpt lat="47.64382" lon="-3.44574">
        <ele>3.5</ele>
        <time>2016-05-01T08:17:51Z</time>
      </trkpt>
      <trkpt lat="47.64382" lon="-3.44574">
        <ele>3.02</ele>
        <time>2016-05-01T08:18:28Z</time>
      </trkpt>
      <trkpt lat="47.64383" lon="-3.44574">
        <ele>2.54</ele>
        <time>2016-05-01T08:19:03Z</time>
      </trkpt>
      <trkpt lat="47.64382" lon="-3.44573">
        <ele>3.02</ele>
        <time>2016-05-01T08:19:44Z</time>
      </trkpt>
      <trkpt lat="47.64383" lon="-3.44572">
        <ele>3.02</ele>
        <time>2016-05-01T08:20:18Z</time>
      </trkpt>
      <trkpt lat="47.64383" lon="-3.44572">
        <ele>3.5</ele>
        <time>2016-05-01T08:20:50Z</time>
      </trkpt>
      <trkpt lat="47.64383" lon="-3.44572">
        <ele>3.02</ele>
        <time>2016-05-01T08:21:35Z</time>
      </trkpt>
      <trkpt lat="47.64383" lon="-3.44572">
        <ele>4.46</ele>
        <time>2016-05-01T08:22:15Z</time>
      </trkpt>
      <trkpt lat="47.64384" lon="-3.44572">
        <ele>4.46</ele>
        <time>2016-05-01T08:23:00Z</time>
      </trkpt>
      <trkpt lat="47.64385" lon="-3.44572">
        <ele>4.46</ele>
        <time>2016-05-01T08:23:48Z</time>
      </trkpt>
      <trkpt lat="47.64385" lon="-3.44571">
        <ele>4.46</ele>
        <time>2016-05-01T08:24:31Z</time>
      </trkpt>
      <trkpt lat="47.64384" lon="-3.44571">
        <ele>5.42</ele>
        <time>2016-05-01T08:25:10Z</time>
      </trkpt>
      <trkpt lat="47.64384" lon="-3.44571">
        <ele>4.46</ele>
        <time>2016-05-01T08:25:48Z</time>
      </trkpt>
      <trkpt lat="47.64384" lon="-3.4457">
        <ele>4.46</ele>
        <time>2016-05-01T08:26:24Z</time>
      </trkpt>
      <trkpt lat="47.64383" lon="-3.44569">
        <ele>4.94</ele>
        <time>2016-05-01T08:27:02Z</time>
      </trkpt>
      <trkpt lat="47.64383" lon="-3.44569">
        <ele>5.42</ele>
        <time>2016-05-01T08:27:42Z</time>
      </trkpt>
      <trkpt lat="47.64384" lon="-3.44568">
        <ele>3.98</ele>
        <time>2016-05-01T08:28:18Z</time>
      </trkpt>
      <trkpt lat="47.64384" lon="-3.44568">
        <ele>3.02</ele>
        <time>2016-05-01T08:28:55Z</time>
      </trkpt>
      <trkpt lat="47.64383" lon="-3.44569">
        <ele>3.02</ele>
        <time>2016-05-01T08:29:28Z</time>
      </trkpt>
      <trkpt lat="47.64382" lon="-3.44571">
        <ele>1.58</ele>
        <time>2016-05-01T08:30:08Z</time>
      </trkpt>
      <trkpt lat="47.64382" lon="-3.44569">
        <ele>2.06</ele>
        <time>2016-05-01T08:30:48Z</time>
      </trkpt>
      <trkpt lat="47.64381" lon="-3.44569">
        <ele>2.06</ele>
        <time>2016-05-01T08:31:18Z</time>
      </trkpt>
      <trkpt lat="47.64382" lon="-3.4457">
        <ele>1.58</ele>
        <time>2016-05-01T08:32:02Z</time>
      </trkpt>
      <trkpt lat="47.64383" lon="-3.4457">
        <ele>0.62</ele>
        <time>2016-05-01T08:32:38Z</time>
      </trkpt>
      <trkpt lat="47.64382" lon="-3.4457">
        <ele>0.14</ele>
        <time>2016-05-01T08:33:08Z</time>
      </trkpt>
      <trkpt lat="47.64382" lon="-3.4457">
        <ele>0.62</ele>
        <time>2016-05-01T08:33:45Z</time>
      </trkpt>
      <trkpt lat="47.64382" lon="-3.4457">
        <ele>0.62</ele>
        <time>2016-05-01T08:34:17Z</time>
      </trkpt>
      <trkpt lat="47.64382" lon="-3.4457">
        <ele>0.14</ele>
        <time>2016-05-01T08:34:51Z</time>
      </trkpt>
      <trkpt lat="47.64382" lon="-3.44571">
        <ele>-0.82</ele>
        <time>2016-05-01T08:35:38Z</time>
      </trkpt>
      <trkpt lat="47.64383" lon="-3.44571">
        <ele>-0.34</ele>
        <time>2016-05-01T08:36:15Z</time>
      </trkpt>
      <trkpt lat="47.64383" lon="-3.44571">
        <ele>0.14</ele>
        <time>2016-05-01T08:36:54Z</time>
      </trkpt>
      <trkpt lat="47.64384" lon="-3.44571">
        <ele>0.14</ele>
        <time>2016-05-01T08:37:32Z</time>
      </trkpt>
      <trkpt lat="47.64384" lon="-3.4457">
        <ele>0.62</ele>
        <time>2016-05-01T08:38:02Z</time>
      </trkpt>
      <trkpt lat="47.64384" lon="-3.44569">
        <ele>0.14</ele>
        <time>2016-05-01T08:38:29Z</time>
      </trkpt>
      <trkpt lat="47.64384" lon="-3.44569">
        <ele>1.1</ele>
        <time>2016-05-01T08:39:02Z</time>
      </trkpt>
      <trkpt lat="47.64384" lon="-3.4457">
        <ele>1.1</ele>
        <time>2016-05-01T08:39:30Z</time>
      </trkpt>
      <trkpt lat="47.64383" lon="-3.44569">
        <ele>2.06</ele>
        <time>2016-05-01T08:40:06Z</time>
      </trkpt>
      <trkpt lat="47.64383" lon="-3.4457">
        <ele>1.58</ele>
        <time>2016-05-01T08:40:29Z</time>
      </trkpt>
      <trkpt lat="47.64383" lon="-3.4457">
        <ele>1.58</ele>
        <time>2016-05-01T08:41:10Z</time>
      </trkpt>
      <trkpt lat="47.64383" lon="-3.44569">
        <ele>2.54</ele>
        <time>2016-05-01T08:41:50Z</time>
      </trkpt>
      <trkpt lat="47.64382" lon="-3.44569">
        <ele>2.54</ele>
        <time>2016-05-01T08:42:25Z</time>
      </trkpt>
      <trkpt lat="47.64383" lon="-3.4457">
        <ele>2.06</ele>
        <time>2016-05-01T08:42:55Z</time>
      </trkpt>
      <trkpt lat="47.64383" lon="-3.44569">
        <ele>2.06</ele>
        <time>2016-05-01T08:43:31Z</time>
      </trkpt>
      <trkpt lat="47.64382" lon="-3.44569">
        <ele>1.58</ele>
        <time>2016-05-01T08:44:02Z</time>
      </trkpt>
      <trkpt lat="47.64382" lon="-3.4457">
        <ele>0.62</ele>
        <time>2016-05-01T08:44:35Z</time>
      </trkpt>
      <trkpt lat="47.64382" lon="-3.4457">
        <ele>-0.34</ele>
        <time>2016-05-01T08:45:10Z</time>
      </trkpt>
      <trkpt lat="47.64383" lon="-3.4457">
        <ele>-0.34</ele>
        <time>2016-05-01T08:45:46Z</time>
      </trkpt>
      <trkpt lat="47.64383" lon="-3.44569">
        <ele>0.14</ele>
        <time>2016-05-01T08:46:20Z</time>
      </trkpt>
      <trkpt lat="47.64383" lon="-3.4457">
        <ele>0.14</ele>
        <time>2016-05-01T08:46:59Z</time>
      </trkpt>
      <trkpt lat="47.64382" lon="-3.4457">
        <ele>0.14</ele>
        <time>2016-05-01T08:47:39Z</time>
      </trkpt>
      <trkpt lat="47.64382" lon="-3.4457">
        <ele>0.14</ele>
        <time>2016-05-01T08:48:10Z</time>
      </trkpt>
      <trkpt lat="47.64382" lon="-3.4457">
        <ele>0.14</ele>
        <time>2016-05-01T08:48:40Z</time>
      </trkpt>
      <trkpt lat="47.64382" lon="-3.4457">
        <ele>-0.34</ele>
        <time>2016-05-01T08:49:21Z</time>
      </trkpt>
      <trkpt lat="47.64383" lon="-3.4457">
        <ele>-0.82</ele>
        <time>2016-05-01T08:49:55Z</time>
      </trkpt>
      <trkpt lat="47.64382" lon="-3.4457">
        <ele>-1.3</ele>
        <time>2016-05-01T08:50:29Z</time>
      </trkpt>
      <trkpt lat="47.64382" lon="-3.4457">
        <ele>-0.34</ele>
        <time>2016-05-01T08:51:08Z</time>
      </trkpt>
      <trkpt lat="47.64382" lon="-3.44571">
        <ele>-0.82</ele>
        <time>2016-05-01T08:51:47Z</time>
      </trkpt>
      <trkpt lat="47.64381" lon="-3.44571">
        <ele>-0.34</ele>
        <time>2016-05-01T08:52:25Z</time>
      </trkpt>
      <trkpt lat="47.64382" lon="-3.44571">
        <ele>-0.34</ele>
        <time>2016-05-01T08:53:01Z</time>
      </trkpt>
      <trkpt lat="47.64382" lon="-3.44571">
        <ele>-1.3</ele>
        <time>2016-05-01T08:53:29Z</time>
      </trkpt>
      <trkpt lat="47.64383" lon="-3.44571">
        <ele>-1.3</ele>
        <time>2016-05-01T08:54:04Z</time>
      </trkpt>
      <trkpt lat="47.64383" lon="-3.44571">
        <ele>-0.82</ele>
        <time>2016-05-01T08:54:25Z</time>
      </trkpt>
      <trkpt lat="47.64383" lon="-3.44571">
        <ele>-0.82</ele>
        <time>2016-05-01T08:54:58Z</time>
      </trkpt>
      <trkpt lat="47.64382" lon="-3.4457">
        <ele>-0.34</ele>
        <time>2016-05-01T08:55:26Z</time>
      </trkpt>
      <trkpt lat="47.64382" lon="-3.4457">
        <ele>-0.34</ele>
        <time>2016-05-01T08:56:02Z</time>
      </trkpt>
      <trkpt lat="47.64382" lon="-3.4457">
        <ele>0.14</ele>
        <time>2016-05-01T08:56:34Z</time>
      </trkpt>
      <trkpt lat="47.64383" lon="-3.4457">
        <ele>0.14</ele>
        <time>2016-05-01T08:57:17Z</time>
      </trkpt>
      <trkpt lat="47.64382" lon="-3.4457">
        <ele>0.62</ele>
        <time>2016-05-01T08:57:58Z</time>
      </trkpt>
      <trkpt lat="47.64382" lon="-3.4457">
        <ele>0.14</ele>
        <time>2016-05-01T08:58:33Z</time>
      </trkpt>
      <trkpt lat="47.64383" lon="-3.4457">
        <ele>-0.34</ele>
        <time>2016-05-01T08:59:05Z</time>
      </trkpt>
      <trkpt lat="47.64382" lon="-3.4457">
        <ele>-0.34</ele>
        <time>2016-05-01T08:59:37Z</time>
      </trkpt>
      <trkpt lat="47.64383" lon="-3.4457">
        <ele>0.14</ele>
        <time>2016-05-01T09:00:11Z</time>
      </trkpt>
      <trkpt lat="47.64383" lon="-3.44569">
        <ele>-0.34</ele>
        <time>2016-05-01T09:00:48Z</time>
      </trkpt>
      <trkpt lat="47.64383" lon="-3.44569">
        <ele>-0.34</ele>
        <time>2016-05-01T09:01:27Z</time>
      </trkpt>
      <trkpt lat="47.64383" lon="-3.4457">
        <ele>0.14</ele>
        <time>2016-05-01T09:02:05Z</time>
      </trkpt>
      <trkpt lat="47.64383" lon="-3.4457">
        <ele>-0.34</ele>
        <time>2016-05-01T09:02:49Z</time>
      </trkpt>
      <trkpt lat="47.64383" lon="-3.44569">
        <ele>0.62</ele>
        <time>2016-05-01T09:03:30Z</time>
      </trkpt>
      <trkpt lat="47.64383" lon="-3.4457">
        <ele>0.62</ele>
        <time>2016-05-01T09:04:08Z</time>
      </trkpt>
      <trkpt lat="47.64383" lon="-3.4457">
        <ele>0.62</ele>
        <time>2016-05-01T09:04:41Z</time>
      </trkpt>
      <trkpt lat="47.64382" lon="-3.4457">
        <ele>0.62</ele>
        <time>2016-05-01T09:05:14Z</time>
      </trkpt>
      <trkpt lat="47.64382" lon="-3.4457">
        <ele>0.14</ele>
        <time>2016-05-01T09:05:46Z</time>
      </trkpt>
      <trkpt lat="47.64382" lon="-3.44569">
        <ele>0.14</ele>
        <time>2016-05-01T09:06:18Z</time>
      </trkpt>
      <trkpt lat="47.64382" lon="-3.4457">
        <ele>-0.34</ele>
        <time>2016-05-01T09:06:58Z</time>
      </trkpt>
      <trkpt lat="47.64382" lon="-3.44569">
        <ele>-0.34</ele>
        <time>2016-05-01T09:07:32Z</time>
      </trkpt>
      <trkpt lat="47.64382" lon="-3.44569">
        <ele>0.62</ele>
        <time>2016-05-01T09:08:13Z</time>
      </trkpt>
      <trkpt lat="47.64382" lon="-3.44569">
        <ele>0.62</ele>
        <time>2016-05-01T09:08:49Z</time>
      </trkpt>
      <trkpt lat="47.64383" lon="-3.44569">
        <ele>0.62</ele>
        <time>2016-05-01T09:09:25Z</time>
      </trkpt>
      <trkpt lat="47.64382" lon="-3.4457">
        <ele>1.1</ele>
        <time>2016-05-01T09:09:51Z</time>
      </trkpt>
      <trkpt lat="47.64382" lon="-3.4457">
        <ele>1.1</ele>
        <time>2016-05-01T09:10:28Z</time>
      </trkpt>
      <trkpt lat="47.64382" lon="-3.4457">
        <ele>1.1</ele>
        <time>2016-05-01T09:10:55Z</time>
      </trkpt>
      <trkpt lat="47.64381" lon="-3.4457">
        <ele>0.62</ele>
        <time>2016-05-01T09:11:20Z</time>
      </trkpt>
      <trkpt lat="47.64382" lon="-3.44571">
        <ele>0.14</ele>
        <time>2016-05-01T09:11:53Z</time>
      </trkpt>
      <trkpt lat="47.64381" lon="-3.4457">
        <ele>0.14</ele>
        <time>2016-05-01T09:12:28Z</time>
      </trkpt>
      <trkpt lat="47.64382" lon="-3.44571">
        <ele>-0.34</ele>
        <time>2016-05-01T09:13:08Z</time>
      </trkpt>
      <trkpt lat="47.64382" lon="-3.44571">
        <ele>-0.34</ele>
        <time>2016-05-01T09:13:45Z</time>
      </trkpt>
      <trkpt lat="47.64382" lon="-3.44571">
        <ele>-0.34</ele>
        <time>2016-05-01T09:14:20Z</time>
      </trkpt>
      <trkpt lat="47.64382" lon="-3.44571">
        <ele>-0.34</ele>
        <time>2016-05-01T09:14:59Z</time>
      </trkpt>
      <trkpt lat="47.64382" lon="-3.44571">
        <ele>0.62</ele>
        <time>2016-05-01T09:15:36Z</time>
      </trkpt>
      <trkpt lat="47.64382" lon="-3.4457">
        <ele>0.62</ele>
        <time>2016-05-01T09:16:08Z</time>
      </trkpt>
      <trkpt lat="47.64382" lon="-3.44571">
        <ele>-0.34</ele>
        <time>2016-05-01T09:16:49Z</time>
      </trkpt>
      <trkpt lat="47.64382" lon="-3.44571">
        <ele>-0.82</ele>
        <time>2016-05-01T09:17:22Z</time>
      </trkpt>
      <trkpt lat="47.64382" lon="-3.44571">
        <ele>-0.34</ele>
        <time>2016-05-01T09:18:03Z</time>
      </trkpt>
      <trkpt lat="47.64382" lon="-3.44571">
        <ele>0.62</ele>
        <time>2016-05-01T09:18:37Z</time>
      </trkpt>
      <trkpt lat="47.64381" lon="-3.44572">
        <ele>0.14</ele>
        <time>2016-05-01T09:19:16Z</time>
      </trkpt>
      <trkpt lat="47.64381" lon="-3.44571">
        <ele>0.14</ele>
        <time>2016-05-01T09:19:51Z</time>
      </trkpt>
      <trkpt lat="47.64381" lon="-3.44571">
        <ele>0.14</ele>
        <time>2016-05-01T09:20:29Z</time>
      </trkpt>
      <trkpt lat="47.64382" lon="-3.44571">
        <ele>0.14</ele>
        <time>2016-05-01T09:21:13Z</time>
      </trkpt>
      <trkpt lat="47.64382" lon="-3.44571">
        <ele>-0.82</ele>
        <time>2016-05-01T09:21:51Z</time>
      </trkpt>
      <trkpt lat="47.64382" lon="-3.44572">
        <ele>-0.34</ele>
        <time>2016-05-01T09:22:24Z</time>
      </trkpt>
      <trkpt lat="47.64382" lon="-3.44571">
        <ele>0.62</ele>
        <time>2016-05-01T09:23:04Z</time>
      </trkpt>
      <trkpt lat="47.64382" lon="-3.44571">
        <ele>1.1</ele>
        <time>2016-05-01T09:23:50Z</time>
      </trkpt>
      <trkpt lat="47.64381" lon="-3.4457">
        <ele>0.62</ele>
        <time>2016-05-01T09:24:30Z</time>
      </trkpt>
      <trkpt lat="47.64382" lon="-3.44571">
        <ele>0.62</ele>
        <time>2016-05-01T09:25:10Z</time>
      </trkpt>
      <trkpt lat="47.64381" lon="-3.44571">
        <ele>0.14</ele>
        <time>2016-05-01T09:25:38Z</time>
      </trkpt>
      <trkpt lat="47.64381" lon="-3.44572">
        <ele>-0.34</ele>
        <time>2016-05-01T09:26:08Z</time>
      </trkpt>
      <trkpt lat="47.64381" lon="-3.44573">
        <ele>-0.34</ele>
        <time>2016-05-01T09:26:36Z</time>
      </trkpt>
      <trkpt lat="47.64381" lon="-3.44573">
        <ele>0.14</ele>
        <time>2016-05-01T09:27:10Z</time>
      </trkpt>
      <trkpt lat="47.64382" lon="-3.44572">
        <ele>0.14</ele>
        <time>2016-05-01T09:27:45Z</time>
      </trkpt>
      <trkpt lat="47.64382" lon="-3.44572">
        <ele>0.62</ele>
        <time>2016-05-01T09:28:23Z</time>
      </trkpt>
      <trkpt lat="47.64383" lon="-3.44571">
        <ele>0.62</ele>
        <time>2016-05-01T09:29:02Z</time>
      </trkpt>
      <trkpt lat="47.64382" lon="-3.44571">
        <ele>0.14</ele>
        <time>2016-05-01T09:29:35Z</time>
      </trkpt>
      <trkpt lat="47.64382" lon="-3.44572">
        <ele>-0.34</ele>
        <time>2016-05-01T09:30:12Z</time>
      </trkpt>
      <trkpt lat="47.64382" lon="-3.44572">
        <ele>-0.34</ele>
        <time>2016-05-01T09:30:49Z</time>
      </trkpt>
      <trkpt lat="47.64381" lon="-3.44573">
        <ele>-0.34</ele>
        <time>2016-05-01T09:31:24Z</time>
      </trkpt>
      <trkpt lat="47.64381" lon="-3.44573">
        <ele>-0.82</ele>
        <time>2016-05-01T09:32:01Z</time>
      </trkpt>
      <trkpt lat="47.64381" lon="-3.44572">
        <ele>-0.34</ele>
        <time>2016-05-01T09:32:37Z</time>
      </trkpt>
      <trkpt lat="47.64381" lon="-3.44572">
        <ele>-0.34</ele>
        <time>2016-05-01T09:33:20Z</time>
      </trkpt>
      <trkpt lat="47.64382" lon="-3.44571">
        <ele>-0.82</ele>
        <time>2016-05-01T09:34:00Z</time>
      </trkpt>
      <trkpt lat="47.64383" lon="-3.44571">
        <ele>-1.3</ele>
        <time>2016-05-01T09:34:32Z</time>
      </trkpt>
      <trkpt lat="47.64383" lon="-3.4457">
        <ele>-1.79</ele>
        <time>2016-05-01T09:35:10Z</time>
      </trkpt>
      <trkpt lat="47.64382" lon="-3.4457">
        <ele>-1.79</ele>
        <time>2016-05-01T09:35:51Z</time>
      </trkpt>
      <trkpt lat="47.64383" lon="-3.44571">
        <ele>-1.79</ele>
        <time>2016-05-01T09:36:33Z</time>
      </trkpt>
      <trkpt lat="47.64383" lon="-3.4457">
        <ele>-1.79</ele>
        <time>2016-05-01T09:37:14Z</time>
      </trkpt>
      <trkpt lat="47.64383" lon="-3.44571">
        <ele>-2.27</ele>
        <time>2016-05-01T09:37:51Z</time>
      </trkpt>
      <trkpt lat="47.64383" lon="-3.44571">
        <ele>-1.79</ele>
        <time>2016-05-01T09:38:30Z</time>
      </trkpt>
      <trkpt lat="47.64382" lon="-3.4457">
        <ele>-2.27</ele>
        <time>2016-05-01T09:38:58Z</time>
      </trkpt>
      <trkpt lat="47.64382" lon="-3.4457">
        <ele>-2.27</ele>
        <time>2016-05-01T09:39:26Z</time>
      </trkpt>
      <trkpt lat="47.64382" lon="-3.4457">
        <ele>-2.27</ele>
        <time>2016-05-01T09:39:56Z</time>
      </trkpt>
      <trkpt lat="47.64382" lon="-3.44571">
        <ele>-1.79</ele>
        <time>2016-05-01T09:40:27Z</time>
      </trkpt>
      <trkpt lat="47.64382" lon="-3.44571">
        <ele>-1.79</ele>
        <time>2016-05-01T09:41:02Z</time>
      </trkpt>
      <trkpt lat="47.64382" lon="-3.44572">
        <ele>-1.3</ele>
        <time>2016-05-01T09:41:36Z</time>
      </trkpt>
      <trkpt lat="47.64381" lon="-3.44572">
        <ele>-0.34</ele>
        <time>2016-05-01T09:42:09Z</time>
      </trkpt>
      <trkpt lat="47.64382" lon="-3.44572">
        <ele>0.14</ele>
        <time>2016-05-01T09:42:44Z</time>
      </trkpt>
      <trkpt lat="47.64381" lon="-3.44572">
        <ele>0.14</ele>
        <time>2016-05-01T09:43:25Z</time>
      </trkpt>
      <trkpt lat="47.64381" lon="-3.44572">
        <ele>0.62</ele>
        <time>2016-05-01T09:44:05Z</time>
      </trkpt>
      <trkpt lat="47.64382" lon="-3.44571">
        <ele>-0.34</ele>
        <time>2016-05-01T09:44:33Z</time>
      </trkpt>
      <trkpt lat="47.64382" lon="-3.44571">
        <ele>-0.82</ele>
        <time>2016-05-01T09:45:08Z</time>
      </trkpt>
      <trkpt lat="47.64382" lon="-3.4457">
        <ele>-0.34</ele>
        <time>2016-05-01T09:45:49Z</time>
      </trkpt>
      <trkpt lat="47.64381" lon="-3.44571">
        <ele>-1.79</ele>
        <time>2016-05-01T09:46:31Z</time>
      </trkpt>
      <trkpt lat="47.64381" lon="-3.44572">
        <ele>-0.82</ele>
        <time>2016-05-01T09:47:16Z</time>
      </trkpt>
      <trkpt lat="47.64382" lon="-3.44571">
        <ele>-1.3</ele>
        <time>2016-05-01T09:47:35Z</time>
      </trkpt>
      <trkpt lat="47.64381" lon="-3.4457">
        <ele>-1.3</ele>
        <time>2016-05-01T09:47:50Z</time>
      </trkpt>
      <trkpt lat="47.64381" lon="-3.44569">
        <ele>-1.79</ele>
        <time>2016-05-01T09:48:05Z</time>
      </trkpt>
      <trkpt lat="47.64381" lon="-3.44569">
        <ele>-5.15</ele>
        <time>2016-05-01T09:48:16Z</time>
      </trkpt>
      <trkpt lat="47.64381" lon="-3.44568">
        <ele>-5.15</ele>
        <time>2016-05-01T09:48:38Z</time>
      </trkpt>
      <trkpt lat="47.64381" lon="-3.44567">
        <ele>-4.67</ele>
        <time>2016-05-01T09:49:03Z</time>
      </trkpt>
      <trkpt lat="47.64381" lon="-3.44567">
        <ele>-4.19</ele>
        <time>2016-05-01T09:49:08Z</time>
      </trkpt>
      <trkpt lat="47.64383" lon="-3.44564">
        <ele>-7.07</ele>
        <time>2016-05-01T10:03:50Z</time>
      </trkpt>
      <trkpt lat="47.64381" lon="-3.44567">
        <ele>-3.23</ele>
        <time>2016-05-01T10:04:03Z</time>
      </trkpt>
      <trkpt lat="47.64383" lon="-3.44567">
        <ele>-2.27</ele>
        <time>2016-05-01T10:04:23Z</time>
      </trkpt>
      <trkpt lat="47.64382" lon="-3.44565">
        <ele>-1.3</ele>
        <time>2016-05-01T10:04:45Z</time>
      </trkpt>
      <trkpt lat="47.6438" lon="-3.44563">
        <ele>-2.27</ele>
        <time>2016-05-01T10:05:08Z</time>
      </trkpt>
      <trkpt lat="47.64381" lon="-3.44565">
        <ele>-2.75</ele>
        <time>2016-05-01T10:05:28Z</time>
      </trkpt>
      <trkpt lat="47.6438" lon="-3.44567">
        <ele>-1.79</ele>
        <time>2016-05-01T10:05:44Z</time>
      </trkpt>
      <trkpt lat="47.64381" lon="-3.44567">
        <ele>-1.79</ele>
        <time>2016-05-01T10:05:59Z</time>
      </trkpt>
      <trkpt lat="47.64382" lon="-3.44572">
        <ele>-3.71</ele>
        <time>2016-05-01T10:06:12Z</time>
      </trkpt>
      <trkpt lat="47.64383" lon="-3.44571">
        <ele>-3.23</ele>
        <time>2016-05-01T10:06:28Z</time>
      </trkpt>
      <trkpt lat="47.64382" lon="-3.44571">
        <ele>-3.23</ele>
        <time>2016-05-01T10:06:39Z</time>
      </trkpt>
      <trkpt lat="47.64382" lon="-3.4457">
        <ele>-2.75</ele>
        <time>2016-05-01T10:06:53Z</time>
      </trkpt>
      <trkpt lat="47.64382" lon="-3.4457">
        <ele>-2.27</ele>
        <time>2016-05-01T10:07:02Z</time>
      </trkpt>
      <trkpt lat="47.64381" lon="-3.44568">
        <ele>-2.75</ele>
        <time>2016-05-01T10:07:13Z</time>
      </trkpt>
      <trkpt lat="47.64381" lon="-3.4457">
        <ele>-2.27</ele>
        <time>2016-05-01T10:07:26Z</time>
      </trkpt>
      <trkpt lat="47.64382" lon="-3.4457">
        <ele>-2.27</ele>
        <time>2016-05-01T10:07:31Z</time>
      </trkpt>
      <trkpt lat="47.64389" lon="-3.44575">
        <ele>-1.79</ele>
        <time>2016-05-01T10:07:45Z</time>
      </trkpt>
      <trkpt lat="47.64397" lon="-3.44582">
        <ele>1.1</ele>
        <time>2016-05-01T10:07:56Z</time>
      </trkpt>
      <trkpt lat="47.64413" lon="-3.44595">
        <ele>-0.34</ele>
        <time>2016-05-01T10:08:09Z</time>
      </trkpt>
      <trkpt lat="47.64428" lon="-3.44609">
        <ele>-2.75</ele>
        <time>2016-05-01T10:08:25Z</time>
      </trkpt>
      <trkpt lat="47.6444" lon="-3.44622">
        <ele>-2.75</ele>
        <time>2016-05-01T10:08:39Z</time>
      </trkpt>
      <trkpt lat="47.64444" lon="-3.44626">
        <ele>-1.79</ele>
        <time>2016-05-01T10:08:43Z</time>
      </trkpt>
      <trkpt lat="47.64457" lon="-3.44641">
        <ele>-1.79</ele>
        <time>2016-05-01T10:08:56Z</time>
      </trkpt>
      <trkpt lat="47.64463" lon="-3.44648">
        <ele>-1.79</ele>
        <time>2016-05-01T10:09:01Z</time>
      </trkpt>
      <trkpt lat="47.64478" lon="-3.4465">
        <ele>-0.82</ele>
        <time>2016-05-01T10:09:16Z</time>
      </trkpt>
      <trkpt lat="47.64485" lon="-3.44646">
        <ele>-1.79</ele>
        <time>2016-05-01T10:09:24Z</time>
      </trkpt>
      <trkpt lat="47.64486" lon="-3.44642">
        <ele>-2.27</ele>
        <time>2016-05-01T10:09:26Z</time>
      </trkpt>
      <trkpt lat="47.64497" lon="-3.44624">
        <ele>-1.79</ele>
        <time>2016-05-01T10:09:39Z</time>
      </trkpt>
      <trkpt lat="47.64503" lon="-3.446">
        <ele>0.14</ele>
        <time>2016-05-01T10:09:53Z</time>
      </trkpt>
      <trkpt lat="47.64505" lon="-3.44593">
        <ele>1.1</ele>
        <time>2016-05-01T10:09:57Z</time>
      </trkpt>
    </trkseg>
  </trk>
  <trk>
    <name><![CDATA[Tracé actuel: 01 MAI 2016 12:24]]></name>
    <trkseg>
      <trkpt lat="47.66201" lon="-3.43083">
        <ele>3.98</ele>
        <time>2016-05-01T10:24:19Z</time>
      </trkpt>
      <trkpt lat="47.66232" lon="-3.43072">
        <ele>0.62</ele>
        <time>2016-05-01T10:24:32Z</time>
      </trkpt>
      <trkpt lat="47.66268" lon="-3.43048">
        <ele>0.62</ele>
        <time>2016-05-01T10:24:49Z</time>
      </trkpt>
      <trkpt lat="47.66295" lon="-3.43026">
        <ele>0.62</ele>
        <time>2016-05-01T10:25:02Z</time>
      </trkpt>
      <trkpt lat="47.66335" lon="-3.43001">
        <ele>-0.82</ele>
        <time>2016-05-01T10:25:21Z</time>
      </trkpt>
      <trkpt lat="47.66368" lon="-3.4298">
        <ele>-0.34</ele>
        <time>2016-05-01T10:25:36Z</time>
      </trkpt>
      <trkpt lat="47.66406" lon="-3.42953">
        <ele>0.62</ele>
        <time>2016-05-01T10:25:54Z</time>
      </trkpt>
      <trkpt lat="47.66433" lon="-3.42925">
        <ele>-0.34</ele>
        <time>2016-05-01T10:26:08Z</time>
      </trkpt>
      <trkpt lat="47.66456" lon="-3.42906">
        <ele>-1.79</ele>
        <time>2016-05-01T10:26:19Z</time>
      </trkpt>
      <trkpt lat="47.66489" lon="-3.42882">
        <ele>-0.82</ele>
        <time>2016-05-01T10:26:35Z</time>
      </trkpt>
      <trkpt lat="47.66528" lon="-3.42855">
        <ele>-0.34</ele>
        <time>2016-05-01T10:26:53Z</time>
      </trkpt>
      <trkpt lat="47.6656" lon="-3.42832">
        <ele>-0.82</ele>
        <time>2016-05-01T10:27:08Z</time>
      </trkpt>
      <trkpt lat="47.66602" lon="-3.42809">
        <ele>-0.82</ele>
        <time>2016-05-01T10:27:27Z</time>
      </trkpt>
      <trkpt lat="47.66638" lon="-3.4279">
        <ele>-0.82</ele>
        <time>2016-05-01T10:27:43Z</time>
      </trkpt>
      <trkpt lat="47.66684" lon="-3.42769">
        <ele>-1.3</ele>
        <time>2016-05-01T10:28:04Z</time>
      </trkpt>
      <trkpt lat="47.6671" lon="-3.42744">
        <ele>0.62</ele>
        <time>2016-05-01T10:28:17Z</time>
      </trkpt>
      <trkpt lat="47.66747" lon="-3.42709">
        <ele>2.06</ele>
        <time>2016-05-01T10:28:35Z</time>
      </trkpt>
      <trkpt lat="47.6678" lon="-3.42679">
        <ele>4.94</ele>
        <time>2016-05-01T10:28:51Z</time>
      </trkpt>
      <trkpt lat="47.66793" lon="-3.42669">
        <ele>6.39</ele>
        <time>2016-05-01T10:28:57Z</time>
      </trkpt>
      <trkpt lat="47.66804" lon="-3.42657">
        <ele>5.42</ele>
        <time>2016-05-01T10:29:03Z</time>
      </trkpt>
      <trkpt lat="47.66827" lon="-3.42637">
        <ele>2.54</ele>
        <time>2016-05-01T10:29:14Z</time>
      </trkpt>
      <trkpt lat="47.66857" lon="-3.42605">
        <ele>1.58</ele>
        <time>2016-05-01T10:29:29Z</time>
      </trkpt>
      <trkpt lat="47.66893" lon="-3.42571">
        <ele>-0.34</ele>
        <time>2016-05-01T10:29:47Z</time>
      </trkpt>
      <trkpt lat="47.66923" lon="-3.42547">
        <ele>-1.3</ele>
        <time>2016-05-01T10:30:01Z</time>
      </trkpt>
      <trkpt lat="47.66954" lon="-3.42522">
        <ele>-0.82</ele>
        <time>2016-05-01T10:30:16Z</time>
      </trkpt>
      <trkpt lat="47.66983" lon="-3.42493">
        <ele>-0.34</ele>
        <time>2016-05-01T10:30:31Z</time>
      </trkpt>
      <trkpt lat="47.67013" lon="-3.42439">
        <ele>0.14</ele>
        <time>2016-05-01T10:30:50Z</time>
      </trkpt>
      <trkpt lat="47.67046" lon="-3.42392">
        <ele>0.14</ele>
        <time>2016-05-01T10:31:09Z</time>
      </trkpt>
      <trkpt lat="47.67078" lon="-3.42362">
        <ele>0.14</ele>
        <time>2016-05-01T10:31:25Z</time>
      </trkpt>
      <trkpt lat="47.67103" lon="-3.42342">
        <ele>0.14</ele>
        <time>2016-05-01T10:31:38Z</time>
      </trkpt>
      <trkpt lat="47.67135" lon="-3.42319">
        <ele>0.62</ele>
        <time>2016-05-01T10:31:54Z</time>
      </trkpt>
      <trkpt lat="47.67166" lon="-3.42298">
        <ele>0.62</ele>
        <time>2016-05-01T10:32:09Z</time>
      </trkpt>
      <trkpt lat="47.67203" lon="-3.42273">
        <ele>0.14</ele>
        <time>2016-05-01T10:32:26Z</time>
      </trkpt>
      <trkpt lat="47.67237" lon="-3.4225">
        <ele>0.14</ele>
        <time>2016-05-01T10:32:42Z</time>
      </trkpt>
      <trkpt lat="47.67268" lon="-3.42229">
        <ele>-0.34</ele>
        <time>2016-05-01T10:32:57Z</time>
      </trkpt>
      <trkpt lat="47.673" lon="-3.42207">
        <ele>-0.82</ele>
        <time>2016-05-01T10:33:12Z</time>
      </trkpt>
      <trkpt lat="47.67341" lon="-3.42182">
        <ele>-0.34</ele>
        <time>2016-05-01T10:33:31Z</time>
      </trkpt>
      <trkpt lat="47.67377" lon="-3.42156">
        <ele>-0.82</ele>
        <time>2016-05-01T10:33:48Z</time>
      </trkpt>
      <trkpt lat="47.67409" lon="-3.4212">
        <ele>-0.82</ele>
        <time>2016-05-01T10:34:05Z</time>
      </trkpt>
      <trkpt lat="47.67442" lon="-3.42084">
        <ele>-0.82</ele>
        <time>2016-05-01T10:34:22Z</time>
      </trkpt>
      <trkpt lat="47.67474" lon="-3.42049">
        <ele>0.62</ele>
        <time>2016-05-01T10:34:39Z</time>
      </trkpt>
      <trkpt lat="47.67509" lon="-3.42">
        <ele>-0.82</ele>
        <time>2016-05-01T10:34:59Z</time>
      </trkpt>
      <trkpt lat="47.67536" lon="-3.41939">
        <ele>-0.34</ele>
        <time>2016-05-01T10:35:19Z</time>
      </trkpt>
      <trkpt lat="47.67551" lon="-3.41898">
        <ele>0.62</ele>
        <time>2016-05-01T10:35:32Z</time>
      </trkpt>
      <trkpt lat="47.67571" lon="-3.41848">
        <ele>0.62</ele>
        <time>2016-05-01T10:35:48Z</time>
      </trkpt>
      <trkpt lat="47.67595" lon="-3.41793">
        <ele>1.58</ele>
        <time>2016-05-01T10:36:06Z</time>
      </trkpt>
      <trkpt lat="47.67623" lon="-3.41749">
        <ele>1.58</ele>
        <time>2016-05-01T10:36:23Z</time>
      </trkpt>
      <trkpt lat="47.67659" lon="-3.41697">
        <ele>0.14</ele>
        <time>2016-05-01T10:36:44Z</time>
      </trkpt>
      <trkpt lat="47.67684" lon="-3.41649">
        <ele>1.58</ele>
        <time>2016-05-01T10:37:01Z</time>
      </trkpt>
      <trkpt lat="47.67706" lon="-3.41601">
        <ele>0.14</ele>
        <time>2016-05-01T10:37:17Z</time>
      </trkpt>
      <trkpt lat="47.67729" lon="-3.41554">
        <ele>-0.82</ele>
        <time>2016-05-01T10:37:33Z</time>
      </trkpt>
      <trkpt lat="47.67758" lon="-3.415">
        <ele>-0.82</ele>
        <time>2016-05-01T10:37:52Z</time>
      </trkpt>
      <trkpt lat="47.67784" lon="-3.41457">
        <ele>0.14</ele>
        <time>2016-05-01T10:38:08Z</time>
      </trkpt>
      <trkpt lat="47.67811" lon="-3.41414">
        <ele>1.1</ele>
        <time>2016-05-01T10:38:24Z</time>
      </trkpt>
      <trkpt lat="47.67836" lon="-3.41375">
        <ele>0.62</ele>
        <time>2016-05-01T10:38:39Z</time>
      </trkpt>
      <trkpt lat="47.67856" lon="-3.41332">
        <ele>0.14</ele>
        <time>2016-05-01T10:38:53Z</time>
      </trkpt>
      <trkpt lat="47.67878" lon="-3.41297">
        <ele>-0.34</ele>
        <time>2016-05-01T10:39:06Z</time>
      </trkpt>
      <trkpt lat="47.67913" lon="-3.41251">
        <ele>-1.3</ele>
        <time>2016-05-01T10:39:25Z</time>
      </trkpt>
      <trkpt lat="47.67942" lon="-3.41219">
        <ele>-0.82</ele>
        <time>2016-05-01T10:39:40Z</time>
      </trkpt>
      <trkpt lat="47.67973" lon="-3.41194">
        <ele>-0.34</ele>
        <time>2016-05-01T10:39:55Z</time>
      </trkpt>
      <trkpt lat="47.68007" lon="-3.41182">
        <ele>0.14</ele>
        <time>2016-05-01T10:40:10Z</time>
      </trkpt>
      <trkpt lat="47.68042" lon="-3.41174">
        <ele>0.62</ele>
        <time>2016-05-01T10:40:26Z</time>
      </trkpt>
      <trkpt lat="47.68079" lon="-3.41158">
        <ele>0.14</ele>
        <time>2016-05-01T10:40:43Z</time>
      </trkpt>
      <trkpt lat="47.6811" lon="-3.41147">
        <ele>-0.34</ele>
        <time>2016-05-01T10:40:57Z</time>
      </trkpt>
      <trkpt lat="47.68138" lon="-3.41123">
        <ele>0.62</ele>
        <time>2016-05-01T10:41:11Z</time>
      </trkpt>
      <trkpt lat="47.68171" lon="-3.41081">
        <ele>0.62</ele>
        <time>2016-05-01T10:41:29Z</time>
      </trkpt>
      <trkpt lat="47.68191" lon="-3.41055">
        <ele>1.1</ele>
        <time>2016-05-01T10:41:40Z</time>
      </trkpt>
      <trkpt lat="47.68223" lon="-3.41013">
        <ele>1.1</ele>
        <time>2016-05-01T10:41:58Z</time>
      </trkpt>
      <trkpt lat="47.68256" lon="-3.40976">
        <ele>1.58</ele>
        <time>2016-05-01T10:42:15Z</time>
      </trkpt>
      <trkpt lat="47.68286" lon="-3.4093">
        <ele>0.14</ele>
        <time>2016-05-01T10:42:33Z</time>
      </trkpt>
      <trkpt lat="47.68306" lon="-3.40884">
        <ele>-0.82</ele>
        <time>2016-05-01T10:42:48Z</time>
      </trkpt>
      <trkpt lat="47.68329" lon="-3.40823">
        <ele>-0.82</ele>
        <time>2016-05-01T10:43:07Z</time>
      </trkpt>
      <trkpt lat="47.68343" lon="-3.40771">
        <ele>-0.82</ele>
        <time>2016-05-01T10:43:22Z</time>
      </trkpt>
      <trkpt lat="47.68362" lon="-3.40711">
        <ele>0.14</ele>
        <time>2016-05-01T10:43:40Z</time>
      </trkpt>
      <trkpt lat="47.6838" lon="-3.40656">
        <ele>0.62</ele>
        <time>2016-05-01T10:43:57Z</time>
      </trkpt>
      <trkpt lat="47.68392" lon="-3.406">
        <ele>0.62</ele>
        <time>2016-05-01T10:44:15Z</time>
      </trkpt>
      <trkpt lat="47.68412" lon="-3.40537">
        <ele>0.14</ele>
        <time>2016-05-01T10:44:35Z</time>
      </trkpt>
      <trkpt lat="47.68434" lon="-3.40478">
        <ele>-0.82</ele>
        <time>2016-05-01T10:44:53Z</time>
      </trkpt>
      <trkpt lat="47.68451" lon="-3.40431">
        <ele>-0.82</ele>
        <time>2016-05-01T10:45:08Z</time>
      </trkpt>
      <trkpt lat="47.68471" lon="-3.40381">
        <ele>-0.34</ele>
        <time>2016-05-01T10:45:24Z</time>
      </trkpt>
      <trkpt lat="47.68501" lon="-3.40327">
        <ele>-0.82</ele>
        <time>2016-05-01T10:45:43Z</time>
      </trkpt>
      <trkpt lat="47.68523" lon="-3.40281">
        <ele>-0.82</ele>
        <time>2016-05-01T10:45:59Z</time>
      </trkpt>
      <trkpt lat="47.68552" lon="-3.40227">
        <ele>-1.79</ele>
        <time>2016-05-01T10:46:18Z</time>
      </trkpt>
      <trkpt lat="47.68578" lon="-3.40179">
        <ele>-0.82</ele>
        <time>2016-05-01T10:46:35Z</time>
      </trkpt>
      <trkpt lat="47.686" lon="-3.40126">
        <ele>-0.82</ele>
        <time>2016-05-01T10:46:53Z</time>
      </trkpt>
      <trkpt lat="47.68615" lon="-3.40067">
        <ele>-1.3</ele>
        <time>2016-05-01T10:47:11Z</time>
      </trkpt>
      <trkpt lat="47.68632" lon="-3.40008">
        <ele>-0.82</ele>
        <time>2016-05-01T10:47:29Z</time>
      </trkpt>
      <trkpt lat="47.68652" lon="-3.39943">
        <ele>0.62</ele>
        <time>2016-05-01T10:47:49Z</time>
      </trkpt>
      <trkpt lat="47.68673" lon="-3.39893">
        <ele>0.62</ele>
        <time>2016-05-01T10:48:06Z</time>
      </trkpt>
      <trkpt lat="47.68695" lon="-3.39844">
        <ele>0.14</ele>
        <time>2016-05-01T10:48:23Z</time>
      </trkpt>
      <trkpt lat="47.68721" lon="-3.3979">
        <ele>1.1</ele>
        <time>2016-05-01T10:48:42Z</time>
      </trkpt>
      <trkpt lat="47.68737" lon="-3.39756">
        <ele>-0.34</ele>
        <time>2016-05-01T10:48:54Z</time>
      </trkpt>
      <trkpt lat="47.68753" lon="-3.39712">
        <ele>-0.34</ele>
        <time>2016-05-01T10:49:09Z</time>
      </trkpt>
      <trkpt lat="47.68765" lon="-3.39679">
        <ele>-0.82</ele>
        <time>2016-05-01T10:49:20Z</time>
      </trkpt>
      <trkpt lat="47.68791" lon="-3.39639">
        <ele>0.62</ele>
        <time>2016-05-01T10:49:36Z</time>
      </trkpt>
      <trkpt lat="47.68808" lon="-3.39606">
        <ele>1.58</ele>
        <time>2016-05-01T10:49:48Z</time>
      </trkpt>
      <trkpt lat="47.68827" lon="-3.39573">
        <ele>0.14</ele>
        <time>2016-05-01T10:50:01Z</time>
      </trkpt>
      <trkpt lat="47.68852" lon="-3.39527">
        <ele>-0.34</ele>
        <time>2016-05-01T10:50:18Z</time>
      </trkpt>
      <trkpt lat="47.68878" lon="-3.39475">
        <ele>-1.3</ele>
        <time>2016-05-01T10:50:37Z</time>
      </trkpt>
      <trkpt lat="47.68905" lon="-3.39423">
        <ele>-0.34</ele>
        <time>2016-05-01T10:50:56Z</time>
      </trkpt>
      <trkpt lat="47.68926" lon="-3.39381">
        <ele>-0.34</ele>
        <time>2016-05-01T10:51:11Z</time>
      </trkpt>
      <trkpt lat="47.68951" lon="-3.39321">
        <ele>-0.34</ele>
        <time>2016-05-01T10:51:31Z</time>
      </trkpt>
      <trkpt lat="47.68971" lon="-3.39281">
        <ele>0.62</ele>
        <time>2016-05-01T10:51:45Z</time>
      </trkpt>
      <trkpt lat="47.68984" lon="-3.39251">
        <ele>0.14</ele>
        <time>2016-05-01T10:51:55Z</time>
      </trkpt>
      <trkpt lat="47.69003" lon="-3.39204">
        <ele>-0.82</ele>
        <time>2016-05-01T10:52:10Z</time>
      </trkpt>
      <trkpt lat="47.6902" lon="-3.3917">
        <ele>-2.75</ele>
        <time>2016-05-01T10:52:22Z</time>
      </trkpt>
      <trkpt lat="47.69041" lon="-3.39134">
        <ele>-2.27</ele>
        <time>2016-05-01T10:52:35Z</time>
      </trkpt>
      <trkpt lat="47.69062" lon="-3.39095">
        <ele>-0.82</ele>
        <time>2016-05-01T10:52:49Z</time>
      </trkpt>
      <trkpt lat="47.69088" lon="-3.39047">
        <ele>0.14</ele>
        <time>2016-05-01T10:53:06Z</time>
      </trkpt>
      <trkpt lat="47.69109" lon="-3.38995">
        <ele>-0.34</ele>
        <time>2016-05-01T10:53:23Z</time>
      </trkpt>
      <trkpt lat="47.69125" lon="-3.38958">
        <ele>1.1</ele>
        <time>2016-05-01T10:53:35Z</time>
      </trkpt>
      <trkpt lat="47.69149" lon="-3.38917">
        <ele>1.1</ele>
        <time>2016-05-01T10:53:50Z</time>
      </trkpt>
      <trkpt lat="47.69168" lon="-3.38886">
        <ele>0.14</ele>
        <time>2016-05-01T10:54:02Z</time>
      </trkpt>
      <trkpt lat="47.69198" lon="-3.38846">
        <ele>0.62</ele>
        <time>2016-05-01T10:54:19Z</time>
      </trkpt>
      <trkpt lat="47.69212" lon="-3.38807">
        <ele>-1.79</ele>
        <time>2016-05-01T10:54:32Z</time>
      </trkpt>
      <trkpt lat="47.69228" lon="-3.38752">
        <ele>-0.82</ele>
        <time>2016-05-01T10:54:49Z</time>
      </trkpt>
      <trkpt lat="47.69243" lon="-3.38704">
        <ele>-0.34</ele>
        <time>2016-05-01T10:55:04Z</time>
      </trkpt>
      <trkpt lat="47.69257" lon="-3.3866">
        <ele>0.14</ele>
        <time>2016-05-01T10:55:18Z</time>
      </trkpt>
      <trkpt lat="47.69265" lon="-3.38611">
        <ele>0.14</ele>
        <time>2016-05-01T10:55:33Z</time>
      </trkpt>
      <trkpt lat="47.69286" lon="-3.38549">
        <ele>-0.34</ele>
        <time>2016-05-01T10:55:53Z</time>
      </trkpt>
      <trkpt lat="47.69309" lon="-3.38505">
        <ele>-0.82</ele>
        <time>2016-05-01T10:56:09Z</time>
      </trkpt>
      <trkpt lat="47.69336" lon="-3.38444">
        <ele>-0.82</ele>
        <time>2016-05-01T10:56:30Z</time>
      </trkpt>
      <trkpt lat="47.69356" lon="-3.3839">
        <ele>-0.34</ele>
        <time>2016-05-01T10:56:48Z</time>
      </trkpt>
      <trkpt lat="47.69377" lon="-3.38341">
        <ele>-0.82</ele>
        <time>2016-05-01T10:57:05Z</time>
      </trkpt>
      <trkpt lat="47.69401" lon="-3.38292">
        <ele>-1.3</ele>
        <time>2016-05-01T10:57:23Z</time>
      </trkpt>
      <trkpt lat="47.69427" lon="-3.38237">
        <ele>-0.82</ele>
        <time>2016-05-01T10:57:42Z</time>
      </trkpt>
      <trkpt lat="47.6945" lon="-3.3819">
        <ele>-0.34</ele>
        <time>2016-05-01T10:57:59Z</time>
      </trkpt>
      <trkpt lat="47.69472" lon="-3.38141">
        <ele>-0.34</ele>
        <time>2016-05-01T10:58:16Z</time>
      </trkpt>
      <trkpt lat="47.69491" lon="-3.38093">
        <ele>-0.34</ele>
        <time>2016-05-01T10:58:32Z</time>
      </trkpt>
      <trkpt lat="47.69506" lon="-3.38047">
        <ele>-0.82</ele>
        <time>2016-05-01T10:58:47Z</time>
      </trkpt>
      <trkpt lat="47.69518" lon="-3.37995">
        <ele>-0.82</ele>
        <time>2016-05-01T10:59:03Z</time>
      </trkpt>
      <trkpt lat="47.69532" lon="-3.37944">
        <ele>-0.34</ele>
        <time>2016-05-01T10:59:20Z</time>
      </trkpt>
      <trkpt lat="47.69541" lon="-3.37905">
        <ele>-0.34</ele>
        <time>2016-05-01T10:59:34Z</time>
      </trkpt>
      <trkpt lat="47.69553" lon="-3.37857">
        <ele>-0.34</ele>
        <time>2016-05-01T10:59:49Z</time>
      </trkpt>
      <trkpt lat="47.6957" lon="-3.37815">
        <ele>0.14</ele>
        <time>2016-05-01T11:00:03Z</time>
      </trkpt>
      <trkpt lat="47.69585" lon="-3.37775">
        <ele>0.62</ele>
        <time>2016-05-01T11:00:16Z</time>
      </trkpt>
      <trkpt lat="47.696" lon="-3.3773">
        <ele>0.14</ele>
        <time>2016-05-01T11:00:31Z</time>
      </trkpt>
      <trkpt lat="47.69621" lon="-3.37684">
        <ele>-0.34</ele>
        <time>2016-05-01T11:00:47Z</time>
      </trkpt>
      <trkpt lat="47.69638" lon="-3.37642">
        <ele>0.62</ele>
        <time>2016-05-01T11:01:01Z</time>
      </trkpt>
      <trkpt lat="47.69663" lon="-3.37605">
        <ele>0.62</ele>
        <time>2016-05-01T11:01:16Z</time>
      </trkpt>
      <trkpt lat="47.69686" lon="-3.3758">
        <ele>0.14</ele>
        <time>2016-05-01T11:01:28Z</time>
      </trkpt>
      <trkpt lat="47.69713" lon="-3.37551">
        <ele>0.62</ele>
        <time>2016-05-01T11:01:42Z</time>
      </trkpt>
      <trkpt lat="47.69746" lon="-3.37517">
        <ele>0.62</ele>
        <time>2016-05-01T11:01:59Z</time>
      </trkpt>
      <trkpt lat="47.69778" lon="-3.37486">
        <ele>0.14</ele>
        <time>2016-05-01T11:02:15Z</time>
      </trkpt>
      <trkpt lat="47.69806" lon="-3.37456">
        <ele>-1.3</ele>
        <time>2016-05-01T11:02:30Z</time>
      </trkpt>
      <trkpt lat="47.69833" lon="-3.37437">
        <ele>-0.82</ele>
        <time>2016-05-01T11:02:43Z</time>
      </trkpt>
      <trkpt lat="47.69868" lon="-3.37409">
        <ele>-0.34</ele>
        <time>2016-05-01T11:03:00Z</time>
      </trkpt>
      <trkpt lat="47.699" lon="-3.37383">
        <ele>0.14</ele>
        <time>2016-05-01T11:03:16Z</time>
      </trkpt>
      <trkpt lat="47.69939" lon="-3.37355">
        <ele>-0.34</ele>
        <time>2016-05-01T11:03:34Z</time>
      </trkpt>
      <trkpt lat="47.69978" lon="-3.37331">
        <ele>-0.34</ele>
        <time>2016-05-01T11:03:52Z</time>
      </trkpt>
      <trkpt lat="47.7001" lon="-3.37303">
        <ele>-1.3</ele>
        <time>2016-05-01T11:04:08Z</time>
      </trkpt>
      <trkpt lat="47.70041" lon="-3.37281">
        <ele>-2.27</ele>
        <time>2016-05-01T11:04:22Z</time>
      </trkpt>
      <trkpt lat="47.70071" lon="-3.37257">
        <ele>-2.75</ele>
        <time>2016-05-01T11:04:36Z</time>
      </trkpt>
      <trkpt lat="47.70084" lon="-3.37248">
        <ele>-3.23</ele>
        <time>2016-05-01T11:04:42Z</time>
      </trkpt>
      <trkpt lat="47.70114" lon="-3.37225">
        <ele>-2.27</ele>
        <time>2016-05-01T11:04:55Z</time>
      </trkpt>
      <trkpt lat="47.70141" lon="-3.372">
        <ele>-2.27</ele>
        <time>2016-05-01T11:05:09Z</time>
      </trkpt>
      <trkpt lat="47.70176" lon="-3.3717">
        <ele>-2.27</ele>
        <time>2016-05-01T11:05:26Z</time>
      </trkpt>
      <trkpt lat="47.70206" lon="-3.37148">
        <ele>-0.82</ele>
        <time>2016-05-01T11:05:40Z</time>
      </trkpt>
      <trkpt lat="47.70239" lon="-3.37125">
        <ele>0.14</ele>
        <time>2016-05-01T11:05:55Z</time>
      </trkpt>
      <trkpt lat="47.70268" lon="-3.37103">
        <ele>-1.79</ele>
        <time>2016-05-01T11:06:09Z</time>
      </trkpt>
      <trkpt lat="47.70299" lon="-3.37076">
        <ele>-2.27</ele>
        <time>2016-05-01T11:06:23Z</time>
      </trkpt>
      <trkpt lat="47.70318" lon="-3.37062">
        <ele>-3.23</ele>
        <time>2016-05-01T11:06:32Z</time>
      </trkpt>
      <trkpt lat="47.70353" lon="-3.37043">
        <ele>-3.23</ele>
        <time>2016-05-01T11:06:48Z</time>
      </trkpt>
      <trkpt lat="47.70383" lon="-3.37028">
        <ele>-2.27</ele>
        <time>2016-05-01T11:07:01Z</time>
      </trkpt>
      <trkpt lat="47.70416" lon="-3.37002">
        <ele>-2.75</ele>
        <time>2016-05-01T11:07:16Z</time>
      </trkpt>
      <trkpt lat="47.70443" lon="-3.36983">
        <ele>-3.71</ele>
        <time>2016-05-01T11:07:28Z</time>
      </trkpt>
      <trkpt lat="47.70471" lon="-3.36965">
        <ele>-6.11</ele>
        <time>2016-05-01T11:07:41Z</time>
      </trkpt>
      <trkpt lat="47.70496" lon="-3.3695">
        <ele>-5.63</ele>
        <time>2016-05-01T11:07:53Z</time>
      </trkpt>
      <trkpt lat="47.70527" lon="-3.36936">
        <ele>-4.67</ele>
        <time>2016-05-01T11:08:06Z</time>
      </trkpt>
      <trkpt lat="47.70556" lon="-3.36918">
        <ele>-3.71</ele>
        <time>2016-05-01T11:08:19Z</time>
      </trkpt>
      <trkpt lat="47.7059" lon="-3.36901">
        <ele>-5.15</ele>
        <time>2016-05-01T11:08:34Z</time>
      </trkpt>
      <trkpt lat="47.70615" lon="-3.36885">
        <ele>-6.59</ele>
        <time>2016-05-01T11:08:46Z</time>
      </trkpt>
      <trkpt lat="47.70643" lon="-3.3687">
        <ele>-7.07</ele>
        <time>2016-05-01T11:08:59Z</time>
      </trkpt>
      <trkpt lat="47.70681" lon="-3.36848">
        <ele>-5.63</ele>
        <time>2016-05-01T11:09:16Z</time>
      </trkpt>
      <trkpt lat="47.70706" lon="-3.36839">
        <ele>-3.71</ele>
        <time>2016-05-01T11:09:27Z</time>
      </trkpt>
      <trkpt lat="47.71912" lon="-3.35793">
        <ele>-3.71</ele>
        <time>2016-05-01T11:19:45Z</time>
      </trkpt>
      <trkpt lat="47.71949" lon="-3.3576">
        <ele>-0.82</ele>
        <time>2016-05-01T11:20:03Z</time>
      </trkpt>
      <trkpt lat="47.71993" lon="-3.35726">
        <ele>-1.3</ele>
        <time>2016-05-01T11:20:24Z</time>
      </trkpt>
      <trkpt lat="47.72035" lon="-3.35699">
        <ele>-2.75</ele>
        <time>2016-05-01T11:20:43Z</time>
      </trkpt>
      <trkpt lat="47.72066" lon="-3.35668">
        <ele>-1.3</ele>
        <time>2016-05-01T11:20:59Z</time>
      </trkpt>
      <trkpt lat="47.72095" lon="-3.35637">
        <ele>-1.79</ele>
        <time>2016-05-01T11:21:14Z</time>
      </trkpt>
      <trkpt lat="47.72125" lon="-3.35603">
        <ele>-4.19</ele>
        <time>2016-05-01T11:21:30Z</time>
      </trkpt>
      <trkpt lat="47.72145" lon="-3.35579">
        <ele>-4.67</ele>
        <time>2016-05-01T11:21:40Z</time>
      </trkpt>
      <trkpt lat="47.72169" lon="-3.3555">
        <ele>-3.23</ele>
        <time>2016-05-01T11:21:53Z</time>
      </trkpt>
      <trkpt lat="47.72201" lon="-3.35521">
        <ele>-3.71</ele>
        <time>2016-05-01T11:22:09Z</time>
      </trkpt>
      <trkpt lat="47.72224" lon="-3.355">
        <ele>-2.27</ele>
        <time>2016-05-01T11:22:20Z</time>
      </trkpt>
      <trkpt lat="47.72262" lon="-3.35468">
        <ele>-3.23</ele>
        <time>2016-05-01T11:22:38Z</time>
      </trkpt>
      <trkpt lat="47.72309" lon="-3.3544">
        <ele>-3.23</ele>
        <time>2016-05-01T11:22:59Z</time>
      </trkpt>
      <trkpt lat="47.72349" lon="-3.35414">
        <ele>-1.3</ele>
        <time>2016-05-01T11:23:17Z</time>
      </trkpt>
      <trkpt lat="47.72385" lon="-3.35385">
        <ele>-1.3</ele>
        <time>2016-05-01T11:23:34Z</time>
      </trkpt>
      <trkpt lat="47.72429" lon="-3.35356">
        <ele>-0.82</ele>
        <time>2016-05-01T11:23:54Z</time>
      </trkpt>
      <trkpt lat="47.72462" lon="-3.35328">
        <ele>-1.3</ele>
        <time>2016-05-01T11:24:10Z</time>
      </trkpt>
      <trkpt lat="47.72489" lon="-3.35304">
        <ele>-1.79</ele>
        <time>2016-05-01T11:24:23Z</time>
      </trkpt>
      <trkpt lat="47.72527" lon="-3.35271">
        <ele>-3.23</ele>
        <time>2016-05-01T11:24:42Z</time>
      </trkpt>
      <trkpt lat="47.72529" lon="-3.35269">
        <ele>-3.23</ele>
        <time>2016-05-01T11:24:43Z</time>
      </trkpt>
      <trkpt lat="47.72554" lon="-3.35251">
        <ele>-4.19</ele>
        <time>2016-05-01T11:24:54Z</time>
      </trkpt>
      <trkpt lat="47.72594" lon="-3.35218">
        <ele>-1.3</ele>
        <time>2016-05-01T11:25:17Z</time>
      </trkpt>
      <trkpt lat="47.72641" lon="-3.3517">
        <ele>-0.82</ele>
        <time>2016-05-01T11:25:49Z</time>
      </trkpt>
      <trkpt lat="47.72668" lon="-3.35127">
        <ele>-0.82</ele>
        <time>2016-05-01T11:26:16Z</time>
      </trkpt>
      <trkpt lat="47.72677" lon="-3.35088">
        <ele>-0.34</ele>
        <time>2016-05-01T11:26:43Z</time>
      </trkpt>
      <trkpt lat="47.72678" lon="-3.3504">
        <ele>0.14</ele>
        <time>2016-05-01T11:27:13Z</time>
      </trkpt>
      <trkpt lat="47.72678" lon="-3.34984">
        <ele>1.1</ele>
        <time>2016-05-01T11:27:44Z</time>
      </trkpt>
      <trkpt lat="47.7268" lon="-3.34926">
        <ele>0.62</ele>
        <time>2016-05-01T11:28:13Z</time>
      </trkpt>
      <trkpt lat="47.72673" lon="-3.34879">
        <ele>0.14</ele>
        <time>2016-05-01T11:28:40Z</time>
      </trkpt>
      <trkpt lat="47.72655" lon="-3.34888">
        <ele>-1.3</ele>
        <time>2016-05-01T11:29:07Z</time>
      </trkpt>
      <trkpt lat="47.72653" lon="-3.34908">
        <ele>-0.34</ele>
        <time>2016-05-01T11:29:34Z</time>
      </trkpt>
      <trkpt lat="47.72656" lon="-3.34913">
        <ele>-0.34</ele>
        <time>2016-05-01T11:29:59Z</time>
      </trkpt>
      <trkpt lat="47.72659" lon="-3.34916">
        <ele>-0.82</ele>
        <time>2016-05-01T11:30:29Z</time>
      </trkpt>
      <trkpt lat="47.7266" lon="-3.34917">
        <ele>-0.82</ele>
        <time>2016-05-01T11:31:00Z</time>
      </trkpt>
      <trkpt lat="47.72661" lon="-3.34917">
        <ele>0.14</ele>
        <time>2016-05-01T11:31:25Z</time>
      </trkpt>
      <trkpt lat="47.72662" lon="-3.34918">
        <ele>0.14</ele>
        <time>2016-05-01T11:31:55Z</time>
      </trkpt>
      <trkpt lat="47.72662" lon="-3.34917">
        <ele>0.62</ele>
        <time>2016-05-01T11:32:26Z</time>
      </trkpt>
      <trkpt lat="47.72662" lon="-3.34917">
        <ele>1.1</ele>
        <time>2016-05-01T11:32:51Z</time>
      </trkpt>
      <trkpt lat="47.72661" lon="-3.34917">
        <ele>1.1</ele>
        <time>2016-05-01T11:33:21Z</time>
      </trkpt>
      <trkpt lat="47.72661" lon="-3.34918">
        <ele>1.1</ele>
        <time>2016-05-01T11:33:48Z</time>
      </trkpt>
      <trkpt lat="47.72661" lon="-3.34919">
        <ele>1.1</ele>
        <time>2016-05-01T11:34:19Z</time>
      </trkpt>
      <trkpt lat="47.72661" lon="-3.3492">
        <ele>1.58</ele>
        <time>2016-05-01T11:34:50Z</time>
      </trkpt>
      <trkpt lat="47.72661" lon="-3.34919">
        <ele>1.58</ele>
        <time>2016-05-01T11:35:20Z</time>
      </trkpt>
      <trkpt lat="47.7266" lon="-3.34919">
        <ele>1.58</ele>
        <time>2016-05-01T11:35:49Z</time>
      </trkpt>
      <trkpt lat="47.7266" lon="-3.34919">
        <ele>1.58</ele>
        <time>2016-05-01T11:36:18Z</time>
      </trkpt>
      <trkpt lat="47.72659" lon="-3.34919">
        <ele>2.06</ele>
        <time>2016-05-01T11:36:49Z</time>
      </trkpt>
      <trkpt lat="47.72659" lon="-3.34919">
        <ele>2.06</ele>
        <time>2016-05-01T11:37:13Z</time>
      </trkpt>
      <trkpt lat="47.7266" lon="-3.34919">
        <ele>1.58</ele>
        <time>2016-05-01T11:37:29Z</time>
      </trkpt>
      <trkpt lat="47.72661" lon="-3.34918">
        <ele>0.62</ele>
        <time>2016-05-01T11:37:50Z</time>
      </trkpt>
      <trkpt lat="47.72661" lon="-3.34918">
        <ele>0.62</ele>
        <time>2016-05-01T11:37:57Z</time>
      </trkpt>
    </trkseg>
  </trk>
  <trk>
    <name><![CDATA[Tracé actuel: 22 MAI 2016 09:52]]></name>
    <trkseg>
  </trk>
</gpx>